<?xml version="1.0" encoding="UTF-8"?><gpx version="1.1" xmlns:xsd="http://www.w3.org/2001/XMLSchema" xmlns:xsi="http://www.w3.org/2001/XMLSchema-instance" creator="Magellan, Inc. All Rights Reserved. http://www.magellangps.com" xsi:schemaLocation="http://www.topografix.com/GPX/1/1 http://www.topografix.com/GPX/1/1/gpx.xsd http://www.magellangps.com/mgnext/0/2 http://www.magellangps.com/mgnext/0/2/mgn.xsd http://www.groundspeak.com/cache/1/0 http://www.groundspeak.com/cache/1/0/cache.xsd" xmlns="http://www.topografix.com/GPX/1/1">
<trk>
    <name>jackrabit trail</name>
    <desc></desc>
    <extensions>
      <mgn:extensions xmlns:mgn="http://www.magellangps.com/mgnext/0/2">
        <mgn:difficulty>1</mgn:difficulty>
        <mgn:uuid>d7a0edc0-43c2-472e-a7ba-f9d120e3df8c</mgn:uuid>
        <mgn:proplist>
          <mgn:prop key="Vehicle">3860</mgn:prop>
          <mgn:prop key="WD">Some</mgn:prop>
          <mgn:prop key="LO">Some</mgn:prop>
          <mgn:prop key="DIRT">Loose;</mgn:prop>
          <mgn:prop key="T_MUD"></mgn:prop>
          <mgn:prop key="T_SAND">0-6N</mgn:prop>
          <mgn:prop key="T_SNOW"></mgn:prop>
          <mgn:prop key="T_ROCK"></mgn:prop>
          <mgn:prop key="T_WATER"></mgn:prop>
          <mgn:prop key="PITCH">20-30</mgn:prop>
          <mgn:prop key="ROLL">20-30</mgn:prop>
          <mgn:prop key="MAGELLAN_OFFROAD_KEY">0</mgn:prop>
          <mgn:prop key="Author">NotARubicon</mgn:prop>
          <mgn:prop key="InstagramUpdate">True</mgn:prop>
          <mgn:prop key="MaxElevation">1143</mgn:prop>
          <mgn:prop key="MinElevation">762</mgn:prop>
          <mgn:prop key="ElevationChange">47.30078</mgn:prop>
          <mgn:prop key="RecordedTime">11794</mgn:prop>
          <mgn:prop key="Length">45465.719</mgn:prop>
        </mgn:proplist>
      </mgn:extensions>
    </extensions>

    <trkseg>
      <trkpt lat="34.729621" lon="-117.325586">
        <ele>762.898438</ele>
        <time>2018-01-27T17:54:24Z</time>
      </trkpt>
      <trkpt lat="34.729622" lon="-117.325396">
        <ele>763.398438</ele>
        <time>2018-01-27T17:54:32Z</time>
      </trkpt>
      <trkpt lat="34.729638" lon="-117.325279">
        <ele>764.000000</ele>
        <time>2018-01-27T17:54:36Z</time>
      </trkpt>
      <trkpt lat="34.729635" lon="-117.325245">
        <ele>764.296875</ele>
        <time>2018-01-27T17:54:39Z</time>
      </trkpt>
      <trkpt lat="34.729572" lon="-117.325152">
        <ele>764.597656</ele>
        <time>2018-01-27T17:54:40Z</time>
      </trkpt>
      <trkpt lat="34.729543" lon="-117.325127">
        <ele>765.000000</ele>
        <time>2018-01-27T17:54:42Z</time>
      </trkpt>
      <trkpt lat="34.729389" lon="-117.324986">
        <ele>765.898438</ele>
        <time>2018-01-27T17:54:47Z</time>
      </trkpt>
      <trkpt lat="34.729365" lon="-117.324955">
        <ele>766.597656</ele>
        <time>2018-01-27T17:54:49Z</time>
      </trkpt>
      <trkpt lat="34.729321" lon="-117.324883">
        <ele>766.796875</ele>
        <time>2018-01-27T17:54:50Z</time>
      </trkpt>
      <trkpt lat="34.729253" lon="-117.324763">
        <ele>767.398438</ele>
        <time>2018-01-27T17:54:53Z</time>
      </trkpt>
      <trkpt lat="34.729222" lon="-117.324724">
        <ele>767.699219</ele>
        <time>2018-01-27T17:54:55Z</time>
      </trkpt>
      <trkpt lat="34.729066" lon="-117.324531">
        <ele>768.398438</ele>
        <time>2018-01-27T17:54:59Z</time>
      </trkpt>
      <trkpt lat="34.729043" lon="-117.324491">
        <ele>768.597656</ele>
        <time>2018-01-27T17:55:01Z</time>
      </trkpt>
      <trkpt lat="34.729011" lon="-117.324414">
        <ele>768.796875</ele>
        <time>2018-01-27T17:55:02Z</time>
      </trkpt>
      <trkpt lat="34.728995" lon="-117.324375">
        <ele>769.398438</ele>
        <time>2018-01-27T17:55:04Z</time>
      </trkpt>
      <trkpt lat="34.728956" lon="-117.324303">
        <ele>769.296875</ele>
        <time>2018-01-27T17:55:05Z</time>
      </trkpt>
      <trkpt lat="34.728865" lon="-117.324161">
        <ele>769.796875</ele>
        <time>2018-01-27T17:55:12Z</time>
      </trkpt>
      <trkpt lat="34.728848" lon="-117.324141">
        <ele>770.199219</ele>
        <time>2018-01-27T17:55:15Z</time>
      </trkpt>
      <trkpt lat="34.728791" lon="-117.32406">
        <ele>770.000000</ele>
        <time>2018-01-27T17:55:16Z</time>
      </trkpt>
      <trkpt lat="34.728772" lon="-117.324027">
        <ele>769.699219</ele>
        <time>2018-01-27T17:55:18Z</time>
      </trkpt>
      <trkpt lat="34.728734" lon="-117.323952">
        <ele>770.097656</ele>
        <time>2018-01-27T17:55:19Z</time>
      </trkpt>
      <trkpt lat="34.728717" lon="-117.32391">
        <ele>770.796875</ele>
        <time>2018-01-27T17:55:21Z</time>
      </trkpt>
      <trkpt lat="34.728697" lon="-117.323816">
        <ele>770.699219</ele>
        <time>2018-01-27T17:55:22Z</time>
      </trkpt>
      <trkpt lat="34.728666" lon="-117.323609">
        <ele>771.898438</ele>
        <time>2018-01-27T17:55:27Z</time>
      </trkpt>
      <trkpt lat="34.728639" lon="-117.323432">
        <ele>773.398438</ele>
        <time>2018-01-27T17:55:31Z</time>
      </trkpt>
      <trkpt lat="34.728626" lon="-117.32339">
        <ele>773.898438</ele>
        <time>2018-01-27T17:55:33Z</time>
      </trkpt>
      <trkpt lat="34.728592" lon="-117.323309">
        <ele>774.097656</ele>
        <time>2018-01-27T17:55:34Z</time>
      </trkpt>
      <trkpt lat="34.728517" lon="-117.323141">
        <ele>774.199219</ele>
        <time>2018-01-27T17:55:38Z</time>
      </trkpt>
      <trkpt lat="34.728495" lon="-117.323101">
        <ele>774.597656</ele>
        <time>2018-01-27T17:55:40Z</time>
      </trkpt>
      <trkpt lat="34.728457" lon="-117.323012">
        <ele>774.796875</ele>
        <time>2018-01-27T17:55:41Z</time>
      </trkpt>
      <trkpt lat="34.728441" lon="-117.32296">
        <ele>774.898438</ele>
        <time>2018-01-27T17:55:42Z</time>
      </trkpt>
      <trkpt lat="34.728424" lon="-117.322904">
        <ele>775.000000</ele>
        <time>2018-01-27T17:55:43Z</time>
      </trkpt>
      <trkpt lat="34.728413" lon="-117.322843">
        <ele>775.199219</ele>
        <time>2018-01-27T17:55:44Z</time>
      </trkpt>
      <trkpt lat="34.728385" lon="-117.32259">
        <ele>775.796875</ele>
        <time>2018-01-27T17:55:48Z</time>
      </trkpt>
      <trkpt lat="34.728382" lon="-117.322534">
        <ele>776.398438</ele>
        <time>2018-01-27T17:55:50Z</time>
      </trkpt>
      <trkpt lat="34.728393" lon="-117.322434">
        <ele>776.699219</ele>
        <time>2018-01-27T17:55:51Z</time>
      </trkpt>
      <trkpt lat="34.728417" lon="-117.322288">
        <ele>777.796875</ele>
        <time>2018-01-27T17:55:54Z</time>
      </trkpt>
      <trkpt lat="34.728453" lon="-117.322129">
        <ele>778.296875</ele>
        <time>2018-01-27T17:55:57Z</time>
      </trkpt>
      <trkpt lat="34.728472" lon="-117.322073">
        <ele>778.500000</ele>
        <time>2018-01-27T17:55:58Z</time>
      </trkpt>
      <trkpt lat="34.728525" lon="-117.321902">
        <ele>779.597656</ele>
        <time>2018-01-27T17:56:01Z</time>
      </trkpt>
      <trkpt lat="34.728622" lon="-117.321561">
        <ele>780.500000</ele>
        <time>2018-01-27T17:56:08Z</time>
      </trkpt>
      <trkpt lat="34.728697" lon="-117.321199">
        <ele>781.500000</ele>
        <time>2018-01-27T17:56:15Z</time>
      </trkpt>
      <trkpt lat="34.728703" lon="-117.321141">
        <ele>781.597656</ele>
        <time>2018-01-27T17:56:16Z</time>
      </trkpt>
      <trkpt lat="34.728717" lon="-117.32085">
        <ele>782.699219</ele>
        <time>2018-01-27T17:56:21Z</time>
      </trkpt>
      <trkpt lat="34.728712" lon="-117.320739">
        <ele>783.097656</ele>
        <time>2018-01-27T17:56:23Z</time>
      </trkpt>
      <trkpt lat="34.728688" lon="-117.320554">
        <ele>783.597656</ele>
        <time>2018-01-27T17:56:27Z</time>
      </trkpt>
      <trkpt lat="34.728687" lon="-117.320522">
        <ele>783.597656</ele>
        <time>2018-01-27T17:56:30Z</time>
      </trkpt>
      <trkpt lat="34.728684" lon="-117.320387">
        <ele>783.699219</ele>
        <time>2018-01-27T17:56:32Z</time>
      </trkpt>
      <trkpt lat="34.72869" lon="-117.320348">
        <ele>783.796875</ele>
        <time>2018-01-27T17:56:34Z</time>
      </trkpt>
      <trkpt lat="34.72872" lon="-117.320151">
        <ele>784.398438</ele>
        <time>2018-01-27T17:56:37Z</time>
      </trkpt>
      <trkpt lat="34.728731" lon="-117.319943">
        <ele>784.597656</ele>
        <time>2018-01-27T17:56:41Z</time>
      </trkpt>
      <trkpt lat="34.728739" lon="-117.319908">
        <ele>784.199219</ele>
        <time>2018-01-27T17:56:44Z</time>
      </trkpt>
      <trkpt lat="34.728743" lon="-117.319798">
        <ele>784.097656</ele>
        <time>2018-01-27T17:56:45Z</time>
      </trkpt>
      <trkpt lat="34.728739" lon="-117.319756">
        <ele>784.296875</ele>
        <time>2018-01-27T17:56:47Z</time>
      </trkpt>
      <trkpt lat="34.728728" lon="-117.319611">
        <ele>784.796875</ele>
        <time>2018-01-27T17:56:49Z</time>
      </trkpt>
      <trkpt lat="34.728727" lon="-117.319557">
        <ele>785.296875</ele>
        <time>2018-01-27T17:56:51Z</time>
      </trkpt>
      <trkpt lat="34.728742" lon="-117.319446">
        <ele>785.500000</ele>
        <time>2018-01-27T17:56:52Z</time>
      </trkpt>
      <trkpt lat="34.728755" lon="-117.319389">
        <ele>785.699219</ele>
        <time>2018-01-27T17:56:53Z</time>
      </trkpt>
      <trkpt lat="34.728771" lon="-117.319331">
        <ele>785.898438</ele>
        <time>2018-01-27T17:56:54Z</time>
      </trkpt>
      <trkpt lat="34.728894" lon="-117.31895">
        <ele>787.000000</ele>
        <time>2018-01-27T17:57:01Z</time>
      </trkpt>
      <trkpt lat="34.728903" lon="-117.318892">
        <ele>787.097656</ele>
        <time>2018-01-27T17:57:02Z</time>
      </trkpt>
      <trkpt lat="34.728905" lon="-117.318833">
        <ele>787.097656</ele>
        <time>2018-01-27T17:57:03Z</time>
      </trkpt>
      <trkpt lat="34.728902" lon="-117.318487">
        <ele>789.000000</ele>
        <time>2018-01-27T17:57:11Z</time>
      </trkpt>
      <trkpt lat="34.728899" lon="-117.318445">
        <ele>789.398438</ele>
        <time>2018-01-27T17:57:13Z</time>
      </trkpt>
      <trkpt lat="34.728886" lon="-117.318358">
        <ele>789.500000</ele>
        <time>2018-01-27T17:57:14Z</time>
      </trkpt>
      <trkpt lat="34.728873" lon="-117.318316">
        <ele>790.398438</ele>
        <time>2018-01-27T17:57:16Z</time>
      </trkpt>
      <trkpt lat="34.728847" lon="-117.318237">
        <ele>790.699219</ele>
        <time>2018-01-27T17:57:17Z</time>
      </trkpt>
      <trkpt lat="34.72883" lon="-117.318196">
        <ele>790.398438</ele>
        <time>2018-01-27T17:57:19Z</time>
      </trkpt>
      <trkpt lat="34.728723" lon="-117.317968">
        <ele>790.796875</ele>
        <time>2018-01-27T17:57:23Z</time>
      </trkpt>
      <trkpt lat="34.728708" lon="-117.317915">
        <ele>792.097656</ele>
        <time>2018-01-27T17:57:25Z</time>
      </trkpt>
      <trkpt lat="34.728684" lon="-117.317826">
        <ele>792.097656</ele>
        <time>2018-01-27T17:57:26Z</time>
      </trkpt>
      <trkpt lat="34.728676" lon="-117.317786">
        <ele>792.097656</ele>
        <time>2018-01-27T17:57:28Z</time>
      </trkpt>
      <trkpt lat="34.728649" lon="-117.317708">
        <ele>792.199219</ele>
        <time>2018-01-27T17:57:29Z</time>
      </trkpt>
      <trkpt lat="34.728463" lon="-117.317218">
        <ele>794.199219</ele>
        <time>2018-01-27T17:57:38Z</time>
      </trkpt>
      <trkpt lat="34.728387" lon="-117.316959">
        <ele>795.097656</ele>
        <time>2018-01-27T17:57:42Z</time>
      </trkpt>
      <trkpt lat="34.728363" lon="-117.316896">
        <ele>795.097656</ele>
        <time>2018-01-27T17:57:43Z</time>
      </trkpt>
      <trkpt lat="34.728336" lon="-117.316836">
        <ele>795.296875</ele>
        <time>2018-01-27T17:57:44Z</time>
      </trkpt>
      <trkpt lat="34.728302" lon="-117.316783">
        <ele>795.597656</ele>
        <time>2018-01-27T17:57:45Z</time>
      </trkpt>
      <trkpt lat="34.728263" lon="-117.316732">
        <ele>795.796875</ele>
        <time>2018-01-27T17:57:46Z</time>
      </trkpt>
      <trkpt lat="34.728189" lon="-117.316638">
        <ele>796.296875</ele>
        <time>2018-01-27T17:57:48Z</time>
      </trkpt>
      <trkpt lat="34.728157" lon="-117.316602">
        <ele>796.796875</ele>
        <time>2018-01-27T17:57:50Z</time>
      </trkpt>
      <trkpt lat="34.728102" lon="-117.31655">
        <ele>797.000000</ele>
        <time>2018-01-27T17:57:51Z</time>
      </trkpt>
      <trkpt lat="34.728076" lon="-117.316528">
        <ele>797.699219</ele>
        <time>2018-01-27T17:57:53Z</time>
      </trkpt>
      <trkpt lat="34.727807" lon="-117.316286">
        <ele>799.199219</ele>
        <time>2018-01-27T17:58:00Z</time>
      </trkpt>
      <trkpt lat="34.727635" lon="-117.316107">
        <ele>800.296875</ele>
        <time>2018-01-27T17:58:10Z</time>
      </trkpt>
      <trkpt lat="34.727628" lon="-117.316099">
        <ele>800.597656</ele>
        <time>2018-01-27T17:58:18Z</time>
      </trkpt>
      <trkpt lat="34.727538" lon="-117.315978">
        <ele>800.296875</ele>
        <time>2018-01-27T17:58:24Z</time>
      </trkpt>
      <trkpt lat="34.727533" lon="-117.315969">
        <ele>800.898438</ele>
        <time>2018-01-27T17:58:29Z</time>
      </trkpt>
      <trkpt lat="34.727474" lon="-117.315866">
        <ele>801.000000</ele>
        <time>2018-01-27T17:58:30Z</time>
      </trkpt>
      <trkpt lat="34.727456" lon="-117.31583">
        <ele>801.296875</ele>
        <time>2018-01-27T17:58:32Z</time>
      </trkpt>
      <trkpt lat="34.72742" lon="-117.315744">
        <ele>801.296875</ele>
        <time>2018-01-27T17:58:33Z</time>
      </trkpt>
      <trkpt lat="34.727326" lon="-117.315551">
        <ele>801.500000</ele>
        <time>2018-01-27T17:58:37Z</time>
      </trkpt>
      <trkpt lat="34.727112" lon="-117.315116">
        <ele>802.796875</ele>
        <time>2018-01-27T17:58:46Z</time>
      </trkpt>
      <trkpt lat="34.727091" lon="-117.315062">
        <ele>803.000000</ele>
        <time>2018-01-27T17:58:47Z</time>
      </trkpt>
      <trkpt lat="34.727003" lon="-117.314776">
        <ele>804.398438</ele>
        <time>2018-01-27T17:58:51Z</time>
      </trkpt>
      <trkpt lat="34.726933" lon="-117.314517">
        <ele>805.500000</ele>
        <time>2018-01-27T17:58:54Z</time>
      </trkpt>
      <trkpt lat="34.726897" lon="-117.314331">
        <ele>806.500000</ele>
        <time>2018-01-27T17:58:56Z</time>
      </trkpt>
      <trkpt lat="34.726808" lon="-117.313763">
        <ele>809.296875</ele>
        <time>2018-01-27T17:59:02Z</time>
      </trkpt>
      <trkpt lat="34.726781" lon="-117.313672">
        <ele>809.500000</ele>
        <time>2018-01-27T17:59:03Z</time>
      </trkpt>
      <trkpt lat="34.726744" lon="-117.313585">
        <ele>810.000000</ele>
        <time>2018-01-27T17:59:04Z</time>
      </trkpt>
      <trkpt lat="34.726697" lon="-117.313507">
        <ele>810.199219</ele>
        <time>2018-01-27T17:59:05Z</time>
      </trkpt>
      <trkpt lat="34.726641" lon="-117.313436">
        <ele>810.699219</ele>
        <time>2018-01-27T17:59:06Z</time>
      </trkpt>
      <trkpt lat="34.726529" lon="-117.313293">
        <ele>811.398438</ele>
        <time>2018-01-27T17:59:08Z</time>
      </trkpt>
      <trkpt lat="34.72648" lon="-117.313214">
        <ele>811.296875</ele>
        <time>2018-01-27T17:59:09Z</time>
      </trkpt>
      <trkpt lat="34.726436" lon="-117.31313">
        <ele>811.398438</ele>
        <time>2018-01-27T17:59:10Z</time>
      </trkpt>
      <trkpt lat="34.726402" lon="-117.313048">
        <ele>811.796875</ele>
        <time>2018-01-27T17:59:11Z</time>
      </trkpt>
      <trkpt lat="34.726379" lon="-117.312973">
        <ele>812.199219</ele>
        <time>2018-01-27T17:59:12Z</time>
      </trkpt>
      <trkpt lat="34.726351" lon="-117.312857">
        <ele>812.699219</ele>
        <time>2018-01-27T17:59:14Z</time>
      </trkpt>
      <trkpt lat="34.726343" lon="-117.312814">
        <ele>814.097656</ele>
        <time>2018-01-27T17:59:35Z</time>
      </trkpt>
      <trkpt lat="34.726321" lon="-117.312741">
        <ele>814.398438</ele>
        <time>2018-01-27T17:59:36Z</time>
      </trkpt>
      <trkpt lat="34.726305" lon="-117.312706">
        <ele>814.699219</ele>
        <time>2018-01-27T17:59:38Z</time>
      </trkpt>
      <trkpt lat="34.7261" lon="-117.312271">
        <ele>815.398438</ele>
        <time>2018-01-27T17:59:45Z</time>
      </trkpt>
      <trkpt lat="34.726032" lon="-117.312156">
        <ele>816.199219</ele>
        <time>2018-01-27T17:59:47Z</time>
      </trkpt>
      <trkpt lat="34.725993" lon="-117.312098">
        <ele>816.398438</ele>
        <time>2018-01-27T17:59:48Z</time>
      </trkpt>
      <trkpt lat="34.725903" lon="-117.311984">
        <ele>816.796875</ele>
        <time>2018-01-27T17:59:50Z</time>
      </trkpt>
      <trkpt lat="34.725439" lon="-117.311455">
        <ele>817.898438</ele>
        <time>2018-01-27T17:59:59Z</time>
      </trkpt>
      <trkpt lat="34.72524" lon="-117.311122">
        <ele>817.796875</ele>
        <time>2018-01-27T18:00:04Z</time>
      </trkpt>
      <trkpt lat="34.725208" lon="-117.311055">
        <ele>817.699219</ele>
        <time>2018-01-27T18:00:05Z</time>
      </trkpt>
      <trkpt lat="34.72518" lon="-117.310987">
        <ele>817.898438</ele>
        <time>2018-01-27T18:00:06Z</time>
      </trkpt>
      <trkpt lat="34.725156" lon="-117.310918">
        <ele>818.000000</ele>
        <time>2018-01-27T18:00:07Z</time>
      </trkpt>
      <trkpt lat="34.725135" lon="-117.310848">
        <ele>818.199219</ele>
        <time>2018-01-27T18:00:08Z</time>
      </trkpt>
      <trkpt lat="34.725118" lon="-117.310778">
        <ele>818.398438</ele>
        <time>2018-01-27T18:00:09Z</time>
      </trkpt>
      <trkpt lat="34.725107" lon="-117.31071">
        <ele>818.398438</ele>
        <time>2018-01-27T18:00:10Z</time>
      </trkpt>
      <trkpt lat="34.725102" lon="-117.310643">
        <ele>818.597656</ele>
        <time>2018-01-27T18:00:11Z</time>
      </trkpt>
      <trkpt lat="34.725102" lon="-117.310577">
        <ele>819.000000</ele>
        <time>2018-01-27T18:00:12Z</time>
      </trkpt>
      <trkpt lat="34.725105" lon="-117.31051">
        <ele>819.398438</ele>
        <time>2018-01-27T18:00:13Z</time>
      </trkpt>
      <trkpt lat="34.725112" lon="-117.31044">
        <ele>819.597656</ele>
        <time>2018-01-27T18:00:14Z</time>
      </trkpt>
      <trkpt lat="34.725125" lon="-117.31037">
        <ele>819.898438</ele>
        <time>2018-01-27T18:00:15Z</time>
      </trkpt>
      <trkpt lat="34.725142" lon="-117.310301">
        <ele>820.199219</ele>
        <time>2018-01-27T18:00:16Z</time>
      </trkpt>
      <trkpt lat="34.725163" lon="-117.310232">
        <ele>820.500000</ele>
        <time>2018-01-27T18:00:17Z</time>
      </trkpt>
      <trkpt lat="34.725188" lon="-117.310162">
        <ele>820.796875</ele>
        <time>2018-01-27T18:00:18Z</time>
      </trkpt>
      <trkpt lat="34.725218" lon="-117.310093">
        <ele>821.000000</ele>
        <time>2018-01-27T18:00:19Z</time>
      </trkpt>
      <trkpt lat="34.725254" lon="-117.310027">
        <ele>821.199219</ele>
        <time>2018-01-27T18:00:20Z</time>
      </trkpt>
      <trkpt lat="34.725294" lon="-117.309963">
        <ele>821.597656</ele>
        <time>2018-01-27T18:00:21Z</time>
      </trkpt>
      <trkpt lat="34.725384" lon="-117.309841">
        <ele>822.000000</ele>
        <time>2018-01-27T18:00:23Z</time>
      </trkpt>
      <trkpt lat="34.725433" lon="-117.309784">
        <ele>822.199219</ele>
        <time>2018-01-27T18:00:24Z</time>
      </trkpt>
      <trkpt lat="34.725484" lon="-117.309732">
        <ele>822.199219</ele>
        <time>2018-01-27T18:00:25Z</time>
      </trkpt>
      <trkpt lat="34.725537" lon="-117.309684">
        <ele>822.296875</ele>
        <time>2018-01-27T18:00:26Z</time>
      </trkpt>
      <trkpt lat="34.725643" lon="-117.309595">
        <ele>822.898438</ele>
        <time>2018-01-27T18:00:28Z</time>
      </trkpt>
      <trkpt lat="34.725687" lon="-117.309542">
        <ele>823.000000</ele>
        <time>2018-01-27T18:00:29Z</time>
      </trkpt>
      <trkpt lat="34.725716" lon="-117.30948">
        <ele>823.398438</ele>
        <time>2018-01-27T18:00:30Z</time>
      </trkpt>
      <trkpt lat="34.725732" lon="-117.309413">
        <ele>823.597656</ele>
        <time>2018-01-27T18:00:31Z</time>
      </trkpt>
      <trkpt lat="34.725731" lon="-117.309346">
        <ele>823.597656</ele>
        <time>2018-01-27T18:00:32Z</time>
      </trkpt>
      <trkpt lat="34.725717" lon="-117.309281">
        <ele>823.699219</ele>
        <time>2018-01-27T18:00:33Z</time>
      </trkpt>
      <trkpt lat="34.725696" lon="-117.309219">
        <ele>823.699219</ele>
        <time>2018-01-27T18:00:34Z</time>
      </trkpt>
      <trkpt lat="34.725561" lon="-117.308855">
        <ele>824.199219</ele>
        <time>2018-01-27T18:00:40Z</time>
      </trkpt>
      <trkpt lat="34.725531" lon="-117.308801">
        <ele>824.597656</ele>
        <time>2018-01-27T18:00:41Z</time>
      </trkpt>
      <trkpt lat="34.725496" lon="-117.30875">
        <ele>824.796875</ele>
        <time>2018-01-27T18:00:42Z</time>
      </trkpt>
      <trkpt lat="34.725421" lon="-117.308654">
        <ele>825.199219</ele>
        <time>2018-01-27T18:00:44Z</time>
      </trkpt>
      <trkpt lat="34.725288" lon="-117.308512">
        <ele>826.000000</ele>
        <time>2018-01-27T18:00:47Z</time>
      </trkpt>
      <trkpt lat="34.724958" lon="-117.308191">
        <ele>827.796875</ele>
        <time>2018-01-27T18:00:54Z</time>
      </trkpt>
      <trkpt lat="34.724924" lon="-117.308134">
        <ele>828.199219</ele>
        <time>2018-01-27T18:00:55Z</time>
      </trkpt>
      <trkpt lat="34.724898" lon="-117.308071">
        <ele>828.699219</ele>
        <time>2018-01-27T18:00:56Z</time>
      </trkpt>
      <trkpt lat="34.724878" lon="-117.308004">
        <ele>828.597656</ele>
        <time>2018-01-27T18:00:57Z</time>
      </trkpt>
      <trkpt lat="34.724864" lon="-117.307936">
        <ele>828.398438</ele>
        <time>2018-01-27T18:00:58Z</time>
      </trkpt>
      <trkpt lat="34.724856" lon="-117.307864">
        <ele>828.699219</ele>
        <time>2018-01-27T18:00:59Z</time>
      </trkpt>
      <trkpt lat="34.724791" lon="-117.307287">
        <ele>830.097656</ele>
        <time>2018-01-27T18:01:07Z</time>
      </trkpt>
      <trkpt lat="34.724791" lon="-117.307239">
        <ele>830.500000</ele>
        <time>2018-01-27T18:01:09Z</time>
      </trkpt>
      <trkpt lat="34.724801" lon="-117.307139">
        <ele>830.796875</ele>
        <time>2018-01-27T18:01:10Z</time>
      </trkpt>
      <trkpt lat="34.724909" lon="-117.306227">
        <ele>833.796875</ele>
        <time>2018-01-27T18:01:23Z</time>
      </trkpt>
      <trkpt lat="34.724905" lon="-117.305852">
        <ele>834.500000</ele>
        <time>2018-01-27T18:01:28Z</time>
      </trkpt>
      <trkpt lat="34.724879" lon="-117.305632">
        <ele>835.097656</ele>
        <time>2018-01-27T18:01:31Z</time>
      </trkpt>
      <trkpt lat="34.724826" lon="-117.305345">
        <ele>836.000000</ele>
        <time>2018-01-27T18:01:35Z</time>
      </trkpt>
      <trkpt lat="34.724788" lon="-117.305212">
        <ele>836.296875</ele>
        <time>2018-01-27T18:01:37Z</time>
      </trkpt>
      <trkpt lat="34.724738" lon="-117.305086">
        <ele>836.796875</ele>
        <time>2018-01-27T18:01:39Z</time>
      </trkpt>
      <trkpt lat="34.724709" lon="-117.305025">
        <ele>837.000000</ele>
        <time>2018-01-27T18:01:40Z</time>
      </trkpt>
      <trkpt lat="34.724676" lon="-117.304968">
        <ele>837.199219</ele>
        <time>2018-01-27T18:01:41Z</time>
      </trkpt>
      <trkpt lat="34.724639" lon="-117.304917">
        <ele>837.500000</ele>
        <time>2018-01-27T18:01:42Z</time>
      </trkpt>
      <trkpt lat="34.724595" lon="-117.304872">
        <ele>837.796875</ele>
        <time>2018-01-27T18:01:43Z</time>
      </trkpt>
      <trkpt lat="34.724456" lon="-117.304754">
        <ele>838.398438</ele>
        <time>2018-01-27T18:01:46Z</time>
      </trkpt>
      <trkpt lat="34.724416" lon="-117.304706">
        <ele>838.597656</ele>
        <time>2018-01-27T18:01:47Z</time>
      </trkpt>
      <trkpt lat="34.724383" lon="-117.304653">
        <ele>838.796875</ele>
        <time>2018-01-27T18:01:48Z</time>
      </trkpt>
      <trkpt lat="34.724357" lon="-117.304594">
        <ele>838.796875</ele>
        <time>2018-01-27T18:01:49Z</time>
      </trkpt>
      <trkpt lat="34.724334" lon="-117.304532">
        <ele>838.898438</ele>
        <time>2018-01-27T18:01:50Z</time>
      </trkpt>
      <trkpt lat="34.724296" lon="-117.304396">
        <ele>839.199219</ele>
        <time>2018-01-27T18:01:52Z</time>
      </trkpt>
      <trkpt lat="34.724107" lon="-117.303627">
        <ele>841.097656</ele>
        <time>2018-01-27T18:02:02Z</time>
      </trkpt>
      <trkpt lat="34.7241" lon="-117.303553">
        <ele>841.296875</ele>
        <time>2018-01-27T18:02:03Z</time>
      </trkpt>
      <trkpt lat="34.724101" lon="-117.303479">
        <ele>841.597656</ele>
        <time>2018-01-27T18:02:04Z</time>
      </trkpt>
      <trkpt lat="34.724109" lon="-117.303406">
        <ele>842.000000</ele>
        <time>2018-01-27T18:02:05Z</time>
      </trkpt>
      <trkpt lat="34.724123" lon="-117.303336">
        <ele>842.296875</ele>
        <time>2018-01-27T18:02:06Z</time>
      </trkpt>
      <trkpt lat="34.724142" lon="-117.303268">
        <ele>842.500000</ele>
        <time>2018-01-27T18:02:07Z</time>
      </trkpt>
      <trkpt lat="34.724168" lon="-117.303207">
        <ele>842.597656</ele>
        <time>2018-01-27T18:02:08Z</time>
      </trkpt>
      <trkpt lat="34.7242" lon="-117.303149">
        <ele>842.597656</ele>
        <time>2018-01-27T18:02:09Z</time>
      </trkpt>
      <trkpt lat="34.724272" lon="-117.303031">
        <ele>842.898438</ele>
        <time>2018-01-27T18:02:11Z</time>
      </trkpt>
      <trkpt lat="34.724302" lon="-117.302964">
        <ele>843.097656</ele>
        <time>2018-01-27T18:02:12Z</time>
      </trkpt>
      <trkpt lat="34.724459" lon="-117.302602">
        <ele>844.296875</ele>
        <time>2018-01-27T18:02:17Z</time>
      </trkpt>
      <trkpt lat="34.7245" lon="-117.302531">
        <ele>844.699219</ele>
        <time>2018-01-27T18:02:18Z</time>
      </trkpt>
      <trkpt lat="34.724666" lon="-117.302235">
        <ele>846.000000</ele>
        <time>2018-01-27T18:02:22Z</time>
      </trkpt>
      <trkpt lat="34.724703" lon="-117.302156">
        <ele>846.500000</ele>
        <time>2018-01-27T18:02:23Z</time>
      </trkpt>
      <trkpt lat="34.724734" lon="-117.302074">
        <ele>847.000000</ele>
        <time>2018-01-27T18:02:24Z</time>
      </trkpt>
      <trkpt lat="34.724754" lon="-117.301989">
        <ele>847.199219</ele>
        <time>2018-01-27T18:02:25Z</time>
      </trkpt>
      <trkpt lat="34.724762" lon="-117.301905">
        <ele>847.500000</ele>
        <time>2018-01-27T18:02:26Z</time>
      </trkpt>
      <trkpt lat="34.724768" lon="-117.301744">
        <ele>848.296875</ele>
        <time>2018-01-27T18:02:28Z</time>
      </trkpt>
      <trkpt lat="34.724788" lon="-117.301671">
        <ele>848.500000</ele>
        <time>2018-01-27T18:02:29Z</time>
      </trkpt>
      <trkpt lat="34.724818" lon="-117.301603">
        <ele>848.796875</ele>
        <time>2018-01-27T18:02:30Z</time>
      </trkpt>
      <trkpt lat="34.724851" lon="-117.301538">
        <ele>849.000000</ele>
        <time>2018-01-27T18:02:31Z</time>
      </trkpt>
      <trkpt lat="34.72489" lon="-117.301476">
        <ele>849.199219</ele>
        <time>2018-01-27T18:02:32Z</time>
      </trkpt>
      <trkpt lat="34.724934" lon="-117.301421">
        <ele>849.398438</ele>
        <time>2018-01-27T18:02:33Z</time>
      </trkpt>
      <trkpt lat="34.72498" lon="-117.301369">
        <ele>849.898438</ele>
        <time>2018-01-27T18:02:34Z</time>
      </trkpt>
      <trkpt lat="34.725019" lon="-117.301311">
        <ele>850.000000</ele>
        <time>2018-01-27T18:02:35Z</time>
      </trkpt>
      <trkpt lat="34.725046" lon="-117.301246">
        <ele>850.199219</ele>
        <time>2018-01-27T18:02:36Z</time>
      </trkpt>
      <trkpt lat="34.725064" lon="-117.301177">
        <ele>850.199219</ele>
        <time>2018-01-27T18:02:37Z</time>
      </trkpt>
      <trkpt lat="34.725076" lon="-117.301106">
        <ele>850.199219</ele>
        <time>2018-01-27T18:02:38Z</time>
      </trkpt>
      <trkpt lat="34.725101" lon="-117.30096">
        <ele>850.500000</ele>
        <time>2018-01-27T18:02:40Z</time>
      </trkpt>
      <trkpt lat="34.725121" lon="-117.300888">
        <ele>850.898438</ele>
        <time>2018-01-27T18:02:41Z</time>
      </trkpt>
      <trkpt lat="34.725147" lon="-117.300818">
        <ele>851.097656</ele>
        <time>2018-01-27T18:02:42Z</time>
      </trkpt>
      <trkpt lat="34.725177" lon="-117.300753">
        <ele>851.296875</ele>
        <time>2018-01-27T18:02:43Z</time>
      </trkpt>
      <trkpt lat="34.725213" lon="-117.300696">
        <ele>851.597656</ele>
        <time>2018-01-27T18:02:44Z</time>
      </trkpt>
      <trkpt lat="34.725258" lon="-117.300657">
        <ele>851.796875</ele>
        <time>2018-01-27T18:02:45Z</time>
      </trkpt>
      <trkpt lat="34.725309" lon="-117.300634">
        <ele>852.000000</ele>
        <time>2018-01-27T18:02:46Z</time>
      </trkpt>
      <trkpt lat="34.725364" lon="-117.300626">
        <ele>852.000000</ele>
        <time>2018-01-27T18:02:47Z</time>
      </trkpt>
      <trkpt lat="34.725478" lon="-117.300607">
        <ele>852.199219</ele>
        <time>2018-01-27T18:02:49Z</time>
      </trkpt>
      <trkpt lat="34.725536" lon="-117.300587">
        <ele>852.296875</ele>
        <time>2018-01-27T18:02:50Z</time>
      </trkpt>
      <trkpt lat="34.725594" lon="-117.300561">
        <ele>852.597656</ele>
        <time>2018-01-27T18:02:51Z</time>
      </trkpt>
      <trkpt lat="34.72565" lon="-117.300527">
        <ele>852.898438</ele>
        <time>2018-01-27T18:02:52Z</time>
      </trkpt>
      <trkpt lat="34.7257" lon="-117.300489">
        <ele>853.097656</ele>
        <time>2018-01-27T18:02:53Z</time>
      </trkpt>
      <trkpt lat="34.725741" lon="-117.30045">
        <ele>853.199219</ele>
        <time>2018-01-27T18:02:54Z</time>
      </trkpt>
      <trkpt lat="34.725773" lon="-117.300413">
        <ele>853.500000</ele>
        <time>2018-01-27T18:02:56Z</time>
      </trkpt>
      <trkpt lat="34.725821" lon="-117.30037">
        <ele>853.699219</ele>
        <time>2018-01-27T18:02:58Z</time>
      </trkpt>
      <trkpt lat="34.725861" lon="-117.300324">
        <ele>854.000000</ele>
        <time>2018-01-27T18:03:00Z</time>
      </trkpt>
      <trkpt lat="34.725882" lon="-117.300267">
        <ele>854.097656</ele>
        <time>2018-01-27T18:03:02Z</time>
      </trkpt>
      <trkpt lat="34.725884" lon="-117.300199">
        <ele>854.097656</ele>
        <time>2018-01-27T18:03:03Z</time>
      </trkpt>
      <trkpt lat="34.725878" lon="-117.300155">
        <ele>854.097656</ele>
        <time>2018-01-27T18:03:05Z</time>
      </trkpt>
      <trkpt lat="34.725838" lon="-117.299859">
        <ele>854.500000</ele>
        <time>2018-01-27T18:03:09Z</time>
      </trkpt>
      <trkpt lat="34.725823" lon="-117.299792">
        <ele>854.296875</ele>
        <time>2018-01-27T18:03:10Z</time>
      </trkpt>
      <trkpt lat="34.725778" lon="-117.299601">
        <ele>854.597656</ele>
        <time>2018-01-27T18:03:13Z</time>
      </trkpt>
      <trkpt lat="34.725774" lon="-117.299533">
        <ele>854.500000</ele>
        <time>2018-01-27T18:03:14Z</time>
      </trkpt>
      <trkpt lat="34.725776" lon="-117.299462">
        <ele>854.597656</ele>
        <time>2018-01-27T18:03:15Z</time>
      </trkpt>
      <trkpt lat="34.725779" lon="-117.299391">
        <ele>854.699219</ele>
        <time>2018-01-27T18:03:16Z</time>
      </trkpt>
      <trkpt lat="34.725788" lon="-117.299319">
        <ele>855.000000</ele>
        <time>2018-01-27T18:03:17Z</time>
      </trkpt>
      <trkpt lat="34.7258" lon="-117.299245">
        <ele>855.296875</ele>
        <time>2018-01-27T18:03:18Z</time>
      </trkpt>
      <trkpt lat="34.725834" lon="-117.299096">
        <ele>855.796875</ele>
        <time>2018-01-27T18:03:20Z</time>
      </trkpt>
      <trkpt lat="34.725903" lon="-117.298812">
        <ele>856.597656</ele>
        <time>2018-01-27T18:03:24Z</time>
      </trkpt>
      <trkpt lat="34.725908" lon="-117.298752">
        <ele>856.796875</ele>
        <time>2018-01-27T18:03:25Z</time>
      </trkpt>
      <trkpt lat="34.725906" lon="-117.298699">
        <ele>856.898438</ele>
        <time>2018-01-27T18:03:27Z</time>
      </trkpt>
      <trkpt lat="34.725884" lon="-117.298606">
        <ele>857.097656</ele>
        <time>2018-01-27T18:03:28Z</time>
      </trkpt>
      <trkpt lat="34.72587" lon="-117.298566">
        <ele>857.398438</ele>
        <time>2018-01-27T18:03:30Z</time>
      </trkpt>
      <trkpt lat="34.725838" lon="-117.298496">
        <ele>857.699219</ele>
        <time>2018-01-27T18:03:31Z</time>
      </trkpt>
      <trkpt lat="34.725815" lon="-117.298468">
        <ele>858.000000</ele>
        <time>2018-01-27T18:03:33Z</time>
      </trkpt>
      <trkpt lat="34.725741" lon="-117.298417">
        <ele>858.097656</ele>
        <time>2018-01-27T18:03:34Z</time>
      </trkpt>
      <trkpt lat="34.725635" lon="-117.298352">
        <ele>858.597656</ele>
        <time>2018-01-27T18:03:36Z</time>
      </trkpt>
      <trkpt lat="34.725574" lon="-117.298306">
        <ele>859.000000</ele>
        <time>2018-01-27T18:03:37Z</time>
      </trkpt>
      <trkpt lat="34.725519" lon="-117.298257">
        <ele>859.199219</ele>
        <time>2018-01-27T18:03:38Z</time>
      </trkpt>
      <trkpt lat="34.725474" lon="-117.298208">
        <ele>859.296875</ele>
        <time>2018-01-27T18:03:39Z</time>
      </trkpt>
      <trkpt lat="34.725439" lon="-117.298162">
        <ele>859.296875</ele>
        <time>2018-01-27T18:03:40Z</time>
      </trkpt>
      <trkpt lat="34.725418" lon="-117.298119">
        <ele>859.699219</ele>
        <time>2018-01-27T18:03:42Z</time>
      </trkpt>
      <trkpt lat="34.725398" lon="-117.298028">
        <ele>860.000000</ele>
        <time>2018-01-27T18:03:43Z</time>
      </trkpt>
      <trkpt lat="34.725395" lon="-117.297976">
        <ele>860.500000</ele>
        <time>2018-01-27T18:03:44Z</time>
      </trkpt>
      <trkpt lat="34.725399" lon="-117.297917">
        <ele>860.699219</ele>
        <time>2018-01-27T18:03:45Z</time>
      </trkpt>
      <trkpt lat="34.725408" lon="-117.297853">
        <ele>860.699219</ele>
        <time>2018-01-27T18:03:46Z</time>
      </trkpt>
      <trkpt lat="34.725428" lon="-117.297706">
        <ele>861.097656</ele>
        <time>2018-01-27T18:03:48Z</time>
      </trkpt>
      <trkpt lat="34.725431" lon="-117.297633">
        <ele>861.296875</ele>
        <time>2018-01-27T18:03:49Z</time>
      </trkpt>
      <trkpt lat="34.725429" lon="-117.297562">
        <ele>861.500000</ele>
        <time>2018-01-27T18:03:50Z</time>
      </trkpt>
      <trkpt lat="34.725423" lon="-117.297498">
        <ele>861.699219</ele>
        <time>2018-01-27T18:03:51Z</time>
      </trkpt>
      <trkpt lat="34.725412" lon="-117.297434">
        <ele>861.796875</ele>
        <time>2018-01-27T18:03:52Z</time>
      </trkpt>
      <trkpt lat="34.725394" lon="-117.297373">
        <ele>862.199219</ele>
        <time>2018-01-27T18:03:53Z</time>
      </trkpt>
      <trkpt lat="34.725371" lon="-117.297313">
        <ele>862.398438</ele>
        <time>2018-01-27T18:03:54Z</time>
      </trkpt>
      <trkpt lat="34.725185" lon="-117.296807">
        <ele>863.500000</ele>
        <time>2018-01-27T18:04:01Z</time>
      </trkpt>
      <trkpt lat="34.72517" lon="-117.29675">
        <ele>864.199219</ele>
        <time>2018-01-27T18:04:03Z</time>
      </trkpt>
      <trkpt lat="34.725159" lon="-117.29667">
        <ele>864.500000</ele>
        <time>2018-01-27T18:04:04Z</time>
      </trkpt>
      <trkpt lat="34.725158" lon="-117.296636">
        <ele>865.000000</ele>
        <time>2018-01-27T18:04:06Z</time>
      </trkpt>
      <trkpt lat="34.725164" lon="-117.296552">
        <ele>865.199219</ele>
        <time>2018-01-27T18:04:07Z</time>
      </trkpt>
      <trkpt lat="34.725205" lon="-117.296089">
        <ele>867.398438</ele>
        <time>2018-01-27T18:04:15Z</time>
      </trkpt>
      <trkpt lat="34.725218" lon="-117.296036">
        <ele>867.796875</ele>
        <time>2018-01-27T18:04:16Z</time>
      </trkpt>
      <trkpt lat="34.725273" lon="-117.295851">
        <ele>868.500000</ele>
        <time>2018-01-27T18:04:20Z</time>
      </trkpt>
      <trkpt lat="34.72529" lon="-117.295814">
        <ele>868.500000</ele>
        <time>2018-01-27T18:04:22Z</time>
      </trkpt>
      <trkpt lat="34.725341" lon="-117.295729">
        <ele>868.796875</ele>
        <time>2018-01-27T18:04:23Z</time>
      </trkpt>
      <trkpt lat="34.725376" lon="-117.295684">
        <ele>869.199219</ele>
        <time>2018-01-27T18:04:24Z</time>
      </trkpt>
      <trkpt lat="34.725413" lon="-117.295642">
        <ele>869.699219</ele>
        <time>2018-01-27T18:04:25Z</time>
      </trkpt>
      <trkpt lat="34.725488" lon="-117.295568">
        <ele>870.898438</ele>
        <time>2018-01-27T18:04:27Z</time>
      </trkpt>
      <trkpt lat="34.725523" lon="-117.295537">
        <ele>871.597656</ele>
        <time>2018-01-27T18:04:29Z</time>
      </trkpt>
      <trkpt lat="34.725592" lon="-117.295482">
        <ele>872.199219</ele>
        <time>2018-01-27T18:04:30Z</time>
      </trkpt>
      <trkpt lat="34.725624" lon="-117.295451">
        <ele>872.796875</ele>
        <time>2018-01-27T18:04:32Z</time>
      </trkpt>
      <trkpt lat="34.72569" lon="-117.295375">
        <ele>873.199219</ele>
        <time>2018-01-27T18:04:33Z</time>
      </trkpt>
      <trkpt lat="34.725785" lon="-117.29524">
        <ele>873.796875</ele>
        <time>2018-01-27T18:04:36Z</time>
      </trkpt>
      <trkpt lat="34.726021" lon="-117.294916">
        <ele>875.000000</ele>
        <time>2018-01-27T18:04:44Z</time>
      </trkpt>
      <trkpt lat="34.726058" lon="-117.29488">
        <ele>875.296875</ele>
        <time>2018-01-27T18:04:45Z</time>
      </trkpt>
      <trkpt lat="34.726099" lon="-117.294848">
        <ele>875.597656</ele>
        <time>2018-01-27T18:04:46Z</time>
      </trkpt>
      <trkpt lat="34.726349" lon="-117.294635">
        <ele>877.398438</ele>
        <time>2018-01-27T18:04:52Z</time>
      </trkpt>
      <trkpt lat="34.726382" lon="-117.294593">
        <ele>877.597656</ele>
        <time>2018-01-27T18:04:53Z</time>
      </trkpt>
      <trkpt lat="34.726407" lon="-117.294546">
        <ele>877.699219</ele>
        <time>2018-01-27T18:04:54Z</time>
      </trkpt>
      <trkpt lat="34.726423" lon="-117.294491">
        <ele>877.898438</ele>
        <time>2018-01-27T18:04:55Z</time>
      </trkpt>
      <trkpt lat="34.726478" lon="-117.294311">
        <ele>878.398438</ele>
        <time>2018-01-27T18:04:58Z</time>
      </trkpt>
      <trkpt lat="34.726526" lon="-117.294207">
        <ele>878.500000</ele>
        <time>2018-01-27T18:05:00Z</time>
      </trkpt>
      <trkpt lat="34.726543" lon="-117.294157">
        <ele>878.500000</ele>
        <time>2018-01-27T18:05:01Z</time>
      </trkpt>
      <trkpt lat="34.726568" lon="-117.294051">
        <ele>879.000000</ele>
        <time>2018-01-27T18:05:03Z</time>
      </trkpt>
      <trkpt lat="34.726587" lon="-117.294">
        <ele>879.296875</ele>
        <time>2018-01-27T18:05:04Z</time>
      </trkpt>
      <trkpt lat="34.726609" lon="-117.293952">
        <ele>879.398438</ele>
        <time>2018-01-27T18:05:05Z</time>
      </trkpt>
      <trkpt lat="34.726635" lon="-117.293904">
        <ele>879.699219</ele>
        <time>2018-01-27T18:05:06Z</time>
      </trkpt>
      <trkpt lat="34.726698" lon="-117.293805">
        <ele>880.199219</ele>
        <time>2018-01-27T18:05:08Z</time>
      </trkpt>
      <trkpt lat="34.726782" lon="-117.293694">
        <ele>880.699219</ele>
        <time>2018-01-27T18:05:10Z</time>
      </trkpt>
      <trkpt lat="34.726968" lon="-117.29347">
        <ele>881.699219</ele>
        <time>2018-01-27T18:05:14Z</time>
      </trkpt>
      <trkpt lat="34.727004" lon="-117.293409">
        <ele>882.000000</ele>
        <time>2018-01-27T18:05:15Z</time>
      </trkpt>
      <trkpt lat="34.727034" lon="-117.293344">
        <ele>882.398438</ele>
        <time>2018-01-27T18:05:16Z</time>
      </trkpt>
      <trkpt lat="34.727079" lon="-117.293221">
        <ele>883.000000</ele>
        <time>2018-01-27T18:05:18Z</time>
      </trkpt>
      <trkpt lat="34.727093" lon="-117.293175">
        <ele>883.500000</ele>
        <time>2018-01-27T18:05:20Z</time>
      </trkpt>
      <trkpt lat="34.727099" lon="-117.293081">
        <ele>883.796875</ele>
        <time>2018-01-27T18:05:21Z</time>
      </trkpt>
      <trkpt lat="34.727096" lon="-117.293031">
        <ele>883.699219</ele>
        <time>2018-01-27T18:05:23Z</time>
      </trkpt>
      <trkpt lat="34.727077" lon="-117.292934">
        <ele>884.000000</ele>
        <time>2018-01-27T18:05:24Z</time>
      </trkpt>
      <trkpt lat="34.727047" lon="-117.292828">
        <ele>884.398438</ele>
        <time>2018-01-27T18:05:26Z</time>
      </trkpt>
      <trkpt lat="34.726895" lon="-117.292314">
        <ele>885.500000</ele>
        <time>2018-01-27T18:05:33Z</time>
      </trkpt>
      <trkpt lat="34.726866" lon="-117.29224">
        <ele>885.699219</ele>
        <time>2018-01-27T18:05:34Z</time>
      </trkpt>
      <trkpt lat="34.72674" lon="-117.291935">
        <ele>887.097656</ele>
        <time>2018-01-27T18:05:39Z</time>
      </trkpt>
      <trkpt lat="34.726726" lon="-117.291882">
        <ele>887.398438</ele>
        <time>2018-01-27T18:05:40Z</time>
      </trkpt>
      <trkpt lat="34.726717" lon="-117.291823">
        <ele>887.597656</ele>
        <time>2018-01-27T18:05:41Z</time>
      </trkpt>
      <trkpt lat="34.726621" lon="-117.291391">
        <ele>888.398438</ele>
        <time>2018-01-27T18:05:48Z</time>
      </trkpt>
      <trkpt lat="34.726566" lon="-117.291219">
        <ele>889.199219</ele>
        <time>2018-01-27T18:05:51Z</time>
      </trkpt>
      <trkpt lat="34.72634" lon="-117.290629">
        <ele>891.597656</ele>
        <time>2018-01-27T18:05:59Z</time>
      </trkpt>
      <trkpt lat="34.726305" lon="-117.290556">
        <ele>892.000000</ele>
        <time>2018-01-27T18:06:00Z</time>
      </trkpt>
      <trkpt lat="34.726117" lon="-117.290195">
        <ele>893.597656</ele>
        <time>2018-01-27T18:06:05Z</time>
      </trkpt>
      <trkpt lat="34.726093" lon="-117.290121">
        <ele>894.097656</ele>
        <time>2018-01-27T18:06:06Z</time>
      </trkpt>
      <trkpt lat="34.726075" lon="-117.290051">
        <ele>894.699219</ele>
        <time>2018-01-27T18:06:07Z</time>
      </trkpt>
      <trkpt lat="34.726051" lon="-117.289937">
        <ele>895.699219</ele>
        <time>2018-01-27T18:06:09Z</time>
      </trkpt>
      <trkpt lat="34.726044" lon="-117.289888">
        <ele>896.898438</ele>
        <time>2018-01-27T18:06:11Z</time>
      </trkpt>
      <trkpt lat="34.726038" lon="-117.289774">
        <ele>897.199219</ele>
        <time>2018-01-27T18:06:12Z</time>
      </trkpt>
      <trkpt lat="34.726036" lon="-117.28951">
        <ele>898.597656</ele>
        <time>2018-01-27T18:06:16Z</time>
      </trkpt>
      <trkpt lat="34.726045" lon="-117.289362">
        <ele>899.597656</ele>
        <time>2018-01-27T18:06:18Z</time>
      </trkpt>
      <trkpt lat="34.726088" lon="-117.289011">
        <ele>901.699219</ele>
        <time>2018-01-27T18:06:22Z</time>
      </trkpt>
      <trkpt lat="34.726103" lon="-117.288928">
        <ele>902.199219</ele>
        <time>2018-01-27T18:06:23Z</time>
      </trkpt>
      <trkpt lat="34.726155" lon="-117.288672">
        <ele>903.199219</ele>
        <time>2018-01-27T18:06:28Z</time>
      </trkpt>
      <trkpt lat="34.726155" lon="-117.288623">
        <ele>903.796875</ele>
        <time>2018-01-27T18:06:30Z</time>
      </trkpt>
      <trkpt lat="34.726145" lon="-117.288495">
        <ele>904.097656</ele>
        <time>2018-01-27T18:06:31Z</time>
      </trkpt>
      <trkpt lat="34.726136" lon="-117.288418">
        <ele>904.000000</ele>
        <time>2018-01-27T18:06:32Z</time>
      </trkpt>
      <trkpt lat="34.726122" lon="-117.288333">
        <ele>904.097656</ele>
        <time>2018-01-27T18:06:33Z</time>
      </trkpt>
      <trkpt lat="34.726102" lon="-117.288243">
        <ele>904.199219</ele>
        <time>2018-01-27T18:06:34Z</time>
      </trkpt>
      <trkpt lat="34.726039" lon="-117.287993">
        <ele>905.199219</ele>
        <time>2018-01-27T18:06:37Z</time>
      </trkpt>
      <trkpt lat="34.726029" lon="-117.287913">
        <ele>905.597656</ele>
        <time>2018-01-27T18:06:38Z</time>
      </trkpt>
      <trkpt lat="34.726012" lon="-117.287742">
        <ele>906.398438</ele>
        <time>2018-01-27T18:06:40Z</time>
      </trkpt>
      <trkpt lat="34.72599" lon="-117.287426">
        <ele>908.097656</ele>
        <time>2018-01-27T18:06:44Z</time>
      </trkpt>
      <trkpt lat="34.725993" lon="-117.287371">
        <ele>908.398438</ele>
        <time>2018-01-27T18:06:45Z</time>
      </trkpt>
      <trkpt lat="34.726" lon="-117.287313">
        <ele>908.898438</ele>
        <time>2018-01-27T18:06:46Z</time>
      </trkpt>
      <trkpt lat="34.726029" lon="-117.287099">
        <ele>910.597656</ele>
        <time>2018-01-27T18:06:49Z</time>
      </trkpt>
      <trkpt lat="34.726043" lon="-117.286794">
        <ele>912.699219</ele>
        <time>2018-01-27T18:06:54Z</time>
      </trkpt>
      <trkpt lat="34.726054" lon="-117.286745">
        <ele>913.398438</ele>
        <time>2018-01-27T18:06:56Z</time>
      </trkpt>
      <trkpt lat="34.726104" lon="-117.286606">
        <ele>914.398438</ele>
        <time>2018-01-27T18:06:58Z</time>
      </trkpt>
      <trkpt lat="34.726112" lon="-117.286572">
        <ele>914.699219</ele>
        <time>2018-01-27T18:07:00Z</time>
      </trkpt>
      <trkpt lat="34.726122" lon="-117.286497">
        <ele>914.597656</ele>
        <time>2018-01-27T18:07:01Z</time>
      </trkpt>
      <trkpt lat="34.726123" lon="-117.286456">
        <ele>915.000000</ele>
        <time>2018-01-27T18:07:03Z</time>
      </trkpt>
      <trkpt lat="34.726106" lon="-117.286357">
        <ele>915.296875</ele>
        <time>2018-01-27T18:07:04Z</time>
      </trkpt>
      <trkpt lat="34.726093" lon="-117.286303">
        <ele>915.597656</ele>
        <time>2018-01-27T18:07:05Z</time>
      </trkpt>
      <trkpt lat="34.726087" lon="-117.286248">
        <ele>915.796875</ele>
        <time>2018-01-27T18:07:06Z</time>
      </trkpt>
      <trkpt lat="34.726084" lon="-117.286192">
        <ele>916.199219</ele>
        <time>2018-01-27T18:07:08Z</time>
      </trkpt>
      <trkpt lat="34.726079" lon="-117.286044">
        <ele>916.898438</ele>
        <time>2018-01-27T18:07:10Z</time>
      </trkpt>
      <trkpt lat="34.726073" lon="-117.286012">
        <ele>917.296875</ele>
        <time>2018-01-27T18:07:13Z</time>
      </trkpt>
      <trkpt lat="34.726052" lon="-117.285897">
        <ele>917.500000</ele>
        <time>2018-01-27T18:07:15Z</time>
      </trkpt>
      <trkpt lat="34.726042" lon="-117.285866">
        <ele>918.097656</ele>
        <time>2018-01-27T18:07:18Z</time>
      </trkpt>
      <trkpt lat="34.726019" lon="-117.285767">
        <ele>918.296875</ele>
        <time>2018-01-27T18:07:19Z</time>
      </trkpt>
      <trkpt lat="34.726026" lon="-117.285736">
        <ele>918.699219</ele>
        <time>2018-01-27T18:07:22Z</time>
      </trkpt>
      <trkpt lat="34.726044" lon="-117.285634">
        <ele>918.796875</ele>
        <time>2018-01-27T18:07:23Z</time>
      </trkpt>
      <trkpt lat="34.726041" lon="-117.285597">
        <ele>919.000000</ele>
        <time>2018-01-27T18:07:26Z</time>
      </trkpt>
      <trkpt lat="34.726016" lon="-117.285521">
        <ele>919.699219</ele>
        <time>2018-01-27T18:07:28Z</time>
      </trkpt>
      <trkpt lat="34.726" lon="-117.285481">
        <ele>920.199219</ele>
        <time>2018-01-27T18:07:36Z</time>
      </trkpt>
      <trkpt lat="34.725982" lon="-117.285385">
        <ele>920.699219</ele>
        <time>2018-01-27T18:07:37Z</time>
      </trkpt>
      <trkpt lat="34.725973" lon="-117.28535">
        <ele>923.500000</ele>
        <time>2018-01-27T18:07:40Z</time>
      </trkpt>
      <trkpt lat="34.72596" lon="-117.285263">
        <ele>924.500000</ele>
        <time>2018-01-27T18:07:41Z</time>
      </trkpt>
      <trkpt lat="34.725958" lon="-117.285238">
        <ele>927.699219</ele>
        <time>2018-01-27T18:07:45Z</time>
      </trkpt>
      <trkpt lat="34.725956" lon="-117.285129">
        <ele>927.597656</ele>
        <time>2018-01-27T18:07:46Z</time>
      </trkpt>
      <trkpt lat="34.725956" lon="-117.285014">
        <ele>927.500000</ele>
        <time>2018-01-27T18:07:49Z</time>
      </trkpt>
      <trkpt lat="34.725952" lon="-117.28497">
        <ele>928.199219</ele>
        <time>2018-01-27T18:07:51Z</time>
      </trkpt>
      <trkpt lat="34.725933" lon="-117.284886">
        <ele>928.500000</ele>
        <time>2018-01-27T18:07:52Z</time>
      </trkpt>
      <trkpt lat="34.725921" lon="-117.284851">
        <ele>929.898438</ele>
        <time>2018-01-27T18:07:55Z</time>
      </trkpt>
      <trkpt lat="34.725881" lon="-117.284762">
        <ele>930.097656</ele>
        <time>2018-01-27T18:07:56Z</time>
      </trkpt>
      <trkpt lat="34.72587" lon="-117.284739">
        <ele>931.398438</ele>
        <time>2018-01-27T18:08:00Z</time>
      </trkpt>
      <trkpt lat="34.725805" lon="-117.284563">
        <ele>933.199219</ele>
        <time>2018-01-27T18:08:03Z</time>
      </trkpt>
      <trkpt lat="34.725741" lon="-117.284381">
        <ele>937.097656</ele>
        <time>2018-01-27T18:08:09Z</time>
      </trkpt>
      <trkpt lat="34.725733" lon="-117.284354">
        <ele>939.500000</ele>
        <time>2018-01-27T18:08:12Z</time>
      </trkpt>
      <trkpt lat="34.725725" lon="-117.284271">
        <ele>940.000000</ele>
        <time>2018-01-27T18:08:13Z</time>
      </trkpt>
      <trkpt lat="34.725725" lon="-117.284244">
        <ele>942.699219</ele>
        <time>2018-01-27T18:08:17Z</time>
      </trkpt>
      <trkpt lat="34.725738" lon="-117.284141">
        <ele>943.296875</ele>
        <time>2018-01-27T18:08:18Z</time>
      </trkpt>
      <trkpt lat="34.725746" lon="-117.284115">
        <ele>944.898438</ele>
        <time>2018-01-27T18:08:21Z</time>
      </trkpt>
      <trkpt lat="34.725797" lon="-117.28399">
        <ele>946.898438</ele>
        <time>2018-01-27T18:08:24Z</time>
      </trkpt>
      <trkpt lat="34.725805" lon="-117.283955">
        <ele>948.097656</ele>
        <time>2018-01-27T18:08:26Z</time>
      </trkpt>
      <trkpt lat="34.725821" lon="-117.283881">
        <ele>949.097656</ele>
        <time>2018-01-27T18:08:28Z</time>
      </trkpt>
      <trkpt lat="34.725827" lon="-117.283821">
        <ele>949.097656</ele>
        <time>2018-01-27T18:08:30Z</time>
      </trkpt>
      <trkpt lat="34.725826" lon="-117.283761">
        <ele>948.296875</ele>
        <time>2018-01-27T18:08:32Z</time>
      </trkpt>
      <trkpt lat="34.725819" lon="-117.283693">
        <ele>946.500000</ele>
        <time>2018-01-27T18:08:34Z</time>
      </trkpt>
      <trkpt lat="34.725807" lon="-117.283613">
        <ele>946.199219</ele>
        <time>2018-01-27T18:08:35Z</time>
      </trkpt>
      <trkpt lat="34.725783" lon="-117.283498">
        <ele>946.699219</ele>
        <time>2018-01-27T18:08:38Z</time>
      </trkpt>
      <trkpt lat="34.725773" lon="-117.283462">
        <ele>947.199219</ele>
        <time>2018-01-27T18:08:40Z</time>
      </trkpt>
      <trkpt lat="34.725747" lon="-117.283392">
        <ele>947.199219</ele>
        <time>2018-01-27T18:08:42Z</time>
      </trkpt>
      <trkpt lat="34.725722" lon="-117.283346">
        <ele>945.898438</ele>
        <time>2018-01-27T18:08:44Z</time>
      </trkpt>
      <trkpt lat="34.725691" lon="-117.283297">
        <ele>944.898438</ele>
        <time>2018-01-27T18:08:46Z</time>
      </trkpt>
      <trkpt lat="34.725654" lon="-117.283244">
        <ele>945.500000</ele>
        <time>2018-01-27T18:08:48Z</time>
      </trkpt>
      <trkpt lat="34.725486" lon="-117.283034">
        <ele>949.199219</ele>
        <time>2018-01-27T18:08:55Z</time>
      </trkpt>
      <trkpt lat="34.725469" lon="-117.283014">
        <ele>948.796875</ele>
        <time>2018-01-27T18:08:59Z</time>
      </trkpt>
      <trkpt lat="34.725415" lon="-117.28293">
        <ele>948.097656</ele>
        <time>2018-01-27T18:09:00Z</time>
      </trkpt>
      <trkpt lat="34.725297" lon="-117.282735">
        <ele>945.000000</ele>
        <time>2018-01-27T18:09:10Z</time>
      </trkpt>
      <trkpt lat="34.72528" lon="-117.282713">
        <ele>945.000000</ele>
        <time>2018-01-27T18:09:13Z</time>
      </trkpt>
      <trkpt lat="34.724976" lon="-117.282302">
        <ele>947.097656</ele>
        <time>2018-01-27T18:09:30Z</time>
      </trkpt>
      <trkpt lat="34.72496" lon="-117.282291">
        <ele>949.597656</ele>
        <time>2018-01-27T18:09:34Z</time>
      </trkpt>
      <trkpt lat="34.724772" lon="-117.282155">
        <ele>950.796875</ele>
        <time>2018-01-27T18:09:41Z</time>
      </trkpt>
      <trkpt lat="34.724757" lon="-117.282136">
        <ele>950.597656</ele>
        <time>2018-01-27T18:09:55Z</time>
      </trkpt>
      <trkpt lat="34.724706" lon="-117.282066">
        <ele>950.398438</ele>
        <time>2018-01-27T18:09:56Z</time>
      </trkpt>
      <trkpt lat="34.724696" lon="-117.282047">
        <ele>949.699219</ele>
        <time>2018-01-27T18:09:59Z</time>
      </trkpt>
      <trkpt lat="34.724642" lon="-117.281973">
        <ele>949.097656</ele>
        <time>2018-01-27T18:10:00Z</time>
      </trkpt>
      <trkpt lat="34.72462" lon="-117.281951">
        <ele>948.597656</ele>
        <time>2018-01-27T18:10:03Z</time>
      </trkpt>
      <trkpt lat="34.724514" lon="-117.281863">
        <ele>947.296875</ele>
        <time>2018-01-27T18:10:06Z</time>
      </trkpt>
      <trkpt lat="34.724489" lon="-117.281846">
        <ele>947.500000</ele>
        <time>2018-01-27T18:10:09Z</time>
      </trkpt>
      <trkpt lat="34.724413" lon="-117.281799">
        <ele>947.597656</ele>
        <time>2018-01-27T18:10:10Z</time>
      </trkpt>
      <trkpt lat="34.724388" lon="-117.281779">
        <ele>947.199219</ele>
        <time>2018-01-27T18:10:13Z</time>
      </trkpt>
      <trkpt lat="34.724328" lon="-117.281738">
        <ele>947.097656</ele>
        <time>2018-01-27T18:10:15Z</time>
      </trkpt>
      <trkpt lat="34.724287" lon="-117.281719">
        <ele>947.796875</ele>
        <time>2018-01-27T18:10:17Z</time>
      </trkpt>
      <trkpt lat="34.72418" lon="-117.281664">
        <ele>948.000000</ele>
        <time>2018-01-27T18:10:20Z</time>
      </trkpt>
      <trkpt lat="34.724095" lon="-117.281607">
        <ele>948.398438</ele>
        <time>2018-01-27T18:10:23Z</time>
      </trkpt>
      <trkpt lat="34.724069" lon="-117.281584">
        <ele>948.898438</ele>
        <time>2018-01-27T18:10:25Z</time>
      </trkpt>
      <trkpt lat="34.724023" lon="-117.281538">
        <ele>949.000000</ele>
        <time>2018-01-27T18:10:27Z</time>
      </trkpt>
      <trkpt lat="34.723985" lon="-117.281486">
        <ele>949.199219</ele>
        <time>2018-01-27T18:10:29Z</time>
      </trkpt>
      <trkpt lat="34.723814" lon="-117.281241">
        <ele>948.398438</ele>
        <time>2018-01-27T18:10:37Z</time>
      </trkpt>
      <trkpt lat="34.723686" lon="-117.281004">
        <ele>951.000000</ele>
        <time>2018-01-27T18:10:45Z</time>
      </trkpt>
      <trkpt lat="34.723667" lon="-117.28098">
        <ele>953.097656</ele>
        <time>2018-01-27T18:10:48Z</time>
      </trkpt>
      <trkpt lat="34.72359" lon="-117.280932">
        <ele>953.898438</ele>
        <time>2018-01-27T18:10:49Z</time>
      </trkpt>
      <trkpt lat="34.723563" lon="-117.280925">
        <ele>955.097656</ele>
        <time>2018-01-27T18:10:52Z</time>
      </trkpt>
      <trkpt lat="34.723494" lon="-117.280902">
        <ele>955.699219</ele>
        <time>2018-01-27T18:10:53Z</time>
      </trkpt>
      <trkpt lat="34.723472" lon="-117.280889">
        <ele>956.199219</ele>
        <time>2018-01-27T18:10:57Z</time>
      </trkpt>
      <trkpt lat="34.723411" lon="-117.280834">
        <ele>956.296875</ele>
        <time>2018-01-27T18:10:59Z</time>
      </trkpt>
      <trkpt lat="34.723391" lon="-117.280811">
        <ele>956.199219</ele>
        <time>2018-01-27T18:11:02Z</time>
      </trkpt>
      <trkpt lat="34.723348" lon="-117.280729">
        <ele>956.296875</ele>
        <time>2018-01-27T18:11:03Z</time>
      </trkpt>
      <trkpt lat="34.723335" lon="-117.280694">
        <ele>956.296875</ele>
        <time>2018-01-27T18:11:05Z</time>
      </trkpt>
      <trkpt lat="34.723311" lon="-117.280617">
        <ele>956.199219</ele>
        <time>2018-01-27T18:11:06Z</time>
      </trkpt>
      <trkpt lat="34.723301" lon="-117.280578">
        <ele>956.000000</ele>
        <time>2018-01-27T18:11:08Z</time>
      </trkpt>
      <trkpt lat="34.723292" lon="-117.280509">
        <ele>956.000000</ele>
        <time>2018-01-27T18:11:10Z</time>
      </trkpt>
      <trkpt lat="34.723285" lon="-117.280425">
        <ele>956.000000</ele>
        <time>2018-01-27T18:11:11Z</time>
      </trkpt>
      <trkpt lat="34.723277" lon="-117.280374">
        <ele>955.898438</ele>
        <time>2018-01-27T18:11:13Z</time>
      </trkpt>
      <trkpt lat="34.723161" lon="-117.279704">
        <ele>953.398438</ele>
        <time>2018-01-27T18:11:26Z</time>
      </trkpt>
      <trkpt lat="34.723151" lon="-117.279673">
        <ele>952.000000</ele>
        <time>2018-01-27T18:11:29Z</time>
      </trkpt>
      <trkpt lat="34.72304" lon="-117.279406">
        <ele>949.699219</ele>
        <time>2018-01-27T18:11:37Z</time>
      </trkpt>
      <trkpt lat="34.723029" lon="-117.279364">
        <ele>948.699219</ele>
        <time>2018-01-27T18:11:39Z</time>
      </trkpt>
      <trkpt lat="34.72301" lon="-117.279268">
        <ele>948.097656</ele>
        <time>2018-01-27T18:11:40Z</time>
      </trkpt>
      <trkpt lat="34.722994" lon="-117.279219">
        <ele>947.500000</ele>
        <time>2018-01-27T18:11:42Z</time>
      </trkpt>
      <trkpt lat="34.722906" lon="-117.278989">
        <ele>946.199219</ele>
        <time>2018-01-27T18:11:46Z</time>
      </trkpt>
      <trkpt lat="34.722897" lon="-117.27894">
        <ele>945.398438</ele>
        <time>2018-01-27T18:11:48Z</time>
      </trkpt>
      <trkpt lat="34.722887" lon="-117.278857">
        <ele>945.296875</ele>
        <time>2018-01-27T18:11:49Z</time>
      </trkpt>
      <trkpt lat="34.722877" lon="-117.278717">
        <ele>944.097656</ele>
        <time>2018-01-27T18:11:53Z</time>
      </trkpt>
      <trkpt lat="34.722879" lon="-117.27867">
        <ele>943.500000</ele>
        <time>2018-01-27T18:11:55Z</time>
      </trkpt>
      <trkpt lat="34.722902" lon="-117.277905">
        <ele>936.796875</ele>
        <time>2018-01-27T18:12:14Z</time>
      </trkpt>
      <trkpt lat="34.722904" lon="-117.27788">
        <ele>935.796875</ele>
        <time>2018-01-27T18:12:17Z</time>
      </trkpt>
      <trkpt lat="34.722906" lon="-117.277786">
        <ele>935.296875</ele>
        <time>2018-01-27T18:12:18Z</time>
      </trkpt>
      <trkpt lat="34.722899" lon="-117.277338">
        <ele>936.699219</ele>
        <time>2018-01-27T18:12:30Z</time>
      </trkpt>
      <trkpt lat="34.722906" lon="-117.277299">
        <ele>936.898438</ele>
        <time>2018-01-27T18:12:32Z</time>
      </trkpt>
      <trkpt lat="34.722955" lon="-117.277052">
        <ele>937.699219</ele>
        <time>2018-01-27T18:12:38Z</time>
      </trkpt>
      <trkpt lat="34.722962" lon="-117.277009">
        <ele>938.000000</ele>
        <time>2018-01-27T18:12:40Z</time>
      </trkpt>
      <trkpt lat="34.722966" lon="-117.276911">
        <ele>938.500000</ele>
        <time>2018-01-27T18:12:41Z</time>
      </trkpt>
      <trkpt lat="34.722965" lon="-117.276673">
        <ele>938.500000</ele>
        <time>2018-01-27T18:12:46Z</time>
      </trkpt>
      <trkpt lat="34.722949" lon="-117.276118">
        <ele>941.699219</ele>
        <time>2018-01-27T18:12:55Z</time>
      </trkpt>
      <trkpt lat="34.72296" lon="-117.275991">
        <ele>942.398438</ele>
        <time>2018-01-27T18:12:58Z</time>
      </trkpt>
      <trkpt lat="34.722968" lon="-117.275949">
        <ele>942.597656</ele>
        <time>2018-01-27T18:13:00Z</time>
      </trkpt>
      <trkpt lat="34.723002" lon="-117.275648">
        <ele>944.199219</ele>
        <time>2018-01-27T18:13:06Z</time>
      </trkpt>
      <trkpt lat="34.72306" lon="-117.275143">
        <ele>947.699219</ele>
        <time>2018-01-27T18:13:16Z</time>
      </trkpt>
      <trkpt lat="34.723115" lon="-117.274778">
        <ele>947.500000</ele>
        <time>2018-01-27T18:13:25Z</time>
      </trkpt>
      <trkpt lat="34.723117" lon="-117.274733">
        <ele>947.500000</ele>
        <time>2018-01-27T18:13:27Z</time>
      </trkpt>
      <trkpt lat="34.723121" lon="-117.274371">
        <ele>946.796875</ele>
        <time>2018-01-27T18:13:34Z</time>
      </trkpt>
      <trkpt lat="34.723094" lon="-117.273902">
        <ele>948.097656</ele>
        <time>2018-01-27T18:13:42Z</time>
      </trkpt>
      <trkpt lat="34.723067" lon="-117.27366">
        <ele>947.898438</ele>
        <time>2018-01-27T18:13:47Z</time>
      </trkpt>
      <trkpt lat="34.723068" lon="-117.273656">
        <ele>948.699219</ele>
        <time>2018-01-27T18:13:54Z</time>
      </trkpt>
      <trkpt lat="34.723051" lon="-117.273506">
        <ele>948.898438</ele>
        <time>2018-01-27T18:13:55Z</time>
      </trkpt>
      <trkpt lat="34.723006" lon="-117.273137">
        <ele>949.898438</ele>
        <time>2018-01-27T18:14:01Z</time>
      </trkpt>
      <trkpt lat="34.722994" lon="-117.273085">
        <ele>950.199219</ele>
        <time>2018-01-27T18:14:03Z</time>
      </trkpt>
      <trkpt lat="34.722969" lon="-117.273014">
        <ele>950.398438</ele>
        <time>2018-01-27T18:14:04Z</time>
      </trkpt>
      <trkpt lat="34.722956" lon="-117.272977">
        <ele>951.500000</ele>
        <time>2018-01-27T18:14:06Z</time>
      </trkpt>
      <trkpt lat="34.722939" lon="-117.272881">
        <ele>951.898438</ele>
        <time>2018-01-27T18:14:07Z</time>
      </trkpt>
      <trkpt lat="34.722938" lon="-117.272829">
        <ele>952.500000</ele>
        <time>2018-01-27T18:14:09Z</time>
      </trkpt>
      <trkpt lat="34.722934" lon="-117.272723">
        <ele>952.796875</ele>
        <time>2018-01-27T18:14:10Z</time>
      </trkpt>
      <trkpt lat="34.722929" lon="-117.27267">
        <ele>953.000000</ele>
        <time>2018-01-27T18:14:12Z</time>
      </trkpt>
      <trkpt lat="34.722889" lon="-117.272385">
        <ele>954.699219</ele>
        <time>2018-01-27T18:14:16Z</time>
      </trkpt>
      <trkpt lat="34.722831" lon="-117.272006">
        <ele>959.000000</ele>
        <time>2018-01-27T18:14:23Z</time>
      </trkpt>
      <trkpt lat="34.72283" lon="-117.271969">
        <ele>960.199219</ele>
        <time>2018-01-27T18:14:26Z</time>
      </trkpt>
      <trkpt lat="34.722828" lon="-117.271876">
        <ele>960.597656</ele>
        <time>2018-01-27T18:14:27Z</time>
      </trkpt>
      <trkpt lat="34.722825" lon="-117.271843">
        <ele>962.000000</ele>
        <time>2018-01-27T18:14:30Z</time>
      </trkpt>
      <trkpt lat="34.722797" lon="-117.271751">
        <ele>961.898438</ele>
        <time>2018-01-27T18:14:31Z</time>
      </trkpt>
      <trkpt lat="34.722786" lon="-117.271722">
        <ele>963.296875</ele>
        <time>2018-01-27T18:14:33Z</time>
      </trkpt>
      <trkpt lat="34.722726" lon="-117.271576">
        <ele>965.296875</ele>
        <time>2018-01-27T18:14:36Z</time>
      </trkpt>
      <trkpt lat="34.722717" lon="-117.271541">
        <ele>964.898438</ele>
        <time>2018-01-27T18:14:39Z</time>
      </trkpt>
      <trkpt lat="34.722742" lon="-117.271448">
        <ele>964.296875</ele>
        <time>2018-01-27T18:14:40Z</time>
      </trkpt>
      <trkpt lat="34.722758" lon="-117.271419">
        <ele>962.796875</ele>
        <time>2018-01-27T18:14:43Z</time>
      </trkpt>
      <trkpt lat="34.722824" lon="-117.271281">
        <ele>960.796875</ele>
        <time>2018-01-27T18:14:46Z</time>
      </trkpt>
      <trkpt lat="34.722835" lon="-117.271252">
        <ele>961.000000</ele>
        <time>2018-01-27T18:14:49Z</time>
      </trkpt>
      <trkpt lat="34.722909" lon="-117.270998">
        <ele>964.199219</ele>
        <time>2018-01-27T18:14:53Z</time>
      </trkpt>
      <trkpt lat="34.72293" lon="-117.270952">
        <ele>965.398438</ele>
        <time>2018-01-27T18:14:55Z</time>
      </trkpt>
      <trkpt lat="34.723097" lon="-117.270656">
        <ele>968.000000</ele>
        <time>2018-01-27T18:15:00Z</time>
      </trkpt>
      <trkpt lat="34.723183" lon="-117.270506">
        <ele>969.500000</ele>
        <time>2018-01-27T18:15:04Z</time>
      </trkpt>
      <trkpt lat="34.723196" lon="-117.270472">
        <ele>969.699219</ele>
        <time>2018-01-27T18:15:06Z</time>
      </trkpt>
      <trkpt lat="34.7232" lon="-117.270393">
        <ele>969.898438</ele>
        <time>2018-01-27T18:15:07Z</time>
      </trkpt>
      <trkpt lat="34.723191" lon="-117.270354">
        <ele>969.796875</ele>
        <time>2018-01-27T18:15:09Z</time>
      </trkpt>
      <trkpt lat="34.723169" lon="-117.270276">
        <ele>970.000000</ele>
        <time>2018-01-27T18:15:10Z</time>
      </trkpt>
      <trkpt lat="34.723157" lon="-117.270237">
        <ele>970.500000</ele>
        <time>2018-01-27T18:15:12Z</time>
      </trkpt>
      <trkpt lat="34.723056" lon="-117.269926">
        <ele>973.199219</ele>
        <time>2018-01-27T18:15:17Z</time>
      </trkpt>
      <trkpt lat="34.723046" lon="-117.269869">
        <ele>973.796875</ele>
        <time>2018-01-27T18:15:18Z</time>
      </trkpt>
      <trkpt lat="34.723039" lon="-117.269814">
        <ele>975.199219</ele>
        <time>2018-01-27T18:15:20Z</time>
      </trkpt>
      <trkpt lat="34.723035" lon="-117.269707">
        <ele>975.699219</ele>
        <time>2018-01-27T18:15:21Z</time>
      </trkpt>
      <trkpt lat="34.723015" lon="-117.269467">
        <ele>979.097656</ele>
        <time>2018-01-27T18:15:26Z</time>
      </trkpt>
      <trkpt lat="34.723008" lon="-117.269425">
        <ele>980.296875</ele>
        <time>2018-01-27T18:15:28Z</time>
      </trkpt>
      <trkpt lat="34.722987" lon="-117.269344">
        <ele>980.898438</ele>
        <time>2018-01-27T18:15:29Z</time>
      </trkpt>
      <trkpt lat="34.722953" lon="-117.269229">
        <ele>982.796875</ele>
        <time>2018-01-27T18:15:32Z</time>
      </trkpt>
      <trkpt lat="34.72294" lon="-117.269194">
        <ele>985.000000</ele>
        <time>2018-01-27T18:15:35Z</time>
      </trkpt>
      <trkpt lat="34.722897" lon="-117.269104">
        <ele>985.597656</ele>
        <time>2018-01-27T18:15:36Z</time>
      </trkpt>
      <trkpt lat="34.72288" lon="-117.269077">
        <ele>987.199219</ele>
        <time>2018-01-27T18:15:39Z</time>
      </trkpt>
      <trkpt lat="34.722822" lon="-117.26899">
        <ele>987.500000</ele>
        <time>2018-01-27T18:15:40Z</time>
      </trkpt>
      <trkpt lat="34.722799" lon="-117.26896">
        <ele>987.796875</ele>
        <time>2018-01-27T18:15:42Z</time>
      </trkpt>
      <trkpt lat="34.722747" lon="-117.268903">
        <ele>988.199219</ele>
        <time>2018-01-27T18:15:43Z</time>
      </trkpt>
      <trkpt lat="34.722719" lon="-117.268873">
        <ele>989.796875</ele>
        <time>2018-01-27T18:15:45Z</time>
      </trkpt>
      <trkpt lat="34.722675" lon="-117.268811">
        <ele>990.500000</ele>
        <time>2018-01-27T18:15:46Z</time>
      </trkpt>
      <trkpt lat="34.722617" lon="-117.268719">
        <ele>991.597656</ele>
        <time>2018-01-27T18:15:49Z</time>
      </trkpt>
      <trkpt lat="34.722619" lon="-117.268659">
        <ele>990.597656</ele>
        <time>2018-01-27T18:17:51Z</time>
      </trkpt>
      <trkpt lat="34.722619" lon="-117.268659">
        <ele>990.597656</ele>
        <time>2018-01-27T18:17:51Z</time>
      </trkpt>
    </trkseg>
    <trkseg>
      <trkpt lat="34.722532" lon="-117.268516">
        <ele>991.398438</ele>
        <time>2018-01-27T18:18:29Z</time>
      </trkpt>
      <trkpt lat="34.722361" lon="-117.268357">
        <ele>987.500000</ele>
        <time>2018-01-27T18:18:37Z</time>
      </trkpt>
      <trkpt lat="34.722339" lon="-117.268333">
        <ele>986.199219</ele>
        <time>2018-01-27T18:18:40Z</time>
      </trkpt>
      <trkpt lat="34.722285" lon="-117.268255">
        <ele>985.597656</ele>
        <time>2018-01-27T18:18:41Z</time>
      </trkpt>
      <trkpt lat="34.722273" lon="-117.268226">
        <ele>983.597656</ele>
        <time>2018-01-27T18:18:44Z</time>
      </trkpt>
      <trkpt lat="34.722245" lon="-117.268156">
        <ele>982.898438</ele>
        <time>2018-01-27T18:18:46Z</time>
      </trkpt>
      <trkpt lat="34.722221" lon="-117.268111">
        <ele>981.199219</ele>
        <time>2018-01-27T18:18:49Z</time>
      </trkpt>
      <trkpt lat="34.722182" lon="-117.268062">
        <ele>980.398438</ele>
        <time>2018-01-27T18:18:51Z</time>
      </trkpt>
      <trkpt lat="34.722148" lon="-117.268031">
        <ele>979.500000</ele>
        <time>2018-01-27T18:18:54Z</time>
      </trkpt>
      <trkpt lat="34.72209" lon="-117.267991">
        <ele>977.796875</ele>
        <time>2018-01-27T18:18:56Z</time>
      </trkpt>
      <trkpt lat="34.721867" lon="-117.267823">
        <ele>974.097656</ele>
        <time>2018-01-27T18:19:03Z</time>
      </trkpt>
      <trkpt lat="34.72184" lon="-117.267797">
        <ele>973.398438</ele>
        <time>2018-01-27T18:19:05Z</time>
      </trkpt>
      <trkpt lat="34.721798" lon="-117.26775">
        <ele>973.296875</ele>
        <time>2018-01-27T18:19:07Z</time>
      </trkpt>
      <trkpt lat="34.721762" lon="-117.2677">
        <ele>973.597656</ele>
        <time>2018-01-27T18:19:09Z</time>
      </trkpt>
      <trkpt lat="34.721684" lon="-117.267589">
        <ele>972.500000</ele>
        <time>2018-01-27T18:19:13Z</time>
      </trkpt>
      <trkpt lat="34.72167" lon="-117.267565">
        <ele>970.699219</ele>
        <time>2018-01-27T18:19:16Z</time>
      </trkpt>
      <trkpt lat="34.721606" lon="-117.267442">
        <ele>970.199219</ele>
        <time>2018-01-27T18:19:18Z</time>
      </trkpt>
      <trkpt lat="34.721593" lon="-117.267408">
        <ele>971.597656</ele>
        <time>2018-01-27T18:19:20Z</time>
      </trkpt>
      <trkpt lat="34.721447" lon="-117.267065">
        <ele>974.000000</ele>
        <time>2018-01-27T18:19:31Z</time>
      </trkpt>
      <trkpt lat="34.72144" lon="-117.267054">
        <ele>972.699219</ele>
        <time>2018-01-27T18:19:37Z</time>
      </trkpt>
      <trkpt lat="34.721388" lon="-117.266955">
        <ele>972.699219</ele>
        <time>2018-01-27T18:19:38Z</time>
      </trkpt>
      <trkpt lat="34.721163" lon="-117.266539">
        <ele>970.000000</ele>
        <time>2018-01-27T18:19:50Z</time>
      </trkpt>
      <trkpt lat="34.720994" lon="-117.266298">
        <ele>967.097656</ele>
        <time>2018-01-27T18:19:56Z</time>
      </trkpt>
      <trkpt lat="34.720856" lon="-117.266039">
        <ele>964.398438</ele>
        <time>2018-01-27T18:20:05Z</time>
      </trkpt>
      <trkpt lat="34.720633" lon="-117.265685">
        <ele>963.699219</ele>
        <time>2018-01-27T18:20:16Z</time>
      </trkpt>
      <trkpt lat="34.720616" lon="-117.265662">
        <ele>964.597656</ele>
        <time>2018-01-27T18:20:19Z</time>
      </trkpt>
      <trkpt lat="34.720537" lon="-117.265593">
        <ele>964.597656</ele>
        <time>2018-01-27T18:20:20Z</time>
      </trkpt>
      <trkpt lat="34.720499" lon="-117.265573">
        <ele>964.699219</ele>
        <time>2018-01-27T18:20:22Z</time>
      </trkpt>
      <trkpt lat="34.720335" lon="-117.265504">
        <ele>965.097656</ele>
        <time>2018-01-27T18:20:25Z</time>
      </trkpt>
      <trkpt lat="34.7203" lon="-117.265484">
        <ele>965.000000</ele>
        <time>2018-01-27T18:20:27Z</time>
      </trkpt>
      <trkpt lat="34.720238" lon="-117.265438">
        <ele>964.898438</ele>
        <time>2018-01-27T18:20:28Z</time>
      </trkpt>
      <trkpt lat="34.72021" lon="-117.265415">
        <ele>964.699219</ele>
        <time>2018-01-27T18:20:30Z</time>
      </trkpt>
      <trkpt lat="34.720159" lon="-117.265365">
        <ele>964.796875</ele>
        <time>2018-01-27T18:20:31Z</time>
      </trkpt>
      <trkpt lat="34.720138" lon="-117.265338">
        <ele>964.898438</ele>
        <time>2018-01-27T18:20:34Z</time>
      </trkpt>
      <trkpt lat="34.720096" lon="-117.265267">
        <ele>964.898438</ele>
        <time>2018-01-27T18:20:35Z</time>
      </trkpt>
      <trkpt lat="34.720034" lon="-117.265162">
        <ele>964.597656</ele>
        <time>2018-01-27T18:21:05Z</time>
      </trkpt>
      <trkpt lat="34.720019" lon="-117.265118">
        <ele>964.699219</ele>
        <time>2018-01-27T18:21:07Z</time>
      </trkpt>
      <trkpt lat="34.719972" lon="-117.265012">
        <ele>964.699219</ele>
        <time>2018-01-27T18:21:08Z</time>
      </trkpt>
      <trkpt lat="34.719942" lon="-117.264958">
        <ele>964.699219</ele>
        <time>2018-01-27T18:21:09Z</time>
      </trkpt>
      <trkpt lat="34.71985" lon="-117.264814">
        <ele>964.500000</ele>
        <time>2018-01-27T18:21:12Z</time>
      </trkpt>
      <trkpt lat="34.719778" lon="-117.264719">
        <ele>965.097656</ele>
        <time>2018-01-27T18:21:14Z</time>
      </trkpt>
      <trkpt lat="34.719366" lon="-117.264245">
        <ele>969.199219</ele>
        <time>2018-01-27T18:21:25Z</time>
      </trkpt>
      <trkpt lat="34.719336" lon="-117.264192">
        <ele>969.398438</ele>
        <time>2018-01-27T18:21:26Z</time>
      </trkpt>
      <trkpt lat="34.719311" lon="-117.264136">
        <ele>969.699219</ele>
        <time>2018-01-27T18:21:27Z</time>
      </trkpt>
      <trkpt lat="34.719196" lon="-117.263882">
        <ele>970.699219</ele>
        <time>2018-01-27T18:21:32Z</time>
      </trkpt>
      <trkpt lat="34.71918" lon="-117.263859">
        <ele>965.000000</ele>
        <time>2018-01-27T18:21:37Z</time>
      </trkpt>
      <trkpt lat="34.719205" lon="-117.263764">
        <ele>967.296875</ele>
        <time>2018-01-27T18:21:39Z</time>
      </trkpt>
      <trkpt lat="34.71917" lon="-117.26374">
        <ele>969.796875</ele>
        <time>2018-01-27T18:21:41Z</time>
      </trkpt>
      <trkpt lat="34.719119" lon="-117.263697">
        <ele>970.500000</ele>
        <time>2018-01-27T18:21:42Z</time>
      </trkpt>
      <trkpt lat="34.719098" lon="-117.263662">
        <ele>972.097656</ele>
        <time>2018-01-27T18:21:44Z</time>
      </trkpt>
      <trkpt lat="34.719045" lon="-117.263576">
        <ele>972.796875</ele>
        <time>2018-01-27T18:21:45Z</time>
      </trkpt>
      <trkpt lat="34.719024" lon="-117.263524">
        <ele>973.398438</ele>
        <time>2018-01-27T18:21:46Z</time>
      </trkpt>
      <trkpt lat="34.719007" lon="-117.26347">
        <ele>974.296875</ele>
        <time>2018-01-27T18:21:47Z</time>
      </trkpt>
      <trkpt lat="34.718992" lon="-117.263413">
        <ele>974.898438</ele>
        <time>2018-01-27T18:21:48Z</time>
      </trkpt>
      <trkpt lat="34.71898" lon="-117.263353">
        <ele>975.199219</ele>
        <time>2018-01-27T18:21:49Z</time>
      </trkpt>
      <trkpt lat="34.71892" lon="-117.263044">
        <ele>977.398438</ele>
        <time>2018-01-27T18:21:54Z</time>
      </trkpt>
      <trkpt lat="34.718864" lon="-117.262862">
        <ele>979.199219</ele>
        <time>2018-01-27T18:21:57Z</time>
      </trkpt>
      <trkpt lat="34.718853" lon="-117.262798">
        <ele>979.796875</ele>
        <time>2018-01-27T18:21:58Z</time>
      </trkpt>
      <trkpt lat="34.718847" lon="-117.262738">
        <ele>980.199219</ele>
        <time>2018-01-27T18:21:59Z</time>
      </trkpt>
      <trkpt lat="34.718813" lon="-117.262151">
        <ele>982.296875</ele>
        <time>2018-01-27T18:22:12Z</time>
      </trkpt>
      <trkpt lat="34.718813" lon="-117.262117">
        <ele>981.296875</ele>
        <time>2018-01-27T18:22:15Z</time>
      </trkpt>
      <trkpt lat="34.71882" lon="-117.261992">
        <ele>981.097656</ele>
        <time>2018-01-27T18:22:20Z</time>
      </trkpt>
      <trkpt lat="34.71882" lon="-117.262">
        <ele>977.199219</ele>
        <time>2018-01-27T18:24:18Z</time>
      </trkpt>
      <trkpt lat="34.71882" lon="-117.262">
        <ele>977.199219</ele>
        <time>2018-01-27T18:24:18Z</time>
      </trkpt>
    </trkseg>
    <trkseg>
      <trkpt lat="34.718725" lon="-117.261707">
        <ele>975.796875</ele>
        <time>2018-01-27T18:28:33Z</time>
      </trkpt>
      <trkpt lat="34.718678" lon="-117.261602">
        <ele>973.500000</ele>
        <time>2018-01-27T18:28:46Z</time>
      </trkpt>
      <trkpt lat="34.718675" lon="-117.261589">
        <ele>971.796875</ele>
        <time>2018-01-27T18:28:53Z</time>
      </trkpt>
      <trkpt lat="34.718629" lon="-117.261491">
        <ele>971.796875</ele>
        <time>2018-01-27T18:28:54Z</time>
      </trkpt>
      <trkpt lat="34.71862" lon="-117.261479">
        <ele>968.796875</ele>
        <time>2018-01-27T18:29:02Z</time>
      </trkpt>
      <trkpt lat="34.718575" lon="-117.261397">
        <ele>968.097656</ele>
        <time>2018-01-27T18:29:04Z</time>
      </trkpt>
      <trkpt lat="34.71857" lon="-117.26138">
        <ele>964.097656</ele>
        <time>2018-01-27T18:29:11Z</time>
      </trkpt>
      <trkpt lat="34.71853" lon="-117.261301">
        <ele>963.199219</ele>
        <time>2018-01-27T18:29:13Z</time>
      </trkpt>
      <trkpt lat="34.718416" lon="-117.261072">
        <ele>954.898438</ele>
        <time>2018-01-27T18:29:32Z</time>
      </trkpt>
      <trkpt lat="34.718415" lon="-117.261067">
        <ele>952.398438</ele>
        <time>2018-01-27T18:29:47Z</time>
      </trkpt>
      <trkpt lat="34.718395" lon="-117.260965">
        <ele>952.699219</ele>
        <time>2018-01-27T18:29:48Z</time>
      </trkpt>
      <trkpt lat="34.718393" lon="-117.260958">
        <ele>949.296875</ele>
        <time>2018-01-27T18:30:00Z</time>
      </trkpt>
      <trkpt lat="34.718335" lon="-117.26087">
        <ele>948.796875</ele>
        <time>2018-01-27T18:30:01Z</time>
      </trkpt>
      <trkpt lat="34.718264" lon="-117.260782">
        <ele>946.898438</ele>
        <time>2018-01-27T18:30:10Z</time>
      </trkpt>
      <trkpt lat="34.718253" lon="-117.260771">
        <ele>944.898438</ele>
        <time>2018-01-27T18:30:15Z</time>
      </trkpt>
      <trkpt lat="34.718167" lon="-117.260681">
        <ele>944.296875</ele>
        <time>2018-01-27T18:30:18Z</time>
      </trkpt>
      <trkpt lat="34.718157" lon="-117.260668">
        <ele>942.500000</ele>
        <time>2018-01-27T18:30:23Z</time>
      </trkpt>
      <trkpt lat="34.718063" lon="-117.260525">
        <ele>939.597656</ele>
        <time>2018-01-27T18:30:30Z</time>
      </trkpt>
      <trkpt lat="34.718056" lon="-117.260511">
        <ele>937.796875</ele>
        <time>2018-01-27T18:30:36Z</time>
      </trkpt>
      <trkpt lat="34.718006" lon="-117.260379">
        <ele>938.097656</ele>
        <time>2018-01-27T18:30:38Z</time>
      </trkpt>
      <trkpt lat="34.717998" lon="-117.260349">
        <ele>938.296875</ele>
        <time>2018-01-27T18:30:41Z</time>
      </trkpt>
      <trkpt lat="34.717959" lon="-117.260242">
        <ele>939.199219</ele>
        <time>2018-01-27T18:30:43Z</time>
      </trkpt>
      <trkpt lat="34.717946" lon="-117.260215">
        <ele>940.000000</ele>
        <time>2018-01-27T18:30:46Z</time>
      </trkpt>
      <trkpt lat="34.717921" lon="-117.260113">
        <ele>940.097656</ele>
        <time>2018-01-27T18:30:47Z</time>
      </trkpt>
      <trkpt lat="34.717909" lon="-117.260076">
        <ele>940.097656</ele>
        <time>2018-01-27T18:30:50Z</time>
      </trkpt>
      <trkpt lat="34.717856" lon="-117.259993">
        <ele>940.097656</ele>
        <time>2018-01-27T18:30:51Z</time>
      </trkpt>
      <trkpt lat="34.717819" lon="-117.259943">
        <ele>941.500000</ele>
        <time>2018-01-27T18:32:54Z</time>
      </trkpt>
      <trkpt lat="34.717819" lon="-117.259943">
        <ele>941.500000</ele>
        <time>2018-01-27T18:32:54Z</time>
      </trkpt>
    </trkseg>
    <trkseg>
      <trkpt lat="34.717775" lon="-117.259897">
        <ele>947.199219</ele>
        <time>2018-01-27T18:50:54Z</time>
      </trkpt>
      <trkpt lat="34.717673" lon="-117.259718">
        <ele>947.296875</ele>
        <time>2018-01-27T18:51:06Z</time>
      </trkpt>
      <trkpt lat="34.717561" lon="-117.259555">
        <ele>947.199219</ele>
        <time>2018-01-27T18:51:10Z</time>
      </trkpt>
      <trkpt lat="34.717445" lon="-117.259397">
        <ele>947.199219</ele>
        <time>2018-01-27T18:51:14Z</time>
      </trkpt>
      <trkpt lat="34.71731" lon="-117.259183">
        <ele>948.597656</ele>
        <time>2018-01-27T18:51:19Z</time>
      </trkpt>
      <trkpt lat="34.717209" lon="-117.259">
        <ele>949.097656</ele>
        <time>2018-01-27T18:51:23Z</time>
      </trkpt>
      <trkpt lat="34.716985" lon="-117.258522">
        <ele>952.097656</ele>
        <time>2018-01-27T18:51:33Z</time>
      </trkpt>
      <trkpt lat="34.716959" lon="-117.258481">
        <ele>952.500000</ele>
        <time>2018-01-27T18:51:35Z</time>
      </trkpt>
      <trkpt lat="34.71691" lon="-117.258407">
        <ele>952.699219</ele>
        <time>2018-01-27T18:51:36Z</time>
      </trkpt>
      <trkpt lat="34.716883" lon="-117.258372">
        <ele>953.398438</ele>
        <time>2018-01-27T18:51:38Z</time>
      </trkpt>
      <trkpt lat="34.716819" lon="-117.258315">
        <ele>954.597656</ele>
        <time>2018-01-27T18:51:39Z</time>
      </trkpt>
      <trkpt lat="34.716787" lon="-117.258287">
        <ele>956.796875</ele>
        <time>2018-01-27T18:51:41Z</time>
      </trkpt>
      <trkpt lat="34.716723" lon="-117.258244">
        <ele>957.199219</ele>
        <time>2018-01-27T18:51:42Z</time>
      </trkpt>
      <trkpt lat="34.716691" lon="-117.258225">
        <ele>958.796875</ele>
        <time>2018-01-27T18:51:44Z</time>
      </trkpt>
      <trkpt lat="34.716632" lon="-117.258202">
        <ele>959.199219</ele>
        <time>2018-01-27T18:51:45Z</time>
      </trkpt>
      <trkpt lat="34.716602" lon="-117.258197">
        <ele>958.097656</ele>
        <time>2018-01-27T18:51:48Z</time>
      </trkpt>
      <trkpt lat="34.716521" lon="-117.258189">
        <ele>958.296875</ele>
        <time>2018-01-27T18:51:49Z</time>
      </trkpt>
      <trkpt lat="34.716495" lon="-117.258191">
        <ele>959.296875</ele>
        <time>2018-01-27T18:51:52Z</time>
      </trkpt>
      <trkpt lat="34.716145" lon="-117.258217">
        <ele>959.296875</ele>
        <time>2018-01-27T18:52:04Z</time>
      </trkpt>
      <trkpt lat="34.716121" lon="-117.258225">
        <ele>960.097656</ele>
        <time>2018-01-27T18:52:07Z</time>
      </trkpt>
      <trkpt lat="34.716049" lon="-117.258257">
        <ele>960.398438</ele>
        <time>2018-01-27T18:52:08Z</time>
      </trkpt>
      <trkpt lat="34.716024" lon="-117.25827">
        <ele>961.000000</ele>
        <time>2018-01-27T18:52:11Z</time>
      </trkpt>
      <trkpt lat="34.715954" lon="-117.258326">
        <ele>961.000000</ele>
        <time>2018-01-27T18:52:12Z</time>
      </trkpt>
      <trkpt lat="34.715932" lon="-117.258348">
        <ele>962.398438</ele>
        <time>2018-01-27T18:52:15Z</time>
      </trkpt>
      <trkpt lat="34.715863" lon="-117.258404">
        <ele>962.597656</ele>
        <time>2018-01-27T18:52:16Z</time>
      </trkpt>
      <trkpt lat="34.715839" lon="-117.25842">
        <ele>963.097656</ele>
        <time>2018-01-27T18:52:19Z</time>
      </trkpt>
      <trkpt lat="34.715762" lon="-117.258463">
        <ele>963.199219</ele>
        <time>2018-01-27T18:52:20Z</time>
      </trkpt>
      <trkpt lat="34.715733" lon="-117.258469">
        <ele>963.597656</ele>
        <time>2018-01-27T18:52:22Z</time>
      </trkpt>
      <trkpt lat="34.715667" lon="-117.258469">
        <ele>963.699219</ele>
        <time>2018-01-27T18:52:23Z</time>
      </trkpt>
      <trkpt lat="34.71563" lon="-117.258463">
        <ele>964.597656</ele>
        <time>2018-01-27T18:52:25Z</time>
      </trkpt>
      <trkpt lat="34.715551" lon="-117.258443">
        <ele>965.000000</ele>
        <time>2018-01-27T18:52:26Z</time>
      </trkpt>
      <trkpt lat="34.71551" lon="-117.258424">
        <ele>965.796875</ele>
        <time>2018-01-27T18:52:28Z</time>
      </trkpt>
      <trkpt lat="34.715431" lon="-117.25837">
        <ele>966.000000</ele>
        <time>2018-01-27T18:52:29Z</time>
      </trkpt>
      <trkpt lat="34.715395" lon="-117.258336">
        <ele>966.398438</ele>
        <time>2018-01-27T18:52:30Z</time>
      </trkpt>
      <trkpt lat="34.715364" lon="-117.258295">
        <ele>966.796875</ele>
        <time>2018-01-27T18:52:31Z</time>
      </trkpt>
      <trkpt lat="34.715268" lon="-117.258178">
        <ele>967.199219</ele>
        <time>2018-01-27T18:52:34Z</time>
      </trkpt>
      <trkpt lat="34.715231" lon="-117.258148">
        <ele>968.597656</ele>
        <time>2018-01-27T18:52:36Z</time>
      </trkpt>
      <trkpt lat="34.715111" lon="-117.258071">
        <ele>969.597656</ele>
        <time>2018-01-27T18:52:38Z</time>
      </trkpt>
      <trkpt lat="34.715024" lon="-117.258029">
        <ele>970.000000</ele>
        <time>2018-01-27T18:52:40Z</time>
      </trkpt>
      <trkpt lat="34.714979" lon="-117.258012">
        <ele>970.398438</ele>
        <time>2018-01-27T18:52:41Z</time>
      </trkpt>
      <trkpt lat="34.714882" lon="-117.25799">
        <ele>971.500000</ele>
        <time>2018-01-27T18:52:43Z</time>
      </trkpt>
      <trkpt lat="34.714652" lon="-117.257962">
        <ele>972.796875</ele>
        <time>2018-01-27T18:52:48Z</time>
      </trkpt>
      <trkpt lat="34.714623" lon="-117.257947">
        <ele>973.000000</ele>
        <time>2018-01-27T18:52:52Z</time>
      </trkpt>
      <trkpt lat="34.714568" lon="-117.257878">
        <ele>973.199219</ele>
        <time>2018-01-27T18:52:53Z</time>
      </trkpt>
      <trkpt lat="34.714553" lon="-117.257858">
        <ele>974.000000</ele>
        <time>2018-01-27T18:52:57Z</time>
      </trkpt>
      <trkpt lat="34.71446" lon="-117.257849">
        <ele>974.199219</ele>
        <time>2018-01-27T18:52:58Z</time>
      </trkpt>
      <trkpt lat="34.714435" lon="-117.257866">
        <ele>974.597656</ele>
        <time>2018-01-27T18:53:00Z</time>
      </trkpt>
      <trkpt lat="34.714348" lon="-117.257935">
        <ele>974.898438</ele>
        <time>2018-01-27T18:53:02Z</time>
      </trkpt>
      <trkpt lat="34.714245" lon="-117.258032">
        <ele>975.796875</ele>
        <time>2018-01-27T18:53:06Z</time>
      </trkpt>
      <trkpt lat="34.714227" lon="-117.258052">
        <ele>976.398438</ele>
        <time>2018-01-27T18:53:09Z</time>
      </trkpt>
      <trkpt lat="34.714167" lon="-117.258101">
        <ele>976.500000</ele>
        <time>2018-01-27T18:53:10Z</time>
      </trkpt>
      <trkpt lat="34.714144" lon="-117.258117">
        <ele>976.898438</ele>
        <time>2018-01-27T18:53:13Z</time>
      </trkpt>
      <trkpt lat="34.714082" lon="-117.258157">
        <ele>977.199219</ele>
        <time>2018-01-27T18:53:15Z</time>
      </trkpt>
      <trkpt lat="34.714044" lon="-117.258171">
        <ele>977.796875</ele>
        <time>2018-01-27T18:53:17Z</time>
      </trkpt>
      <trkpt lat="34.713987" lon="-117.258176">
        <ele>977.898438</ele>
        <time>2018-01-27T18:53:18Z</time>
      </trkpt>
      <trkpt lat="34.713954" lon="-117.25817">
        <ele>978.699219</ele>
        <time>2018-01-27T18:53:20Z</time>
      </trkpt>
      <trkpt lat="34.713853" lon="-117.258147">
        <ele>979.898438</ele>
        <time>2018-01-27T18:53:22Z</time>
      </trkpt>
      <trkpt lat="34.713819" lon="-117.258145">
        <ele>980.199219</ele>
        <time>2018-01-27T18:53:24Z</time>
      </trkpt>
      <trkpt lat="34.71375" lon="-117.258163">
        <ele>980.398438</ele>
        <time>2018-01-27T18:53:25Z</time>
      </trkpt>
      <trkpt lat="34.713715" lon="-117.258183">
        <ele>981.097656</ele>
        <time>2018-01-27T18:53:27Z</time>
      </trkpt>
      <trkpt lat="34.713645" lon="-117.258242">
        <ele>981.398438</ele>
        <time>2018-01-27T18:53:28Z</time>
      </trkpt>
      <trkpt lat="34.713611" lon="-117.258281">
        <ele>981.796875</ele>
        <time>2018-01-27T18:53:29Z</time>
      </trkpt>
      <trkpt lat="34.713545" lon="-117.258369">
        <ele>982.500000</ele>
        <time>2018-01-27T18:53:31Z</time>
      </trkpt>
      <trkpt lat="34.713371" lon="-117.258623">
        <ele>984.500000</ele>
        <time>2018-01-27T18:53:37Z</time>
      </trkpt>
      <trkpt lat="34.713346" lon="-117.258649">
        <ele>985.097656</ele>
        <time>2018-01-27T18:53:39Z</time>
      </trkpt>
      <trkpt lat="34.713295" lon="-117.258691">
        <ele>985.296875</ele>
        <time>2018-01-27T18:53:40Z</time>
      </trkpt>
      <trkpt lat="34.713184" lon="-117.258774">
        <ele>986.097656</ele>
        <time>2018-01-27T18:53:44Z</time>
      </trkpt>
      <trkpt lat="34.71308" lon="-117.258832">
        <ele>987.296875</ele>
        <time>2018-01-27T18:53:47Z</time>
      </trkpt>
      <trkpt lat="34.713045" lon="-117.258856">
        <ele>987.898438</ele>
        <time>2018-01-27T18:53:49Z</time>
      </trkpt>
      <trkpt lat="34.71298" lon="-117.258924">
        <ele>988.000000</ele>
        <time>2018-01-27T18:53:50Z</time>
      </trkpt>
      <trkpt lat="34.712952" lon="-117.258966">
        <ele>988.796875</ele>
        <time>2018-01-27T18:53:52Z</time>
      </trkpt>
      <trkpt lat="34.712901" lon="-117.259058">
        <ele>989.296875</ele>
        <time>2018-01-27T18:53:53Z</time>
      </trkpt>
      <trkpt lat="34.712857" lon="-117.259156">
        <ele>990.097656</ele>
        <time>2018-01-27T18:53:55Z</time>
      </trkpt>
      <trkpt lat="34.712838" lon="-117.259207">
        <ele>990.796875</ele>
        <time>2018-01-27T18:53:57Z</time>
      </trkpt>
      <trkpt lat="34.712792" lon="-117.259296">
        <ele>991.199219</ele>
        <time>2018-01-27T18:53:58Z</time>
      </trkpt>
      <trkpt lat="34.71276" lon="-117.25933">
        <ele>991.898438</ele>
        <time>2018-01-27T18:54:00Z</time>
      </trkpt>
      <trkpt lat="34.712686" lon="-117.259376">
        <ele>992.000000</ele>
        <time>2018-01-27T18:54:01Z</time>
      </trkpt>
      <trkpt lat="34.712646" lon="-117.259392">
        <ele>992.597656</ele>
        <time>2018-01-27T18:54:03Z</time>
      </trkpt>
      <trkpt lat="34.712561" lon="-117.259419">
        <ele>992.796875</ele>
        <time>2018-01-27T18:54:04Z</time>
      </trkpt>
      <trkpt lat="34.712515" lon="-117.259425">
        <ele>993.000000</ele>
        <time>2018-01-27T18:54:05Z</time>
      </trkpt>
      <trkpt lat="34.712378" lon="-117.259446">
        <ele>994.097656</ele>
        <time>2018-01-27T18:54:08Z</time>
      </trkpt>
      <trkpt lat="34.712333" lon="-117.259459">
        <ele>994.500000</ele>
        <time>2018-01-27T18:54:09Z</time>
      </trkpt>
      <trkpt lat="34.712289" lon="-117.259475">
        <ele>994.796875</ele>
        <time>2018-01-27T18:54:10Z</time>
      </trkpt>
      <trkpt lat="34.712246" lon="-117.259494">
        <ele>995.597656</ele>
        <time>2018-01-27T18:54:12Z</time>
      </trkpt>
      <trkpt lat="34.71217" lon="-117.259547">
        <ele>995.898438</ele>
        <time>2018-01-27T18:54:13Z</time>
      </trkpt>
      <trkpt lat="34.712134" lon="-117.259577">
        <ele>996.597656</ele>
        <time>2018-01-27T18:54:15Z</time>
      </trkpt>
      <trkpt lat="34.712066" lon="-117.259623">
        <ele>997.000000</ele>
        <time>2018-01-27T18:54:16Z</time>
      </trkpt>
      <trkpt lat="34.711976" lon="-117.259667">
        <ele>998.000000</ele>
        <time>2018-01-27T18:54:19Z</time>
      </trkpt>
      <trkpt lat="34.711951" lon="-117.259689">
        <ele>998.398438</ele>
        <time>2018-01-27T18:54:21Z</time>
      </trkpt>
      <trkpt lat="34.711898" lon="-117.259726">
        <ele>998.699219</ele>
        <time>2018-01-27T18:54:23Z</time>
      </trkpt>
      <trkpt lat="34.711842" lon="-117.259727">
        <ele>999.398438</ele>
        <time>2018-01-27T18:54:25Z</time>
      </trkpt>
      <trkpt lat="34.711787" lon="-117.259708">
        <ele>1000.500000</ele>
        <time>2018-01-27T18:54:27Z</time>
      </trkpt>
      <trkpt lat="34.711737" lon="-117.259678">
        <ele>1001.500000</ele>
        <time>2018-01-27T18:54:29Z</time>
      </trkpt>
      <trkpt lat="34.711687" lon="-117.259643">
        <ele>1003.000000</ele>
        <time>2018-01-27T18:54:31Z</time>
      </trkpt>
      <trkpt lat="34.711646" lon="-117.2596">
        <ele>1003.199219</ele>
        <time>2018-01-27T18:54:33Z</time>
      </trkpt>
      <trkpt lat="34.711618" lon="-117.259566">
        <ele>1002.597656</ele>
        <time>2018-01-27T18:54:36Z</time>
      </trkpt>
      <trkpt lat="34.711575" lon="-117.259527">
        <ele>1002.000000</ele>
        <time>2018-01-27T18:54:38Z</time>
      </trkpt>
      <trkpt lat="34.711541" lon="-117.259496">
        <ele>1001.796875</ele>
        <time>2018-01-27T18:54:41Z</time>
      </trkpt>
      <trkpt lat="34.71147" lon="-117.259413">
        <ele>1002.500000</ele>
        <time>2018-01-27T18:54:43Z</time>
      </trkpt>
      <trkpt lat="34.711447" lon="-117.259398">
        <ele>1003.296875</ele>
        <time>2018-01-27T18:54:46Z</time>
      </trkpt>
      <trkpt lat="34.711375" lon="-117.259389">
        <ele>1003.296875</ele>
        <time>2018-01-27T18:54:47Z</time>
      </trkpt>
      <trkpt lat="34.711354" lon="-117.259382">
        <ele>1004.097656</ele>
        <time>2018-01-27T18:54:50Z</time>
      </trkpt>
      <trkpt lat="34.711288" lon="-117.259329">
        <ele>1004.500000</ele>
        <time>2018-01-27T18:54:51Z</time>
      </trkpt>
      <trkpt lat="34.711265" lon="-117.259314">
        <ele>1005.500000</ele>
        <time>2018-01-27T18:54:54Z</time>
      </trkpt>
      <trkpt lat="34.711188" lon="-117.259292">
        <ele>1005.597656</ele>
        <time>2018-01-27T18:54:55Z</time>
      </trkpt>
      <trkpt lat="34.711163" lon="-117.259273">
        <ele>1006.296875</ele>
        <time>2018-01-27T18:54:57Z</time>
      </trkpt>
      <trkpt lat="34.710985" lon="-117.259144">
        <ele>1008.398438</ele>
        <time>2018-01-27T18:55:01Z</time>
      </trkpt>
      <trkpt lat="34.710947" lon="-117.259132">
        <ele>1008.699219</ele>
        <time>2018-01-27T18:55:03Z</time>
      </trkpt>
      <trkpt lat="34.710872" lon="-117.259126">
        <ele>1009.097656</ele>
        <time>2018-01-27T18:55:04Z</time>
      </trkpt>
      <trkpt lat="34.710834" lon="-117.259127">
        <ele>1009.500000</ele>
        <time>2018-01-27T18:55:06Z</time>
      </trkpt>
      <trkpt lat="34.710562" lon="-117.259134">
        <ele>1010.398438</ele>
        <time>2018-01-27T18:55:13Z</time>
      </trkpt>
      <trkpt lat="34.710543" lon="-117.259129">
        <ele>1011.398438</ele>
        <time>2018-01-27T18:55:17Z</time>
      </trkpt>
      <trkpt lat="34.710455" lon="-117.259092">
        <ele>1012.097656</ele>
        <time>2018-01-27T18:55:18Z</time>
      </trkpt>
      <trkpt lat="34.710433" lon="-117.259073">
        <ele>1012.898438</ele>
        <time>2018-01-27T18:55:21Z</time>
      </trkpt>
      <trkpt lat="34.710353" lon="-117.259016">
        <ele>1013.097656</ele>
        <time>2018-01-27T18:55:22Z</time>
      </trkpt>
      <trkpt lat="34.710326" lon="-117.259">
        <ele>1014.699219</ele>
        <time>2018-01-27T18:55:25Z</time>
      </trkpt>
      <trkpt lat="34.710241" lon="-117.258968">
        <ele>1015.097656</ele>
        <time>2018-01-27T18:55:26Z</time>
      </trkpt>
      <trkpt lat="34.71021" lon="-117.258958">
        <ele>1016.000000</ele>
        <time>2018-01-27T18:55:29Z</time>
      </trkpt>
      <trkpt lat="34.710123" lon="-117.258935">
        <ele>1016.699219</ele>
        <time>2018-01-27T18:55:30Z</time>
      </trkpt>
      <trkpt lat="34.71009" lon="-117.258923">
        <ele>1017.699219</ele>
        <time>2018-01-27T18:55:32Z</time>
      </trkpt>
      <trkpt lat="34.710036" lon="-117.258889">
        <ele>1018.597656</ele>
        <time>2018-01-27T18:55:34Z</time>
      </trkpt>
      <trkpt lat="34.709995" lon="-117.258852">
        <ele>1018.796875</ele>
        <time>2018-01-27T18:55:36Z</time>
      </trkpt>
      <trkpt lat="34.709954" lon="-117.258808">
        <ele>1019.199219</ele>
        <time>2018-01-27T18:55:38Z</time>
      </trkpt>
      <trkpt lat="34.70992" lon="-117.258751">
        <ele>1019.296875</ele>
        <time>2018-01-27T18:55:40Z</time>
      </trkpt>
      <trkpt lat="34.709885" lon="-117.258705">
        <ele>1019.796875</ele>
        <time>2018-01-27T18:55:43Z</time>
      </trkpt>
      <trkpt lat="34.709847" lon="-117.258666">
        <ele>1020.597656</ele>
        <time>2018-01-27T18:55:46Z</time>
      </trkpt>
      <trkpt lat="34.709804" lon="-117.25864">
        <ele>1021.199219</ele>
        <time>2018-01-27T18:55:49Z</time>
      </trkpt>
      <trkpt lat="34.709746" lon="-117.258621">
        <ele>1021.398438</ele>
        <time>2018-01-27T18:55:51Z</time>
      </trkpt>
      <trkpt lat="34.709701" lon="-117.258622">
        <ele>1021.796875</ele>
        <time>2018-01-27T18:55:54Z</time>
      </trkpt>
      <trkpt lat="34.709647" lon="-117.258626">
        <ele>1022.296875</ele>
        <time>2018-01-27T18:57:56Z</time>
      </trkpt>
      <trkpt lat="34.709647" lon="-117.258626">
        <ele>1022.296875</ele>
        <time>2018-01-27T18:57:56Z</time>
      </trkpt>
    </trkseg>
    <trkseg>
      <trkpt lat="34.709525" lon="-117.258605">
        <ele>1022.398438</ele>
        <time>2018-01-27T18:58:05Z</time>
      </trkpt>
      <trkpt lat="34.709398" lon="-117.258548">
        <ele>1025.199219</ele>
        <time>2018-01-27T18:58:10Z</time>
      </trkpt>
      <trkpt lat="34.709281" lon="-117.258497">
        <ele>1026.000000</ele>
        <time>2018-01-27T18:58:13Z</time>
      </trkpt>
      <trkpt lat="34.709247" lon="-117.258478">
        <ele>1026.398438</ele>
        <time>2018-01-27T18:58:15Z</time>
      </trkpt>
      <trkpt lat="34.709188" lon="-117.258437">
        <ele>1027.000000</ele>
        <time>2018-01-27T18:58:16Z</time>
      </trkpt>
      <trkpt lat="34.709163" lon="-117.258412">
        <ele>1027.699219</ele>
        <time>2018-01-27T18:58:18Z</time>
      </trkpt>
      <trkpt lat="34.709043" lon="-117.258295">
        <ele>1028.097656</ele>
        <time>2018-01-27T18:58:22Z</time>
      </trkpt>
      <trkpt lat="34.709021" lon="-117.258267">
        <ele>1028.898438</ele>
        <time>2018-01-27T18:58:24Z</time>
      </trkpt>
      <trkpt lat="34.708995" lon="-117.258201">
        <ele>1029.500000</ele>
        <time>2018-01-27T18:58:26Z</time>
      </trkpt>
      <trkpt lat="34.708834" lon="-117.257803">
        <ele>1033.796875</ele>
        <time>2018-01-27T18:58:39Z</time>
      </trkpt>
      <trkpt lat="34.708822" lon="-117.25778">
        <ele>1033.898438</ele>
        <time>2018-01-27T18:58:44Z</time>
      </trkpt>
      <trkpt lat="34.70871" lon="-117.257601">
        <ele>1031.796875</ele>
        <time>2018-01-27T18:58:49Z</time>
      </trkpt>
      <trkpt lat="34.708703" lon="-117.257581">
        <ele>1031.500000</ele>
        <time>2018-01-27T18:58:55Z</time>
      </trkpt>
      <trkpt lat="34.708663" lon="-117.257501">
        <ele>1031.597656</ele>
        <time>2018-01-27T18:58:56Z</time>
      </trkpt>
      <trkpt lat="34.70865" lon="-117.257486">
        <ele>1032.796875</ele>
        <time>2018-01-27T18:58:59Z</time>
      </trkpt>
      <trkpt lat="34.708555" lon="-117.25741">
        <ele>1033.199219</ele>
        <time>2018-01-27T18:59:00Z</time>
      </trkpt>
      <trkpt lat="34.708368" lon="-117.257275">
        <ele>1035.000000</ele>
        <time>2018-01-27T18:59:04Z</time>
      </trkpt>
      <trkpt lat="34.708331" lon="-117.257232">
        <ele>1035.296875</ele>
        <time>2018-01-27T18:59:05Z</time>
      </trkpt>
      <trkpt lat="34.708266" lon="-117.257141">
        <ele>1036.097656</ele>
        <time>2018-01-27T18:59:07Z</time>
      </trkpt>
      <trkpt lat="34.708115" lon="-117.256881">
        <ele>1038.500000</ele>
        <time>2018-01-27T18:59:12Z</time>
      </trkpt>
      <trkpt lat="34.708086" lon="-117.256825">
        <ele>1038.898438</ele>
        <time>2018-01-27T18:59:13Z</time>
      </trkpt>
      <trkpt lat="34.70806" lon="-117.256765">
        <ele>1039.500000</ele>
        <time>2018-01-27T18:59:14Z</time>
      </trkpt>
      <trkpt lat="34.707986" lon="-117.256588">
        <ele>1041.699219</ele>
        <time>2018-01-27T18:59:17Z</time>
      </trkpt>
      <trkpt lat="34.707958" lon="-117.256542">
        <ele>1042.296875</ele>
        <time>2018-01-27T18:59:18Z</time>
      </trkpt>
      <trkpt lat="34.70793" lon="-117.256501">
        <ele>1042.898438</ele>
        <time>2018-01-27T18:59:20Z</time>
      </trkpt>
      <trkpt lat="34.707843" lon="-117.25639">
        <ele>1043.398438</ele>
        <time>2018-01-27T18:59:24Z</time>
      </trkpt>
      <trkpt lat="34.707835" lon="-117.256372">
        <ele>1043.199219</ele>
        <time>2018-01-27T18:59:27Z</time>
      </trkpt>
      <trkpt lat="34.70781" lon="-117.256285">
        <ele>1043.500000</ele>
        <time>2018-01-27T18:59:28Z</time>
      </trkpt>
      <trkpt lat="34.707807" lon="-117.256242">
        <ele>1044.500000</ele>
        <time>2018-01-27T18:59:30Z</time>
      </trkpt>
      <trkpt lat="34.70781" lon="-117.256152">
        <ele>1045.097656</ele>
        <time>2018-01-27T18:59:31Z</time>
      </trkpt>
      <trkpt lat="34.707824" lon="-117.256029">
        <ele>1046.097656</ele>
        <time>2018-01-27T18:59:34Z</time>
      </trkpt>
      <trkpt lat="34.70782" lon="-117.255993">
        <ele>1047.097656</ele>
        <time>2018-01-27T18:59:36Z</time>
      </trkpt>
      <trkpt lat="34.707796" lon="-117.255922">
        <ele>1047.097656</ele>
        <time>2018-01-27T18:59:37Z</time>
      </trkpt>
      <trkpt lat="34.707781" lon="-117.255893">
        <ele>1048.199219</ele>
        <time>2018-01-27T18:59:40Z</time>
      </trkpt>
      <trkpt lat="34.707722" lon="-117.255816">
        <ele>1048.699219</ele>
        <time>2018-01-27T18:59:41Z</time>
      </trkpt>
      <trkpt lat="34.707648" lon="-117.255733">
        <ele>1049.398438</ele>
        <time>2018-01-27T18:59:44Z</time>
      </trkpt>
      <trkpt lat="34.707628" lon="-117.255703">
        <ele>1049.699219</ele>
        <time>2018-01-27T18:59:46Z</time>
      </trkpt>
      <trkpt lat="34.707596" lon="-117.255638">
        <ele>1050.097656</ele>
        <time>2018-01-27T18:59:48Z</time>
      </trkpt>
      <trkpt lat="34.707567" lon="-117.255596">
        <ele>1050.398438</ele>
        <time>2018-01-27T18:59:52Z</time>
      </trkpt>
      <trkpt lat="34.707527" lon="-117.255562">
        <ele>1051.296875</ele>
        <time>2018-01-27T18:59:55Z</time>
      </trkpt>
      <trkpt lat="34.707477" lon="-117.25554">
        <ele>1051.796875</ele>
        <time>2018-01-27T18:59:57Z</time>
      </trkpt>
      <trkpt lat="34.707418" lon="-117.255527">
        <ele>1052.097656</ele>
        <time>2018-01-27T18:59:58Z</time>
      </trkpt>
      <trkpt lat="34.707317" lon="-117.255518">
        <ele>1053.597656</ele>
        <time>2018-01-27T19:00:01Z</time>
      </trkpt>
      <trkpt lat="34.707287" lon="-117.255503">
        <ele>1054.199219</ele>
        <time>2018-01-27T19:00:04Z</time>
      </trkpt>
      <trkpt lat="34.707232" lon="-117.255459">
        <ele>1054.500000</ele>
        <time>2018-01-27T19:00:09Z</time>
      </trkpt>
      <trkpt lat="34.707215" lon="-117.255437">
        <ele>1056.296875</ele>
        <time>2018-01-27T19:00:12Z</time>
      </trkpt>
      <trkpt lat="34.707156" lon="-117.255348">
        <ele>1056.898438</ele>
        <time>2018-01-27T19:00:13Z</time>
      </trkpt>
      <trkpt lat="34.706932" lon="-117.255008">
        <ele>1066.898438</ele>
        <time>2018-01-27T19:00:24Z</time>
      </trkpt>
      <trkpt lat="34.706762" lon="-117.254696">
        <ele>1079.398438</ele>
        <time>2018-01-27T19:00:35Z</time>
      </trkpt>
      <trkpt lat="34.706743" lon="-117.254672">
        <ele>1083.199219</ele>
        <time>2018-01-27T19:00:38Z</time>
      </trkpt>
      <trkpt lat="34.70668" lon="-117.254601">
        <ele>1084.398438</ele>
        <time>2018-01-27T19:00:39Z</time>
      </trkpt>
      <trkpt lat="34.706658" lon="-117.254579">
        <ele>1086.500000</ele>
        <time>2018-01-27T19:00:43Z</time>
      </trkpt>
      <trkpt lat="34.706595" lon="-117.254522">
        <ele>1087.097656</ele>
        <time>2018-01-27T19:00:44Z</time>
      </trkpt>
      <trkpt lat="34.706577" lon="-117.254513">
        <ele>1085.898438</ele>
        <time>2018-01-27T19:01:24Z</time>
      </trkpt>
      <trkpt lat="34.706501" lon="-117.254495">
        <ele>1086.000000</ele>
        <time>2018-01-27T19:01:26Z</time>
      </trkpt>
      <trkpt lat="34.706482" lon="-117.254494">
        <ele>1086.296875</ele>
        <time>2018-01-27T19:01:36Z</time>
      </trkpt>
      <trkpt lat="34.706404" lon="-117.254486">
        <ele>1086.796875</ele>
        <time>2018-01-27T19:01:38Z</time>
      </trkpt>
      <trkpt lat="34.706383" lon="-117.254479">
        <ele>1088.097656</ele>
        <time>2018-01-27T19:01:46Z</time>
      </trkpt>
      <trkpt lat="34.706316" lon="-117.254429">
        <ele>1088.500000</ele>
        <time>2018-01-27T19:01:47Z</time>
      </trkpt>
      <trkpt lat="34.706305" lon="-117.254421">
        <ele>1089.796875</ele>
        <time>2018-01-27T19:01:52Z</time>
      </trkpt>
      <trkpt lat="34.706227" lon="-117.254393">
        <ele>1090.000000</ele>
        <time>2018-01-27T19:01:53Z</time>
      </trkpt>
      <trkpt lat="34.706209" lon="-117.254392">
        <ele>1090.296875</ele>
        <time>2018-01-27T19:01:58Z</time>
      </trkpt>
      <trkpt lat="34.706089" lon="-117.254389">
        <ele>1090.796875</ele>
        <time>2018-01-27T19:02:02Z</time>
      </trkpt>
      <trkpt lat="34.706074" lon="-117.254385">
        <ele>1091.898438</ele>
        <time>2018-01-27T19:02:07Z</time>
      </trkpt>
      <trkpt lat="34.70598" lon="-117.254357">
        <ele>1092.898438</ele>
        <time>2018-01-27T19:02:09Z</time>
      </trkpt>
      <trkpt lat="34.705756" lon="-117.254278">
        <ele>1097.796875</ele>
        <time>2018-01-27T19:02:22Z</time>
      </trkpt>
      <trkpt lat="34.705737" lon="-117.254276">
        <ele>1098.000000</ele>
        <time>2018-01-27T19:02:27Z</time>
      </trkpt>
      <trkpt lat="34.705651" lon="-117.254247">
        <ele>1098.000000</ele>
        <time>2018-01-27T19:02:28Z</time>
      </trkpt>
      <trkpt lat="34.705587" lon="-117.2542">
        <ele>1101.898438</ele>
        <time>2018-01-27T19:04:33Z</time>
      </trkpt>
      <trkpt lat="34.705587" lon="-117.2542">
        <ele>1101.898438</ele>
        <time>2018-01-27T19:04:33Z</time>
      </trkpt>
    </trkseg>
    <trkseg>
      <trkpt lat="34.705787" lon="-117.254275">
        <ele>1094.097656</ele>
        <time>2018-01-27T19:09:44Z</time>
      </trkpt>
      <trkpt lat="34.705923" lon="-117.254315">
        <ele>1091.398438</ele>
        <time>2018-01-27T19:09:58Z</time>
      </trkpt>
      <trkpt lat="34.705937" lon="-117.254321">
        <ele>1089.898438</ele>
        <time>2018-01-27T19:10:03Z</time>
      </trkpt>
      <trkpt lat="34.70609" lon="-117.254383">
        <ele>1088.296875</ele>
        <time>2018-01-27T19:10:09Z</time>
      </trkpt>
      <trkpt lat="34.706102" lon="-117.254385">
        <ele>1087.597656</ele>
        <time>2018-01-27T19:10:16Z</time>
      </trkpt>
      <trkpt lat="34.70619" lon="-117.254393">
        <ele>1087.500000</ele>
        <time>2018-01-27T19:10:17Z</time>
      </trkpt>
      <trkpt lat="34.706303" lon="-117.254398">
        <ele>1085.500000</ele>
        <time>2018-01-27T19:10:29Z</time>
      </trkpt>
      <trkpt lat="34.70631" lon="-117.254401">
        <ele>1088.199219</ele>
        <time>2018-01-27T19:10:57Z</time>
      </trkpt>
      <trkpt lat="34.706396" lon="-117.254468">
        <ele>1087.597656</ele>
        <time>2018-01-27T19:11:01Z</time>
      </trkpt>
      <trkpt lat="34.706402" lon="-117.25447">
        <ele>1085.796875</ele>
        <time>2018-01-27T19:11:16Z</time>
      </trkpt>
      <trkpt lat="34.706511" lon="-117.254504">
        <ele>1085.097656</ele>
        <time>2018-01-27T19:11:21Z</time>
      </trkpt>
      <trkpt lat="34.706516" lon="-117.254504">
        <ele>1086.699219</ele>
        <time>2018-01-27T19:12:56Z</time>
      </trkpt>
      <trkpt lat="34.706601" lon="-117.254516">
        <ele>1086.699219</ele>
        <time>2018-01-27T19:13:09Z</time>
      </trkpt>
      <trkpt lat="34.706613" lon="-117.254496">
        <ele>1082.000000</ele>
        <time>2018-01-27T19:13:25Z</time>
      </trkpt>
      <trkpt lat="34.706686" lon="-117.254559">
        <ele>1081.296875</ele>
        <time>2018-01-27T19:13:26Z</time>
      </trkpt>
      <trkpt lat="34.706705" lon="-117.254562">
        <ele>1078.097656</ele>
        <time>2018-01-27T19:13:29Z</time>
      </trkpt>
      <trkpt lat="34.706787" lon="-117.254557">
        <ele>1077.199219</ele>
        <time>2018-01-27T19:13:30Z</time>
      </trkpt>
      <trkpt lat="34.706815" lon="-117.254548">
        <ele>1073.500000</ele>
        <time>2018-01-27T19:13:33Z</time>
      </trkpt>
      <trkpt lat="34.706959" lon="-117.254504">
        <ele>1071.898438</ele>
        <time>2018-01-27T19:13:36Z</time>
      </trkpt>
      <trkpt lat="34.706987" lon="-117.254491">
        <ele>1070.296875</ele>
        <time>2018-01-27T19:13:39Z</time>
      </trkpt>
      <trkpt lat="34.707276" lon="-117.25435">
        <ele>1071.398438</ele>
        <time>2018-01-27T19:13:52Z</time>
      </trkpt>
      <trkpt lat="34.707292" lon="-117.254339">
        <ele>1071.000000</ele>
        <time>2018-01-27T19:13:56Z</time>
      </trkpt>
      <trkpt lat="34.707342" lon="-117.254273">
        <ele>1071.097656</ele>
        <time>2018-01-27T19:13:57Z</time>
      </trkpt>
      <trkpt lat="34.70735" lon="-117.254252">
        <ele>1070.000000</ele>
        <time>2018-01-27T19:14:01Z</time>
      </trkpt>
      <trkpt lat="34.707372" lon="-117.254163">
        <ele>1069.898438</ele>
        <time>2018-01-27T19:14:02Z</time>
      </trkpt>
      <trkpt lat="34.707374" lon="-117.254137">
        <ele>1069.898438</ele>
        <time>2018-01-27T19:14:06Z</time>
      </trkpt>
      <trkpt lat="34.707379" lon="-117.254025">
        <ele>1069.796875</ele>
        <time>2018-01-27T19:14:08Z</time>
      </trkpt>
      <trkpt lat="34.707377" lon="-117.254005">
        <ele>1068.500000</ele>
        <time>2018-01-27T19:14:12Z</time>
      </trkpt>
      <trkpt lat="34.707382" lon="-117.253914">
        <ele>1068.296875</ele>
        <time>2018-01-27T19:14:13Z</time>
      </trkpt>
      <trkpt lat="34.707386" lon="-117.253891">
        <ele>1067.000000</ele>
        <time>2018-01-27T19:14:17Z</time>
      </trkpt>
      <trkpt lat="34.707408" lon="-117.253802">
        <ele>1066.597656</ele>
        <time>2018-01-27T19:14:18Z</time>
      </trkpt>
      <trkpt lat="34.707439" lon="-117.253686">
        <ele>1063.796875</ele>
        <time>2018-01-27T19:14:24Z</time>
      </trkpt>
      <trkpt lat="34.707441" lon="-117.253666">
        <ele>1061.500000</ele>
        <time>2018-01-27T19:14:29Z</time>
      </trkpt>
      <trkpt lat="34.707445" lon="-117.253561">
        <ele>1060.699219</ele>
        <time>2018-01-27T19:14:30Z</time>
      </trkpt>
      <trkpt lat="34.707456" lon="-117.253242">
        <ele>1053.296875</ele>
        <time>2018-01-27T19:14:44Z</time>
      </trkpt>
      <trkpt lat="34.70749" lon="-117.25302">
        <ele>1048.796875</ele>
        <time>2018-01-27T19:15:00Z</time>
      </trkpt>
      <trkpt lat="34.707492" lon="-117.252996">
        <ele>1050.796875</ele>
        <time>2018-01-27T19:16:53Z</time>
      </trkpt>
      <trkpt lat="34.707492" lon="-117.252996">
        <ele>1050.796875</ele>
        <time>2018-01-27T19:16:53Z</time>
      </trkpt>
    </trkseg>
    <trkseg>
      <trkpt lat="34.707445" lon="-117.25287">
        <ele>1047.398438</ele>
        <time>2018-01-27T19:20:24Z</time>
      </trkpt>
      <trkpt lat="34.707341" lon="-117.252876">
        <ele>1042.898438</ele>
        <time>2018-01-27T19:20:39Z</time>
      </trkpt>
      <trkpt lat="34.707332" lon="-117.252879">
        <ele>1039.500000</ele>
        <time>2018-01-27T19:20:50Z</time>
      </trkpt>
      <trkpt lat="34.70725" lon="-117.252863">
        <ele>1039.199219</ele>
        <time>2018-01-27T19:20:51Z</time>
      </trkpt>
      <trkpt lat="34.707243" lon="-117.252857">
        <ele>1035.097656</ele>
        <time>2018-01-27T19:20:57Z</time>
      </trkpt>
      <trkpt lat="34.707187" lon="-117.252761">
        <ele>1034.500000</ele>
        <time>2018-01-27T19:20:58Z</time>
      </trkpt>
      <trkpt lat="34.707179" lon="-117.25274">
        <ele>1033.296875</ele>
        <time>2018-01-27T19:21:02Z</time>
      </trkpt>
      <trkpt lat="34.707082" lon="-117.25251">
        <ele>1031.097656</ele>
        <time>2018-01-27T19:21:09Z</time>
      </trkpt>
      <trkpt lat="34.707068" lon="-117.252482">
        <ele>1030.000000</ele>
        <time>2018-01-27T19:21:11Z</time>
      </trkpt>
      <trkpt lat="34.707031" lon="-117.252418">
        <ele>1029.500000</ele>
        <time>2018-01-27T19:21:12Z</time>
      </trkpt>
      <trkpt lat="34.707012" lon="-117.252385">
        <ele>1028.597656</ele>
        <time>2018-01-27T19:21:15Z</time>
      </trkpt>
      <trkpt lat="34.706991" lon="-117.252297">
        <ele>1028.699219</ele>
        <time>2018-01-27T19:21:16Z</time>
      </trkpt>
      <trkpt lat="34.70699" lon="-117.252272">
        <ele>1023.296875</ele>
        <time>2018-01-27T19:22:06Z</time>
      </trkpt>
      <trkpt lat="34.707011" lon="-117.25219">
        <ele>1023.000000</ele>
        <time>2018-01-27T19:22:31Z</time>
      </trkpt>
      <trkpt lat="34.707026" lon="-117.25217">
        <ele>1022.898438</ele>
        <time>2018-01-27T19:22:36Z</time>
      </trkpt>
      <trkpt lat="34.707065" lon="-117.252081">
        <ele>1022.796875</ele>
        <time>2018-01-27T19:22:37Z</time>
      </trkpt>
      <trkpt lat="34.707069" lon="-117.252058">
        <ele>1022.296875</ele>
        <time>2018-01-27T19:22:41Z</time>
      </trkpt>
      <trkpt lat="34.707085" lon="-117.251969">
        <ele>1022.097656</ele>
        <time>2018-01-27T19:22:42Z</time>
      </trkpt>
      <trkpt lat="34.707091" lon="-117.251949">
        <ele>1021.699219</ele>
        <time>2018-01-27T19:22:47Z</time>
      </trkpt>
      <trkpt lat="34.707135" lon="-117.251878">
        <ele>1022.000000</ele>
        <time>2018-01-27T19:22:49Z</time>
      </trkpt>
      <trkpt lat="34.707148" lon="-117.251858">
        <ele>1021.898438</ele>
        <time>2018-01-27T19:22:56Z</time>
      </trkpt>
      <trkpt lat="34.707177" lon="-117.251767">
        <ele>1021.500000</ele>
        <time>2018-01-27T19:22:57Z</time>
      </trkpt>
      <trkpt lat="34.70718" lon="-117.251751">
        <ele>1020.796875</ele>
        <time>2018-01-27T19:23:02Z</time>
      </trkpt>
      <trkpt lat="34.707191" lon="-117.251631">
        <ele>1020.699219</ele>
        <time>2018-01-27T19:23:04Z</time>
      </trkpt>
      <trkpt lat="34.707191" lon="-117.251607">
        <ele>1020.597656</ele>
        <time>2018-01-27T19:23:09Z</time>
      </trkpt>
      <trkpt lat="34.707172" lon="-117.251509">
        <ele>1020.597656</ele>
        <time>2018-01-27T19:23:10Z</time>
      </trkpt>
      <trkpt lat="34.707168" lon="-117.251495">
        <ele>1022.296875</ele>
        <time>2018-01-27T19:23:34Z</time>
      </trkpt>
      <trkpt lat="34.707132" lon="-117.251409">
        <ele>1022.296875</ele>
        <time>2018-01-27T19:23:35Z</time>
      </trkpt>
      <trkpt lat="34.707124" lon="-117.251393">
        <ele>1023.699219</ele>
        <time>2018-01-27T19:23:40Z</time>
      </trkpt>
      <trkpt lat="34.707097" lon="-117.251293">
        <ele>1023.199219</ele>
        <time>2018-01-27T19:23:41Z</time>
      </trkpt>
      <trkpt lat="34.707098" lon="-117.251269">
        <ele>1022.097656</ele>
        <time>2018-01-27T19:23:45Z</time>
      </trkpt>
      <trkpt lat="34.707125" lon="-117.251181">
        <ele>1021.898438</ele>
        <time>2018-01-27T19:23:46Z</time>
      </trkpt>
      <trkpt lat="34.707134" lon="-117.251158">
        <ele>1020.500000</ele>
        <time>2018-01-27T19:23:50Z</time>
      </trkpt>
      <trkpt lat="34.707192" lon="-117.251022">
        <ele>1019.199219</ele>
        <time>2018-01-27T19:23:55Z</time>
      </trkpt>
      <trkpt lat="34.707197" lon="-117.251006">
        <ele>1017.398438</ele>
        <time>2018-01-27T19:23:59Z</time>
      </trkpt>
      <trkpt lat="34.707229" lon="-117.250875">
        <ele>1016.296875</ele>
        <time>2018-01-27T19:24:01Z</time>
      </trkpt>
      <trkpt lat="34.707304" lon="-117.2506">
        <ele>1012.296875</ele>
        <time>2018-01-27T19:24:12Z</time>
      </trkpt>
      <trkpt lat="34.707301" lon="-117.250578">
        <ele>1011.097656</ele>
        <time>2018-01-27T19:24:16Z</time>
      </trkpt>
      <trkpt lat="34.707273" lon="-117.250492">
        <ele>1010.500000</ele>
        <time>2018-01-27T19:24:17Z</time>
      </trkpt>
      <trkpt lat="34.707248" lon="-117.250459">
        <ele>1008.000000</ele>
        <time>2018-01-27T19:26:28Z</time>
      </trkpt>
      <trkpt lat="34.707248" lon="-117.250459">
        <ele>1008.000000</ele>
        <time>2018-01-27T19:26:28Z</time>
      </trkpt>
    </trkseg>
    <trkseg>
      <trkpt lat="34.707207" lon="-117.250276">
        <ele>1010.296875</ele>
        <time>2018-01-27T19:29:14Z</time>
      </trkpt>
      <trkpt lat="34.707078" lon="-117.250061">
        <ele>1005.398438</ele>
        <time>2018-01-27T19:29:26Z</time>
      </trkpt>
      <trkpt lat="34.707059" lon="-117.250037">
        <ele>1004.296875</ele>
        <time>2018-01-27T19:29:29Z</time>
      </trkpt>
      <trkpt lat="34.707015" lon="-117.249968">
        <ele>1003.898438</ele>
        <time>2018-01-27T19:29:30Z</time>
      </trkpt>
      <trkpt lat="34.707004" lon="-117.249948">
        <ele>1003.500000</ele>
        <time>2018-01-27T19:29:35Z</time>
      </trkpt>
      <trkpt lat="34.706979" lon="-117.249863">
        <ele>1002.898438</ele>
        <time>2018-01-27T19:29:37Z</time>
      </trkpt>
      <trkpt lat="34.706979" lon="-117.24983">
        <ele>1002.500000</ele>
        <time>2018-01-27T19:29:40Z</time>
      </trkpt>
      <trkpt lat="34.706995" lon="-117.249727">
        <ele>1002.000000</ele>
        <time>2018-01-27T19:29:41Z</time>
      </trkpt>
      <trkpt lat="34.707031" lon="-117.249563">
        <ele>1000.597656</ele>
        <time>2018-01-27T19:29:44Z</time>
      </trkpt>
      <trkpt lat="34.707065" lon="-117.249422">
        <ele>1000.097656</ele>
        <time>2018-01-27T19:29:47Z</time>
      </trkpt>
      <trkpt lat="34.70707" lon="-117.249381">
        <ele>999.597656</ele>
        <time>2018-01-27T19:29:49Z</time>
      </trkpt>
      <trkpt lat="34.707059" lon="-117.249291">
        <ele>999.000000</ele>
        <time>2018-01-27T19:29:50Z</time>
      </trkpt>
      <trkpt lat="34.707041" lon="-117.249237">
        <ele>998.597656</ele>
        <time>2018-01-27T19:29:51Z</time>
      </trkpt>
      <trkpt lat="34.707018" lon="-117.249183">
        <ele>997.898438</ele>
        <time>2018-01-27T19:29:52Z</time>
      </trkpt>
      <trkpt lat="34.706972" lon="-117.249083">
        <ele>996.199219</ele>
        <time>2018-01-27T19:29:54Z</time>
      </trkpt>
      <trkpt lat="34.706956" lon="-117.249035">
        <ele>995.398438</ele>
        <time>2018-01-27T19:29:56Z</time>
      </trkpt>
      <trkpt lat="34.706934" lon="-117.248925">
        <ele>994.898438</ele>
        <time>2018-01-27T19:29:57Z</time>
      </trkpt>
      <trkpt lat="34.706928" lon="-117.248859">
        <ele>994.097656</ele>
        <time>2018-01-27T19:29:58Z</time>
      </trkpt>
      <trkpt lat="34.70688" lon="-117.248507">
        <ele>992.000000</ele>
        <time>2018-01-27T19:30:04Z</time>
      </trkpt>
      <trkpt lat="34.70688" lon="-117.248459">
        <ele>991.097656</ele>
        <time>2018-01-27T19:30:06Z</time>
      </trkpt>
      <trkpt lat="34.706893" lon="-117.24836">
        <ele>990.699219</ele>
        <time>2018-01-27T19:30:07Z</time>
      </trkpt>
      <trkpt lat="34.706906" lon="-117.2483">
        <ele>990.296875</ele>
        <time>2018-01-27T19:30:08Z</time>
      </trkpt>
      <trkpt lat="34.706955" lon="-117.248125">
        <ele>988.699219</ele>
        <time>2018-01-27T19:30:11Z</time>
      </trkpt>
      <trkpt lat="34.706972" lon="-117.248073">
        <ele>988.000000</ele>
        <time>2018-01-27T19:30:13Z</time>
      </trkpt>
      <trkpt lat="34.707013" lon="-117.247984">
        <ele>987.597656</ele>
        <time>2018-01-27T19:30:14Z</time>
      </trkpt>
      <trkpt lat="34.707082" lon="-117.247837">
        <ele>986.296875</ele>
        <time>2018-01-27T19:30:17Z</time>
      </trkpt>
      <trkpt lat="34.707097" lon="-117.247783">
        <ele>985.898438</ele>
        <time>2018-01-27T19:30:18Z</time>
      </trkpt>
      <trkpt lat="34.707109" lon="-117.247725">
        <ele>986.000000</ele>
        <time>2018-01-27T19:30:19Z</time>
      </trkpt>
      <trkpt lat="34.707115" lon="-117.247666">
        <ele>985.296875</ele>
        <time>2018-01-27T19:30:20Z</time>
      </trkpt>
      <trkpt lat="34.707113" lon="-117.247607">
        <ele>984.898438</ele>
        <time>2018-01-27T19:30:21Z</time>
      </trkpt>
      <trkpt lat="34.707107" lon="-117.247548">
        <ele>984.699219</ele>
        <time>2018-01-27T19:30:22Z</time>
      </trkpt>
      <trkpt lat="34.70707" lon="-117.247128">
        <ele>981.597656</ele>
        <time>2018-01-27T19:30:29Z</time>
      </trkpt>
      <trkpt lat="34.707066" lon="-117.246946">
        <ele>980.000000</ele>
        <time>2018-01-27T19:30:32Z</time>
      </trkpt>
      <trkpt lat="34.707059" lon="-117.246889">
        <ele>979.597656</ele>
        <time>2018-01-27T19:30:33Z</time>
      </trkpt>
      <trkpt lat="34.707048" lon="-117.246832">
        <ele>979.199219</ele>
        <time>2018-01-27T19:30:34Z</time>
      </trkpt>
      <trkpt lat="34.707032" lon="-117.246778">
        <ele>979.000000</ele>
        <time>2018-01-27T19:30:35Z</time>
      </trkpt>
      <trkpt lat="34.706992" lon="-117.246668">
        <ele>978.000000</ele>
        <time>2018-01-27T19:30:37Z</time>
      </trkpt>
      <trkpt lat="34.706839" lon="-117.246269">
        <ele>973.898438</ele>
        <time>2018-01-27T19:30:45Z</time>
      </trkpt>
      <trkpt lat="34.706827" lon="-117.246228">
        <ele>973.296875</ele>
        <time>2018-01-27T19:30:47Z</time>
      </trkpt>
      <trkpt lat="34.706785" lon="-117.246068">
        <ele>972.597656</ele>
        <time>2018-01-27T19:30:51Z</time>
      </trkpt>
      <trkpt lat="34.706782" lon="-117.246043">
        <ele>972.398438</ele>
        <time>2018-01-27T19:30:56Z</time>
      </trkpt>
      <trkpt lat="34.706787" lon="-117.245956">
        <ele>971.097656</ele>
        <time>2018-01-27T19:31:03Z</time>
      </trkpt>
      <trkpt lat="34.706783" lon="-117.245928">
        <ele>970.898438</ele>
        <time>2018-01-27T19:31:08Z</time>
      </trkpt>
      <trkpt lat="34.706765" lon="-117.245838">
        <ele>970.898438</ele>
        <time>2018-01-27T19:31:09Z</time>
      </trkpt>
      <trkpt lat="34.706756" lon="-117.24582">
        <ele>970.398438</ele>
        <time>2018-01-27T19:31:14Z</time>
      </trkpt>
      <trkpt lat="34.706725" lon="-117.245735">
        <ele>969.796875</ele>
        <time>2018-01-27T19:31:15Z</time>
      </trkpt>
      <trkpt lat="34.706721" lon="-117.245717">
        <ele>969.398438</ele>
        <time>2018-01-27T19:31:20Z</time>
      </trkpt>
      <trkpt lat="34.70669" lon="-117.245621">
        <ele>969.398438</ele>
        <time>2018-01-27T19:31:21Z</time>
      </trkpt>
      <trkpt lat="34.706682" lon="-117.245605">
        <ele>969.199219</ele>
        <time>2018-01-27T19:31:28Z</time>
      </trkpt>
      <trkpt lat="34.706646" lon="-117.245508">
        <ele>969.296875</ele>
        <time>2018-01-27T19:31:29Z</time>
      </trkpt>
      <trkpt lat="34.70661" lon="-117.245396">
        <ele>969.199219</ele>
        <time>2018-01-27T19:31:38Z</time>
      </trkpt>
      <trkpt lat="34.706608" lon="-117.245393">
        <ele>968.796875</ele>
        <time>2018-01-27T19:32:36Z</time>
      </trkpt>
      <trkpt lat="34.70656" lon="-117.245293">
        <ele>969.699219</ele>
        <time>2018-01-27T19:32:37Z</time>
      </trkpt>
      <trkpt lat="34.706475" lon="-117.245132">
        <ele>970.097656</ele>
        <time>2018-01-27T19:32:44Z</time>
      </trkpt>
      <trkpt lat="34.706465" lon="-117.245121">
        <ele>969.796875</ele>
        <time>2018-01-27T19:32:49Z</time>
      </trkpt>
      <trkpt lat="34.706374" lon="-117.245093">
        <ele>969.597656</ele>
        <time>2018-01-27T19:32:50Z</time>
      </trkpt>
      <trkpt lat="34.706352" lon="-117.245102">
        <ele>970.296875</ele>
        <time>2018-01-27T19:32:53Z</time>
      </trkpt>
      <trkpt lat="34.706284" lon="-117.245126">
        <ele>970.398438</ele>
        <time>2018-01-27T19:32:54Z</time>
      </trkpt>
      <trkpt lat="34.706261" lon="-117.245129">
        <ele>970.597656</ele>
        <time>2018-01-27T19:32:57Z</time>
      </trkpt>
      <trkpt lat="34.706192" lon="-117.245121">
        <ele>970.597656</ele>
        <time>2018-01-27T19:32:59Z</time>
      </trkpt>
      <trkpt lat="34.706151" lon="-117.24512">
        <ele>970.898438</ele>
        <time>2018-01-27T19:33:02Z</time>
      </trkpt>
      <trkpt lat="34.706101" lon="-117.245125">
        <ele>971.699219</ele>
        <time>2018-01-27T19:33:05Z</time>
      </trkpt>
      <trkpt lat="34.706062" lon="-117.245144">
        <ele>972.597656</ele>
        <time>2018-01-27T19:33:10Z</time>
      </trkpt>
      <trkpt lat="34.706012" lon="-117.245178">
        <ele>971.199219</ele>
        <time>2018-01-27T19:33:19Z</time>
      </trkpt>
      <trkpt lat="34.705973" lon="-117.245209">
        <ele>971.296875</ele>
        <time>2018-01-27T19:33:21Z</time>
      </trkpt>
      <trkpt lat="34.705936" lon="-117.245242">
        <ele>971.898438</ele>
        <time>2018-01-27T19:33:23Z</time>
      </trkpt>
      <trkpt lat="34.705899" lon="-117.245284">
        <ele>972.597656</ele>
        <time>2018-01-27T19:33:25Z</time>
      </trkpt>
      <trkpt lat="34.705869" lon="-117.245336">
        <ele>973.097656</ele>
        <time>2018-01-27T19:33:27Z</time>
      </trkpt>
      <trkpt lat="34.705845" lon="-117.245401">
        <ele>973.398438</ele>
        <time>2018-01-27T19:33:28Z</time>
      </trkpt>
      <trkpt lat="34.705832" lon="-117.245438">
        <ele>974.199219</ele>
        <time>2018-01-27T19:33:30Z</time>
      </trkpt>
      <trkpt lat="34.70581" lon="-117.245521">
        <ele>974.699219</ele>
        <time>2018-01-27T19:33:31Z</time>
      </trkpt>
      <trkpt lat="34.705803" lon="-117.245565">
        <ele>975.500000</ele>
        <time>2018-01-27T19:33:33Z</time>
      </trkpt>
      <trkpt lat="34.705783" lon="-117.24565">
        <ele>975.699219</ele>
        <time>2018-01-27T19:33:34Z</time>
      </trkpt>
      <trkpt lat="34.705765" lon="-117.245688">
        <ele>976.398438</ele>
        <time>2018-01-27T19:33:36Z</time>
      </trkpt>
      <trkpt lat="34.70573" lon="-117.245771">
        <ele>976.699219</ele>
        <time>2018-01-27T19:33:37Z</time>
      </trkpt>
      <trkpt lat="34.705714" lon="-117.245816">
        <ele>977.597656</ele>
        <time>2018-01-27T19:33:39Z</time>
      </trkpt>
      <trkpt lat="34.705675" lon="-117.245954">
        <ele>978.898438</ele>
        <time>2018-01-27T19:33:41Z</time>
      </trkpt>
      <trkpt lat="34.705658" lon="-117.246">
        <ele>979.898438</ele>
        <time>2018-01-27T19:33:43Z</time>
      </trkpt>
      <trkpt lat="34.705619" lon="-117.246084">
        <ele>979.898438</ele>
        <time>2018-01-27T19:33:44Z</time>
      </trkpt>
      <trkpt lat="34.7056" lon="-117.24611">
        <ele>980.898438</ele>
        <time>2018-01-27T19:33:48Z</time>
      </trkpt>
      <trkpt lat="34.705541" lon="-117.246145">
        <ele>981.500000</ele>
        <time>2018-01-27T19:33:50Z</time>
      </trkpt>
      <trkpt lat="34.70549" lon="-117.246125">
        <ele>980.699219</ele>
        <time>2018-01-27T19:33:52Z</time>
      </trkpt>
      <trkpt lat="34.705426" lon="-117.246074">
        <ele>980.398438</ele>
        <time>2018-01-27T19:33:53Z</time>
      </trkpt>
      <trkpt lat="34.705385" lon="-117.246059">
        <ele>980.199219</ele>
        <time>2018-01-27T19:33:55Z</time>
      </trkpt>
      <trkpt lat="34.705311" lon="-117.246047">
        <ele>980.199219</ele>
        <time>2018-01-27T19:33:56Z</time>
      </trkpt>
      <trkpt lat="34.705279" lon="-117.246051">
        <ele>980.097656</ele>
        <time>2018-01-27T19:33:58Z</time>
      </trkpt>
      <trkpt lat="34.705207" lon="-117.246059">
        <ele>980.000000</ele>
        <time>2018-01-27T19:33:59Z</time>
      </trkpt>
      <trkpt lat="34.705167" lon="-117.246059">
        <ele>979.898438</ele>
        <time>2018-01-27T19:34:01Z</time>
      </trkpt>
      <trkpt lat="34.705086" lon="-117.246058">
        <ele>980.597656</ele>
        <time>2018-01-27T19:34:02Z</time>
      </trkpt>
      <trkpt lat="34.705044" lon="-117.24605">
        <ele>980.500000</ele>
        <time>2018-01-27T19:34:04Z</time>
      </trkpt>
      <trkpt lat="34.704891" lon="-117.246012">
        <ele>980.699219</ele>
        <time>2018-01-27T19:34:07Z</time>
      </trkpt>
      <trkpt lat="34.704857" lon="-117.246001">
        <ele>980.898438</ele>
        <time>2018-01-27T19:34:09Z</time>
      </trkpt>
      <trkpt lat="34.704789" lon="-117.245991">
        <ele>981.000000</ele>
        <time>2018-01-27T19:34:10Z</time>
      </trkpt>
      <trkpt lat="34.704649" lon="-117.245986">
        <ele>981.296875</ele>
        <time>2018-01-27T19:34:14Z</time>
      </trkpt>
      <trkpt lat="34.704521" lon="-117.245987">
        <ele>981.796875</ele>
        <time>2018-01-27T19:34:18Z</time>
      </trkpt>
      <trkpt lat="34.704483" lon="-117.245992">
        <ele>982.296875</ele>
        <time>2018-01-27T19:34:20Z</time>
      </trkpt>
      <trkpt lat="34.704409" lon="-117.246017">
        <ele>982.597656</ele>
        <time>2018-01-27T19:34:21Z</time>
      </trkpt>
      <trkpt lat="34.704371" lon="-117.246024">
        <ele>982.898438</ele>
        <time>2018-01-27T19:34:23Z</time>
      </trkpt>
      <trkpt lat="34.704294" lon="-117.246024">
        <ele>983.097656</ele>
        <time>2018-01-27T19:34:24Z</time>
      </trkpt>
      <trkpt lat="34.704255" lon="-117.246028">
        <ele>983.296875</ele>
        <time>2018-01-27T19:34:26Z</time>
      </trkpt>
      <trkpt lat="34.703789" lon="-117.24608">
        <ele>982.796875</ele>
        <time>2018-01-27T19:34:40Z</time>
      </trkpt>
      <trkpt lat="34.703571" lon="-117.246076">
        <ele>984.000000</ele>
        <time>2018-01-27T19:34:46Z</time>
      </trkpt>
      <trkpt lat="34.703303" lon="-117.246059">
        <ele>984.699219</ele>
        <time>2018-01-27T19:34:56Z</time>
      </trkpt>
      <trkpt lat="34.703274" lon="-117.246059">
        <ele>984.898438</ele>
        <time>2018-01-27T19:34:59Z</time>
      </trkpt>
      <trkpt lat="34.703196" lon="-117.246049">
        <ele>984.796875</ele>
        <time>2018-01-27T19:35:00Z</time>
      </trkpt>
      <trkpt lat="34.703166" lon="-117.246038">
        <ele>984.597656</ele>
        <time>2018-01-27T19:35:02Z</time>
      </trkpt>
      <trkpt lat="34.702966" lon="-117.245971">
        <ele>984.097656</ele>
        <time>2018-01-27T19:35:07Z</time>
      </trkpt>
      <trkpt lat="34.702935" lon="-117.245949">
        <ele>984.000000</ele>
        <time>2018-01-27T19:35:09Z</time>
      </trkpt>
      <trkpt lat="34.702875" lon="-117.245893">
        <ele>983.898438</ele>
        <time>2018-01-27T19:35:10Z</time>
      </trkpt>
      <trkpt lat="34.702841" lon="-117.245868">
        <ele>984.097656</ele>
        <time>2018-01-27T19:35:12Z</time>
      </trkpt>
      <trkpt lat="34.702777" lon="-117.245833">
        <ele>984.500000</ele>
        <time>2018-01-27T19:35:13Z</time>
      </trkpt>
      <trkpt lat="34.702746" lon="-117.245819">
        <ele>984.898438</ele>
        <time>2018-01-27T19:35:15Z</time>
      </trkpt>
      <trkpt lat="34.70268" lon="-117.245801">
        <ele>984.699219</ele>
        <time>2018-01-27T19:35:16Z</time>
      </trkpt>
      <trkpt lat="34.702644" lon="-117.245805">
        <ele>985.000000</ele>
        <time>2018-01-27T19:35:18Z</time>
      </trkpt>
      <trkpt lat="34.702573" lon="-117.245848">
        <ele>985.398438</ele>
        <time>2018-01-27T19:35:19Z</time>
      </trkpt>
      <trkpt lat="34.702541" lon="-117.245881">
        <ele>986.097656</ele>
        <time>2018-01-27T19:35:21Z</time>
      </trkpt>
      <trkpt lat="34.702433" lon="-117.245993">
        <ele>986.796875</ele>
        <time>2018-01-27T19:35:23Z</time>
      </trkpt>
      <trkpt lat="34.702402" lon="-117.246032">
        <ele>987.097656</ele>
        <time>2018-01-27T19:35:24Z</time>
      </trkpt>
      <trkpt lat="34.702342" lon="-117.246121">
        <ele>987.796875</ele>
        <time>2018-01-27T19:35:26Z</time>
      </trkpt>
      <trkpt lat="34.702316" lon="-117.246172">
        <ele>988.097656</ele>
        <time>2018-01-27T19:35:27Z</time>
      </trkpt>
      <trkpt lat="34.702142" lon="-117.246553">
        <ele>990.898438</ele>
        <time>2018-01-27T19:35:34Z</time>
      </trkpt>
      <trkpt lat="34.702103" lon="-117.246604">
        <ele>991.296875</ele>
        <time>2018-01-27T19:35:35Z</time>
      </trkpt>
      <trkpt lat="34.702055" lon="-117.246648">
        <ele>991.699219</ele>
        <time>2018-01-27T19:35:36Z</time>
      </trkpt>
      <trkpt lat="34.701947" lon="-117.24673">
        <ele>992.398438</ele>
        <time>2018-01-27T19:35:38Z</time>
      </trkpt>
      <trkpt lat="34.701892" lon="-117.246768">
        <ele>992.699219</ele>
        <time>2018-01-27T19:35:39Z</time>
      </trkpt>
      <trkpt lat="34.701726" lon="-117.246863">
        <ele>993.796875</ele>
        <time>2018-01-27T19:35:42Z</time>
      </trkpt>
      <trkpt lat="34.701677" lon="-117.246902">
        <ele>994.000000</ele>
        <time>2018-01-27T19:35:43Z</time>
      </trkpt>
      <trkpt lat="34.70158" lon="-117.246997">
        <ele>994.000000</ele>
        <time>2018-01-27T19:35:45Z</time>
      </trkpt>
      <trkpt lat="34.701482" lon="-117.247107">
        <ele>995.097656</ele>
        <time>2018-01-27T19:35:47Z</time>
      </trkpt>
      <trkpt lat="34.701337" lon="-117.247287">
        <ele>996.199219</ele>
        <time>2018-01-27T19:35:50Z</time>
      </trkpt>
      <trkpt lat="34.701294" lon="-117.24735">
        <ele>996.699219</ele>
        <time>2018-01-27T19:35:51Z</time>
      </trkpt>
      <trkpt lat="34.701258" lon="-117.247416">
        <ele>997.097656</ele>
        <time>2018-01-27T19:35:52Z</time>
      </trkpt>
      <trkpt lat="34.701167" lon="-117.247601">
        <ele>998.398438</ele>
        <time>2018-01-27T19:35:55Z</time>
      </trkpt>
      <trkpt lat="34.701135" lon="-117.247643">
        <ele>998.699219</ele>
        <time>2018-01-27T19:35:57Z</time>
      </trkpt>
      <trkpt lat="34.701056" lon="-117.247738">
        <ele>999.199219</ele>
        <time>2018-01-27T19:36:00Z</time>
      </trkpt>
      <trkpt lat="34.701041" lon="-117.247765">
        <ele>1000.199219</ele>
        <time>2018-01-27T19:36:02Z</time>
      </trkpt>
      <trkpt lat="34.70098" lon="-117.247894">
        <ele>1001.796875</ele>
        <time>2018-01-27T19:36:05Z</time>
      </trkpt>
      <trkpt lat="34.700967" lon="-117.247922">
        <ele>1003.398438</ele>
        <time>2018-01-27T19:36:07Z</time>
      </trkpt>
      <trkpt lat="34.700911" lon="-117.248068">
        <ele>1004.796875</ele>
        <time>2018-01-27T19:36:09Z</time>
      </trkpt>
      <trkpt lat="34.700852" lon="-117.248226">
        <ele>1006.097656</ele>
        <time>2018-01-27T19:36:12Z</time>
      </trkpt>
      <trkpt lat="34.700827" lon="-117.248267">
        <ele>1006.500000</ele>
        <time>2018-01-27T19:36:14Z</time>
      </trkpt>
      <trkpt lat="34.700759" lon="-117.248317">
        <ele>1006.097656</ele>
        <time>2018-01-27T19:36:15Z</time>
      </trkpt>
      <trkpt lat="34.700714" lon="-117.248333">
        <ele>1005.796875</ele>
        <time>2018-01-27T19:36:16Z</time>
      </trkpt>
      <trkpt lat="34.700617" lon="-117.248375">
        <ele>1005.699219</ele>
        <time>2018-01-27T19:36:18Z</time>
      </trkpt>
      <trkpt lat="34.700571" lon="-117.248406">
        <ele>1006.199219</ele>
        <time>2018-01-27T19:36:19Z</time>
      </trkpt>
      <trkpt lat="34.70053" lon="-117.24844">
        <ele>1006.796875</ele>
        <time>2018-01-27T19:36:20Z</time>
      </trkpt>
      <trkpt lat="34.700327" lon="-117.248622">
        <ele>1007.699219</ele>
        <time>2018-01-27T19:36:25Z</time>
      </trkpt>
      <trkpt lat="34.700071" lon="-117.248866">
        <ele>1007.296875</ele>
        <time>2018-01-27T19:36:31Z</time>
      </trkpt>
      <trkpt lat="34.700027" lon="-117.248922">
        <ele>1007.398438</ele>
        <time>2018-01-27T19:36:32Z</time>
      </trkpt>
      <trkpt lat="34.699992" lon="-117.248981">
        <ele>1007.796875</ele>
        <time>2018-01-27T19:36:33Z</time>
      </trkpt>
      <trkpt lat="34.699897" lon="-117.249145">
        <ele>1008.597656</ele>
        <time>2018-01-27T19:36:36Z</time>
      </trkpt>
      <trkpt lat="34.699792" lon="-117.249349">
        <ele>1009.500000</ele>
        <time>2018-01-27T19:36:42Z</time>
      </trkpt>
      <trkpt lat="34.699544" lon="-117.249768">
        <ele>1013.398438</ele>
        <time>2018-01-27T19:36:53Z</time>
      </trkpt>
      <trkpt lat="34.69953" lon="-117.249802">
        <ele>1013.199219</ele>
        <time>2018-01-27T19:36:55Z</time>
      </trkpt>
      <trkpt lat="34.699504" lon="-117.249876">
        <ele>1012.796875</ele>
        <time>2018-01-27T19:36:56Z</time>
      </trkpt>
      <trkpt lat="34.699489" lon="-117.249908">
        <ele>1013.000000</ele>
        <time>2018-01-27T19:36:58Z</time>
      </trkpt>
      <trkpt lat="34.699453" lon="-117.249974">
        <ele>1013.199219</ele>
        <time>2018-01-27T19:36:59Z</time>
      </trkpt>
      <trkpt lat="34.699396" lon="-117.250062">
        <ele>1014.500000</ele>
        <time>2018-01-27T19:37:02Z</time>
      </trkpt>
      <trkpt lat="34.699378" lon="-117.250083">
        <ele>1016.398438</ele>
        <time>2018-01-27T19:37:05Z</time>
      </trkpt>
      <trkpt lat="34.699264" lon="-117.250232">
        <ele>1019.000000</ele>
        <time>2018-01-27T19:37:10Z</time>
      </trkpt>
      <trkpt lat="34.699207" lon="-117.250332">
        <ele>1021.000000</ele>
        <time>2018-01-27T19:37:13Z</time>
      </trkpt>
      <trkpt lat="34.699191" lon="-117.25037">
        <ele>1021.898438</ele>
        <time>2018-01-27T19:37:15Z</time>
      </trkpt>
      <trkpt lat="34.699158" lon="-117.250453">
        <ele>1022.597656</ele>
        <time>2018-01-27T19:37:16Z</time>
      </trkpt>
      <trkpt lat="34.699142" lon="-117.250499">
        <ele>1023.199219</ele>
        <time>2018-01-27T19:37:18Z</time>
      </trkpt>
      <trkpt lat="34.699114" lon="-117.250594">
        <ele>1023.699219</ele>
        <time>2018-01-27T19:37:19Z</time>
      </trkpt>
      <trkpt lat="34.699097" lon="-117.250639">
        <ele>1024.597656</ele>
        <time>2018-01-27T19:37:21Z</time>
      </trkpt>
      <trkpt lat="34.699064" lon="-117.250713">
        <ele>1025.000000</ele>
        <time>2018-01-27T19:37:22Z</time>
      </trkpt>
      <trkpt lat="34.698905" lon="-117.25102">
        <ele>1022.796875</ele>
        <time>2018-01-27T19:37:30Z</time>
      </trkpt>
      <trkpt lat="34.69878" lon="-117.251248">
        <ele>1020.500000</ele>
        <time>2018-01-27T19:37:35Z</time>
      </trkpt>
      <trkpt lat="34.69876" lon="-117.251295">
        <ele>1020.597656</ele>
        <time>2018-01-27T19:37:37Z</time>
      </trkpt>
      <trkpt lat="34.698726" lon="-117.251377">
        <ele>1021.000000</ele>
        <time>2018-01-27T19:37:38Z</time>
      </trkpt>
      <trkpt lat="34.698706" lon="-117.251412">
        <ele>1022.199219</ele>
        <time>2018-01-27T19:37:40Z</time>
      </trkpt>
      <trkpt lat="34.698554" lon="-117.251677">
        <ele>1023.000000</ele>
        <time>2018-01-27T19:37:47Z</time>
      </trkpt>
      <trkpt lat="34.698494" lon="-117.251803">
        <ele>1020.699219</ele>
        <time>2018-01-27T19:37:51Z</time>
      </trkpt>
      <trkpt lat="34.69848" lon="-117.251827">
        <ele>1021.699219</ele>
        <time>2018-01-27T19:37:54Z</time>
      </trkpt>
      <trkpt lat="34.698443" lon="-117.251899">
        <ele>1022.796875</ele>
        <time>2018-01-27T19:37:55Z</time>
      </trkpt>
      <trkpt lat="34.698429" lon="-117.25192">
        <ele>1021.000000</ele>
        <time>2018-01-27T19:38:00Z</time>
      </trkpt>
      <trkpt lat="34.698401" lon="-117.252024">
        <ele>1020.796875</ele>
        <time>2018-01-27T19:38:01Z</time>
      </trkpt>
      <trkpt lat="34.698393" lon="-117.252045">
        <ele>1021.199219</ele>
        <time>2018-01-27T19:38:05Z</time>
      </trkpt>
      <trkpt lat="34.698371" lon="-117.252154">
        <ele>1021.296875</ele>
        <time>2018-01-27T19:38:06Z</time>
      </trkpt>
      <trkpt lat="34.698372" lon="-117.252184">
        <ele>1022.597656</ele>
        <time>2018-01-27T19:38:09Z</time>
      </trkpt>
      <trkpt lat="34.698387" lon="-117.252283">
        <ele>1022.097656</ele>
        <time>2018-01-27T19:38:10Z</time>
      </trkpt>
      <trkpt lat="34.6984" lon="-117.252318">
        <ele>1022.199219</ele>
        <time>2018-01-27T19:38:12Z</time>
      </trkpt>
      <trkpt lat="34.698462" lon="-117.252478">
        <ele>1023.296875</ele>
        <time>2018-01-27T19:38:15Z</time>
      </trkpt>
      <trkpt lat="34.698544" lon="-117.252788">
        <ele>1026.398438</ele>
        <time>2018-01-27T19:38:21Z</time>
      </trkpt>
      <trkpt lat="34.698603" lon="-117.252921">
        <ele>1028.398438</ele>
        <time>2018-01-27T19:38:24Z</time>
      </trkpt>
      <trkpt lat="34.698612" lon="-117.252962">
        <ele>1029.796875</ele>
        <time>2018-01-27T19:38:26Z</time>
      </trkpt>
      <trkpt lat="34.698617" lon="-117.253044">
        <ele>1030.398438</ele>
        <time>2018-01-27T19:38:27Z</time>
      </trkpt>
      <trkpt lat="34.698612" lon="-117.253087">
        <ele>1032.097656</ele>
        <time>2018-01-27T19:38:29Z</time>
      </trkpt>
      <trkpt lat="34.698598" lon="-117.253165">
        <ele>1032.199219</ele>
        <time>2018-01-27T19:38:30Z</time>
      </trkpt>
      <trkpt lat="34.698599" lon="-117.253209">
        <ele>1033.199219</ele>
        <time>2018-01-27T19:38:32Z</time>
      </trkpt>
      <trkpt lat="34.698603" lon="-117.25329">
        <ele>1034.398438</ele>
        <time>2018-01-27T19:38:33Z</time>
      </trkpt>
      <trkpt lat="34.698607" lon="-117.253331">
        <ele>1035.199219</ele>
        <time>2018-01-27T19:38:35Z</time>
      </trkpt>
      <trkpt lat="34.698635" lon="-117.253399">
        <ele>1034.796875</ele>
        <time>2018-01-27T19:38:36Z</time>
      </trkpt>
      <trkpt lat="34.698655" lon="-117.253424">
        <ele>1036.000000</ele>
        <time>2018-01-27T19:38:39Z</time>
      </trkpt>
      <trkpt lat="34.698721" lon="-117.253447">
        <ele>1036.097656</ele>
        <time>2018-01-27T19:38:40Z</time>
      </trkpt>
      <trkpt lat="34.698749" lon="-117.253437">
        <ele>1035.898438</ele>
        <time>2018-01-27T19:38:43Z</time>
      </trkpt>
      <trkpt lat="34.698811" lon="-117.253382">
        <ele>1035.699219</ele>
        <time>2018-01-27T19:38:44Z</time>
      </trkpt>
      <trkpt lat="34.698826" lon="-117.253368">
        <ele>1035.296875</ele>
        <time>2018-01-27T19:38:48Z</time>
      </trkpt>
      <trkpt lat="34.698918" lon="-117.253345">
        <ele>1035.296875</ele>
        <time>2018-01-27T19:38:49Z</time>
      </trkpt>
      <trkpt lat="34.698946" lon="-117.253336">
        <ele>1035.597656</ele>
        <time>2018-01-27T19:38:52Z</time>
      </trkpt>
      <trkpt lat="34.699025" lon="-117.253288">
        <ele>1035.500000</ele>
        <time>2018-01-27T19:38:53Z</time>
      </trkpt>
      <trkpt lat="34.699053" lon="-117.253266">
        <ele>1035.796875</ele>
        <time>2018-01-27T19:38:55Z</time>
      </trkpt>
      <trkpt lat="34.699147" lon="-117.253192">
        <ele>1035.398438</ele>
        <time>2018-01-27T19:38:57Z</time>
      </trkpt>
      <trkpt lat="34.699173" lon="-117.253161">
        <ele>1035.699219</ele>
        <time>2018-01-27T19:38:59Z</time>
      </trkpt>
      <trkpt lat="34.699216" lon="-117.253098">
        <ele>1035.796875</ele>
        <time>2018-01-27T19:39:00Z</time>
      </trkpt>
      <trkpt lat="34.699236" lon="-117.253067">
        <ele>1036.199219</ele>
        <time>2018-01-27T19:39:03Z</time>
      </trkpt>
      <trkpt lat="34.699301" lon="-117.253009">
        <ele>1036.398438</ele>
        <time>2018-01-27T19:39:04Z</time>
      </trkpt>
      <trkpt lat="34.699329" lon="-117.253002">
        <ele>1036.796875</ele>
        <time>2018-01-27T19:39:07Z</time>
      </trkpt>
      <trkpt lat="34.699415" lon="-117.253031">
        <ele>1037.296875</ele>
        <time>2018-01-27T19:39:08Z</time>
      </trkpt>
      <trkpt lat="34.69944" lon="-117.253062">
        <ele>1038.898438</ele>
        <time>2018-01-27T19:39:10Z</time>
      </trkpt>
      <trkpt lat="34.699478" lon="-117.253143">
        <ele>1039.398438</ele>
        <time>2018-01-27T19:39:11Z</time>
      </trkpt>
      <trkpt lat="34.699492" lon="-117.253187">
        <ele>1040.699219</ele>
        <time>2018-01-27T19:39:13Z</time>
      </trkpt>
      <trkpt lat="34.699501" lon="-117.253272">
        <ele>1040.699219</ele>
        <time>2018-01-27T19:39:14Z</time>
      </trkpt>
      <trkpt lat="34.699489" lon="-117.253297">
        <ele>1039.097656</ele>
        <time>2018-01-27T19:39:19Z</time>
      </trkpt>
      <trkpt lat="34.699406" lon="-117.25329">
        <ele>1038.699219</ele>
        <time>2018-01-27T19:39:20Z</time>
      </trkpt>
      <trkpt lat="34.699388" lon="-117.253287">
        <ele>1037.796875</ele>
        <time>2018-01-27T19:39:25Z</time>
      </trkpt>
      <trkpt lat="34.699289" lon="-117.253281">
        <ele>1037.597656</ele>
        <time>2018-01-27T19:39:29Z</time>
      </trkpt>
      <trkpt lat="34.699281" lon="-117.253276">
        <ele>1039.898438</ele>
        <time>2018-01-27T19:41:18Z</time>
      </trkpt>
      <trkpt lat="34.699281" lon="-117.253276">
        <ele>1039.898438</ele>
        <time>2018-01-27T19:41:18Z</time>
      </trkpt>
    </trkseg>
    <trkseg>
      <trkpt lat="34.699237" lon="-117.253268">
        <ele>1033.199219</ele>
        <time>2018-01-27T20:22:44Z</time>
      </trkpt>
      <trkpt lat="34.699144" lon="-117.253223">
        <ele>1031.796875</ele>
        <time>2018-01-27T20:22:54Z</time>
      </trkpt>
      <trkpt lat="34.699126" lon="-117.253229">
        <ele>1032.597656</ele>
        <time>2018-01-27T20:22:58Z</time>
      </trkpt>
      <trkpt lat="34.699055" lon="-117.253278">
        <ele>1032.699219</ele>
        <time>2018-01-27T20:22:59Z</time>
      </trkpt>
      <trkpt lat="34.699035" lon="-117.253287">
        <ele>1033.500000</ele>
        <time>2018-01-27T20:23:03Z</time>
      </trkpt>
      <trkpt lat="34.698967" lon="-117.253332">
        <ele>1033.199219</ele>
        <time>2018-01-27T20:23:04Z</time>
      </trkpt>
      <trkpt lat="34.698945" lon="-117.253342">
        <ele>1034.000000</ele>
        <time>2018-01-27T20:23:07Z</time>
      </trkpt>
      <trkpt lat="34.698845" lon="-117.253372">
        <ele>1034.296875</ele>
        <time>2018-01-27T20:23:09Z</time>
      </trkpt>
      <trkpt lat="34.698823" lon="-117.253385">
        <ele>1034.597656</ele>
        <time>2018-01-27T20:23:12Z</time>
      </trkpt>
      <trkpt lat="34.698765" lon="-117.253438">
        <ele>1034.699219</ele>
        <time>2018-01-27T20:23:13Z</time>
      </trkpt>
      <trkpt lat="34.698745" lon="-117.253447">
        <ele>1033.000000</ele>
        <time>2018-01-27T20:23:18Z</time>
      </trkpt>
      <trkpt lat="34.69867" lon="-117.253425">
        <ele>1032.597656</ele>
        <time>2018-01-27T20:23:19Z</time>
      </trkpt>
      <trkpt lat="34.698658" lon="-117.253413">
        <ele>1030.097656</ele>
        <time>2018-01-27T20:23:23Z</time>
      </trkpt>
      <trkpt lat="34.698613" lon="-117.253305">
        <ele>1029.097656</ele>
        <time>2018-01-27T20:23:24Z</time>
      </trkpt>
      <trkpt lat="34.698607" lon="-117.253267">
        <ele>1027.699219</ele>
        <time>2018-01-27T20:23:27Z</time>
      </trkpt>
      <trkpt lat="34.698599" lon="-117.253164">
        <ele>1026.699219</ele>
        <time>2018-01-27T20:23:28Z</time>
      </trkpt>
      <trkpt lat="34.698605" lon="-117.253125">
        <ele>1025.796875</ele>
        <time>2018-01-27T20:23:30Z</time>
      </trkpt>
      <trkpt lat="34.698617" lon="-117.253056">
        <ele>1025.296875</ele>
        <time>2018-01-27T20:23:32Z</time>
      </trkpt>
      <trkpt lat="34.698616" lon="-117.252988">
        <ele>1023.699219</ele>
        <time>2018-01-27T20:23:34Z</time>
      </trkpt>
      <trkpt lat="34.698602" lon="-117.252921">
        <ele>1022.898438</ele>
        <time>2018-01-27T20:23:36Z</time>
      </trkpt>
      <trkpt lat="34.698573" lon="-117.252855">
        <ele>1022.597656</ele>
        <time>2018-01-27T20:23:37Z</time>
      </trkpt>
      <trkpt lat="34.698529" lon="-117.252747">
        <ele>1021.296875</ele>
        <time>2018-01-27T20:23:40Z</time>
      </trkpt>
      <trkpt lat="34.698515" lon="-117.252704">
        <ele>1019.898438</ele>
        <time>2018-01-27T20:23:42Z</time>
      </trkpt>
      <trkpt lat="34.698486" lon="-117.252571">
        <ele>1019.199219</ele>
        <time>2018-01-27T20:23:44Z</time>
      </trkpt>
      <trkpt lat="34.698456" lon="-117.252454">
        <ele>1018.796875</ele>
        <time>2018-01-27T20:23:47Z</time>
      </trkpt>
      <trkpt lat="34.698386" lon="-117.252257">
        <ele>1018.097656</ele>
        <time>2018-01-27T20:23:53Z</time>
      </trkpt>
      <trkpt lat="34.698371" lon="-117.252241">
        <ele>1017.597656</ele>
        <time>2018-01-27T20:23:57Z</time>
      </trkpt>
      <trkpt lat="34.698294" lon="-117.252241">
        <ele>1017.296875</ele>
        <time>2018-01-27T20:23:58Z</time>
      </trkpt>
      <trkpt lat="34.698273" lon="-117.252259">
        <ele>1017.097656</ele>
        <time>2018-01-27T20:24:01Z</time>
      </trkpt>
      <trkpt lat="34.69823" lon="-117.252348">
        <ele>1017.199219</ele>
        <time>2018-01-27T20:24:02Z</time>
      </trkpt>
      <trkpt lat="34.698219" lon="-117.252377">
        <ele>1017.500000</ele>
        <time>2018-01-27T20:24:05Z</time>
      </trkpt>
      <trkpt lat="34.698174" lon="-117.252463">
        <ele>1017.699219</ele>
        <time>2018-01-27T20:24:06Z</time>
      </trkpt>
      <trkpt lat="34.697962" lon="-117.252866">
        <ele>1021.199219</ele>
        <time>2018-01-27T20:24:19Z</time>
      </trkpt>
      <trkpt lat="34.697916" lon="-117.252983">
        <ele>1021.398438</ele>
        <time>2018-01-27T20:24:22Z</time>
      </trkpt>
      <trkpt lat="34.697901" lon="-117.253029">
        <ele>1021.796875</ele>
        <time>2018-01-27T20:24:24Z</time>
      </trkpt>
      <trkpt lat="34.697858" lon="-117.253122">
        <ele>1022.000000</ele>
        <time>2018-01-27T20:24:25Z</time>
      </trkpt>
      <trkpt lat="34.697607" lon="-117.253645">
        <ele>1025.199219</ele>
        <time>2018-01-27T20:24:41Z</time>
      </trkpt>
      <trkpt lat="34.697581" lon="-117.253685">
        <ele>1025.500000</ele>
        <time>2018-01-27T20:24:43Z</time>
      </trkpt>
      <trkpt lat="34.697462" lon="-117.253846">
        <ele>1025.898438</ele>
        <time>2018-01-27T20:24:46Z</time>
      </trkpt>
      <trkpt lat="34.697438" lon="-117.253893">
        <ele>1025.898438</ele>
        <time>2018-01-27T20:24:47Z</time>
      </trkpt>
      <trkpt lat="34.697043" lon="-117.254731">
        <ele>1028.699219</ele>
        <time>2018-01-27T20:25:02Z</time>
      </trkpt>
      <trkpt lat="34.697027" lon="-117.254772">
        <ele>1030.699219</ele>
        <time>2018-01-27T20:25:04Z</time>
      </trkpt>
      <trkpt lat="34.696993" lon="-117.254841">
        <ele>1031.296875</ele>
        <time>2018-01-27T20:25:05Z</time>
      </trkpt>
      <trkpt lat="34.696937" lon="-117.254939">
        <ele>1030.898438</ele>
        <time>2018-01-27T20:25:08Z</time>
      </trkpt>
      <trkpt lat="34.696917" lon="-117.254985">
        <ele>1030.000000</ele>
        <time>2018-01-27T20:25:10Z</time>
      </trkpt>
      <trkpt lat="34.696796" lon="-117.255259">
        <ele>1029.699219</ele>
        <time>2018-01-27T20:25:16Z</time>
      </trkpt>
      <trkpt lat="34.69667" lon="-117.255511">
        <ele>1031.296875</ele>
        <time>2018-01-27T20:25:23Z</time>
      </trkpt>
      <trkpt lat="34.696654" lon="-117.255547">
        <ele>1032.500000</ele>
        <time>2018-01-27T20:25:25Z</time>
      </trkpt>
      <trkpt lat="34.696626" lon="-117.255627">
        <ele>1032.898438</ele>
        <time>2018-01-27T20:25:26Z</time>
      </trkpt>
      <trkpt lat="34.696588" lon="-117.255744">
        <ele>1033.796875</ele>
        <time>2018-01-27T20:25:29Z</time>
      </trkpt>
      <trkpt lat="34.696552" lon="-117.255887">
        <ele>1034.398438</ele>
        <time>2018-01-27T20:25:32Z</time>
      </trkpt>
      <trkpt lat="34.696533" lon="-117.255937">
        <ele>1034.597656</ele>
        <time>2018-01-27T20:25:33Z</time>
      </trkpt>
      <trkpt lat="34.69651" lon="-117.255985">
        <ele>1034.699219</ele>
        <time>2018-01-27T20:25:35Z</time>
      </trkpt>
      <trkpt lat="34.696404" lon="-117.256218">
        <ele>1032.000000</ele>
        <time>2018-01-27T20:25:39Z</time>
      </trkpt>
      <trkpt lat="34.696285" lon="-117.256532">
        <ele>1030.597656</ele>
        <time>2018-01-27T20:25:46Z</time>
      </trkpt>
      <trkpt lat="34.696139" lon="-117.25684">
        <ele>1031.000000</ele>
        <time>2018-01-27T20:25:53Z</time>
      </trkpt>
      <trkpt lat="34.695454" lon="-117.258484">
        <ele>1023.898438</ele>
        <time>2018-01-27T20:26:16Z</time>
      </trkpt>
      <trkpt lat="34.695199" lon="-117.259024">
        <ele>1023.699219</ele>
        <time>2018-01-27T20:26:24Z</time>
      </trkpt>
      <trkpt lat="34.69504" lon="-117.259475">
        <ele>1024.199219</ele>
        <time>2018-01-27T20:26:31Z</time>
      </trkpt>
      <trkpt lat="34.694352" lon="-117.261152">
        <ele>1018.796875</ele>
        <time>2018-01-27T20:26:50Z</time>
      </trkpt>
      <trkpt lat="34.69427" lon="-117.261404">
        <ele>1020.796875</ele>
        <time>2018-01-27T20:26:53Z</time>
      </trkpt>
      <trkpt lat="34.694239" lon="-117.26147">
        <ele>1020.898438</ele>
        <time>2018-01-27T20:26:54Z</time>
      </trkpt>
      <trkpt lat="34.694025" lon="-117.261909">
        <ele>1017.097656</ele>
        <time>2018-01-27T20:27:01Z</time>
      </trkpt>
      <trkpt lat="34.693864" lon="-117.2623">
        <ele>1018.199219</ele>
        <time>2018-01-27T20:27:06Z</time>
      </trkpt>
      <trkpt lat="34.693559" lon="-117.262999">
        <ele>1018.500000</ele>
        <time>2018-01-27T20:27:19Z</time>
      </trkpt>
      <trkpt lat="34.693515" lon="-117.263128">
        <ele>1018.597656</ele>
        <time>2018-01-27T20:27:22Z</time>
      </trkpt>
      <trkpt lat="34.693434" lon="-117.263327">
        <ele>1016.597656</ele>
        <time>2018-01-27T20:27:26Z</time>
      </trkpt>
      <trkpt lat="34.692962" lon="-117.264428">
        <ele>1016.398438</ele>
        <time>2018-01-27T20:27:41Z</time>
      </trkpt>
      <trkpt lat="34.692904" lon="-117.264592">
        <ele>1017.296875</ele>
        <time>2018-01-27T20:27:44Z</time>
      </trkpt>
      <trkpt lat="34.692884" lon="-117.264626">
        <ele>1016.199219</ele>
        <time>2018-01-27T20:27:46Z</time>
      </trkpt>
      <trkpt lat="34.692747" lon="-117.264857">
        <ele>1016.097656</ele>
        <time>2018-01-27T20:27:50Z</time>
      </trkpt>
      <trkpt lat="34.692674" lon="-117.264941">
        <ele>1015.500000</ele>
        <time>2018-01-27T20:27:52Z</time>
      </trkpt>
      <trkpt lat="34.692642" lon="-117.264995">
        <ele>1015.597656</ele>
        <time>2018-01-27T20:27:53Z</time>
      </trkpt>
      <trkpt lat="34.69221" lon="-117.265776">
        <ele>1019.500000</ele>
        <time>2018-01-27T20:28:09Z</time>
      </trkpt>
      <trkpt lat="34.692194" lon="-117.265797">
        <ele>1019.097656</ele>
        <time>2018-01-27T20:28:13Z</time>
      </trkpt>
      <trkpt lat="34.692113" lon="-117.265819">
        <ele>1019.097656</ele>
        <time>2018-01-27T20:28:14Z</time>
      </trkpt>
      <trkpt lat="34.692096" lon="-117.265801">
        <ele>1020.000000</ele>
        <time>2018-01-27T20:28:17Z</time>
      </trkpt>
      <trkpt lat="34.692028" lon="-117.265707">
        <ele>1020.398438</ele>
        <time>2018-01-27T20:28:19Z</time>
      </trkpt>
      <trkpt lat="34.692007" lon="-117.265688">
        <ele>1020.796875</ele>
        <time>2018-01-27T20:28:22Z</time>
      </trkpt>
      <trkpt lat="34.691936" lon="-117.265644">
        <ele>1021.097656</ele>
        <time>2018-01-27T20:28:23Z</time>
      </trkpt>
      <trkpt lat="34.691911" lon="-117.26563">
        <ele>1021.796875</ele>
        <time>2018-01-27T20:28:26Z</time>
      </trkpt>
      <trkpt lat="34.691803" lon="-117.265581">
        <ele>1022.199219</ele>
        <time>2018-01-27T20:28:28Z</time>
      </trkpt>
      <trkpt lat="34.691711" lon="-117.265553">
        <ele>1022.898438</ele>
        <time>2018-01-27T20:28:31Z</time>
      </trkpt>
      <trkpt lat="34.691678" lon="-117.265547">
        <ele>1023.097656</ele>
        <time>2018-01-27T20:28:33Z</time>
      </trkpt>
      <trkpt lat="34.691196" lon="-117.265512">
        <ele>1025.296875</ele>
        <time>2018-01-27T20:28:43Z</time>
      </trkpt>
      <trkpt lat="34.691104" lon="-117.265513">
        <ele>1025.699219</ele>
        <time>2018-01-27T20:28:45Z</time>
      </trkpt>
      <trkpt lat="34.69106" lon="-117.265519">
        <ele>1026.199219</ele>
        <time>2018-01-27T20:28:47Z</time>
      </trkpt>
      <trkpt lat="34.690972" lon="-117.265542">
        <ele>1026.500000</ele>
        <time>2018-01-27T20:28:48Z</time>
      </trkpt>
      <trkpt lat="34.690787" lon="-117.265598">
        <ele>1027.699219</ele>
        <time>2018-01-27T20:28:52Z</time>
      </trkpt>
      <trkpt lat="34.69074" lon="-117.2656">
        <ele>1028.000000</ele>
        <time>2018-01-27T20:28:53Z</time>
      </trkpt>
      <trkpt lat="34.690696" lon="-117.265595">
        <ele>1028.597656</ele>
        <time>2018-01-27T20:28:55Z</time>
      </trkpt>
      <trkpt lat="34.69061" lon="-117.265571">
        <ele>1028.796875</ele>
        <time>2018-01-27T20:28:56Z</time>
      </trkpt>
      <trkpt lat="34.690418" lon="-117.265504">
        <ele>1029.796875</ele>
        <time>2018-01-27T20:29:00Z</time>
      </trkpt>
      <trkpt lat="34.690364" lon="-117.265501">
        <ele>1030.199219</ele>
        <time>2018-01-27T20:29:01Z</time>
      </trkpt>
      <trkpt lat="34.690314" lon="-117.265511">
        <ele>1030.597656</ele>
        <time>2018-01-27T20:29:02Z</time>
      </trkpt>
      <trkpt lat="34.690263" lon="-117.265521">
        <ele>1031.000000</ele>
        <time>2018-01-27T20:29:03Z</time>
      </trkpt>
      <trkpt lat="34.690213" lon="-117.265538">
        <ele>1031.296875</ele>
        <time>2018-01-27T20:29:04Z</time>
      </trkpt>
      <trkpt lat="34.6898" lon="-117.26566">
        <ele>1034.199219</ele>
        <time>2018-01-27T20:29:11Z</time>
      </trkpt>
      <trkpt lat="34.689734" lon="-117.26567">
        <ele>1034.597656</ele>
        <time>2018-01-27T20:29:12Z</time>
      </trkpt>
      <trkpt lat="34.689602" lon="-117.26569">
        <ele>1035.597656</ele>
        <time>2018-01-27T20:29:14Z</time>
      </trkpt>
      <trkpt lat="34.689537" lon="-117.265708">
        <ele>1036.199219</ele>
        <time>2018-01-27T20:29:15Z</time>
      </trkpt>
      <trkpt lat="34.689304" lon="-117.26577">
        <ele>1037.898438</ele>
        <time>2018-01-27T20:29:19Z</time>
      </trkpt>
      <trkpt lat="34.689253" lon="-117.265793">
        <ele>1038.000000</ele>
        <time>2018-01-27T20:29:20Z</time>
      </trkpt>
      <trkpt lat="34.689206" lon="-117.265823">
        <ele>1038.398438</ele>
        <time>2018-01-27T20:29:21Z</time>
      </trkpt>
      <trkpt lat="34.689164" lon="-117.265855">
        <ele>1038.699219</ele>
        <time>2018-01-27T20:29:22Z</time>
      </trkpt>
      <trkpt lat="34.689022" lon="-117.265966">
        <ele>1040.199219</ele>
        <time>2018-01-27T20:29:26Z</time>
      </trkpt>
      <trkpt lat="34.688988" lon="-117.266001">
        <ele>1041.097656</ele>
        <time>2018-01-27T20:29:28Z</time>
      </trkpt>
      <trkpt lat="34.688929" lon="-117.266074">
        <ele>1041.597656</ele>
        <time>2018-01-27T20:29:29Z</time>
      </trkpt>
      <trkpt lat="34.688898" lon="-117.266102">
        <ele>1042.398438</ele>
        <time>2018-01-27T20:29:31Z</time>
      </trkpt>
      <trkpt lat="34.688847" lon="-117.266177">
        <ele>1042.898438</ele>
        <time>2018-01-27T20:29:32Z</time>
      </trkpt>
      <trkpt lat="34.688826" lon="-117.266222">
        <ele>1043.398438</ele>
        <time>2018-01-27T20:29:34Z</time>
      </trkpt>
      <trkpt lat="34.688758" lon="-117.266356">
        <ele>1044.199219</ele>
        <time>2018-01-27T20:29:36Z</time>
      </trkpt>
      <trkpt lat="34.68873" lon="-117.266397">
        <ele>1045.296875</ele>
        <time>2018-01-27T20:29:38Z</time>
      </trkpt>
      <trkpt lat="34.688656" lon="-117.266458">
        <ele>1045.796875</ele>
        <time>2018-01-27T20:29:39Z</time>
      </trkpt>
      <trkpt lat="34.688609" lon="-117.266475">
        <ele>1046.296875</ele>
        <time>2018-01-27T20:29:40Z</time>
      </trkpt>
      <trkpt lat="34.688298" lon="-117.266591">
        <ele>1049.898438</ele>
        <time>2018-01-27T20:29:46Z</time>
      </trkpt>
      <trkpt lat="34.688246" lon="-117.266602">
        <ele>1050.500000</ele>
        <time>2018-01-27T20:29:47Z</time>
      </trkpt>
      <trkpt lat="34.688087" lon="-117.266623">
        <ele>1051.699219</ele>
        <time>2018-01-27T20:29:50Z</time>
      </trkpt>
      <trkpt lat="34.688038" lon="-117.266638">
        <ele>1052.199219</ele>
        <time>2018-01-27T20:29:51Z</time>
      </trkpt>
      <trkpt lat="34.687992" lon="-117.266663">
        <ele>1052.597656</ele>
        <time>2018-01-27T20:29:52Z</time>
      </trkpt>
      <trkpt lat="34.687648" lon="-117.266857">
        <ele>1056.199219</ele>
        <time>2018-01-27T20:29:59Z</time>
      </trkpt>
      <trkpt lat="34.687597" lon="-117.266877">
        <ele>1056.898438</ele>
        <time>2018-01-27T20:30:00Z</time>
      </trkpt>
      <trkpt lat="34.687546" lon="-117.266893">
        <ele>1057.296875</ele>
        <time>2018-01-27T20:30:01Z</time>
      </trkpt>
      <trkpt lat="34.687497" lon="-117.266904">
        <ele>1057.500000</ele>
        <time>2018-01-27T20:30:02Z</time>
      </trkpt>
      <trkpt lat="34.687448" lon="-117.266905">
        <ele>1058.000000</ele>
        <time>2018-01-27T20:30:03Z</time>
      </trkpt>
      <trkpt lat="34.687401" lon="-117.2669">
        <ele>1058.699219</ele>
        <time>2018-01-27T20:30:04Z</time>
      </trkpt>
      <trkpt lat="34.687357" lon="-117.266891">
        <ele>1060.000000</ele>
        <time>2018-01-27T20:30:06Z</time>
      </trkpt>
      <trkpt lat="34.687279" lon="-117.26686">
        <ele>1060.398438</ele>
        <time>2018-01-27T20:30:07Z</time>
      </trkpt>
      <trkpt lat="34.687245" lon="-117.266841">
        <ele>1061.296875</ele>
        <time>2018-01-27T20:30:09Z</time>
      </trkpt>
      <trkpt lat="34.687177" lon="-117.26681">
        <ele>1061.796875</ele>
        <time>2018-01-27T20:30:10Z</time>
      </trkpt>
      <trkpt lat="34.687145" lon="-117.2668">
        <ele>1062.597656</ele>
        <time>2018-01-27T20:30:12Z</time>
      </trkpt>
      <trkpt lat="34.687086" lon="-117.266787">
        <ele>1063.000000</ele>
        <time>2018-01-27T20:30:14Z</time>
      </trkpt>
      <trkpt lat="34.686971" lon="-117.266775">
        <ele>1063.597656</ele>
        <time>2018-01-27T20:30:17Z</time>
      </trkpt>
      <trkpt lat="34.686664" lon="-117.266712">
        <ele>1066.199219</ele>
        <time>2018-01-27T20:30:25Z</time>
      </trkpt>
      <trkpt lat="34.686633" lon="-117.266718">
        <ele>1067.000000</ele>
        <time>2018-01-27T20:30:27Z</time>
      </trkpt>
      <trkpt lat="34.686578" lon="-117.266746">
        <ele>1067.296875</ele>
        <time>2018-01-27T20:30:29Z</time>
      </trkpt>
      <trkpt lat="34.686527" lon="-117.266752">
        <ele>1067.796875</ele>
        <time>2018-01-27T20:30:32Z</time>
      </trkpt>
      <trkpt lat="34.686472" lon="-117.266721">
        <ele>1068.199219</ele>
        <time>2018-01-27T20:30:34Z</time>
      </trkpt>
      <trkpt lat="34.686435" lon="-117.266667">
        <ele>1068.398438</ele>
        <time>2018-01-27T20:30:36Z</time>
      </trkpt>
      <trkpt lat="34.686391" lon="-117.266618">
        <ele>1069.000000</ele>
        <time>2018-01-27T20:30:38Z</time>
      </trkpt>
      <trkpt lat="34.686352" lon="-117.266589">
        <ele>1070.597656</ele>
        <time>2018-01-27T20:30:55Z</time>
      </trkpt>
      <trkpt lat="34.686305" lon="-117.266573">
        <ele>1069.699219</ele>
        <time>2018-01-27T20:30:58Z</time>
      </trkpt>
      <trkpt lat="34.686196" lon="-117.266531">
        <ele>1069.296875</ele>
        <time>2018-01-27T20:31:01Z</time>
      </trkpt>
      <trkpt lat="34.686166" lon="-117.266524">
        <ele>1068.500000</ele>
        <time>2018-01-27T20:31:04Z</time>
      </trkpt>
      <trkpt lat="34.686073" lon="-117.26652">
        <ele>1068.000000</ele>
        <time>2018-01-27T20:31:06Z</time>
      </trkpt>
      <trkpt lat="34.685967" lon="-117.266489">
        <ele>1067.398438</ele>
        <time>2018-01-27T20:31:12Z</time>
      </trkpt>
      <trkpt lat="34.685953" lon="-117.266483">
        <ele>1067.500000</ele>
        <time>2018-01-27T20:31:18Z</time>
      </trkpt>
      <trkpt lat="34.685871" lon="-117.266457">
        <ele>1067.398438</ele>
        <time>2018-01-27T20:31:19Z</time>
      </trkpt>
      <trkpt lat="34.685851" lon="-117.266442">
        <ele>1066.699219</ele>
        <time>2018-01-27T20:31:22Z</time>
      </trkpt>
      <trkpt lat="34.685764" lon="-117.266369">
        <ele>1066.398438</ele>
        <time>2018-01-27T20:31:26Z</time>
      </trkpt>
      <trkpt lat="34.685752" lon="-117.266362">
        <ele>1066.296875</ele>
        <time>2018-01-27T20:31:33Z</time>
      </trkpt>
      <trkpt lat="34.685622" lon="-117.266285">
        <ele>1065.500000</ele>
        <time>2018-01-27T20:31:37Z</time>
      </trkpt>
      <trkpt lat="34.685606" lon="-117.266279">
        <ele>1065.597656</ele>
        <time>2018-01-27T20:31:41Z</time>
      </trkpt>
      <trkpt lat="34.685528" lon="-117.266253">
        <ele>1065.898438</ele>
        <time>2018-01-27T20:31:42Z</time>
      </trkpt>
      <trkpt lat="34.6855" lon="-117.266247">
        <ele>1066.597656</ele>
        <time>2018-01-27T20:31:45Z</time>
      </trkpt>
      <trkpt lat="34.685421" lon="-117.266239">
        <ele>1066.796875</ele>
        <time>2018-01-27T20:31:46Z</time>
      </trkpt>
      <trkpt lat="34.685395" lon="-117.266243">
        <ele>1067.597656</ele>
        <time>2018-01-27T20:31:49Z</time>
      </trkpt>
      <trkpt lat="34.685309" lon="-117.266253">
        <ele>1067.398438</ele>
        <time>2018-01-27T20:31:50Z</time>
      </trkpt>
      <trkpt lat="34.685278" lon="-117.266249">
        <ele>1067.000000</ele>
        <time>2018-01-27T20:31:52Z</time>
      </trkpt>
      <trkpt lat="34.685216" lon="-117.26623">
        <ele>1066.500000</ele>
        <time>2018-01-27T20:31:53Z</time>
      </trkpt>
      <trkpt lat="34.68519" lon="-117.266217">
        <ele>1065.296875</ele>
        <time>2018-01-27T20:31:56Z</time>
      </trkpt>
      <trkpt lat="34.684972" lon="-117.266088">
        <ele>1064.000000</ele>
        <time>2018-01-27T20:32:03Z</time>
      </trkpt>
      <trkpt lat="34.684855" lon="-117.266004">
        <ele>1063.898438</ele>
        <time>2018-01-27T20:32:08Z</time>
      </trkpt>
      <trkpt lat="34.684825" lon="-117.26599">
        <ele>1064.796875</ele>
        <time>2018-01-27T20:32:10Z</time>
      </trkpt>
      <trkpt lat="34.68476" lon="-117.265967">
        <ele>1065.097656</ele>
        <time>2018-01-27T20:32:11Z</time>
      </trkpt>
      <trkpt lat="34.68473" lon="-117.265952">
        <ele>1065.296875</ele>
        <time>2018-01-27T20:32:13Z</time>
      </trkpt>
      <trkpt lat="34.684669" lon="-117.26592">
        <ele>1065.398438</ele>
        <time>2018-01-27T20:32:14Z</time>
      </trkpt>
      <trkpt lat="34.684638" lon="-117.265909">
        <ele>1066.296875</ele>
        <time>2018-01-27T20:32:16Z</time>
      </trkpt>
      <trkpt lat="34.68458" lon="-117.265894">
        <ele>1067.898438</ele>
        <time>2018-01-27T20:32:18Z</time>
      </trkpt>
      <trkpt lat="34.684527" lon="-117.26587">
        <ele>1068.699219</ele>
        <time>2018-01-27T20:32:20Z</time>
      </trkpt>
      <trkpt lat="34.68447" lon="-117.26583">
        <ele>1068.699219</ele>
        <time>2018-01-27T20:32:21Z</time>
      </trkpt>
      <trkpt lat="34.684267" lon="-117.265676">
        <ele>1067.398438</ele>
        <time>2018-01-27T20:32:27Z</time>
      </trkpt>
      <trkpt lat="34.684233" lon="-117.265639">
        <ele>1066.597656</ele>
        <time>2018-01-27T20:32:29Z</time>
      </trkpt>
      <trkpt lat="34.684138" lon="-117.265518">
        <ele>1065.597656</ele>
        <time>2018-01-27T20:32:31Z</time>
      </trkpt>
      <trkpt lat="34.684097" lon="-117.26548">
        <ele>1065.398438</ele>
        <time>2018-01-27T20:32:32Z</time>
      </trkpt>
      <trkpt lat="34.684054" lon="-117.265448">
        <ele>1065.699219</ele>
        <time>2018-01-27T20:32:33Z</time>
      </trkpt>
      <trkpt lat="34.68401" lon="-117.265422">
        <ele>1065.597656</ele>
        <time>2018-01-27T20:32:34Z</time>
      </trkpt>
      <trkpt lat="34.683969" lon="-117.265399">
        <ele>1065.699219</ele>
        <time>2018-01-27T20:32:36Z</time>
      </trkpt>
      <trkpt lat="34.683829" lon="-117.265306">
        <ele>1067.296875</ele>
        <time>2018-01-27T20:32:39Z</time>
      </trkpt>
      <trkpt lat="34.683798" lon="-117.265293">
        <ele>1067.500000</ele>
        <time>2018-01-27T20:32:42Z</time>
      </trkpt>
      <trkpt lat="34.683713" lon="-117.265274">
        <ele>1067.699219</ele>
        <time>2018-01-27T20:32:43Z</time>
      </trkpt>
      <trkpt lat="34.683677" lon="-117.265264">
        <ele>1069.398438</ele>
        <time>2018-01-27T20:32:45Z</time>
      </trkpt>
      <trkpt lat="34.683502" lon="-117.265211">
        <ele>1072.000000</ele>
        <time>2018-01-27T20:32:48Z</time>
      </trkpt>
      <trkpt lat="34.683458" lon="-117.26521">
        <ele>1072.199219</ele>
        <time>2018-01-27T20:32:50Z</time>
      </trkpt>
      <trkpt lat="34.683367" lon="-117.265211">
        <ele>1072.597656</ele>
        <time>2018-01-27T20:32:51Z</time>
      </trkpt>
      <trkpt lat="34.683326" lon="-117.265215">
        <ele>1073.199219</ele>
        <time>2018-01-27T20:32:53Z</time>
      </trkpt>
      <trkpt lat="34.683256" lon="-117.265225">
        <ele>1073.500000</ele>
        <time>2018-01-27T20:32:54Z</time>
      </trkpt>
      <trkpt lat="34.683228" lon="-117.265231">
        <ele>1073.199219</ele>
        <time>2018-01-27T20:32:57Z</time>
      </trkpt>
      <trkpt lat="34.683157" lon="-117.265273">
        <ele>1073.000000</ele>
        <time>2018-01-27T20:32:58Z</time>
      </trkpt>
      <trkpt lat="34.683136" lon="-117.265289">
        <ele>1071.898438</ele>
        <time>2018-01-27T20:33:01Z</time>
      </trkpt>
      <trkpt lat="34.683036" lon="-117.265364">
        <ele>1072.296875</ele>
        <time>2018-01-27T20:33:03Z</time>
      </trkpt>
      <trkpt lat="34.683009" lon="-117.26538">
        <ele>1072.398438</ele>
        <time>2018-01-27T20:33:06Z</time>
      </trkpt>
      <trkpt lat="34.682939" lon="-117.265433">
        <ele>1072.296875</ele>
        <time>2018-01-27T20:33:07Z</time>
      </trkpt>
      <trkpt lat="34.682911" lon="-117.265445">
        <ele>1071.398438</ele>
        <time>2018-01-27T20:33:09Z</time>
      </trkpt>
      <trkpt lat="34.682849" lon="-117.265455">
        <ele>1070.796875</ele>
        <time>2018-01-27T20:33:10Z</time>
      </trkpt>
      <trkpt lat="34.682638" lon="-117.265487">
        <ele>1066.000000</ele>
        <time>2018-01-27T20:33:18Z</time>
      </trkpt>
      <trkpt lat="34.682617" lon="-117.265495">
        <ele>1066.097656</ele>
        <time>2018-01-27T20:33:21Z</time>
      </trkpt>
      <trkpt lat="34.682513" lon="-117.265514">
        <ele>1065.796875</ele>
        <time>2018-01-27T20:33:22Z</time>
      </trkpt>
      <trkpt lat="34.682464" lon="-117.265515">
        <ele>1065.000000</ele>
        <time>2018-01-27T20:33:23Z</time>
      </trkpt>
      <trkpt lat="34.682219" lon="-117.265518">
        <ele>1064.597656</ele>
        <time>2018-01-27T20:33:28Z</time>
      </trkpt>
      <trkpt lat="34.682033" lon="-117.265508">
        <ele>1063.097656</ele>
        <time>2018-01-27T20:33:33Z</time>
      </trkpt>
      <trkpt lat="34.681995" lon="-117.265501">
        <ele>1063.398438</ele>
        <time>2018-01-27T20:33:35Z</time>
      </trkpt>
      <trkpt lat="34.681833" lon="-117.265468">
        <ele>1063.097656</ele>
        <time>2018-01-27T20:33:38Z</time>
      </trkpt>
      <trkpt lat="34.681792" lon="-117.265466">
        <ele>1063.296875</ele>
        <time>2018-01-27T20:33:40Z</time>
      </trkpt>
      <trkpt lat="34.681679" lon="-117.265468">
        <ele>1063.199219</ele>
        <time>2018-01-27T20:33:42Z</time>
      </trkpt>
      <trkpt lat="34.681643" lon="-117.265473">
        <ele>1062.500000</ele>
        <time>2018-01-27T20:33:44Z</time>
      </trkpt>
      <trkpt lat="34.681518" lon="-117.265505">
        <ele>1061.296875</ele>
        <time>2018-01-27T20:33:47Z</time>
      </trkpt>
      <trkpt lat="34.68149" lon="-117.265514">
        <ele>1060.296875</ele>
        <time>2018-01-27T20:33:50Z</time>
      </trkpt>
      <trkpt lat="34.681426" lon="-117.265546">
        <ele>1059.398438</ele>
        <time>2018-01-27T20:33:52Z</time>
      </trkpt>
      <trkpt lat="34.681323" lon="-117.265591">
        <ele>1057.796875</ele>
        <time>2018-01-27T20:33:55Z</time>
      </trkpt>
      <trkpt lat="34.681282" lon="-117.265603">
        <ele>1056.500000</ele>
        <time>2018-01-27T20:33:57Z</time>
      </trkpt>
      <trkpt lat="34.681083" lon="-117.265651">
        <ele>1054.699219</ele>
        <time>2018-01-27T20:34:01Z</time>
      </trkpt>
      <trkpt lat="34.681042" lon="-117.265668">
        <ele>1053.597656</ele>
        <time>2018-01-27T20:34:03Z</time>
      </trkpt>
      <trkpt lat="34.680965" lon="-117.265715">
        <ele>1053.500000</ele>
        <time>2018-01-27T20:34:04Z</time>
      </trkpt>
      <trkpt lat="34.680869" lon="-117.265782">
        <ele>1052.898438</ele>
        <time>2018-01-27T20:34:07Z</time>
      </trkpt>
      <trkpt lat="34.680836" lon="-117.26581">
        <ele>1053.000000</ele>
        <time>2018-01-27T20:34:09Z</time>
      </trkpt>
      <trkpt lat="34.68078" lon="-117.265863">
        <ele>1053.000000</ele>
        <time>2018-01-27T20:34:10Z</time>
      </trkpt>
      <trkpt lat="34.680754" lon="-117.265879">
        <ele>1052.699219</ele>
        <time>2018-01-27T20:34:12Z</time>
      </trkpt>
      <trkpt lat="34.680694" lon="-117.265919">
        <ele>1052.296875</ele>
        <time>2018-01-27T20:34:13Z</time>
      </trkpt>
      <trkpt lat="34.680652" lon="-117.265938">
        <ele>1051.796875</ele>
        <time>2018-01-27T20:34:14Z</time>
      </trkpt>
      <trkpt lat="34.680277" lon="-117.266089">
        <ele>1050.398438</ele>
        <time>2018-01-27T20:34:23Z</time>
      </trkpt>
      <trkpt lat="34.680046" lon="-117.266154">
        <ele>1051.097656</ele>
        <time>2018-01-27T20:34:29Z</time>
      </trkpt>
      <trkpt lat="34.68001" lon="-117.266157">
        <ele>1051.597656</ele>
        <time>2018-01-27T20:34:32Z</time>
      </trkpt>
      <trkpt lat="34.679933" lon="-117.266144">
        <ele>1051.296875</ele>
        <time>2018-01-27T20:34:33Z</time>
      </trkpt>
      <trkpt lat="34.679738" lon="-117.266106">
        <ele>1049.097656</ele>
        <time>2018-01-27T20:34:38Z</time>
      </trkpt>
      <trkpt lat="34.679687" lon="-117.266109">
        <ele>1048.597656</ele>
        <time>2018-01-27T20:34:39Z</time>
      </trkpt>
      <trkpt lat="34.679638" lon="-117.266117">
        <ele>1047.898438</ele>
        <time>2018-01-27T20:34:40Z</time>
      </trkpt>
      <trkpt lat="34.679589" lon="-117.266129">
        <ele>1047.597656</ele>
        <time>2018-01-27T20:34:41Z</time>
      </trkpt>
      <trkpt lat="34.679544" lon="-117.266147">
        <ele>1047.000000</ele>
        <time>2018-01-27T20:34:43Z</time>
      </trkpt>
      <trkpt lat="34.679461" lon="-117.266164">
        <ele>1047.000000</ele>
        <time>2018-01-27T20:34:44Z</time>
      </trkpt>
      <trkpt lat="34.679416" lon="-117.266164">
        <ele>1046.796875</ele>
        <time>2018-01-27T20:34:45Z</time>
      </trkpt>
      <trkpt lat="34.679369" lon="-117.26616">
        <ele>1047.199219</ele>
        <time>2018-01-27T20:34:47Z</time>
      </trkpt>
      <trkpt lat="34.679233" lon="-117.266143">
        <ele>1048.000000</ele>
        <time>2018-01-27T20:34:50Z</time>
      </trkpt>
      <trkpt lat="34.679204" lon="-117.266137">
        <ele>1048.699219</ele>
        <time>2018-01-27T20:34:53Z</time>
      </trkpt>
      <trkpt lat="34.679123" lon="-117.266112">
        <ele>1048.597656</ele>
        <time>2018-01-27T20:34:54Z</time>
      </trkpt>
      <trkpt lat="34.679098" lon="-117.266094">
        <ele>1049.296875</ele>
        <time>2018-01-27T20:34:57Z</time>
      </trkpt>
      <trkpt lat="34.679035" lon="-117.266019">
        <ele>1049.597656</ele>
        <time>2018-01-27T20:34:58Z</time>
      </trkpt>
      <trkpt lat="34.679015" lon="-117.265995">
        <ele>1049.699219</ele>
        <time>2018-01-27T20:35:01Z</time>
      </trkpt>
      <trkpt lat="34.678931" lon="-117.26587">
        <ele>1050.000000</ele>
        <time>2018-01-27T20:35:03Z</time>
      </trkpt>
      <trkpt lat="34.678862" lon="-117.265762">
        <ele>1050.296875</ele>
        <time>2018-01-27T20:35:06Z</time>
      </trkpt>
      <trkpt lat="34.678649" lon="-117.265403">
        <ele>1054.898438</ele>
        <time>2018-01-27T20:35:16Z</time>
      </trkpt>
      <trkpt lat="34.678592" lon="-117.265286">
        <ele>1056.097656</ele>
        <time>2018-01-27T20:35:20Z</time>
      </trkpt>
      <trkpt lat="34.67858" lon="-117.265268">
        <ele>1055.500000</ele>
        <time>2018-01-27T20:35:29Z</time>
      </trkpt>
      <trkpt lat="34.678526" lon="-117.265194">
        <ele>1055.796875</ele>
        <time>2018-01-27T20:35:30Z</time>
      </trkpt>
      <trkpt lat="34.678504" lon="-117.265171">
        <ele>1056.597656</ele>
        <time>2018-01-27T20:35:32Z</time>
      </trkpt>
      <trkpt lat="34.678452" lon="-117.265127">
        <ele>1056.898438</ele>
        <time>2018-01-27T20:35:33Z</time>
      </trkpt>
      <trkpt lat="34.678426" lon="-117.265108">
        <ele>1059.199219</ele>
        <time>2018-01-27T20:35:36Z</time>
      </trkpt>
      <trkpt lat="34.678349" lon="-117.265057">
        <ele>1060.597656</ele>
        <time>2018-01-27T20:35:37Z</time>
      </trkpt>
      <trkpt lat="34.678123" lon="-117.264922">
        <ele>1064.699219</ele>
        <time>2018-01-27T20:35:45Z</time>
      </trkpt>
      <trkpt lat="34.678099" lon="-117.264901">
        <ele>1067.296875</ele>
        <time>2018-01-27T20:35:48Z</time>
      </trkpt>
      <trkpt lat="34.677984" lon="-117.264794">
        <ele>1069.796875</ele>
        <time>2018-01-27T20:35:51Z</time>
      </trkpt>
      <trkpt lat="34.677959" lon="-117.264776">
        <ele>1071.398438</ele>
        <time>2018-01-27T20:35:54Z</time>
      </trkpt>
      <trkpt lat="34.677874" lon="-117.264754">
        <ele>1072.199219</ele>
        <time>2018-01-27T20:35:55Z</time>
      </trkpt>
      <trkpt lat="34.677848" lon="-117.264756">
        <ele>1074.898438</ele>
        <time>2018-01-27T20:35:58Z</time>
      </trkpt>
      <trkpt lat="34.677762" lon="-117.264775">
        <ele>1075.398438</ele>
        <time>2018-01-27T20:35:59Z</time>
      </trkpt>
      <trkpt lat="34.677655" lon="-117.264797">
        <ele>1077.296875</ele>
        <time>2018-01-27T20:36:03Z</time>
      </trkpt>
      <trkpt lat="34.677624" lon="-117.2648">
        <ele>1078.699219</ele>
        <time>2018-01-27T20:36:06Z</time>
      </trkpt>
      <trkpt lat="34.677539" lon="-117.264781">
        <ele>1079.398438</ele>
        <time>2018-01-27T20:36:07Z</time>
      </trkpt>
      <trkpt lat="34.677513" lon="-117.264767">
        <ele>1081.296875</ele>
        <time>2018-01-27T20:36:10Z</time>
      </trkpt>
      <trkpt lat="34.677439" lon="-117.264722">
        <ele>1081.796875</ele>
        <time>2018-01-27T20:36:11Z</time>
      </trkpt>
      <trkpt lat="34.677415" lon="-117.264715">
        <ele>1083.000000</ele>
        <time>2018-01-27T20:36:15Z</time>
      </trkpt>
      <trkpt lat="34.677341" lon="-117.2647">
        <ele>1082.898438</ele>
        <time>2018-01-27T20:36:17Z</time>
      </trkpt>
      <trkpt lat="34.677322" lon="-117.264698">
        <ele>1082.398438</ele>
        <time>2018-01-27T20:36:22Z</time>
      </trkpt>
      <trkpt lat="34.677186" lon="-117.264693">
        <ele>1081.199219</ele>
        <time>2018-01-27T20:36:30Z</time>
      </trkpt>
      <trkpt lat="34.676531" lon="-117.264491">
        <ele>1060.699219</ele>
        <time>2018-01-27T20:37:04Z</time>
      </trkpt>
      <trkpt lat="34.676366" lon="-117.264461">
        <ele>1059.898438</ele>
        <time>2018-01-27T20:37:09Z</time>
      </trkpt>
      <trkpt lat="34.676336" lon="-117.264459">
        <ele>1060.000000</ele>
        <time>2018-01-27T20:37:17Z</time>
      </trkpt>
      <trkpt lat="34.676267" lon="-117.264468">
        <ele>1060.000000</ele>
        <time>2018-01-27T20:37:18Z</time>
      </trkpt>
      <trkpt lat="34.675891" lon="-117.264514">
        <ele>1061.699219</ele>
        <time>2018-01-27T20:37:26Z</time>
      </trkpt>
      <trkpt lat="34.675842" lon="-117.264509">
        <ele>1062.199219</ele>
        <time>2018-01-27T20:37:27Z</time>
      </trkpt>
      <trkpt lat="34.675702" lon="-117.264481">
        <ele>1063.796875</ele>
        <time>2018-01-27T20:37:30Z</time>
      </trkpt>
      <trkpt lat="34.675659" lon="-117.26447">
        <ele>1064.699219</ele>
        <time>2018-01-27T20:37:32Z</time>
      </trkpt>
      <trkpt lat="34.675594" lon="-117.264437">
        <ele>1065.000000</ele>
        <time>2018-01-27T20:37:33Z</time>
      </trkpt>
      <trkpt lat="34.675577" lon="-117.264423">
        <ele>1070.500000</ele>
        <time>2018-01-27T20:39:03Z</time>
      </trkpt>
      <trkpt lat="34.675508" lon="-117.264381">
        <ele>1070.199219</ele>
        <time>2018-01-27T20:39:04Z</time>
      </trkpt>
      <trkpt lat="34.675488" lon="-117.264364">
        <ele>1068.898438</ele>
        <time>2018-01-27T20:39:07Z</time>
      </trkpt>
      <trkpt lat="34.675411" lon="-117.264311">
        <ele>1068.597656</ele>
        <time>2018-01-27T20:39:08Z</time>
      </trkpt>
      <trkpt lat="34.675379" lon="-117.264295">
        <ele>1068.699219</ele>
        <time>2018-01-27T20:39:10Z</time>
      </trkpt>
      <trkpt lat="34.675002" lon="-117.264103">
        <ele>1068.898438</ele>
        <time>2018-01-27T20:39:20Z</time>
      </trkpt>
      <trkpt lat="34.674973" lon="-117.264085">
        <ele>1069.097656</ele>
        <time>2018-01-27T20:39:22Z</time>
      </trkpt>
      <trkpt lat="34.674913" lon="-117.264043">
        <ele>1068.597656</ele>
        <time>2018-01-27T20:39:23Z</time>
      </trkpt>
      <trkpt lat="34.674888" lon="-117.264021">
        <ele>1068.500000</ele>
        <time>2018-01-27T20:39:25Z</time>
      </trkpt>
      <trkpt lat="34.674841" lon="-117.263973">
        <ele>1068.199219</ele>
        <time>2018-01-27T20:39:26Z</time>
      </trkpt>
      <trkpt lat="34.674817" lon="-117.263945">
        <ele>1067.699219</ele>
        <time>2018-01-27T20:39:28Z</time>
      </trkpt>
      <trkpt lat="34.674732" lon="-117.263847">
        <ele>1067.296875</ele>
        <time>2018-01-27T20:39:31Z</time>
      </trkpt>
      <trkpt lat="34.674697" lon="-117.263821">
        <ele>1067.597656</ele>
        <time>2018-01-27T20:39:33Z</time>
      </trkpt>
      <trkpt lat="34.674607" lon="-117.263763">
        <ele>1068.500000</ele>
        <time>2018-01-27T20:39:35Z</time>
      </trkpt>
      <trkpt lat="34.674451" lon="-117.263664">
        <ele>1068.500000</ele>
        <time>2018-01-27T20:39:40Z</time>
      </trkpt>
      <trkpt lat="34.674426" lon="-117.263653">
        <ele>1068.898438</ele>
        <time>2018-01-27T20:39:43Z</time>
      </trkpt>
      <trkpt lat="34.674354" lon="-117.263636">
        <ele>1069.097656</ele>
        <time>2018-01-27T20:39:44Z</time>
      </trkpt>
      <trkpt lat="34.674327" lon="-117.263636">
        <ele>1069.398438</ele>
        <time>2018-01-27T20:39:47Z</time>
      </trkpt>
      <trkpt lat="34.67425" lon="-117.263635">
        <ele>1069.500000</ele>
        <time>2018-01-27T20:39:48Z</time>
      </trkpt>
      <trkpt lat="34.674222" lon="-117.26363">
        <ele>1070.296875</ele>
        <time>2018-01-27T20:39:51Z</time>
      </trkpt>
      <trkpt lat="34.674127" lon="-117.263607">
        <ele>1070.500000</ele>
        <time>2018-01-27T20:39:52Z</time>
      </trkpt>
      <trkpt lat="34.673997" lon="-117.26358">
        <ele>1070.500000</ele>
        <time>2018-01-27T20:39:55Z</time>
      </trkpt>
      <trkpt lat="34.673948" lon="-117.263578">
        <ele>1070.500000</ele>
        <time>2018-01-27T20:39:56Z</time>
      </trkpt>
      <trkpt lat="34.673835" lon="-117.263567">
        <ele>1071.000000</ele>
        <time>2018-01-27T20:39:58Z</time>
      </trkpt>
      <trkpt lat="34.673781" lon="-117.263551">
        <ele>1071.398438</ele>
        <time>2018-01-27T20:39:59Z</time>
      </trkpt>
      <trkpt lat="34.673731" lon="-117.263528">
        <ele>1072.097656</ele>
        <time>2018-01-27T20:40:00Z</time>
      </trkpt>
      <trkpt lat="34.673684" lon="-117.2635">
        <ele>1072.500000</ele>
        <time>2018-01-27T20:40:01Z</time>
      </trkpt>
      <trkpt lat="34.67327" lon="-117.263222">
        <ele>1073.796875</ele>
        <time>2018-01-27T20:40:11Z</time>
      </trkpt>
      <trkpt lat="34.673242" lon="-117.263209">
        <ele>1072.699219</ele>
        <time>2018-01-27T20:40:14Z</time>
      </trkpt>
      <trkpt lat="34.673135" lon="-117.263167">
        <ele>1072.500000</ele>
        <time>2018-01-27T20:40:16Z</time>
      </trkpt>
      <trkpt lat="34.673109" lon="-117.263153">
        <ele>1072.500000</ele>
        <time>2018-01-27T20:40:19Z</time>
      </trkpt>
      <trkpt lat="34.673045" lon="-117.263089">
        <ele>1072.500000</ele>
        <time>2018-01-27T20:40:20Z</time>
      </trkpt>
      <trkpt lat="34.672935" lon="-117.262989">
        <ele>1072.097656</ele>
        <time>2018-01-27T20:40:24Z</time>
      </trkpt>
      <trkpt lat="34.672908" lon="-117.262974">
        <ele>1072.097656</ele>
        <time>2018-01-27T20:40:27Z</time>
      </trkpt>
      <trkpt lat="34.672814" lon="-117.262959">
        <ele>1072.398438</ele>
        <time>2018-01-27T20:40:28Z</time>
      </trkpt>
      <trkpt lat="34.672698" lon="-117.262949">
        <ele>1072.296875</ele>
        <time>2018-01-27T20:40:32Z</time>
      </trkpt>
      <trkpt lat="34.672661" lon="-117.262935">
        <ele>1071.898438</ele>
        <time>2018-01-27T20:40:34Z</time>
      </trkpt>
      <trkpt lat="34.672589" lon="-117.262891">
        <ele>1072.398438</ele>
        <time>2018-01-27T20:40:35Z</time>
      </trkpt>
      <trkpt lat="34.672565" lon="-117.262872">
        <ele>1074.500000</ele>
        <time>2018-01-27T20:40:38Z</time>
      </trkpt>
      <trkpt lat="34.672351" lon="-117.26268">
        <ele>1074.898438</ele>
        <time>2018-01-27T20:40:43Z</time>
      </trkpt>
      <trkpt lat="34.672316" lon="-117.262643">
        <ele>1075.199219</ele>
        <time>2018-01-27T20:40:45Z</time>
      </trkpt>
      <trkpt lat="34.672268" lon="-117.262577">
        <ele>1074.500000</ele>
        <time>2018-01-27T20:40:46Z</time>
      </trkpt>
      <trkpt lat="34.672245" lon="-117.262547">
        <ele>1071.796875</ele>
        <time>2018-01-27T20:40:48Z</time>
      </trkpt>
      <trkpt lat="34.672208" lon="-117.262471">
        <ele>1071.296875</ele>
        <time>2018-01-27T20:40:49Z</time>
      </trkpt>
      <trkpt lat="34.672194" lon="-117.26244">
        <ele>1072.296875</ele>
        <time>2018-01-27T20:40:52Z</time>
      </trkpt>
      <trkpt lat="34.672135" lon="-117.262365">
        <ele>1072.699219</ele>
        <time>2018-01-27T20:40:53Z</time>
      </trkpt>
      <trkpt lat="34.672113" lon="-117.262338">
        <ele>1074.296875</ele>
        <time>2018-01-27T20:40:55Z</time>
      </trkpt>
      <trkpt lat="34.671996" lon="-117.262206">
        <ele>1074.000000</ele>
        <time>2018-01-27T20:40:59Z</time>
      </trkpt>
      <trkpt lat="34.671905" lon="-117.262112">
        <ele>1075.296875</ele>
        <time>2018-01-27T20:41:03Z</time>
      </trkpt>
      <trkpt lat="34.671873" lon="-117.262086">
        <ele>1075.097656</ele>
        <time>2018-01-27T20:41:05Z</time>
      </trkpt>
      <trkpt lat="34.671688" lon="-117.261936">
        <ele>1074.796875</ele>
        <time>2018-01-27T20:41:09Z</time>
      </trkpt>
      <trkpt lat="34.671654" lon="-117.261901">
        <ele>1073.500000</ele>
        <time>2018-01-27T20:41:11Z</time>
      </trkpt>
      <trkpt lat="34.671469" lon="-117.261692">
        <ele>1072.898438</ele>
        <time>2018-01-27T20:41:17Z</time>
      </trkpt>
      <trkpt lat="34.671445" lon="-117.26166">
        <ele>1072.699219</ele>
        <time>2018-01-27T20:41:19Z</time>
      </trkpt>
      <trkpt lat="34.671335" lon="-117.261497">
        <ele>1072.898438</ele>
        <time>2018-01-27T20:41:23Z</time>
      </trkpt>
      <trkpt lat="34.6713" lon="-117.261473">
        <ele>1073.199219</ele>
        <time>2018-01-27T20:41:25Z</time>
      </trkpt>
      <trkpt lat="34.671219" lon="-117.261465">
        <ele>1073.296875</ele>
        <time>2018-01-27T20:41:26Z</time>
      </trkpt>
      <trkpt lat="34.671175" lon="-117.26148">
        <ele>1073.398438</ele>
        <time>2018-01-27T20:41:27Z</time>
      </trkpt>
      <trkpt lat="34.671131" lon="-117.261502">
        <ele>1073.500000</ele>
        <time>2018-01-27T20:41:28Z</time>
      </trkpt>
      <trkpt lat="34.670994" lon="-117.261571">
        <ele>1073.796875</ele>
        <time>2018-01-27T20:41:31Z</time>
      </trkpt>
      <trkpt lat="34.670912" lon="-117.261624">
        <ele>1074.199219</ele>
        <time>2018-01-27T20:41:33Z</time>
      </trkpt>
      <trkpt lat="34.670879" lon="-117.261653">
        <ele>1074.500000</ele>
        <time>2018-01-27T20:41:35Z</time>
      </trkpt>
      <trkpt lat="34.670825" lon="-117.261718">
        <ele>1074.398438</ele>
        <time>2018-01-27T20:41:36Z</time>
      </trkpt>
      <trkpt lat="34.670802" lon="-117.261753">
        <ele>1074.898438</ele>
        <time>2018-01-27T20:41:38Z</time>
      </trkpt>
      <trkpt lat="34.670768" lon="-117.261834">
        <ele>1075.097656</ele>
        <time>2018-01-27T20:41:39Z</time>
      </trkpt>
      <trkpt lat="34.670755" lon="-117.261881">
        <ele>1075.898438</ele>
        <time>2018-01-27T20:41:41Z</time>
      </trkpt>
      <trkpt lat="34.67071" lon="-117.262069">
        <ele>1077.199219</ele>
        <time>2018-01-27T20:41:44Z</time>
      </trkpt>
      <trkpt lat="34.670704" lon="-117.26211">
        <ele>1077.796875</ele>
        <time>2018-01-27T20:41:46Z</time>
      </trkpt>
      <trkpt lat="34.670676" lon="-117.262177">
        <ele>1077.597656</ele>
        <time>2018-01-27T20:41:47Z</time>
      </trkpt>
      <trkpt lat="34.670652" lon="-117.262204">
        <ele>1078.097656</ele>
        <time>2018-01-27T20:41:49Z</time>
      </trkpt>
      <trkpt lat="34.670483" lon="-117.26239">
        <ele>1080.000000</ele>
        <time>2018-01-27T20:41:54Z</time>
      </trkpt>
      <trkpt lat="34.670223" lon="-117.262716">
        <ele>1082.398438</ele>
        <time>2018-01-27T20:42:02Z</time>
      </trkpt>
      <trkpt lat="34.670181" lon="-117.262751">
        <ele>1082.699219</ele>
        <time>2018-01-27T20:42:03Z</time>
      </trkpt>
      <trkpt lat="34.670135" lon="-117.262777">
        <ele>1083.000000</ele>
        <time>2018-01-27T20:42:04Z</time>
      </trkpt>
      <trkpt lat="34.670085" lon="-117.262797">
        <ele>1083.398438</ele>
        <time>2018-01-27T20:42:05Z</time>
      </trkpt>
      <trkpt lat="34.670034" lon="-117.262813">
        <ele>1083.796875</ele>
        <time>2018-01-27T20:42:06Z</time>
      </trkpt>
      <trkpt lat="34.669833" lon="-117.262859">
        <ele>1085.097656</ele>
        <time>2018-01-27T20:42:10Z</time>
      </trkpt>
      <trkpt lat="34.669735" lon="-117.262868">
        <ele>1085.898438</ele>
        <time>2018-01-27T20:42:12Z</time>
      </trkpt>
      <trkpt lat="34.669683" lon="-117.262865">
        <ele>1085.898438</ele>
        <time>2018-01-27T20:42:13Z</time>
      </trkpt>
      <trkpt lat="34.669628" lon="-117.26286">
        <ele>1086.000000</ele>
        <time>2018-01-27T20:42:14Z</time>
      </trkpt>
      <trkpt lat="34.669571" lon="-117.262863">
        <ele>1086.199219</ele>
        <time>2018-01-27T20:42:15Z</time>
      </trkpt>
      <trkpt lat="34.669514" lon="-117.262876">
        <ele>1086.699219</ele>
        <time>2018-01-27T20:42:16Z</time>
      </trkpt>
      <trkpt lat="34.668993" lon="-117.262997">
        <ele>1089.796875</ele>
        <time>2018-01-27T20:42:26Z</time>
      </trkpt>
      <trkpt lat="34.668568" lon="-117.263049">
        <ele>1094.398438</ele>
        <time>2018-01-27T20:42:34Z</time>
      </trkpt>
      <trkpt lat="34.668513" lon="-117.263067">
        <ele>1094.898438</ele>
        <time>2018-01-27T20:42:35Z</time>
      </trkpt>
      <trkpt lat="34.668366" lon="-117.263134">
        <ele>1097.097656</ele>
        <time>2018-01-27T20:42:38Z</time>
      </trkpt>
      <trkpt lat="34.668317" lon="-117.26314">
        <ele>1097.398438</ele>
        <time>2018-01-27T20:42:39Z</time>
      </trkpt>
      <trkpt lat="34.668268" lon="-117.263132">
        <ele>1097.898438</ele>
        <time>2018-01-27T20:42:40Z</time>
      </trkpt>
      <trkpt lat="34.668223" lon="-117.263112">
        <ele>1098.199219</ele>
        <time>2018-01-27T20:42:41Z</time>
      </trkpt>
      <trkpt lat="34.668186" lon="-117.263076">
        <ele>1098.398438</ele>
        <time>2018-01-27T20:42:42Z</time>
      </trkpt>
      <trkpt lat="34.668152" lon="-117.263032">
        <ele>1098.796875</ele>
        <time>2018-01-27T20:42:43Z</time>
      </trkpt>
      <trkpt lat="34.668121" lon="-117.26298">
        <ele>1099.000000</ele>
        <time>2018-01-27T20:42:44Z</time>
      </trkpt>
      <trkpt lat="34.668089" lon="-117.262927">
        <ele>1099.199219</ele>
        <time>2018-01-27T20:42:45Z</time>
      </trkpt>
      <trkpt lat="34.668052" lon="-117.262883">
        <ele>1099.597656</ele>
        <time>2018-01-27T20:42:46Z</time>
      </trkpt>
      <trkpt lat="34.668018" lon="-117.262847">
        <ele>1099.398438</ele>
        <time>2018-01-27T20:42:48Z</time>
      </trkpt>
      <trkpt lat="34.667893" lon="-117.262731">
        <ele>1099.097656</ele>
        <time>2018-01-27T20:42:51Z</time>
      </trkpt>
      <trkpt lat="34.667857" lon="-117.262704">
        <ele>1099.796875</ele>
        <time>2018-01-27T20:42:53Z</time>
      </trkpt>
      <trkpt lat="34.667785" lon="-117.262671">
        <ele>1099.796875</ele>
        <time>2018-01-27T20:42:54Z</time>
      </trkpt>
      <trkpt lat="34.66776" lon="-117.26266">
        <ele>1099.500000</ele>
        <time>2018-01-27T20:42:57Z</time>
      </trkpt>
      <trkpt lat="34.667702" lon="-117.26261">
        <ele>1099.500000</ele>
        <time>2018-01-27T20:42:58Z</time>
      </trkpt>
      <trkpt lat="34.667684" lon="-117.262585">
        <ele>1101.398438</ele>
        <time>2018-01-27T20:43:01Z</time>
      </trkpt>
      <trkpt lat="34.667616" lon="-117.262513">
        <ele>1101.296875</ele>
        <time>2018-01-27T20:43:02Z</time>
      </trkpt>
      <trkpt lat="34.667584" lon="-117.262497">
        <ele>1101.699219</ele>
        <time>2018-01-27T20:43:04Z</time>
      </trkpt>
      <trkpt lat="34.667515" lon="-117.262473">
        <ele>1101.699219</ele>
        <time>2018-01-27T20:43:05Z</time>
      </trkpt>
      <trkpt lat="34.667486" lon="-117.262443">
        <ele>1102.398438</ele>
        <time>2018-01-27T20:43:07Z</time>
      </trkpt>
      <trkpt lat="34.667429" lon="-117.262365">
        <ele>1103.000000</ele>
        <time>2018-01-27T20:43:08Z</time>
      </trkpt>
      <trkpt lat="34.667403" lon="-117.262328">
        <ele>1102.796875</ele>
        <time>2018-01-27T20:43:10Z</time>
      </trkpt>
      <trkpt lat="34.667348" lon="-117.262266">
        <ele>1102.699219</ele>
        <time>2018-01-27T20:43:11Z</time>
      </trkpt>
      <trkpt lat="34.667321" lon="-117.262244">
        <ele>1102.898438</ele>
        <time>2018-01-27T20:43:13Z</time>
      </trkpt>
      <trkpt lat="34.667264" lon="-117.262212">
        <ele>1103.199219</ele>
        <time>2018-01-27T20:43:14Z</time>
      </trkpt>
      <trkpt lat="34.667233" lon="-117.262204">
        <ele>1103.500000</ele>
        <time>2018-01-27T20:43:16Z</time>
      </trkpt>
      <trkpt lat="34.667174" lon="-117.262185">
        <ele>1104.199219</ele>
        <time>2018-01-27T20:43:18Z</time>
      </trkpt>
      <trkpt lat="34.667129" lon="-117.26215">
        <ele>1104.296875</ele>
        <time>2018-01-27T20:43:20Z</time>
      </trkpt>
      <trkpt lat="34.667079" lon="-117.262126">
        <ele>1105.199219</ele>
        <time>2018-01-27T20:43:22Z</time>
      </trkpt>
      <trkpt lat="34.666981" lon="-117.262084">
        <ele>1105.898438</ele>
        <time>2018-01-27T20:43:24Z</time>
      </trkpt>
      <trkpt lat="34.666783" lon="-117.261979">
        <ele>1106.398438</ele>
        <time>2018-01-27T20:43:29Z</time>
      </trkpt>
      <trkpt lat="34.666663" lon="-117.261922">
        <ele>1106.500000</ele>
        <time>2018-01-27T20:43:33Z</time>
      </trkpt>
      <trkpt lat="34.666651" lon="-117.261912">
        <ele>1106.097656</ele>
        <time>2018-01-27T20:43:37Z</time>
      </trkpt>
      <trkpt lat="34.666632" lon="-117.261789">
        <ele>1105.898438</ele>
        <time>2018-01-27T20:43:38Z</time>
      </trkpt>
      <trkpt lat="34.666649" lon="-117.26174">
        <ele>1105.398438</ele>
        <time>2018-01-27T20:43:39Z</time>
      </trkpt>
      <trkpt lat="34.666672" lon="-117.261688">
        <ele>1105.000000</ele>
        <time>2018-01-27T20:43:40Z</time>
      </trkpt>
      <trkpt lat="34.666763" lon="-117.261492">
        <ele>1102.699219</ele>
        <time>2018-01-27T20:43:44Z</time>
      </trkpt>
      <trkpt lat="34.666778" lon="-117.261443">
        <ele>1101.898438</ele>
        <time>2018-01-27T20:43:46Z</time>
      </trkpt>
      <trkpt lat="34.666794" lon="-117.261347">
        <ele>1101.597656</ele>
        <time>2018-01-27T20:43:47Z</time>
      </trkpt>
      <trkpt lat="34.666795" lon="-117.261302">
        <ele>1100.898438</ele>
        <time>2018-01-27T20:43:49Z</time>
      </trkpt>
      <trkpt lat="34.666792" lon="-117.261138">
        <ele>1099.000000</ele>
        <time>2018-01-27T20:43:51Z</time>
      </trkpt>
      <trkpt lat="34.666779" lon="-117.26107">
        <ele>1099.000000</ele>
        <time>2018-01-27T20:43:52Z</time>
      </trkpt>
      <trkpt lat="34.666645" lon="-117.260406">
        <ele>1094.296875</ele>
        <time>2018-01-27T20:44:03Z</time>
      </trkpt>
      <trkpt lat="34.666645" lon="-117.26035">
        <ele>1093.699219</ele>
        <time>2018-01-27T20:44:04Z</time>
      </trkpt>
      <trkpt lat="34.666652" lon="-117.260287">
        <ele>1093.199219</ele>
        <time>2018-01-27T20:44:05Z</time>
      </trkpt>
      <trkpt lat="34.666673" lon="-117.26016">
        <ele>1092.199219</ele>
        <time>2018-01-27T20:44:07Z</time>
      </trkpt>
      <trkpt lat="34.666699" lon="-117.260025">
        <ele>1091.296875</ele>
        <time>2018-01-27T20:44:09Z</time>
      </trkpt>
      <trkpt lat="34.666704" lon="-117.259955">
        <ele>1091.000000</ele>
        <time>2018-01-27T20:44:10Z</time>
      </trkpt>
      <trkpt lat="34.66669" lon="-117.259894">
        <ele>1090.500000</ele>
        <time>2018-01-27T20:44:11Z</time>
      </trkpt>
      <trkpt lat="34.666677" lon="-117.259844">
        <ele>1089.500000</ele>
        <time>2018-01-27T20:44:13Z</time>
      </trkpt>
      <trkpt lat="34.66664" lon="-117.259772">
        <ele>1088.898438</ele>
        <time>2018-01-27T20:44:14Z</time>
      </trkpt>
      <trkpt lat="34.666623" lon="-117.259749">
        <ele>1087.000000</ele>
        <time>2018-01-27T20:44:17Z</time>
      </trkpt>
      <trkpt lat="34.666574" lon="-117.259686">
        <ele>1086.398438</ele>
        <time>2018-01-27T20:44:18Z</time>
      </trkpt>
      <trkpt lat="34.66655" lon="-117.259662">
        <ele>1085.597656</ele>
        <time>2018-01-27T20:44:20Z</time>
      </trkpt>
      <trkpt lat="34.666304" lon="-117.25942">
        <ele>1087.898438</ele>
        <time>2018-01-27T20:44:29Z</time>
      </trkpt>
      <trkpt lat="34.666278" lon="-117.259386">
        <ele>1087.898438</ele>
        <time>2018-01-27T20:44:31Z</time>
      </trkpt>
      <trkpt lat="34.666227" lon="-117.259308">
        <ele>1087.597656</ele>
        <time>2018-01-27T20:44:32Z</time>
      </trkpt>
      <trkpt lat="34.666014" lon="-117.258984">
        <ele>1086.500000</ele>
        <time>2018-01-27T20:44:40Z</time>
      </trkpt>
      <trkpt lat="34.665991" lon="-117.258944">
        <ele>1087.199219</ele>
        <time>2018-01-27T20:44:42Z</time>
      </trkpt>
      <trkpt lat="34.665779" lon="-117.258522">
        <ele>1088.500000</ele>
        <time>2018-01-27T20:44:49Z</time>
      </trkpt>
      <trkpt lat="34.665644" lon="-117.258236">
        <ele>1089.398438</ele>
        <time>2018-01-27T20:44:55Z</time>
      </trkpt>
      <trkpt lat="34.665618" lon="-117.258199">
        <ele>1090.199219</ele>
        <time>2018-01-27T20:44:57Z</time>
      </trkpt>
      <trkpt lat="34.665548" lon="-117.258141">
        <ele>1090.199219</ele>
        <time>2018-01-27T20:44:58Z</time>
      </trkpt>
      <trkpt lat="34.6655" lon="-117.258124">
        <ele>1090.500000</ele>
        <time>2018-01-27T20:44:59Z</time>
      </trkpt>
      <trkpt lat="34.665444" lon="-117.258118">
        <ele>1090.500000</ele>
        <time>2018-01-27T20:45:00Z</time>
      </trkpt>
      <trkpt lat="34.665154" lon="-117.258097">
        <ele>1092.500000</ele>
        <time>2018-01-27T20:45:07Z</time>
      </trkpt>
      <trkpt lat="34.664931" lon="-117.25803">
        <ele>1094.398438</ele>
        <time>2018-01-27T20:45:18Z</time>
      </trkpt>
      <trkpt lat="34.664906" lon="-117.25802">
        <ele>1095.199219</ele>
        <time>2018-01-27T20:45:21Z</time>
      </trkpt>
      <trkpt lat="34.664552" lon="-117.257885">
        <ele>1096.296875</ele>
        <time>2018-01-27T20:45:32Z</time>
      </trkpt>
      <trkpt lat="34.664452" lon="-117.257859">
        <ele>1095.796875</ele>
        <time>2018-01-27T20:45:36Z</time>
      </trkpt>
      <trkpt lat="34.664425" lon="-117.257845">
        <ele>1096.296875</ele>
        <time>2018-01-27T20:45:39Z</time>
      </trkpt>
      <trkpt lat="34.664328" lon="-117.257778">
        <ele>1096.500000</ele>
        <time>2018-01-27T20:45:41Z</time>
      </trkpt>
      <trkpt lat="34.664303" lon="-117.25776">
        <ele>1096.199219</ele>
        <time>2018-01-27T20:45:43Z</time>
      </trkpt>
      <trkpt lat="34.664207" lon="-117.257693">
        <ele>1096.199219</ele>
        <time>2018-01-27T20:45:45Z</time>
      </trkpt>
      <trkpt lat="34.664167" lon="-117.257674">
        <ele>1095.898438</ele>
        <time>2018-01-27T20:45:47Z</time>
      </trkpt>
      <trkpt lat="34.663967" lon="-117.257595">
        <ele>1095.097656</ele>
        <time>2018-01-27T20:45:52Z</time>
      </trkpt>
      <trkpt lat="34.663933" lon="-117.257576">
        <ele>1095.097656</ele>
        <time>2018-01-27T20:45:54Z</time>
      </trkpt>
      <trkpt lat="34.663862" lon="-117.257528">
        <ele>1094.699219</ele>
        <time>2018-01-27T20:45:55Z</time>
      </trkpt>
      <trkpt lat="34.663785" lon="-117.257467">
        <ele>1093.898438</ele>
        <time>2018-01-27T20:45:57Z</time>
      </trkpt>
      <trkpt lat="34.66375" lon="-117.257437">
        <ele>1093.097656</ele>
        <time>2018-01-27T20:45:59Z</time>
      </trkpt>
      <trkpt lat="34.663676" lon="-117.257386">
        <ele>1093.097656</ele>
        <time>2018-01-27T20:46:00Z</time>
      </trkpt>
      <trkpt lat="34.663578" lon="-117.257306">
        <ele>1093.500000</ele>
        <time>2018-01-27T20:46:03Z</time>
      </trkpt>
      <trkpt lat="34.663549" lon="-117.257279">
        <ele>1093.500000</ele>
        <time>2018-01-27T20:46:05Z</time>
      </trkpt>
      <trkpt lat="34.66291" lon="-117.256681">
        <ele>1091.398438</ele>
        <time>2018-01-27T20:46:22Z</time>
      </trkpt>
      <trkpt lat="34.662712" lon="-117.256534">
        <ele>1091.199219</ele>
        <time>2018-01-27T20:46:27Z</time>
      </trkpt>
      <trkpt lat="34.662675" lon="-117.256497">
        <ele>1090.796875</ele>
        <time>2018-01-27T20:46:28Z</time>
      </trkpt>
      <trkpt lat="34.662035" lon="-117.255856">
        <ele>1088.500000</ele>
        <time>2018-01-27T20:46:45Z</time>
      </trkpt>
      <trkpt lat="34.661997" lon="-117.255808">
        <ele>1088.097656</ele>
        <time>2018-01-27T20:46:46Z</time>
      </trkpt>
      <trkpt lat="34.661868" lon="-117.255624">
        <ele>1086.898438</ele>
        <time>2018-01-27T20:46:50Z</time>
      </trkpt>
      <trkpt lat="34.661845" lon="-117.255584">
        <ele>1086.097656</ele>
        <time>2018-01-27T20:46:52Z</time>
      </trkpt>
      <trkpt lat="34.661824" lon="-117.255502">
        <ele>1085.699219</ele>
        <time>2018-01-27T20:46:53Z</time>
      </trkpt>
      <trkpt lat="34.661819" lon="-117.255452">
        <ele>1084.699219</ele>
        <time>2018-01-27T20:46:55Z</time>
      </trkpt>
      <trkpt lat="34.661788" lon="-117.255056">
        <ele>1082.699219</ele>
        <time>2018-01-27T20:47:00Z</time>
      </trkpt>
      <trkpt lat="34.66179" lon="-117.25474">
        <ele>1081.000000</ele>
        <time>2018-01-27T20:47:05Z</time>
      </trkpt>
      <trkpt lat="34.661796" lon="-117.254682">
        <ele>1080.699219</ele>
        <time>2018-01-27T20:47:06Z</time>
      </trkpt>
      <trkpt lat="34.661818" lon="-117.254495">
        <ele>1080.500000</ele>
        <time>2018-01-27T20:47:09Z</time>
      </trkpt>
      <trkpt lat="34.661818" lon="-117.254424">
        <ele>1080.296875</ele>
        <time>2018-01-27T20:47:10Z</time>
      </trkpt>
      <trkpt lat="34.661808" lon="-117.254184">
        <ele>1079.398438</ele>
        <time>2018-01-27T20:47:13Z</time>
      </trkpt>
      <trkpt lat="34.661777" lon="-117.253813">
        <ele>1077.796875</ele>
        <time>2018-01-27T20:47:17Z</time>
      </trkpt>
      <trkpt lat="34.661761" lon="-117.253724">
        <ele>1077.097656</ele>
        <time>2018-01-27T20:47:18Z</time>
      </trkpt>
      <trkpt lat="34.661731" lon="-117.25357">
        <ele>1077.000000</ele>
        <time>2018-01-27T20:47:20Z</time>
      </trkpt>
      <trkpt lat="34.661729" lon="-117.25351">
        <ele>1076.398438</ele>
        <time>2018-01-27T20:47:21Z</time>
      </trkpt>
      <trkpt lat="34.661732" lon="-117.253454">
        <ele>1075.796875</ele>
        <time>2018-01-27T20:47:22Z</time>
      </trkpt>
      <trkpt lat="34.661741" lon="-117.253401">
        <ele>1075.500000</ele>
        <time>2018-01-27T20:47:23Z</time>
      </trkpt>
      <trkpt lat="34.661753" lon="-117.253347">
        <ele>1075.398438</ele>
        <time>2018-01-27T20:47:24Z</time>
      </trkpt>
      <trkpt lat="34.661758" lon="-117.253289">
        <ele>1075.398438</ele>
        <time>2018-01-27T20:47:25Z</time>
      </trkpt>
      <trkpt lat="34.661759" lon="-117.253235">
        <ele>1075.000000</ele>
        <time>2018-01-27T20:47:27Z</time>
      </trkpt>
      <trkpt lat="34.661745" lon="-117.253129">
        <ele>1074.898438</ele>
        <time>2018-01-27T20:47:28Z</time>
      </trkpt>
      <trkpt lat="34.661731" lon="-117.253077">
        <ele>1074.199219</ele>
        <time>2018-01-27T20:47:30Z</time>
      </trkpt>
      <trkpt lat="34.661689" lon="-117.252984">
        <ele>1073.796875</ele>
        <time>2018-01-27T20:47:31Z</time>
      </trkpt>
      <trkpt lat="34.661664" lon="-117.252945">
        <ele>1073.000000</ele>
        <time>2018-01-27T20:47:33Z</time>
      </trkpt>
      <trkpt lat="34.661603" lon="-117.252862">
        <ele>1073.000000</ele>
        <time>2018-01-27T20:47:34Z</time>
      </trkpt>
      <trkpt lat="34.661456" lon="-117.252661">
        <ele>1071.296875</ele>
        <time>2018-01-27T20:47:38Z</time>
      </trkpt>
      <trkpt lat="34.661434" lon="-117.25261">
        <ele>1070.898438</ele>
        <time>2018-01-27T20:47:39Z</time>
      </trkpt>
      <trkpt lat="34.660912" lon="-117.251368">
        <ele>1066.296875</ele>
        <time>2018-01-27T20:47:58Z</time>
      </trkpt>
      <trkpt lat="34.660827" lon="-117.251081">
        <ele>1065.597656</ele>
        <time>2018-01-27T20:48:02Z</time>
      </trkpt>
      <trkpt lat="34.660786" lon="-117.250919">
        <ele>1065.296875</ele>
        <time>2018-01-27T20:48:04Z</time>
      </trkpt>
      <trkpt lat="34.660721" lon="-117.250725">
        <ele>1064.699219</ele>
        <time>2018-01-27T20:48:07Z</time>
      </trkpt>
      <trkpt lat="34.660619" lon="-117.250412">
        <ele>1064.699219</ele>
        <time>2018-01-27T20:48:14Z</time>
      </trkpt>
      <trkpt lat="34.66061" lon="-117.250365">
        <ele>1064.699219</ele>
        <time>2018-01-27T20:48:16Z</time>
      </trkpt>
      <trkpt lat="34.66057" lon="-117.250095">
        <ele>1064.097656</ele>
        <time>2018-01-27T20:48:20Z</time>
      </trkpt>
      <trkpt lat="34.660503" lon="-117.249886">
        <ele>1062.898438</ele>
        <time>2018-01-27T20:48:23Z</time>
      </trkpt>
      <trkpt lat="34.660448" lon="-117.249727">
        <ele>1063.000000</ele>
        <time>2018-01-27T20:48:25Z</time>
      </trkpt>
      <trkpt lat="34.660416" lon="-117.249656">
        <ele>1062.898438</ele>
        <time>2018-01-27T20:48:26Z</time>
      </trkpt>
      <trkpt lat="34.660379" lon="-117.249591">
        <ele>1062.699219</ele>
        <time>2018-01-27T20:48:27Z</time>
      </trkpt>
      <trkpt lat="34.660341" lon="-117.249536">
        <ele>1062.597656</ele>
        <time>2018-01-27T20:48:28Z</time>
      </trkpt>
      <trkpt lat="34.660308" lon="-117.249492">
        <ele>1062.500000</ele>
        <time>2018-01-27T20:48:29Z</time>
      </trkpt>
      <trkpt lat="34.660283" lon="-117.249452">
        <ele>1062.699219</ele>
        <time>2018-01-27T20:48:31Z</time>
      </trkpt>
      <trkpt lat="34.660255" lon="-117.249386">
        <ele>1062.796875</ele>
        <time>2018-01-27T20:48:32Z</time>
      </trkpt>
      <trkpt lat="34.660246" lon="-117.249349">
        <ele>1062.898438</ele>
        <time>2018-01-27T20:48:34Z</time>
      </trkpt>
      <trkpt lat="34.660191" lon="-117.24904">
        <ele>1063.199219</ele>
        <time>2018-01-27T20:48:39Z</time>
      </trkpt>
      <trkpt lat="34.66018" lon="-117.249009">
        <ele>1063.296875</ele>
        <time>2018-01-27T20:48:41Z</time>
      </trkpt>
      <trkpt lat="34.660151" lon="-117.248941">
        <ele>1063.296875</ele>
        <time>2018-01-27T20:48:42Z</time>
      </trkpt>
      <trkpt lat="34.660104" lon="-117.248821">
        <ele>1063.398438</ele>
        <time>2018-01-27T20:48:45Z</time>
      </trkpt>
      <trkpt lat="34.6601" lon="-117.24878">
        <ele>1062.898438</ele>
        <time>2018-01-27T20:48:48Z</time>
      </trkpt>
      <trkpt lat="34.660083" lon="-117.248678">
        <ele>1062.898438</ele>
        <time>2018-01-27T20:48:49Z</time>
      </trkpt>
      <trkpt lat="34.660072" lon="-117.248641">
        <ele>1063.097656</ele>
        <time>2018-01-27T20:48:51Z</time>
      </trkpt>
      <trkpt lat="34.660049" lon="-117.248543">
        <ele>1063.000000</ele>
        <time>2018-01-27T20:48:52Z</time>
      </trkpt>
      <trkpt lat="34.660044" lon="-117.248481">
        <ele>1062.699219</ele>
        <time>2018-01-27T20:48:53Z</time>
      </trkpt>
      <trkpt lat="34.660042" lon="-117.248411">
        <ele>1062.699219</ele>
        <time>2018-01-27T20:48:54Z</time>
      </trkpt>
      <trkpt lat="34.660044" lon="-117.248335">
        <ele>1062.199219</ele>
        <time>2018-01-27T20:48:55Z</time>
      </trkpt>
      <trkpt lat="34.660053" lon="-117.24826">
        <ele>1061.699219</ele>
        <time>2018-01-27T20:48:56Z</time>
      </trkpt>
      <trkpt lat="34.660067" lon="-117.248188">
        <ele>1061.199219</ele>
        <time>2018-01-27T20:48:57Z</time>
      </trkpt>
      <trkpt lat="34.660085" lon="-117.248115">
        <ele>1061.097656</ele>
        <time>2018-01-27T20:48:58Z</time>
      </trkpt>
      <trkpt lat="34.66011" lon="-117.24805">
        <ele>1060.898438</ele>
        <time>2018-01-27T20:48:59Z</time>
      </trkpt>
      <trkpt lat="34.660221" lon="-117.24776">
        <ele>1059.097656</ele>
        <time>2018-01-27T20:49:04Z</time>
      </trkpt>
      <trkpt lat="34.6603" lon="-117.247459">
        <ele>1057.597656</ele>
        <time>2018-01-27T20:49:09Z</time>
      </trkpt>
      <trkpt lat="34.660508" lon="-117.246764">
        <ele>1055.000000</ele>
        <time>2018-01-27T20:49:18Z</time>
      </trkpt>
      <trkpt lat="34.660545" lon="-117.246587">
        <ele>1054.199219</ele>
        <time>2018-01-27T20:49:20Z</time>
      </trkpt>
      <trkpt lat="34.660632" lon="-117.246037">
        <ele>1052.296875</ele>
        <time>2018-01-27T20:49:27Z</time>
      </trkpt>
      <trkpt lat="34.660637" lon="-117.245968">
        <ele>1052.097656</ele>
        <time>2018-01-27T20:49:28Z</time>
      </trkpt>
      <trkpt lat="34.660637" lon="-117.245899">
        <ele>1052.000000</ele>
        <time>2018-01-27T20:49:29Z</time>
      </trkpt>
      <trkpt lat="34.660634" lon="-117.245518">
        <ele>1050.097656</ele>
        <time>2018-01-27T20:49:35Z</time>
      </trkpt>
      <trkpt lat="34.660686" lon="-117.245078">
        <ele>1047.500000</ele>
        <time>2018-01-27T20:49:41Z</time>
      </trkpt>
      <trkpt lat="34.660697" lon="-117.24501">
        <ele>1047.199219</ele>
        <time>2018-01-27T20:49:42Z</time>
      </trkpt>
      <trkpt lat="34.660714" lon="-117.244948">
        <ele>1046.898438</ele>
        <time>2018-01-27T20:49:43Z</time>
      </trkpt>
      <trkpt lat="34.660736" lon="-117.24489">
        <ele>1046.296875</ele>
        <time>2018-01-27T20:49:44Z</time>
      </trkpt>
      <trkpt lat="34.660857" lon="-117.244566">
        <ele>1044.398438</ele>
        <time>2018-01-27T20:49:50Z</time>
      </trkpt>
      <trkpt lat="34.660915" lon="-117.24446">
        <ele>1043.699219</ele>
        <time>2018-01-27T20:49:53Z</time>
      </trkpt>
      <trkpt lat="34.660923" lon="-117.244447">
        <ele>1041.500000</ele>
        <time>2018-01-27T20:51:53Z</time>
      </trkpt>
      <trkpt lat="34.660965" lon="-117.244359">
        <ele>1041.500000</ele>
        <time>2018-01-27T20:51:54Z</time>
      </trkpt>
      <trkpt lat="34.660989" lon="-117.244297">
        <ele>1041.500000</ele>
        <time>2018-01-27T20:51:55Z</time>
      </trkpt>
      <trkpt lat="34.660989" lon="-117.244297">
        <ele>1041.500000</ele>
        <time>2018-01-27T20:51:55Z</time>
      </trkpt>
    </trkseg>
    <trkseg>
      <trkpt lat="34.661001" lon="-117.244261">
        <ele>1041.296875</ele>
        <time>2018-01-27T20:51:56Z</time>
      </trkpt>
      <trkpt lat="34.661045" lon="-117.244072">
        <ele>1041.000000</ele>
        <time>2018-01-27T20:52:02Z</time>
      </trkpt>
      <trkpt lat="34.661061" lon="-117.243937">
        <ele>1040.699219</ele>
        <time>2018-01-27T20:52:06Z</time>
      </trkpt>
      <trkpt lat="34.661113" lon="-117.243392">
        <ele>1038.597656</ele>
        <time>2018-01-27T20:52:16Z</time>
      </trkpt>
      <trkpt lat="34.661111" lon="-117.243194">
        <ele>1038.296875</ele>
        <time>2018-01-27T20:52:19Z</time>
      </trkpt>
      <trkpt lat="34.661104" lon="-117.243144">
        <ele>1037.699219</ele>
        <time>2018-01-27T20:52:21Z</time>
      </trkpt>
      <trkpt lat="34.661083" lon="-117.243051">
        <ele>1037.199219</ele>
        <time>2018-01-27T20:52:22Z</time>
      </trkpt>
      <trkpt lat="34.660836" lon="-117.241866">
        <ele>1031.597656</ele>
        <time>2018-01-27T20:52:39Z</time>
      </trkpt>
      <trkpt lat="34.660816" lon="-117.241726">
        <ele>1031.097656</ele>
        <time>2018-01-27T20:52:41Z</time>
      </trkpt>
      <trkpt lat="34.660782" lon="-117.241606">
        <ele>1030.597656</ele>
        <time>2018-01-27T20:52:43Z</time>
      </trkpt>
      <trkpt lat="34.660745" lon="-117.24148">
        <ele>1029.597656</ele>
        <time>2018-01-27T20:52:45Z</time>
      </trkpt>
      <trkpt lat="34.660733" lon="-117.241415">
        <ele>1029.199219</ele>
        <time>2018-01-27T20:52:46Z</time>
      </trkpt>
      <trkpt lat="34.660725" lon="-117.241349">
        <ele>1028.796875</ele>
        <time>2018-01-27T20:52:47Z</time>
      </trkpt>
      <trkpt lat="34.660723" lon="-117.241286">
        <ele>1028.398438</ele>
        <time>2018-01-27T20:52:48Z</time>
      </trkpt>
      <trkpt lat="34.660725" lon="-117.241214">
        <ele>1028.000000</ele>
        <time>2018-01-27T20:52:49Z</time>
      </trkpt>
      <trkpt lat="34.660732" lon="-117.24094">
        <ele>1026.796875</ele>
        <time>2018-01-27T20:52:52Z</time>
      </trkpt>
      <trkpt lat="34.660727" lon="-117.240845">
        <ele>1026.398438</ele>
        <time>2018-01-27T20:52:53Z</time>
      </trkpt>
      <trkpt lat="34.660704" lon="-117.240581">
        <ele>1025.296875</ele>
        <time>2018-01-27T20:52:56Z</time>
      </trkpt>
      <trkpt lat="34.660707" lon="-117.240502">
        <ele>1025.000000</ele>
        <time>2018-01-27T20:52:57Z</time>
      </trkpt>
      <trkpt lat="34.660715" lon="-117.240427">
        <ele>1024.699219</ele>
        <time>2018-01-27T20:52:58Z</time>
      </trkpt>
      <trkpt lat="34.660782" lon="-117.239742">
        <ele>1023.097656</ele>
        <time>2018-01-27T20:53:06Z</time>
      </trkpt>
      <trkpt lat="34.660853" lon="-117.238382">
        <ele>1019.398438</ele>
        <time>2018-01-27T20:53:21Z</time>
      </trkpt>
      <trkpt lat="34.660867" lon="-117.238313">
        <ele>1019.500000</ele>
        <time>2018-01-27T20:53:22Z</time>
      </trkpt>
      <trkpt lat="34.660889" lon="-117.238263">
        <ele>1018.500000</ele>
        <time>2018-01-27T20:53:24Z</time>
      </trkpt>
      <trkpt lat="34.660936" lon="-117.238195">
        <ele>1018.199219</ele>
        <time>2018-01-27T20:53:25Z</time>
      </trkpt>
      <trkpt lat="34.660972" lon="-117.238162">
        <ele>1017.500000</ele>
        <time>2018-01-27T20:53:26Z</time>
      </trkpt>
      <trkpt lat="34.661012" lon="-117.238113">
        <ele>1017.097656</ele>
        <time>2018-01-27T20:53:27Z</time>
      </trkpt>
      <trkpt lat="34.661049" lon="-117.238048">
        <ele>1016.796875</ele>
        <time>2018-01-27T20:53:28Z</time>
      </trkpt>
      <trkpt lat="34.661121" lon="-117.237903">
        <ele>1016.500000</ele>
        <time>2018-01-27T20:53:30Z</time>
      </trkpt>
      <trkpt lat="34.661164" lon="-117.237843">
        <ele>1016.000000</ele>
        <time>2018-01-27T20:53:31Z</time>
      </trkpt>
      <trkpt lat="34.661213" lon="-117.237799">
        <ele>1015.398438</ele>
        <time>2018-01-27T20:53:32Z</time>
      </trkpt>
      <trkpt lat="34.661268" lon="-117.237774">
        <ele>1015.097656</ele>
        <time>2018-01-27T20:53:33Z</time>
      </trkpt>
      <trkpt lat="34.661328" lon="-117.237761">
        <ele>1014.500000</ele>
        <time>2018-01-27T20:53:34Z</time>
      </trkpt>
      <trkpt lat="34.661387" lon="-117.237762">
        <ele>1014.500000</ele>
        <time>2018-01-27T20:53:35Z</time>
      </trkpt>
      <trkpt lat="34.661447" lon="-117.237773">
        <ele>1014.398438</ele>
        <time>2018-01-27T20:53:36Z</time>
      </trkpt>
      <trkpt lat="34.661829" lon="-117.237864">
        <ele>1013.296875</ele>
        <time>2018-01-27T20:53:44Z</time>
      </trkpt>
      <trkpt lat="34.661871" lon="-117.237881">
        <ele>1013.500000</ele>
        <time>2018-01-27T20:53:46Z</time>
      </trkpt>
      <trkpt lat="34.661991" lon="-117.237934">
        <ele>1013.296875</ele>
        <time>2018-01-27T20:53:48Z</time>
      </trkpt>
      <trkpt lat="34.662033" lon="-117.237941">
        <ele>1013.097656</ele>
        <time>2018-01-27T20:53:50Z</time>
      </trkpt>
      <trkpt lat="34.662345" lon="-117.238011">
        <ele>1013.000000</ele>
        <time>2018-01-27T20:53:59Z</time>
      </trkpt>
      <trkpt lat="34.662375" lon="-117.23802">
        <ele>1013.097656</ele>
        <time>2018-01-27T20:54:01Z</time>
      </trkpt>
      <trkpt lat="34.66283" lon="-117.238141">
        <ele>1013.000000</ele>
        <time>2018-01-27T20:54:10Z</time>
      </trkpt>
      <trkpt lat="34.662863" lon="-117.238155">
        <ele>1013.199219</ele>
        <time>2018-01-27T20:54:12Z</time>
      </trkpt>
      <trkpt lat="34.66294" lon="-117.238171">
        <ele>1013.199219</ele>
        <time>2018-01-27T20:54:13Z</time>
      </trkpt>
      <trkpt lat="34.663477" lon="-117.238294">
        <ele>1014.699219</ele>
        <time>2018-01-27T20:54:21Z</time>
      </trkpt>
      <trkpt lat="34.663656" lon="-117.238356">
        <ele>1015.000000</ele>
        <time>2018-01-27T20:54:24Z</time>
      </trkpt>
      <trkpt lat="34.663771" lon="-117.238409">
        <ele>1015.398438</ele>
        <time>2018-01-27T20:54:26Z</time>
      </trkpt>
      <trkpt lat="34.663828" lon="-117.238444">
        <ele>1015.699219</ele>
        <time>2018-01-27T20:54:27Z</time>
      </trkpt>
      <trkpt lat="34.664118" lon="-117.238628">
        <ele>1016.097656</ele>
        <time>2018-01-27T20:54:34Z</time>
      </trkpt>
      <trkpt lat="34.664147" lon="-117.238639">
        <ele>1016.000000</ele>
        <time>2018-01-27T20:54:36Z</time>
      </trkpt>
      <trkpt lat="34.664217" lon="-117.238658">
        <ele>1016.199219</ele>
        <time>2018-01-27T20:54:37Z</time>
      </trkpt>
      <trkpt lat="34.664262" lon="-117.238664">
        <ele>1016.296875</ele>
        <time>2018-01-27T20:54:38Z</time>
      </trkpt>
      <trkpt lat="34.664628" lon="-117.238688">
        <ele>1017.398438</ele>
        <time>2018-01-27T20:54:44Z</time>
      </trkpt>
      <trkpt lat="34.664822" lon="-117.238689">
        <ele>1017.500000</ele>
        <time>2018-01-27T20:54:48Z</time>
      </trkpt>
      <trkpt lat="34.665059" lon="-117.238724">
        <ele>1017.398438</ele>
        <time>2018-01-27T20:54:54Z</time>
      </trkpt>
      <trkpt lat="34.665102" lon="-117.238733">
        <ele>1016.898438</ele>
        <time>2018-01-27T20:54:56Z</time>
      </trkpt>
      <trkpt lat="34.665177" lon="-117.238762">
        <ele>1016.699219</ele>
        <time>2018-01-27T20:54:57Z</time>
      </trkpt>
      <trkpt lat="34.665222" lon="-117.238771">
        <ele>1016.500000</ele>
        <time>2018-01-27T20:54:59Z</time>
      </trkpt>
      <trkpt lat="34.665297" lon="-117.238749">
        <ele>1017.097656</ele>
        <time>2018-01-27T20:55:00Z</time>
      </trkpt>
      <trkpt lat="34.665317" lon="-117.238714">
        <ele>1018.000000</ele>
        <time>2018-01-27T20:55:02Z</time>
      </trkpt>
      <trkpt lat="34.665325" lon="-117.238643">
        <ele>1018.398438</ele>
        <time>2018-01-27T20:55:04Z</time>
      </trkpt>
      <trkpt lat="34.665324" lon="-117.238598">
        <ele>1019.296875</ele>
        <time>2018-01-27T20:55:13Z</time>
      </trkpt>
      <trkpt lat="34.665314" lon="-117.238439">
        <ele>1020.398438</ele>
        <time>2018-01-27T20:55:16Z</time>
      </trkpt>
      <trkpt lat="34.665299" lon="-117.238326">
        <ele>1021.500000</ele>
        <time>2018-01-27T20:55:19Z</time>
      </trkpt>
      <trkpt lat="34.665243" lon="-117.238041">
        <ele>1024.296875</ele>
        <time>2018-01-27T20:55:28Z</time>
      </trkpt>
      <trkpt lat="34.665235" lon="-117.23801">
        <ele>1026.097656</ele>
        <time>2018-01-27T20:55:31Z</time>
      </trkpt>
      <trkpt lat="34.665203" lon="-117.237919">
        <ele>1026.699219</ele>
        <time>2018-01-27T20:55:32Z</time>
      </trkpt>
      <trkpt lat="34.665191" lon="-117.237894">
        <ele>1028.500000</ele>
        <time>2018-01-27T20:55:35Z</time>
      </trkpt>
      <trkpt lat="34.665162" lon="-117.237815">
        <ele>1029.500000</ele>
        <time>2018-01-27T20:55:36Z</time>
      </trkpt>
      <trkpt lat="34.665116" lon="-117.237697">
        <ele>1033.097656</ele>
        <time>2018-01-27T20:55:40Z</time>
      </trkpt>
      <trkpt lat="34.665102" lon="-117.237669">
        <ele>1034.898438</ele>
        <time>2018-01-27T20:55:43Z</time>
      </trkpt>
      <trkpt lat="34.665038" lon="-117.237595">
        <ele>1034.898438</ele>
        <time>2018-01-27T20:55:44Z</time>
      </trkpt>
      <trkpt lat="34.665013" lon="-117.237574">
        <ele>1036.898438</ele>
        <time>2018-01-27T20:55:47Z</time>
      </trkpt>
      <trkpt lat="34.664956" lon="-117.2375">
        <ele>1037.500000</ele>
        <time>2018-01-27T20:55:48Z</time>
      </trkpt>
      <trkpt lat="34.664949" lon="-117.237469">
        <ele>1038.699219</ele>
        <time>2018-01-27T20:55:51Z</time>
      </trkpt>
      <trkpt lat="34.66495" lon="-117.237384">
        <ele>1039.500000</ele>
        <time>2018-01-27T20:55:53Z</time>
      </trkpt>
      <trkpt lat="34.664953" lon="-117.237336">
        <ele>1040.199219</ele>
        <time>2018-01-27T20:55:56Z</time>
      </trkpt>
      <trkpt lat="34.664964" lon="-117.237272">
        <ele>1040.500000</ele>
        <time>2018-01-27T20:55:59Z</time>
      </trkpt>
      <trkpt lat="34.664976" lon="-117.237228">
        <ele>1039.597656</ele>
        <time>2018-01-27T20:57:02Z</time>
      </trkpt>
      <trkpt lat="34.66495" lon="-117.237157">
        <ele>1037.597656</ele>
        <time>2018-01-27T20:57:05Z</time>
      </trkpt>
      <trkpt lat="34.664904" lon="-117.237142">
        <ele>1035.398438</ele>
        <time>2018-01-27T20:57:08Z</time>
      </trkpt>
      <trkpt lat="34.664853" lon="-117.237111">
        <ele>1034.000000</ele>
        <time>2018-01-27T20:57:10Z</time>
      </trkpt>
      <trkpt lat="34.664814" lon="-117.237061">
        <ele>1032.796875</ele>
        <time>2018-01-27T20:57:12Z</time>
      </trkpt>
      <trkpt lat="34.664467" lon="-117.236599">
        <ele>1025.500000</ele>
        <time>2018-01-27T20:57:28Z</time>
      </trkpt>
      <trkpt lat="34.664441" lon="-117.236577">
        <ele>1024.500000</ele>
        <time>2018-01-27T20:57:31Z</time>
      </trkpt>
      <trkpt lat="34.66437" lon="-117.236553">
        <ele>1024.597656</ele>
        <time>2018-01-27T20:57:32Z</time>
      </trkpt>
      <trkpt lat="34.664349" lon="-117.236553">
        <ele>1020.500000</ele>
        <time>2018-01-27T20:58:14Z</time>
      </trkpt>
      <trkpt lat="34.664279" lon="-117.23655">
        <ele>1020.597656</ele>
        <time>2018-01-27T20:58:16Z</time>
      </trkpt>
      <trkpt lat="34.664256" lon="-117.236558">
        <ele>1021.699219</ele>
        <time>2018-01-27T20:58:21Z</time>
      </trkpt>
      <trkpt lat="34.66418" lon="-117.236571">
        <ele>1021.699219</ele>
        <time>2018-01-27T20:58:22Z</time>
      </trkpt>
      <trkpt lat="34.664165" lon="-117.236573">
        <ele>1021.199219</ele>
        <time>2018-01-27T20:58:30Z</time>
      </trkpt>
      <trkpt lat="34.66409" lon="-117.236558">
        <ele>1021.199219</ele>
        <time>2018-01-27T20:58:32Z</time>
      </trkpt>
      <trkpt lat="34.664076" lon="-117.23655">
        <ele>1021.898438</ele>
        <time>2018-01-27T20:58:38Z</time>
      </trkpt>
      <trkpt lat="34.664014" lon="-117.236477">
        <ele>1022.296875</ele>
        <time>2018-01-27T20:58:39Z</time>
      </trkpt>
      <trkpt lat="34.664003" lon="-117.23646">
        <ele>1023.597656</ele>
        <time>2018-01-27T20:58:43Z</time>
      </trkpt>
      <trkpt lat="34.663959" lon="-117.236373">
        <ele>1024.097656</ele>
        <time>2018-01-27T20:58:44Z</time>
      </trkpt>
      <trkpt lat="34.663906" lon="-117.236241">
        <ele>1026.796875</ele>
        <time>2018-01-27T20:58:50Z</time>
      </trkpt>
      <trkpt lat="34.663818" lon="-117.235991">
        <ele>1033.699219</ele>
        <time>2018-01-27T20:59:02Z</time>
      </trkpt>
      <trkpt lat="34.663807" lon="-117.235973">
        <ele>1037.296875</ele>
        <time>2018-01-27T20:59:07Z</time>
      </trkpt>
      <trkpt lat="34.66376" lon="-117.235866">
        <ele>1039.097656</ele>
        <time>2018-01-27T20:59:09Z</time>
      </trkpt>
      <trkpt lat="34.663752" lon="-117.235848">
        <ele>1043.796875</ele>
        <time>2018-01-27T20:59:14Z</time>
      </trkpt>
      <trkpt lat="34.663704" lon="-117.235772">
        <ele>1044.796875</ele>
        <time>2018-01-27T20:59:15Z</time>
      </trkpt>
      <trkpt lat="34.663694" lon="-117.235757">
        <ele>1048.199219</ele>
        <time>2018-01-27T20:59:20Z</time>
      </trkpt>
      <trkpt lat="34.663624" lon="-117.235677">
        <ele>1049.398438</ele>
        <time>2018-01-27T20:59:22Z</time>
      </trkpt>
      <trkpt lat="34.663523" lon="-117.235578">
        <ele>1054.097656</ele>
        <time>2018-01-27T20:59:30Z</time>
      </trkpt>
      <trkpt lat="34.663512" lon="-117.235562">
        <ele>1058.597656</ele>
        <time>2018-01-27T20:59:35Z</time>
      </trkpt>
      <trkpt lat="34.663469" lon="-117.235474">
        <ele>1058.898438</ele>
        <time>2018-01-27T20:59:36Z</time>
      </trkpt>
      <trkpt lat="34.663465" lon="-117.235458">
        <ele>1060.597656</ele>
        <time>2018-01-27T20:59:42Z</time>
      </trkpt>
      <trkpt lat="34.663427" lon="-117.235343">
        <ele>1060.699219</ele>
        <time>2018-01-27T20:59:45Z</time>
      </trkpt>
      <trkpt lat="34.663389" lon="-117.235289">
        <ele>1059.199219</ele>
        <time>2018-01-27T21:01:40Z</time>
      </trkpt>
      <trkpt lat="34.663389" lon="-117.235289">
        <ele>1059.199219</ele>
        <time>2018-01-27T21:01:40Z</time>
      </trkpt>
    </trkseg>
    <trkseg>
      <trkpt lat="34.663287" lon="-117.235184">
        <ele>1052.597656</ele>
        <time>2018-01-27T21:02:04Z</time>
      </trkpt>
      <trkpt lat="34.663198" lon="-117.235013">
        <ele>1046.597656</ele>
        <time>2018-01-27T21:02:26Z</time>
      </trkpt>
      <trkpt lat="34.663194" lon="-117.235006">
        <ele>1043.796875</ele>
        <time>2018-01-27T21:02:35Z</time>
      </trkpt>
      <trkpt lat="34.663142" lon="-117.234926">
        <ele>1043.398438</ele>
        <time>2018-01-27T21:02:36Z</time>
      </trkpt>
      <trkpt lat="34.663138" lon="-117.234913">
        <ele>1039.398438</ele>
        <time>2018-01-27T21:02:42Z</time>
      </trkpt>
      <trkpt lat="34.663087" lon="-117.234819">
        <ele>1038.898438</ele>
        <time>2018-01-27T21:02:43Z</time>
      </trkpt>
      <trkpt lat="34.66301" lon="-117.234698">
        <ele>1033.796875</ele>
        <time>2018-01-27T21:02:50Z</time>
      </trkpt>
      <trkpt lat="34.662997" lon="-117.234683">
        <ele>1030.699219</ele>
        <time>2018-01-27T21:02:55Z</time>
      </trkpt>
      <trkpt lat="34.662931" lon="-117.234625">
        <ele>1030.097656</ele>
        <time>2018-01-27T21:02:56Z</time>
      </trkpt>
      <trkpt lat="34.66285" lon="-117.234556">
        <ele>1026.597656</ele>
        <time>2018-01-27T21:03:03Z</time>
      </trkpt>
      <trkpt lat="34.66284" lon="-117.234549">
        <ele>1022.699219</ele>
        <time>2018-01-27T21:03:12Z</time>
      </trkpt>
      <trkpt lat="34.662782" lon="-117.234477">
        <ele>1022.500000</ele>
        <time>2018-01-27T21:03:13Z</time>
      </trkpt>
      <trkpt lat="34.662777" lon="-117.234465">
        <ele>1020.597656</ele>
        <time>2018-01-27T21:03:18Z</time>
      </trkpt>
      <trkpt lat="34.662723" lon="-117.234388">
        <ele>1020.097656</ele>
        <time>2018-01-27T21:03:19Z</time>
      </trkpt>
      <trkpt lat="34.662706" lon="-117.234367">
        <ele>1018.796875</ele>
        <time>2018-01-27T21:03:22Z</time>
      </trkpt>
      <trkpt lat="34.662642" lon="-117.234296">
        <ele>1018.000000</ele>
        <time>2018-01-27T21:03:23Z</time>
      </trkpt>
      <trkpt lat="34.662617" lon="-117.234272">
        <ele>1017.296875</ele>
        <time>2018-01-27T21:03:25Z</time>
      </trkpt>
      <trkpt lat="34.662568" lon="-117.234229">
        <ele>1016.296875</ele>
        <time>2018-01-27T21:03:27Z</time>
      </trkpt>
      <trkpt lat="34.662475" lon="-117.234156">
        <ele>1015.097656</ele>
        <time>2018-01-27T21:03:30Z</time>
      </trkpt>
      <trkpt lat="34.661822" lon="-117.233673">
        <ele>1005.796875</ele>
        <time>2018-01-27T21:04:04Z</time>
      </trkpt>
      <trkpt lat="34.661422" lon="-117.233483">
        <ele>1003.597656</ele>
        <time>2018-01-27T21:04:17Z</time>
      </trkpt>
      <trkpt lat="34.661308" lon="-117.233413">
        <ele>1003.097656</ele>
        <time>2018-01-27T21:04:20Z</time>
      </trkpt>
      <trkpt lat="34.661142" lon="-117.233334">
        <ele>1004.000000</ele>
        <time>2018-01-27T21:04:28Z</time>
      </trkpt>
      <trkpt lat="34.661152" lon="-117.233351">
        <ele>1007.597656</ele>
        <time>2018-01-27T21:06:27Z</time>
      </trkpt>
      <trkpt lat="34.661152" lon="-117.233351">
        <ele>1007.597656</ele>
        <time>2018-01-27T21:06:27Z</time>
      </trkpt>
    </trkseg>
    <trkseg>
      <trkpt lat="34.660993" lon="-117.233278">
        <ele>1004.296875</ele>
        <time>2018-01-27T21:09:24Z</time>
      </trkpt>
      <trkpt lat="34.660828" lon="-117.233259">
        <ele>1004.898438</ele>
        <time>2018-01-27T21:09:32Z</time>
      </trkpt>
      <trkpt lat="34.66065" lon="-117.233206">
        <ele>1004.597656</ele>
        <time>2018-01-27T21:09:38Z</time>
      </trkpt>
      <trkpt lat="34.660623" lon="-117.233193">
        <ele>1003.796875</ele>
        <time>2018-01-27T21:09:41Z</time>
      </trkpt>
      <trkpt lat="34.66056" lon="-117.233155">
        <ele>1003.699219</ele>
        <time>2018-01-27T21:09:43Z</time>
      </trkpt>
      <trkpt lat="34.660529" lon="-117.233143">
        <ele>1003.898438</ele>
        <time>2018-01-27T21:09:46Z</time>
      </trkpt>
      <trkpt lat="34.660463" lon="-117.233133">
        <ele>1003.796875</ele>
        <time>2018-01-27T21:09:47Z</time>
      </trkpt>
      <trkpt lat="34.660437" lon="-117.233134">
        <ele>1004.398438</ele>
        <time>2018-01-27T21:09:50Z</time>
      </trkpt>
      <trkpt lat="34.660284" lon="-117.233128">
        <ele>1005.000000</ele>
        <time>2018-01-27T21:09:53Z</time>
      </trkpt>
      <trkpt lat="34.660245" lon="-117.233118">
        <ele>1004.500000</ele>
        <time>2018-01-27T21:09:55Z</time>
      </trkpt>
      <trkpt lat="34.660165" lon="-117.233084">
        <ele>1004.296875</ele>
        <time>2018-01-27T21:09:56Z</time>
      </trkpt>
      <trkpt lat="34.660125" lon="-117.233055">
        <ele>1004.199219</ele>
        <time>2018-01-27T21:09:57Z</time>
      </trkpt>
      <trkpt lat="34.659693" lon="-117.232754">
        <ele>1003.296875</ele>
        <time>2018-01-27T21:10:07Z</time>
      </trkpt>
      <trkpt lat="34.65965" lon="-117.232734">
        <ele>1003.398438</ele>
        <time>2018-01-27T21:10:09Z</time>
      </trkpt>
      <trkpt lat="34.65958" lon="-117.232699">
        <ele>1003.296875</ele>
        <time>2018-01-27T21:10:10Z</time>
      </trkpt>
      <trkpt lat="34.659549" lon="-117.232676">
        <ele>1003.296875</ele>
        <time>2018-01-27T21:10:12Z</time>
      </trkpt>
      <trkpt lat="34.659405" lon="-117.232574">
        <ele>1002.796875</ele>
        <time>2018-01-27T21:10:15Z</time>
      </trkpt>
      <trkpt lat="34.659364" lon="-117.232553">
        <ele>1002.597656</ele>
        <time>2018-01-27T21:10:17Z</time>
      </trkpt>
      <trkpt lat="34.659127" lon="-117.232445">
        <ele>1003.398438</ele>
        <time>2018-01-27T21:10:24Z</time>
      </trkpt>
      <trkpt lat="34.658392" lon="-117.232187">
        <ele>1004.500000</ele>
        <time>2018-01-27T21:10:46Z</time>
      </trkpt>
      <trkpt lat="34.658358" lon="-117.232158">
        <ele>1003.898438</ele>
        <time>2018-01-27T21:10:48Z</time>
      </trkpt>
      <trkpt lat="34.658291" lon="-117.232069">
        <ele>1003.699219</ele>
        <time>2018-01-27T21:10:49Z</time>
      </trkpt>
      <trkpt lat="34.658077" lon="-117.231743">
        <ele>1002.500000</ele>
        <time>2018-01-27T21:10:56Z</time>
      </trkpt>
      <trkpt lat="34.657982" lon="-117.23161">
        <ele>1001.296875</ele>
        <time>2018-01-27T21:11:00Z</time>
      </trkpt>
      <trkpt lat="34.657961" lon="-117.231589">
        <ele>1001.199219</ele>
        <time>2018-01-27T21:11:03Z</time>
      </trkpt>
      <trkpt lat="34.657913" lon="-117.231525">
        <ele>1001.199219</ele>
        <time>2018-01-27T21:11:04Z</time>
      </trkpt>
      <trkpt lat="34.65773" lon="-117.231288">
        <ele>1001.199219</ele>
        <time>2018-01-27T21:11:14Z</time>
      </trkpt>
      <trkpt lat="34.657706" lon="-117.231264">
        <ele>1001.597656</ele>
        <time>2018-01-27T21:11:16Z</time>
      </trkpt>
      <trkpt lat="34.657666" lon="-117.231197">
        <ele>1001.597656</ele>
        <time>2018-01-27T21:11:17Z</time>
      </trkpt>
      <trkpt lat="34.65765" lon="-117.23116">
        <ele>1001.296875</ele>
        <time>2018-01-27T21:11:19Z</time>
      </trkpt>
      <trkpt lat="34.657558" lon="-117.230945">
        <ele>1001.296875</ele>
        <time>2018-01-27T21:11:24Z</time>
      </trkpt>
      <trkpt lat="34.657539" lon="-117.230916">
        <ele>1001.500000</ele>
        <time>2018-01-27T21:11:26Z</time>
      </trkpt>
      <trkpt lat="34.657493" lon="-117.230853">
        <ele>1001.500000</ele>
        <time>2018-01-27T21:11:27Z</time>
      </trkpt>
      <trkpt lat="34.65734" lon="-117.230673">
        <ele>1001.097656</ele>
        <time>2018-01-27T21:11:32Z</time>
      </trkpt>
      <trkpt lat="34.656457" lon="-117.229632">
        <ele>999.199219</ele>
        <time>2018-01-27T21:11:54Z</time>
      </trkpt>
      <trkpt lat="34.656111" lon="-117.229234">
        <ele>997.796875</ele>
        <time>2018-01-27T21:12:03Z</time>
      </trkpt>
      <trkpt lat="34.656071" lon="-117.229198">
        <ele>997.898438</ele>
        <time>2018-01-27T21:12:04Z</time>
      </trkpt>
      <trkpt lat="34.655951" lon="-117.22911">
        <ele>997.597656</ele>
        <time>2018-01-27T21:12:07Z</time>
      </trkpt>
      <trkpt lat="34.655859" lon="-117.229036">
        <ele>997.597656</ele>
        <time>2018-01-27T21:12:10Z</time>
      </trkpt>
      <trkpt lat="34.655707" lon="-117.228891">
        <ele>997.398438</ele>
        <time>2018-01-27T21:12:14Z</time>
      </trkpt>
      <trkpt lat="34.655667" lon="-117.228867">
        <ele>998.296875</ele>
        <time>2018-01-27T21:12:16Z</time>
      </trkpt>
      <trkpt lat="34.65558" lon="-117.228848">
        <ele>998.500000</ele>
        <time>2018-01-27T21:12:17Z</time>
      </trkpt>
      <trkpt lat="34.655535" lon="-117.228835">
        <ele>998.398438</ele>
        <time>2018-01-27T21:12:18Z</time>
      </trkpt>
      <trkpt lat="34.655495" lon="-117.228807">
        <ele>998.398438</ele>
        <time>2018-01-27T21:12:19Z</time>
      </trkpt>
      <trkpt lat="34.655459" lon="-117.228761">
        <ele>998.199219</ele>
        <time>2018-01-27T21:12:20Z</time>
      </trkpt>
      <trkpt lat="34.65543" lon="-117.228708">
        <ele>998.000000</ele>
        <time>2018-01-27T21:12:21Z</time>
      </trkpt>
      <trkpt lat="34.655401" lon="-117.228658">
        <ele>997.699219</ele>
        <time>2018-01-27T21:12:22Z</time>
      </trkpt>
      <trkpt lat="34.655365" lon="-117.228617">
        <ele>997.699219</ele>
        <time>2018-01-27T21:12:23Z</time>
      </trkpt>
      <trkpt lat="34.655324" lon="-117.228582">
        <ele>997.699219</ele>
        <time>2018-01-27T21:12:24Z</time>
      </trkpt>
      <trkpt lat="34.65504" lon="-117.228334">
        <ele>997.296875</ele>
        <time>2018-01-27T21:12:30Z</time>
      </trkpt>
      <trkpt lat="34.655002" lon="-117.228283">
        <ele>997.199219</ele>
        <time>2018-01-27T21:12:31Z</time>
      </trkpt>
      <trkpt lat="34.654907" lon="-117.228161">
        <ele>996.500000</ele>
        <time>2018-01-27T21:12:34Z</time>
      </trkpt>
      <trkpt lat="34.654879" lon="-117.228133">
        <ele>996.296875</ele>
        <time>2018-01-27T21:12:36Z</time>
      </trkpt>
      <trkpt lat="34.654826" lon="-117.228091">
        <ele>997.097656</ele>
        <time>2018-01-27T21:12:38Z</time>
      </trkpt>
      <trkpt lat="34.654785" lon="-117.228061">
        <ele>997.898438</ele>
        <time>2018-01-27T21:12:42Z</time>
      </trkpt>
      <trkpt lat="34.654733" lon="-117.22801">
        <ele>998.000000</ele>
        <time>2018-01-27T21:12:43Z</time>
      </trkpt>
      <trkpt lat="34.654659" lon="-117.22793">
        <ele>997.097656</ele>
        <time>2018-01-27T21:12:46Z</time>
      </trkpt>
      <trkpt lat="34.65444" lon="-117.227699">
        <ele>996.597656</ele>
        <time>2018-01-27T21:12:54Z</time>
      </trkpt>
      <trkpt lat="34.654147" lon="-117.227398">
        <ele>995.898438</ele>
        <time>2018-01-27T21:13:02Z</time>
      </trkpt>
      <trkpt lat="34.653292" lon="-117.226478">
        <ele>993.898438</ele>
        <time>2018-01-27T21:13:27Z</time>
      </trkpt>
      <trkpt lat="34.653246" lon="-117.226443">
        <ele>993.796875</ele>
        <time>2018-01-27T21:13:28Z</time>
      </trkpt>
      <trkpt lat="34.653195" lon="-117.226412">
        <ele>994.000000</ele>
        <time>2018-01-27T21:13:29Z</time>
      </trkpt>
      <trkpt lat="34.652366" lon="-117.225972">
        <ele>993.097656</ele>
        <time>2018-01-27T21:13:44Z</time>
      </trkpt>
      <trkpt lat="34.65219" lon="-117.225906">
        <ele>992.199219</ele>
        <time>2018-01-27T21:13:47Z</time>
      </trkpt>
      <trkpt lat="34.652125" lon="-117.225893">
        <ele>992.500000</ele>
        <time>2018-01-27T21:13:48Z</time>
      </trkpt>
      <trkpt lat="34.651842" lon="-117.225855">
        <ele>992.097656</ele>
        <time>2018-01-27T21:13:52Z</time>
      </trkpt>
      <trkpt lat="34.651768" lon="-117.225851">
        <ele>992.199219</ele>
        <time>2018-01-27T21:13:53Z</time>
      </trkpt>
      <trkpt lat="34.651166" lon="-117.225835">
        <ele>993.597656</ele>
        <time>2018-01-27T21:14:05Z</time>
      </trkpt>
      <trkpt lat="34.651124" lon="-117.225826">
        <ele>993.097656</ele>
        <time>2018-01-27T21:14:07Z</time>
      </trkpt>
      <trkpt lat="34.651038" lon="-117.225794">
        <ele>992.296875</ele>
        <time>2018-01-27T21:14:08Z</time>
      </trkpt>
      <trkpt lat="34.650998" lon="-117.225785">
        <ele>991.898438</ele>
        <time>2018-01-27T21:14:10Z</time>
      </trkpt>
      <trkpt lat="34.650625" lon="-117.2257">
        <ele>992.398438</ele>
        <time>2018-01-27T21:14:18Z</time>
      </trkpt>
      <trkpt lat="34.6505" lon="-117.225657">
        <ele>992.699219</ele>
        <time>2018-01-27T21:14:21Z</time>
      </trkpt>
      <trkpt lat="34.65034" lon="-117.225615">
        <ele>990.199219</ele>
        <time>2018-01-27T21:14:25Z</time>
      </trkpt>
      <trkpt lat="34.650291" lon="-117.225591">
        <ele>989.500000</ele>
        <time>2018-01-27T21:14:26Z</time>
      </trkpt>
      <trkpt lat="34.650185" lon="-117.225528">
        <ele>989.500000</ele>
        <time>2018-01-27T21:14:28Z</time>
      </trkpt>
      <trkpt lat="34.64994" lon="-117.225378">
        <ele>988.000000</ele>
        <time>2018-01-27T21:14:32Z</time>
      </trkpt>
      <trkpt lat="34.649805" lon="-117.225321">
        <ele>987.898438</ele>
        <time>2018-01-27T21:14:34Z</time>
      </trkpt>
      <trkpt lat="34.649569" lon="-117.225223">
        <ele>988.597656</ele>
        <time>2018-01-27T21:14:38Z</time>
      </trkpt>
      <trkpt lat="34.649514" lon="-117.225191">
        <ele>988.398438</ele>
        <time>2018-01-27T21:14:39Z</time>
      </trkpt>
      <trkpt lat="34.649463" lon="-117.225158">
        <ele>987.597656</ele>
        <time>2018-01-27T21:14:40Z</time>
      </trkpt>
      <trkpt lat="34.649415" lon="-117.225121">
        <ele>987.000000</ele>
        <time>2018-01-27T21:14:41Z</time>
      </trkpt>
      <trkpt lat="34.649235" lon="-117.224976">
        <ele>985.296875</ele>
        <time>2018-01-27T21:14:45Z</time>
      </trkpt>
      <trkpt lat="34.649187" lon="-117.224952">
        <ele>985.398438</ele>
        <time>2018-01-27T21:14:46Z</time>
      </trkpt>
      <trkpt lat="34.648979" lon="-117.224856">
        <ele>986.500000</ele>
        <time>2018-01-27T21:14:50Z</time>
      </trkpt>
      <trkpt lat="34.648925" lon="-117.224819">
        <ele>986.296875</ele>
        <time>2018-01-27T21:14:51Z</time>
      </trkpt>
      <trkpt lat="34.648869" lon="-117.224777">
        <ele>986.398438</ele>
        <time>2018-01-27T21:14:52Z</time>
      </trkpt>
      <trkpt lat="34.64882" lon="-117.22473">
        <ele>986.199219</ele>
        <time>2018-01-27T21:14:53Z</time>
      </trkpt>
      <trkpt lat="34.648782" lon="-117.224675">
        <ele>985.796875</ele>
        <time>2018-01-27T21:14:54Z</time>
      </trkpt>
      <trkpt lat="34.648751" lon="-117.22462">
        <ele>985.500000</ele>
        <time>2018-01-27T21:14:55Z</time>
      </trkpt>
      <trkpt lat="34.648723" lon="-117.224564">
        <ele>985.097656</ele>
        <time>2018-01-27T21:14:56Z</time>
      </trkpt>
      <trkpt lat="34.648267" lon="-117.22371">
        <ele>982.796875</ele>
        <time>2018-01-27T21:15:11Z</time>
      </trkpt>
      <trkpt lat="34.648088" lon="-117.223444">
        <ele>982.398438</ele>
        <time>2018-01-27T21:15:15Z</time>
      </trkpt>
      <trkpt lat="34.647995" lon="-117.22333">
        <ele>981.898438</ele>
        <time>2018-01-27T21:15:17Z</time>
      </trkpt>
      <trkpt lat="34.647946" lon="-117.223279">
        <ele>981.500000</ele>
        <time>2018-01-27T21:15:18Z</time>
      </trkpt>
      <trkpt lat="34.647892" lon="-117.223234">
        <ele>981.296875</ele>
        <time>2018-01-27T21:15:19Z</time>
      </trkpt>
      <trkpt lat="34.647785" lon="-117.223152">
        <ele>980.699219</ele>
        <time>2018-01-27T21:15:21Z</time>
      </trkpt>
      <trkpt lat="34.647606" lon="-117.22304">
        <ele>980.199219</ele>
        <time>2018-01-27T21:15:24Z</time>
      </trkpt>
      <trkpt lat="34.647319" lon="-117.222892">
        <ele>979.398438</ele>
        <time>2018-01-27T21:15:29Z</time>
      </trkpt>
      <trkpt lat="34.647021" lon="-117.222757">
        <ele>978.898438</ele>
        <time>2018-01-27T21:15:38Z</time>
      </trkpt>
      <trkpt lat="34.646925" lon="-117.222687">
        <ele>978.296875</ele>
        <time>2018-01-27T21:16:16Z</time>
      </trkpt>
      <trkpt lat="34.64677" lon="-117.222549">
        <ele>978.097656</ele>
        <time>2018-01-27T21:16:19Z</time>
      </trkpt>
      <trkpt lat="34.64622" lon="-117.222026">
        <ele>976.199219</ele>
        <time>2018-01-27T21:16:33Z</time>
      </trkpt>
      <trkpt lat="34.646185" lon="-117.222001">
        <ele>975.796875</ele>
        <time>2018-01-27T21:16:35Z</time>
      </trkpt>
      <trkpt lat="34.64605" lon="-117.221913">
        <ele>975.000000</ele>
        <time>2018-01-27T21:16:39Z</time>
      </trkpt>
      <trkpt lat="34.645946" lon="-117.221855">
        <ele>975.398438</ele>
        <time>2018-01-27T21:16:43Z</time>
      </trkpt>
      <trkpt lat="34.645919" lon="-117.221847">
        <ele>975.597656</ele>
        <time>2018-01-27T21:16:46Z</time>
      </trkpt>
      <trkpt lat="34.645855" lon="-117.221841">
        <ele>976.796875</ele>
        <time>2018-01-27T21:17:30Z</time>
      </trkpt>
      <trkpt lat="34.645824" lon="-117.221815">
        <ele>976.898438</ele>
        <time>2018-01-27T21:17:32Z</time>
      </trkpt>
      <trkpt lat="34.645766" lon="-117.221815">
        <ele>976.699219</ele>
        <time>2018-01-27T21:17:33Z</time>
      </trkpt>
      <trkpt lat="34.645728" lon="-117.221822">
        <ele>976.597656</ele>
        <time>2018-01-27T21:17:35Z</time>
      </trkpt>
      <trkpt lat="34.645644" lon="-117.22186">
        <ele>976.699219</ele>
        <time>2018-01-27T21:17:36Z</time>
      </trkpt>
      <trkpt lat="34.645601" lon="-117.22189">
        <ele>976.597656</ele>
        <time>2018-01-27T21:17:37Z</time>
      </trkpt>
      <trkpt lat="34.645559" lon="-117.221931">
        <ele>976.699219</ele>
        <time>2018-01-27T21:17:38Z</time>
      </trkpt>
      <trkpt lat="34.64538" lon="-117.222122">
        <ele>976.097656</ele>
        <time>2018-01-27T21:17:41Z</time>
      </trkpt>
      <trkpt lat="34.630876" lon="-117.237509">
        <ele>985.699219</ele>
        <time>2018-01-27T21:20:18Z</time>
      </trkpt>
      <trkpt lat="34.630811" lon="-117.23756">
        <ele>985.796875</ele>
        <time>2018-01-27T21:20:19Z</time>
      </trkpt>
      <trkpt lat="34.630747" lon="-117.237591">
        <ele>985.699219</ele>
        <time>2018-01-27T21:20:20Z</time>
      </trkpt>
      <trkpt lat="34.630682" lon="-117.237602">
        <ele>985.500000</ele>
        <time>2018-01-27T21:20:21Z</time>
      </trkpt>
      <trkpt lat="34.630615" lon="-117.237589">
        <ele>985.500000</ele>
        <time>2018-01-27T21:20:22Z</time>
      </trkpt>
      <trkpt lat="34.630546" lon="-117.237546">
        <ele>985.097656</ele>
        <time>2018-01-27T21:20:23Z</time>
      </trkpt>
      <trkpt lat="34.630481" lon="-117.237474">
        <ele>984.699219</ele>
        <time>2018-01-27T21:20:24Z</time>
      </trkpt>
      <trkpt lat="34.630288" lon="-117.237228">
        <ele>983.796875</ele>
        <time>2018-01-27T21:20:27Z</time>
      </trkpt>
      <trkpt lat="34.630215" lon="-117.237165">
        <ele>983.699219</ele>
        <time>2018-01-27T21:20:28Z</time>
      </trkpt>
      <trkpt lat="34.62993" lon="-117.236908">
        <ele>986.296875</ele>
        <time>2018-01-27T21:20:32Z</time>
      </trkpt>
      <trkpt lat="34.629873" lon="-117.236864">
        <ele>986.898438</ele>
        <time>2018-01-27T21:20:33Z</time>
      </trkpt>
      <trkpt lat="34.629816" lon="-117.236838">
        <ele>987.500000</ele>
        <time>2018-01-27T21:20:34Z</time>
      </trkpt>
      <trkpt lat="34.629757" lon="-117.236833">
        <ele>988.000000</ele>
        <time>2018-01-27T21:20:35Z</time>
      </trkpt>
      <trkpt lat="34.629698" lon="-117.236849">
        <ele>988.097656</ele>
        <time>2018-01-27T21:20:36Z</time>
      </trkpt>
      <trkpt lat="34.629642" lon="-117.236885">
        <ele>988.199219</ele>
        <time>2018-01-27T21:20:37Z</time>
      </trkpt>
      <trkpt lat="34.629588" lon="-117.236933">
        <ele>987.699219</ele>
        <time>2018-01-27T21:20:38Z</time>
      </trkpt>
      <trkpt lat="34.629535" lon="-117.236988">
        <ele>987.097656</ele>
        <time>2018-01-27T21:20:39Z</time>
      </trkpt>
      <trkpt lat="34.629485" lon="-117.237045">
        <ele>986.699219</ele>
        <time>2018-01-27T21:20:40Z</time>
      </trkpt>
      <trkpt lat="34.629438" lon="-117.237105">
        <ele>986.398438</ele>
        <time>2018-01-27T21:20:41Z</time>
      </trkpt>
      <trkpt lat="34.629314" lon="-117.237268">
        <ele>983.898438</ele>
        <time>2018-01-27T21:20:44Z</time>
      </trkpt>
      <trkpt lat="34.62927" lon="-117.237309">
        <ele>983.000000</ele>
        <time>2018-01-27T21:20:45Z</time>
      </trkpt>
      <trkpt lat="34.62847" lon="-117.238067">
        <ele>986.398438</ele>
        <time>2018-01-27T21:21:07Z</time>
      </trkpt>
      <trkpt lat="34.627904" lon="-117.238635">
        <ele>984.097656</ele>
        <time>2018-01-27T21:21:21Z</time>
      </trkpt>
      <trkpt lat="34.62781" lon="-117.238701">
        <ele>984.699219</ele>
        <time>2018-01-27T21:21:23Z</time>
      </trkpt>
      <trkpt lat="34.626739" lon="-117.239385">
        <ele>992.097656</ele>
        <time>2018-01-27T21:21:38Z</time>
      </trkpt>
      <trkpt lat="34.626593" lon="-117.239517">
        <ele>992.699219</ele>
        <time>2018-01-27T21:21:40Z</time>
      </trkpt>
      <trkpt lat="34.626525" lon="-117.239591">
        <ele>993.296875</ele>
        <time>2018-01-27T21:21:41Z</time>
      </trkpt>
      <trkpt lat="34.626465" lon="-117.239672">
        <ele>994.199219</ele>
        <time>2018-01-27T21:21:42Z</time>
      </trkpt>
      <trkpt lat="34.626412" lon="-117.239757">
        <ele>994.500000</ele>
        <time>2018-01-27T21:21:43Z</time>
      </trkpt>
      <trkpt lat="34.626368" lon="-117.239843">
        <ele>994.796875</ele>
        <time>2018-01-27T21:21:44Z</time>
      </trkpt>
      <trkpt lat="34.626329" lon="-117.239929">
        <ele>995.296875</ele>
        <time>2018-01-27T21:21:45Z</time>
      </trkpt>
      <trkpt lat="34.62616" lon="-117.240372">
        <ele>995.000000</ele>
        <time>2018-01-27T21:21:52Z</time>
      </trkpt>
      <trkpt lat="34.62615" lon="-117.240408">
        <ele>995.097656</ele>
        <time>2018-01-27T21:21:54Z</time>
      </trkpt>
      <trkpt lat="34.626148" lon="-117.240484">
        <ele>995.097656</ele>
        <time>2018-01-27T21:21:55Z</time>
      </trkpt>
      <trkpt lat="34.626153" lon="-117.240522">
        <ele>994.597656</ele>
        <time>2018-01-27T21:21:57Z</time>
      </trkpt>
      <trkpt lat="34.626184" lon="-117.240606">
        <ele>994.296875</ele>
        <time>2018-01-27T21:21:58Z</time>
      </trkpt>
      <trkpt lat="34.626206" lon="-117.240644">
        <ele>995.398438</ele>
        <time>2018-01-27T21:22:00Z</time>
      </trkpt>
      <trkpt lat="34.626254" lon="-117.240748">
        <ele>995.500000</ele>
        <time>2018-01-27T21:22:01Z</time>
      </trkpt>
      <trkpt lat="34.626468" lon="-117.241179">
        <ele>997.398438</ele>
        <time>2018-01-27T21:22:16Z</time>
      </trkpt>
      <trkpt lat="34.626467" lon="-117.241179">
        <ele>1000.199219</ele>
        <time>2018-01-27T21:22:45Z</time>
      </trkpt>
      <trkpt lat="34.626525" lon="-117.241296">
        <ele>1000.296875</ele>
        <time>2018-01-27T21:22:46Z</time>
      </trkpt>
      <trkpt lat="34.626661" lon="-117.241533">
        <ele>1000.796875</ele>
        <time>2018-01-27T21:22:52Z</time>
      </trkpt>
      <trkpt lat="34.626815" lon="-117.241769">
        <ele>1001.796875</ele>
        <time>2018-01-27T21:22:58Z</time>
      </trkpt>
      <trkpt lat="34.626891" lon="-117.241872">
        <ele>1002.199219</ele>
        <time>2018-01-27T21:23:01Z</time>
      </trkpt>
      <trkpt lat="34.62692" lon="-117.241904">
        <ele>1002.597656</ele>
        <time>2018-01-27T21:23:03Z</time>
      </trkpt>
      <trkpt lat="34.626987" lon="-117.241955">
        <ele>1002.796875</ele>
        <time>2018-01-27T21:23:04Z</time>
      </trkpt>
      <trkpt lat="34.627025" lon="-117.241974">
        <ele>1003.597656</ele>
        <time>2018-01-27T21:23:06Z</time>
      </trkpt>
      <trkpt lat="34.627104" lon="-117.242028">
        <ele>1003.796875</ele>
        <time>2018-01-27T21:23:07Z</time>
      </trkpt>
      <trkpt lat="34.627142" lon="-117.242064">
        <ele>1003.898438</ele>
        <time>2018-01-27T21:23:08Z</time>
      </trkpt>
      <trkpt lat="34.627357" lon="-117.24229">
        <ele>1005.500000</ele>
        <time>2018-01-27T21:23:13Z</time>
      </trkpt>
      <trkpt lat="34.627534" lon="-117.242494">
        <ele>1006.597656</ele>
        <time>2018-01-27T21:23:17Z</time>
      </trkpt>
      <trkpt lat="34.627565" lon="-117.242543">
        <ele>1007.199219</ele>
        <time>2018-01-27T21:23:18Z</time>
      </trkpt>
      <trkpt lat="34.627587" lon="-117.2426">
        <ele>1007.000000</ele>
        <time>2018-01-27T21:23:19Z</time>
      </trkpt>
      <trkpt lat="34.62763" lon="-117.242697">
        <ele>1007.398438</ele>
        <time>2018-01-27T21:23:21Z</time>
      </trkpt>
      <trkpt lat="34.627655" lon="-117.24274">
        <ele>1007.796875</ele>
        <time>2018-01-27T21:23:23Z</time>
      </trkpt>
      <trkpt lat="34.627716" lon="-117.242807">
        <ele>1007.898438</ele>
        <time>2018-01-27T21:23:24Z</time>
      </trkpt>
      <trkpt lat="34.627853" lon="-117.242941">
        <ele>1009.097656</ele>
        <time>2018-01-27T21:23:28Z</time>
      </trkpt>
      <trkpt lat="34.62789" lon="-117.24299">
        <ele>1009.296875</ele>
        <time>2018-01-27T21:23:29Z</time>
      </trkpt>
      <trkpt lat="34.627928" lon="-117.243048">
        <ele>1009.398438</ele>
        <time>2018-01-27T21:23:30Z</time>
      </trkpt>
      <trkpt lat="34.627963" lon="-117.243112">
        <ele>1009.597656</ele>
        <time>2018-01-27T21:23:31Z</time>
      </trkpt>
      <trkpt lat="34.628137" lon="-117.243458">
        <ele>1010.699219</ele>
        <time>2018-01-27T21:23:36Z</time>
      </trkpt>
      <trkpt lat="34.628168" lon="-117.24353">
        <ele>1011.097656</ele>
        <time>2018-01-27T21:23:37Z</time>
      </trkpt>
      <trkpt lat="34.628469" lon="-117.244242">
        <ele>1013.699219</ele>
        <time>2018-01-27T21:23:47Z</time>
      </trkpt>
      <trkpt lat="34.628486" lon="-117.244316">
        <ele>1013.898438</ele>
        <time>2018-01-27T21:23:48Z</time>
      </trkpt>
      <trkpt lat="34.628524" lon="-117.244465">
        <ele>1014.597656</ele>
        <time>2018-01-27T21:23:50Z</time>
      </trkpt>
      <trkpt lat="34.628551" lon="-117.244537">
        <ele>1014.699219</ele>
        <time>2018-01-27T21:23:51Z</time>
      </trkpt>
      <trkpt lat="34.628584" lon="-117.244606">
        <ele>1015.000000</ele>
        <time>2018-01-27T21:23:52Z</time>
      </trkpt>
      <trkpt lat="34.628684" lon="-117.244823">
        <ele>1015.796875</ele>
        <time>2018-01-27T21:23:55Z</time>
      </trkpt>
      <trkpt lat="34.628739" lon="-117.244981">
        <ele>1016.500000</ele>
        <time>2018-01-27T21:23:57Z</time>
      </trkpt>
      <trkpt lat="34.628871" lon="-117.245429">
        <ele>1018.597656</ele>
        <time>2018-01-27T21:24:03Z</time>
      </trkpt>
      <trkpt lat="34.628885" lon="-117.245496">
        <ele>1019.199219</ele>
        <time>2018-01-27T21:24:04Z</time>
      </trkpt>
      <trkpt lat="34.628909" lon="-117.24563">
        <ele>1019.898438</ele>
        <time>2018-01-27T21:24:06Z</time>
      </trkpt>
      <trkpt lat="34.628935" lon="-117.245687">
        <ele>1020.398438</ele>
        <time>2018-01-27T21:24:07Z</time>
      </trkpt>
      <trkpt lat="34.628971" lon="-117.245736">
        <ele>1020.796875</ele>
        <time>2018-01-27T21:24:08Z</time>
      </trkpt>
      <trkpt lat="34.629017" lon="-117.245777">
        <ele>1021.097656</ele>
        <time>2018-01-27T21:24:09Z</time>
      </trkpt>
      <trkpt lat="34.629073" lon="-117.245813">
        <ele>1021.597656</ele>
        <time>2018-01-27T21:24:10Z</time>
      </trkpt>
      <trkpt lat="34.62913" lon="-117.245853">
        <ele>1022.097656</ele>
        <time>2018-01-27T21:24:11Z</time>
      </trkpt>
      <trkpt lat="34.629186" lon="-117.245902">
        <ele>1022.398438</ele>
        <time>2018-01-27T21:24:12Z</time>
      </trkpt>
      <trkpt lat="34.629239" lon="-117.245963">
        <ele>1023.000000</ele>
        <time>2018-01-27T21:24:13Z</time>
      </trkpt>
      <trkpt lat="34.629563" lon="-117.246393">
        <ele>1025.199219</ele>
        <time>2018-01-27T21:24:19Z</time>
      </trkpt>
      <trkpt lat="34.630269" lon="-117.247396">
        <ele>1030.398438</ele>
        <time>2018-01-27T21:24:31Z</time>
      </trkpt>
      <trkpt lat="34.630332" lon="-117.247463">
        <ele>1030.699219</ele>
        <time>2018-01-27T21:24:32Z</time>
      </trkpt>
      <trkpt lat="34.630399" lon="-117.247515">
        <ele>1031.097656</ele>
        <time>2018-01-27T21:24:33Z</time>
      </trkpt>
      <trkpt lat="34.63047" lon="-117.247553">
        <ele>1031.398438</ele>
        <time>2018-01-27T21:24:34Z</time>
      </trkpt>
      <trkpt lat="34.630818" lon="-117.247728">
        <ele>1033.199219</ele>
        <time>2018-01-27T21:24:39Z</time>
      </trkpt>
      <trkpt lat="34.630884" lon="-117.24775">
        <ele>1033.597656</ele>
        <time>2018-01-27T21:24:40Z</time>
      </trkpt>
      <trkpt lat="34.630949" lon="-117.247768">
        <ele>1033.597656</ele>
        <time>2018-01-27T21:24:41Z</time>
      </trkpt>
      <trkpt lat="34.63141" lon="-117.247877">
        <ele>1035.500000</ele>
        <time>2018-01-27T21:24:48Z</time>
      </trkpt>
      <trkpt lat="34.631475" lon="-117.247902">
        <ele>1035.898438</ele>
        <time>2018-01-27T21:24:49Z</time>
      </trkpt>
      <trkpt lat="34.631537" lon="-117.247936">
        <ele>1036.199219</ele>
        <time>2018-01-27T21:24:50Z</time>
      </trkpt>
      <trkpt lat="34.631778" lon="-117.24808">
        <ele>1037.898438</ele>
        <time>2018-01-27T21:24:54Z</time>
      </trkpt>
      <trkpt lat="34.631833" lon="-117.248125">
        <ele>1038.597656</ele>
        <time>2018-01-27T21:24:55Z</time>
      </trkpt>
      <trkpt lat="34.631883" lon="-117.248177">
        <ele>1039.199219</ele>
        <time>2018-01-27T21:24:56Z</time>
      </trkpt>
      <trkpt lat="34.631929" lon="-117.248234">
        <ele>1039.796875</ele>
        <time>2018-01-27T21:24:57Z</time>
      </trkpt>
      <trkpt lat="34.631973" lon="-117.248295">
        <ele>1040.199219</ele>
        <time>2018-01-27T21:24:58Z</time>
      </trkpt>
      <trkpt lat="34.632098" lon="-117.248484">
        <ele>1041.000000</ele>
        <time>2018-01-27T21:25:01Z</time>
      </trkpt>
      <trkpt lat="34.632148" lon="-117.248534">
        <ele>1041.500000</ele>
        <time>2018-01-27T21:25:02Z</time>
      </trkpt>
      <trkpt lat="34.632201" lon="-117.248573">
        <ele>1042.097656</ele>
        <time>2018-01-27T21:25:03Z</time>
      </trkpt>
      <trkpt lat="34.632249" lon="-117.248599">
        <ele>1043.000000</ele>
        <time>2018-01-27T21:25:04Z</time>
      </trkpt>
      <trkpt lat="34.632288" lon="-117.248619">
        <ele>1043.796875</ele>
        <time>2018-01-27T21:25:06Z</time>
      </trkpt>
      <trkpt lat="34.632376" lon="-117.248643">
        <ele>1043.796875</ele>
        <time>2018-01-27T21:25:07Z</time>
      </trkpt>
      <trkpt lat="34.632421" lon="-117.248643">
        <ele>1043.898438</ele>
        <time>2018-01-27T21:25:09Z</time>
      </trkpt>
      <trkpt lat="34.63251" lon="-117.248624">
        <ele>1044.000000</ele>
        <time>2018-01-27T21:25:10Z</time>
      </trkpt>
      <trkpt lat="34.632555" lon="-117.248622">
        <ele>1044.597656</ele>
        <time>2018-01-27T21:25:12Z</time>
      </trkpt>
      <trkpt lat="34.632626" lon="-117.248629">
        <ele>1044.699219</ele>
        <time>2018-01-27T21:25:13Z</time>
      </trkpt>
      <trkpt lat="34.632648" lon="-117.248634">
        <ele>1045.500000</ele>
        <time>2018-01-27T21:25:17Z</time>
      </trkpt>
      <trkpt lat="34.632734" lon="-117.248641">
        <ele>1045.699219</ele>
        <time>2018-01-27T21:25:18Z</time>
      </trkpt>
      <trkpt lat="34.632747" lon="-117.248637">
        <ele>1044.097656</ele>
        <time>2018-01-27T21:26:16Z</time>
      </trkpt>
      <trkpt lat="34.632839" lon="-117.248606">
        <ele>1044.199219</ele>
        <time>2018-01-27T21:26:17Z</time>
      </trkpt>
      <trkpt lat="34.632857" lon="-117.248593">
        <ele>1047.097656</ele>
        <time>2018-01-27T21:26:22Z</time>
      </trkpt>
      <trkpt lat="34.632922" lon="-117.248553">
        <ele>1047.898438</ele>
        <time>2018-01-27T21:26:24Z</time>
      </trkpt>
      <trkpt lat="34.632943" lon="-117.248542">
        <ele>1048.597656</ele>
        <time>2018-01-27T21:26:30Z</time>
      </trkpt>
      <trkpt lat="34.633022" lon="-117.248524">
        <ele>1049.097656</ele>
        <time>2018-01-27T21:26:31Z</time>
      </trkpt>
      <trkpt lat="34.633035" lon="-117.248525">
        <ele>1049.796875</ele>
        <time>2018-01-27T21:26:38Z</time>
      </trkpt>
      <trkpt lat="34.633107" lon="-117.248558">
        <ele>1050.199219</ele>
        <time>2018-01-27T21:26:40Z</time>
      </trkpt>
      <trkpt lat="34.633122" lon="-117.248569">
        <ele>1050.796875</ele>
        <time>2018-01-27T21:26:50Z</time>
      </trkpt>
      <trkpt lat="34.6332" lon="-117.248571">
        <ele>1050.898438</ele>
        <time>2018-01-27T21:26:53Z</time>
      </trkpt>
      <trkpt lat="34.633213" lon="-117.248568">
        <ele>1051.699219</ele>
        <time>2018-01-27T21:27:13Z</time>
      </trkpt>
      <trkpt lat="34.63331" lon="-117.248603">
        <ele>1051.398438</ele>
        <time>2018-01-27T21:27:14Z</time>
      </trkpt>
      <trkpt lat="34.633405" lon="-117.248634">
        <ele>1051.500000</ele>
        <time>2018-01-27T21:27:18Z</time>
      </trkpt>
      <trkpt lat="34.633431" lon="-117.248646">
        <ele>1051.796875</ele>
        <time>2018-01-27T21:27:21Z</time>
      </trkpt>
      <trkpt lat="34.633502" lon="-117.248686">
        <ele>1051.796875</ele>
        <time>2018-01-27T21:27:22Z</time>
      </trkpt>
      <trkpt lat="34.633676" lon="-117.248809">
        <ele>1052.796875</ele>
        <time>2018-01-27T21:27:31Z</time>
      </trkpt>
      <trkpt lat="34.633693" lon="-117.248824">
        <ele>1053.097656</ele>
        <time>2018-01-27T21:27:35Z</time>
      </trkpt>
      <trkpt lat="34.633754" lon="-117.248892">
        <ele>1053.000000</ele>
        <time>2018-01-27T21:27:36Z</time>
      </trkpt>
      <trkpt lat="34.633766" lon="-117.248913">
        <ele>1053.199219</ele>
        <time>2018-01-27T21:27:40Z</time>
      </trkpt>
      <trkpt lat="34.633798" lon="-117.249">
        <ele>1053.097656</ele>
        <time>2018-01-27T21:27:41Z</time>
      </trkpt>
      <trkpt lat="34.633802" lon="-117.249018">
        <ele>1051.199219</ele>
        <time>2018-01-27T21:29:35Z</time>
      </trkpt>
      <trkpt lat="34.633839" lon="-117.249119">
        <ele>1051.296875</ele>
        <time>2018-01-27T21:29:36Z</time>
      </trkpt>
      <trkpt lat="34.633845" lon="-117.249153">
        <ele>1051.898438</ele>
        <time>2018-01-27T21:29:38Z</time>
      </trkpt>
      <trkpt lat="34.633864" lon="-117.24927">
        <ele>1052.699219</ele>
        <time>2018-01-27T21:29:40Z</time>
      </trkpt>
      <trkpt lat="34.633886" lon="-117.249467">
        <ele>1054.000000</ele>
        <time>2018-01-27T21:29:45Z</time>
      </trkpt>
      <trkpt lat="34.63389" lon="-117.249586">
        <ele>1054.597656</ele>
        <time>2018-01-27T21:29:53Z</time>
      </trkpt>
      <trkpt lat="34.63389" lon="-117.249588">
        <ele>1055.597656</ele>
        <time>2018-01-27T21:30:06Z</time>
      </trkpt>
      <trkpt lat="34.633903" lon="-117.249715">
        <ele>1055.796875</ele>
        <time>2018-01-27T21:30:07Z</time>
      </trkpt>
      <trkpt lat="34.633928" lon="-117.249894">
        <ele>1057.097656</ele>
        <time>2018-01-27T21:30:12Z</time>
      </trkpt>
      <trkpt lat="34.633967" lon="-117.250084">
        <ele>1057.500000</ele>
        <time>2018-01-27T21:30:17Z</time>
      </trkpt>
      <trkpt lat="34.633979" lon="-117.250116">
        <ele>1058.097656</ele>
        <time>2018-01-27T21:30:21Z</time>
      </trkpt>
      <trkpt lat="34.634036" lon="-117.250235">
        <ele>1058.199219</ele>
        <time>2018-01-27T21:30:24Z</time>
      </trkpt>
      <trkpt lat="34.634052" lon="-117.250261">
        <ele>1058.398438</ele>
        <time>2018-01-27T21:30:27Z</time>
      </trkpt>
      <trkpt lat="34.634115" lon="-117.250336">
        <ele>1058.296875</ele>
        <time>2018-01-27T21:30:28Z</time>
      </trkpt>
      <trkpt lat="34.634134" lon="-117.250351">
        <ele>1058.597656</ele>
        <time>2018-01-27T21:30:32Z</time>
      </trkpt>
      <trkpt lat="34.634215" lon="-117.250399">
        <ele>1058.796875</ele>
        <time>2018-01-27T21:30:33Z</time>
      </trkpt>
      <trkpt lat="34.634241" lon="-117.250415">
        <ele>1059.000000</ele>
        <time>2018-01-27T21:30:35Z</time>
      </trkpt>
      <trkpt lat="34.634297" lon="-117.250462">
        <ele>1059.199219</ele>
        <time>2018-01-27T21:30:36Z</time>
      </trkpt>
      <trkpt lat="34.634327" lon="-117.250493">
        <ele>1059.398438</ele>
        <time>2018-01-27T21:30:38Z</time>
      </trkpt>
      <trkpt lat="34.634378" lon="-117.250562">
        <ele>1059.398438</ele>
        <time>2018-01-27T21:30:39Z</time>
      </trkpt>
      <trkpt lat="34.6344" lon="-117.250601">
        <ele>1059.699219</ele>
        <time>2018-01-27T21:30:41Z</time>
      </trkpt>
      <trkpt lat="34.634434" lon="-117.250689">
        <ele>1060.000000</ele>
        <time>2018-01-27T21:30:42Z</time>
      </trkpt>
      <trkpt lat="34.634444" lon="-117.250737">
        <ele>1061.097656</ele>
        <time>2018-01-27T21:30:44Z</time>
      </trkpt>
      <trkpt lat="34.634457" lon="-117.25083">
        <ele>1061.500000</ele>
        <time>2018-01-27T21:30:45Z</time>
      </trkpt>
      <trkpt lat="34.634461" lon="-117.250879">
        <ele>1063.000000</ele>
        <time>2018-01-27T21:30:47Z</time>
      </trkpt>
      <trkpt lat="34.634466" lon="-117.250984">
        <ele>1063.500000</ele>
        <time>2018-01-27T21:30:48Z</time>
      </trkpt>
      <trkpt lat="34.634465" lon="-117.251037">
        <ele>1064.296875</ele>
        <time>2018-01-27T21:30:50Z</time>
      </trkpt>
      <trkpt lat="34.63446" lon="-117.251677">
        <ele>1066.796875</ele>
        <time>2018-01-27T21:31:00Z</time>
      </trkpt>
      <trkpt lat="34.634452" lon="-117.251736">
        <ele>1067.199219</ele>
        <time>2018-01-27T21:31:01Z</time>
      </trkpt>
      <trkpt lat="34.634435" lon="-117.251794">
        <ele>1067.796875</ele>
        <time>2018-01-27T21:31:02Z</time>
      </trkpt>
      <trkpt lat="34.634412" lon="-117.251848">
        <ele>1068.597656</ele>
        <time>2018-01-27T21:31:03Z</time>
      </trkpt>
      <trkpt lat="34.634387" lon="-117.251897">
        <ele>1069.500000</ele>
        <time>2018-01-27T21:31:05Z</time>
      </trkpt>
      <trkpt lat="34.634341" lon="-117.251968">
        <ele>1070.000000</ele>
        <time>2018-01-27T21:31:06Z</time>
      </trkpt>
      <trkpt lat="34.634245" lon="-117.252107">
        <ele>1070.398438</ele>
        <time>2018-01-27T21:31:10Z</time>
      </trkpt>
      <trkpt lat="34.634176" lon="-117.252244">
        <ele>1071.199219</ele>
        <time>2018-01-27T21:31:13Z</time>
      </trkpt>
      <trkpt lat="34.63413" lon="-117.252351">
        <ele>1071.898438</ele>
        <time>2018-01-27T21:31:15Z</time>
      </trkpt>
      <trkpt lat="34.63411" lon="-117.252409">
        <ele>1072.500000</ele>
        <time>2018-01-27T21:31:16Z</time>
      </trkpt>
      <trkpt lat="34.634095" lon="-117.25247">
        <ele>1073.000000</ele>
        <time>2018-01-27T21:31:17Z</time>
      </trkpt>
      <trkpt lat="34.634082" lon="-117.252533">
        <ele>1073.398438</ele>
        <time>2018-01-27T21:31:18Z</time>
      </trkpt>
      <trkpt lat="34.634032" lon="-117.252891">
        <ele>1075.796875</ele>
        <time>2018-01-27T21:31:24Z</time>
      </trkpt>
      <trkpt lat="34.633994" lon="-117.253308">
        <ele>1073.597656</ele>
        <time>2018-01-27T21:31:31Z</time>
      </trkpt>
      <trkpt lat="34.633979" lon="-117.253371">
        <ele>1073.296875</ele>
        <time>2018-01-27T21:31:32Z</time>
      </trkpt>
      <trkpt lat="34.633959" lon="-117.253433">
        <ele>1073.097656</ele>
        <time>2018-01-27T21:31:33Z</time>
      </trkpt>
      <trkpt lat="34.633933" lon="-117.25349">
        <ele>1072.898438</ele>
        <time>2018-01-27T21:31:34Z</time>
      </trkpt>
      <trkpt lat="34.633903" lon="-117.253542">
        <ele>1072.597656</ele>
        <time>2018-01-27T21:31:35Z</time>
      </trkpt>
      <trkpt lat="34.633644" lon="-117.254007">
        <ele>1070.500000</ele>
        <time>2018-01-27T21:31:43Z</time>
      </trkpt>
      <trkpt lat="34.63358" lon="-117.254153">
        <ele>1069.796875</ele>
        <time>2018-01-27T21:31:45Z</time>
      </trkpt>
      <trkpt lat="34.633509" lon="-117.254359">
        <ele>1069.097656</ele>
        <time>2018-01-27T21:31:48Z</time>
      </trkpt>
      <trkpt lat="34.633465" lon="-117.254535">
        <ele>1068.000000</ele>
        <time>2018-01-27T21:31:51Z</time>
      </trkpt>
      <trkpt lat="34.633457" lon="-117.25459">
        <ele>1067.796875</ele>
        <time>2018-01-27T21:31:52Z</time>
      </trkpt>
      <trkpt lat="34.633453" lon="-117.254646">
        <ele>1067.500000</ele>
        <time>2018-01-27T21:31:53Z</time>
      </trkpt>
      <trkpt lat="34.633452" lon="-117.254703">
        <ele>1067.199219</ele>
        <time>2018-01-27T21:31:54Z</time>
      </trkpt>
      <trkpt lat="34.633456" lon="-117.254758">
        <ele>1067.000000</ele>
        <time>2018-01-27T21:31:55Z</time>
      </trkpt>
      <trkpt lat="34.633463" lon="-117.254815">
        <ele>1066.699219</ele>
        <time>2018-01-27T21:31:56Z</time>
      </trkpt>
      <trkpt lat="34.633498" lon="-117.254989">
        <ele>1066.097656</ele>
        <time>2018-01-27T21:31:59Z</time>
      </trkpt>
      <trkpt lat="34.633523" lon="-117.255108">
        <ele>1066.796875</ele>
        <time>2018-01-27T21:32:01Z</time>
      </trkpt>
      <trkpt lat="34.633546" lon="-117.255281">
        <ele>1066.597656</ele>
        <time>2018-01-27T21:32:04Z</time>
      </trkpt>
      <trkpt lat="34.633551" lon="-117.255338">
        <ele>1066.500000</ele>
        <time>2018-01-27T21:32:05Z</time>
      </trkpt>
      <trkpt lat="34.633554" lon="-117.255398">
        <ele>1066.398438</ele>
        <time>2018-01-27T21:32:06Z</time>
      </trkpt>
      <trkpt lat="34.633549" lon="-117.255509">
        <ele>1065.796875</ele>
        <time>2018-01-27T21:32:08Z</time>
      </trkpt>
      <trkpt lat="34.633539" lon="-117.25556">
        <ele>1064.898438</ele>
        <time>2018-01-27T21:32:10Z</time>
      </trkpt>
      <trkpt lat="34.63351" lon="-117.25566">
        <ele>1064.597656</ele>
        <time>2018-01-27T21:32:11Z</time>
      </trkpt>
      <trkpt lat="34.633458" lon="-117.255832">
        <ele>1064.500000</ele>
        <time>2018-01-27T21:32:14Z</time>
      </trkpt>
      <trkpt lat="34.633451" lon="-117.255895">
        <ele>1064.699219</ele>
        <time>2018-01-27T21:32:15Z</time>
      </trkpt>
      <trkpt lat="34.633449" lon="-117.255957">
        <ele>1064.597656</ele>
        <time>2018-01-27T21:32:16Z</time>
      </trkpt>
      <trkpt lat="34.633442" lon="-117.256134">
        <ele>1064.296875</ele>
        <time>2018-01-27T21:32:19Z</time>
      </trkpt>
      <trkpt lat="34.633438" lon="-117.256184">
        <ele>1064.500000</ele>
        <time>2018-01-27T21:32:21Z</time>
      </trkpt>
      <trkpt lat="34.633423" lon="-117.256261">
        <ele>1064.398438</ele>
        <time>2018-01-27T21:32:22Z</time>
      </trkpt>
      <trkpt lat="34.633415" lon="-117.256292">
        <ele>1064.398438</ele>
        <time>2018-01-27T21:32:25Z</time>
      </trkpt>
      <trkpt lat="34.63337" lon="-117.256387">
        <ele>1064.398438</ele>
        <time>2018-01-27T21:32:26Z</time>
      </trkpt>
      <trkpt lat="34.63331" lon="-117.256503">
        <ele>1064.398438</ele>
        <time>2018-01-27T21:32:30Z</time>
      </trkpt>
      <trkpt lat="34.633285" lon="-117.256538">
        <ele>1063.597656</ele>
        <time>2018-01-27T21:32:32Z</time>
      </trkpt>
      <trkpt lat="34.633212" lon="-117.256619">
        <ele>1063.398438</ele>
        <time>2018-01-27T21:32:33Z</time>
      </trkpt>
      <trkpt lat="34.632953" lon="-117.256921">
        <ele>1062.097656</ele>
        <time>2018-01-27T21:32:39Z</time>
      </trkpt>
      <trkpt lat="34.632886" lon="-117.257021">
        <ele>1061.699219</ele>
        <time>2018-01-27T21:32:41Z</time>
      </trkpt>
      <trkpt lat="34.63286" lon="-117.257079">
        <ele>1061.597656</ele>
        <time>2018-01-27T21:32:42Z</time>
      </trkpt>
      <trkpt lat="34.632843" lon="-117.257142">
        <ele>1061.699219</ele>
        <time>2018-01-27T21:32:43Z</time>
      </trkpt>
      <trkpt lat="34.632831" lon="-117.257208">
        <ele>1062.000000</ele>
        <time>2018-01-27T21:32:44Z</time>
      </trkpt>
      <trkpt lat="34.632825" lon="-117.257272">
        <ele>1061.898438</ele>
        <time>2018-01-27T21:32:45Z</time>
      </trkpt>
      <trkpt lat="34.632825" lon="-117.257334">
        <ele>1062.097656</ele>
        <time>2018-01-27T21:32:46Z</time>
      </trkpt>
      <trkpt lat="34.632828" lon="-117.257394">
        <ele>1062.199219</ele>
        <time>2018-01-27T21:32:47Z</time>
      </trkpt>
      <trkpt lat="34.632837" lon="-117.257451">
        <ele>1062.296875</ele>
        <time>2018-01-27T21:32:48Z</time>
      </trkpt>
      <trkpt lat="34.63285" lon="-117.257505">
        <ele>1062.398438</ele>
        <time>2018-01-27T21:32:49Z</time>
      </trkpt>
      <trkpt lat="34.632867" lon="-117.257559">
        <ele>1062.898438</ele>
        <time>2018-01-27T21:32:50Z</time>
      </trkpt>
      <trkpt lat="34.632888" lon="-117.257613">
        <ele>1063.097656</ele>
        <time>2018-01-27T21:32:51Z</time>
      </trkpt>
      <trkpt lat="34.632917" lon="-117.257665">
        <ele>1063.296875</ele>
        <time>2018-01-27T21:32:52Z</time>
      </trkpt>
      <trkpt lat="34.63295" lon="-117.257713">
        <ele>1063.597656</ele>
        <time>2018-01-27T21:32:53Z</time>
      </trkpt>
      <trkpt lat="34.632987" lon="-117.257756">
        <ele>1064.000000</ele>
        <time>2018-01-27T21:32:54Z</time>
      </trkpt>
      <trkpt lat="34.633028" lon="-117.257792">
        <ele>1064.097656</ele>
        <time>2018-01-27T21:32:55Z</time>
      </trkpt>
      <trkpt lat="34.633071" lon="-117.257822">
        <ele>1064.000000</ele>
        <time>2018-01-27T21:32:56Z</time>
      </trkpt>
      <trkpt lat="34.633118" lon="-117.257848">
        <ele>1064.097656</ele>
        <time>2018-01-27T21:32:57Z</time>
      </trkpt>
      <trkpt lat="34.63317" lon="-117.257871">
        <ele>1064.097656</ele>
        <time>2018-01-27T21:32:58Z</time>
      </trkpt>
      <trkpt lat="34.633225" lon="-117.25789">
        <ele>1064.199219</ele>
        <time>2018-01-27T21:32:59Z</time>
      </trkpt>
      <trkpt lat="34.633473" lon="-117.257976">
        <ele>1065.500000</ele>
        <time>2018-01-27T21:33:03Z</time>
      </trkpt>
      <trkpt lat="34.633534" lon="-117.258009">
        <ele>1065.898438</ele>
        <time>2018-01-27T21:33:04Z</time>
      </trkpt>
      <trkpt lat="34.633592" lon="-117.258052">
        <ele>1066.500000</ele>
        <time>2018-01-27T21:33:05Z</time>
      </trkpt>
      <trkpt lat="34.633649" lon="-117.2581">
        <ele>1067.000000</ele>
        <time>2018-01-27T21:33:06Z</time>
      </trkpt>
      <trkpt lat="34.63376" lon="-117.258214">
        <ele>1068.000000</ele>
        <time>2018-01-27T21:33:08Z</time>
      </trkpt>
      <trkpt lat="34.633812" lon="-117.25828">
        <ele>1068.296875</ele>
        <time>2018-01-27T21:33:09Z</time>
      </trkpt>
      <trkpt lat="34.633858" lon="-117.258355">
        <ele>1068.796875</ele>
        <time>2018-01-27T21:33:10Z</time>
      </trkpt>
      <trkpt lat="34.633901" lon="-117.258435">
        <ele>1069.097656</ele>
        <time>2018-01-27T21:33:11Z</time>
      </trkpt>
      <trkpt lat="34.633981" lon="-117.258604">
        <ele>1069.796875</ele>
        <time>2018-01-27T21:33:13Z</time>
      </trkpt>
      <trkpt lat="34.63403" lon="-117.258682">
        <ele>1070.097656</ele>
        <time>2018-01-27T21:33:14Z</time>
      </trkpt>
      <trkpt lat="34.634086" lon="-117.258755">
        <ele>1070.699219</ele>
        <time>2018-01-27T21:33:15Z</time>
      </trkpt>
      <trkpt lat="34.634392" lon="-117.259106">
        <ele>1072.898438</ele>
        <time>2018-01-27T21:33:20Z</time>
      </trkpt>
      <trkpt lat="34.634452" lon="-117.25917">
        <ele>1073.398438</ele>
        <time>2018-01-27T21:33:21Z</time>
      </trkpt>
      <trkpt lat="34.634513" lon="-117.259227">
        <ele>1073.699219</ele>
        <time>2018-01-27T21:33:22Z</time>
      </trkpt>
      <trkpt lat="34.634696" lon="-117.259378">
        <ele>1074.500000</ele>
        <time>2018-01-27T21:33:26Z</time>
      </trkpt>
      <trkpt lat="34.634719" lon="-117.259409">
        <ele>1073.500000</ele>
        <time>2018-01-27T21:33:39Z</time>
      </trkpt>
      <trkpt lat="34.634747" lon="-117.259472">
        <ele>1073.597656</ele>
        <time>2018-01-27T21:33:41Z</time>
      </trkpt>
      <trkpt lat="34.634757" lon="-117.259521">
        <ele>1074.000000</ele>
        <time>2018-01-27T21:33:43Z</time>
      </trkpt>
      <trkpt lat="34.634753" lon="-117.259603">
        <ele>1074.097656</ele>
        <time>2018-01-27T21:33:44Z</time>
      </trkpt>
      <trkpt lat="34.634742" lon="-117.25965">
        <ele>1074.597656</ele>
        <time>2018-01-27T21:33:46Z</time>
      </trkpt>
      <trkpt lat="34.634685" lon="-117.259732">
        <ele>1075.000000</ele>
        <time>2018-01-27T21:33:47Z</time>
      </trkpt>
      <trkpt lat="34.634644" lon="-117.259765">
        <ele>1075.296875</ele>
        <time>2018-01-27T21:33:48Z</time>
      </trkpt>
      <trkpt lat="34.634599" lon="-117.259793">
        <ele>1075.398438</ele>
        <time>2018-01-27T21:33:49Z</time>
      </trkpt>
      <trkpt lat="34.634412" lon="-117.259892">
        <ele>1074.898438</ele>
        <time>2018-01-27T21:33:53Z</time>
      </trkpt>
      <trkpt lat="34.634356" lon="-117.259909">
        <ele>1074.699219</ele>
        <time>2018-01-27T21:33:54Z</time>
      </trkpt>
      <trkpt lat="34.634296" lon="-117.259918">
        <ele>1074.500000</ele>
        <time>2018-01-27T21:33:55Z</time>
      </trkpt>
      <trkpt lat="34.634169" lon="-117.259931">
        <ele>1073.796875</ele>
        <time>2018-01-27T21:33:57Z</time>
      </trkpt>
      <trkpt lat="34.633972" lon="-117.259928">
        <ele>1072.500000</ele>
        <time>2018-01-27T21:34:00Z</time>
      </trkpt>
      <trkpt lat="34.633662" lon="-117.259891">
        <ele>1071.398438</ele>
        <time>2018-01-27T21:34:05Z</time>
      </trkpt>
      <trkpt lat="34.633276" lon="-117.259788">
        <ele>1069.500000</ele>
        <time>2018-01-27T21:34:11Z</time>
      </trkpt>
      <trkpt lat="34.633149" lon="-117.25975">
        <ele>1069.000000</ele>
        <time>2018-01-27T21:34:13Z</time>
      </trkpt>
      <trkpt lat="34.633075" lon="-117.259737">
        <ele>1068.699219</ele>
        <time>2018-01-27T21:34:14Z</time>
      </trkpt>
      <trkpt lat="34.632991" lon="-117.259728">
        <ele>1068.296875</ele>
        <time>2018-01-27T21:34:15Z</time>
      </trkpt>
      <trkpt lat="34.632424" lon="-117.259709">
        <ele>1065.796875</ele>
        <time>2018-01-27T21:34:22Z</time>
      </trkpt>
      <trkpt lat="34.631625" lon="-117.259745">
        <ele>1062.699219</ele>
        <time>2018-01-27T21:34:32Z</time>
      </trkpt>
      <trkpt lat="34.631347" lon="-117.2598">
        <ele>1060.500000</ele>
        <time>2018-01-27T21:34:36Z</time>
      </trkpt>
      <trkpt lat="34.631236" lon="-117.259825">
        <ele>1059.699219</ele>
        <time>2018-01-27T21:34:38Z</time>
      </trkpt>
      <trkpt lat="34.631173" lon="-117.259831">
        <ele>1059.398438</ele>
        <time>2018-01-27T21:34:39Z</time>
      </trkpt>
      <trkpt lat="34.631103" lon="-117.259828">
        <ele>1058.898438</ele>
        <time>2018-01-27T21:34:40Z</time>
      </trkpt>
      <trkpt lat="34.631031" lon="-117.259815">
        <ele>1058.699219</ele>
        <time>2018-01-27T21:34:41Z</time>
      </trkpt>
      <trkpt lat="34.630765" lon="-117.25977">
        <ele>1057.500000</ele>
        <time>2018-01-27T21:34:45Z</time>
      </trkpt>
      <trkpt lat="34.630705" lon="-117.25977">
        <ele>1057.296875</ele>
        <time>2018-01-27T21:34:46Z</time>
      </trkpt>
      <trkpt lat="34.630647" lon="-117.259774">
        <ele>1057.000000</ele>
        <time>2018-01-27T21:34:47Z</time>
      </trkpt>
      <trkpt lat="34.630234" lon="-117.259822">
        <ele>1054.398438</ele>
        <time>2018-01-27T21:34:54Z</time>
      </trkpt>
      <trkpt lat="34.630168" lon="-117.259817">
        <ele>1053.898438</ele>
        <time>2018-01-27T21:34:55Z</time>
      </trkpt>
      <trkpt lat="34.630107" lon="-117.259808">
        <ele>1053.597656</ele>
        <time>2018-01-27T21:34:56Z</time>
      </trkpt>
      <trkpt lat="34.629623" lon="-117.25973">
        <ele>1051.097656</ele>
        <time>2018-01-27T21:35:04Z</time>
      </trkpt>
      <trkpt lat="34.629537" lon="-117.259707">
        <ele>1050.699219</ele>
        <time>2018-01-27T21:35:05Z</time>
      </trkpt>
      <trkpt lat="34.629451" lon="-117.259676">
        <ele>1050.398438</ele>
        <time>2018-01-27T21:35:06Z</time>
      </trkpt>
      <trkpt lat="34.629369" lon="-117.25964">
        <ele>1050.199219</ele>
        <time>2018-01-27T21:35:07Z</time>
      </trkpt>
      <trkpt lat="34.629136" lon="-117.259547">
        <ele>1048.597656</ele>
        <time>2018-01-27T21:35:10Z</time>
      </trkpt>
      <trkpt lat="34.62906" lon="-117.259528">
        <ele>1048.296875</ele>
        <time>2018-01-27T21:35:11Z</time>
      </trkpt>
      <trkpt lat="34.628715" lon="-117.259464">
        <ele>1046.000000</ele>
        <time>2018-01-27T21:35:16Z</time>
      </trkpt>
      <trkpt lat="34.628651" lon="-117.259461">
        <ele>1045.398438</ele>
        <time>2018-01-27T21:35:17Z</time>
      </trkpt>
      <trkpt lat="34.628468" lon="-117.259461">
        <ele>1043.500000</ele>
        <time>2018-01-27T21:35:20Z</time>
      </trkpt>
      <trkpt lat="34.628091" lon="-117.259501">
        <ele>1041.296875</ele>
        <time>2018-01-27T21:35:25Z</time>
      </trkpt>
      <trkpt lat="34.62763" lon="-117.25955">
        <ele>1039.398438</ele>
        <time>2018-01-27T21:35:32Z</time>
      </trkpt>
      <trkpt lat="34.627593" lon="-117.259561">
        <ele>1039.199219</ele>
        <time>2018-01-27T21:35:34Z</time>
      </trkpt>
      <trkpt lat="34.62754" lon="-117.259607">
        <ele>1039.097656</ele>
        <time>2018-01-27T21:35:35Z</time>
      </trkpt>
      <trkpt lat="34.627523" lon="-117.259638">
        <ele>1039.597656</ele>
        <time>2018-01-27T21:35:38Z</time>
      </trkpt>
      <trkpt lat="34.62749" lon="-117.25973">
        <ele>1040.097656</ele>
        <time>2018-01-27T21:35:39Z</time>
      </trkpt>
      <trkpt lat="34.627483" lon="-117.259766">
        <ele>1040.500000</ele>
        <time>2018-01-27T21:35:41Z</time>
      </trkpt>
      <trkpt lat="34.627478" lon="-117.259849">
        <ele>1040.699219</ele>
        <time>2018-01-27T21:35:42Z</time>
      </trkpt>
      <trkpt lat="34.627484" lon="-117.259895">
        <ele>1040.199219</ele>
        <time>2018-01-27T21:35:44Z</time>
      </trkpt>
      <trkpt lat="34.627506" lon="-117.259983">
        <ele>1039.699219</ele>
        <time>2018-01-27T21:35:45Z</time>
      </trkpt>
      <trkpt lat="34.627516" lon="-117.260024">
        <ele>1039.097656</ele>
        <time>2018-01-27T21:35:47Z</time>
      </trkpt>
      <trkpt lat="34.627526" lon="-117.260094">
        <ele>1039.000000</ele>
        <time>2018-01-27T21:35:48Z</time>
      </trkpt>
      <trkpt lat="34.62755" lon="-117.260246">
        <ele>1039.898438</ele>
        <time>2018-01-27T21:35:51Z</time>
      </trkpt>
      <trkpt lat="34.627571" lon="-117.26031">
        <ele>1040.097656</ele>
        <time>2018-01-27T21:35:52Z</time>
      </trkpt>
      <trkpt lat="34.627595" lon="-117.260374">
        <ele>1040.097656</ele>
        <time>2018-01-27T21:35:53Z</time>
      </trkpt>
      <trkpt lat="34.627656" lon="-117.260508">
        <ele>1040.296875</ele>
        <time>2018-01-27T21:35:55Z</time>
      </trkpt>
      <trkpt lat="34.62773" lon="-117.260658">
        <ele>1040.796875</ele>
        <time>2018-01-27T21:35:57Z</time>
      </trkpt>
      <trkpt lat="34.627835" lon="-117.260831">
        <ele>1041.597656</ele>
        <time>2018-01-27T21:36:00Z</time>
      </trkpt>
      <trkpt lat="34.627975" lon="-117.261033">
        <ele>1042.898438</ele>
        <time>2018-01-27T21:36:10Z</time>
      </trkpt>
      <trkpt lat="34.627997" lon="-117.261081">
        <ele>1043.199219</ele>
        <time>2018-01-27T21:36:11Z</time>
      </trkpt>
      <trkpt lat="34.628015" lon="-117.261137">
        <ele>1043.296875</ele>
        <time>2018-01-27T21:36:12Z</time>
      </trkpt>
      <trkpt lat="34.62803" lon="-117.261197">
        <ele>1043.398438</ele>
        <time>2018-01-27T21:36:13Z</time>
      </trkpt>
      <trkpt lat="34.628071" lon="-117.261364">
        <ele>1043.699219</ele>
        <time>2018-01-27T21:36:16Z</time>
      </trkpt>
      <trkpt lat="34.628086" lon="-117.261402">
        <ele>1043.699219</ele>
        <time>2018-01-27T21:36:18Z</time>
      </trkpt>
      <trkpt lat="34.628113" lon="-117.261464">
        <ele>1043.796875</ele>
        <time>2018-01-27T21:36:19Z</time>
      </trkpt>
      <trkpt lat="34.62813" lon="-117.261499">
        <ele>1044.597656</ele>
        <time>2018-01-27T21:36:21Z</time>
      </trkpt>
      <trkpt lat="34.628174" lon="-117.261566">
        <ele>1045.000000</ele>
        <time>2018-01-27T21:36:22Z</time>
      </trkpt>
      <trkpt lat="34.628201" lon="-117.261591">
        <ele>1045.398438</ele>
        <time>2018-01-27T21:36:24Z</time>
      </trkpt>
      <trkpt lat="34.628262" lon="-117.261625">
        <ele>1045.500000</ele>
        <time>2018-01-27T21:36:25Z</time>
      </trkpt>
      <trkpt lat="34.628298" lon="-117.261632">
        <ele>1045.500000</ele>
        <time>2018-01-27T21:36:27Z</time>
      </trkpt>
      <trkpt lat="34.62838" lon="-117.261631">
        <ele>1045.597656</ele>
        <time>2018-01-27T21:36:28Z</time>
      </trkpt>
      <trkpt lat="34.628425" lon="-117.261631">
        <ele>1045.699219</ele>
        <time>2018-01-27T21:36:29Z</time>
      </trkpt>
      <trkpt lat="34.628471" lon="-117.261641">
        <ele>1045.898438</ele>
        <time>2018-01-27T21:36:30Z</time>
      </trkpt>
      <trkpt lat="34.628561" lon="-117.261668">
        <ele>1046.597656</ele>
        <time>2018-01-27T21:36:32Z</time>
      </trkpt>
      <trkpt lat="34.628597" lon="-117.261692">
        <ele>1047.097656</ele>
        <time>2018-01-27T21:36:34Z</time>
      </trkpt>
      <trkpt lat="34.62863" lon="-117.261761">
        <ele>1047.898438</ele>
        <time>2018-01-27T21:36:36Z</time>
      </trkpt>
      <trkpt lat="34.628603" lon="-117.261834">
        <ele>1047.699219</ele>
        <time>2018-01-27T21:36:37Z</time>
      </trkpt>
      <trkpt lat="34.628571" lon="-117.261871">
        <ele>1047.500000</ele>
        <time>2018-01-27T21:36:38Z</time>
      </trkpt>
      <trkpt lat="34.628523" lon="-117.261897">
        <ele>1047.296875</ele>
        <time>2018-01-27T21:36:39Z</time>
      </trkpt>
      <trkpt lat="34.628466" lon="-117.26191">
        <ele>1047.000000</ele>
        <time>2018-01-27T21:36:40Z</time>
      </trkpt>
      <trkpt lat="34.628348" lon="-117.261944">
        <ele>1046.296875</ele>
        <time>2018-01-27T21:36:42Z</time>
      </trkpt>
      <trkpt lat="34.628249" lon="-117.261988">
        <ele>1045.699219</ele>
        <time>2018-01-27T21:36:44Z</time>
      </trkpt>
      <trkpt lat="34.62821" lon="-117.26201">
        <ele>1045.000000</ele>
        <time>2018-01-27T21:36:46Z</time>
      </trkpt>
      <trkpt lat="34.628153" lon="-117.262051">
        <ele>1044.398438</ele>
        <time>2018-01-27T21:36:47Z</time>
      </trkpt>
      <trkpt lat="34.62813" lon="-117.262071">
        <ele>1042.597656</ele>
        <time>2018-01-27T21:36:49Z</time>
      </trkpt>
      <trkpt lat="34.628089" lon="-117.262131">
        <ele>1042.398438</ele>
        <time>2018-01-27T21:36:50Z</time>
      </trkpt>
      <trkpt lat="34.628073" lon="-117.262168">
        <ele>1042.500000</ele>
        <time>2018-01-27T21:36:52Z</time>
      </trkpt>
      <trkpt lat="34.628035" lon="-117.262281">
        <ele>1042.398438</ele>
        <time>2018-01-27T21:36:54Z</time>
      </trkpt>
      <trkpt lat="34.628021" lon="-117.262308">
        <ele>1042.398438</ele>
        <time>2018-01-27T21:36:57Z</time>
      </trkpt>
      <trkpt lat="34.627944" lon="-117.262378">
        <ele>1042.597656</ele>
        <time>2018-01-27T21:36:58Z</time>
      </trkpt>
      <trkpt lat="34.627829" lon="-117.262477">
        <ele>1042.500000</ele>
        <time>2018-01-27T21:37:02Z</time>
      </trkpt>
      <trkpt lat="34.627553" lon="-117.262693">
        <ele>1041.199219</ele>
        <time>2018-01-27T21:37:11Z</time>
      </trkpt>
      <trkpt lat="34.627009" lon="-117.263239">
        <ele>1038.796875</ele>
        <time>2018-01-27T21:37:27Z</time>
      </trkpt>
      <trkpt lat="34.626982" lon="-117.263279">
        <ele>1038.500000</ele>
        <time>2018-01-27T21:37:29Z</time>
      </trkpt>
      <trkpt lat="34.626945" lon="-117.263343">
        <ele>1038.597656</ele>
        <time>2018-01-27T21:37:30Z</time>
      </trkpt>
      <trkpt lat="34.626869" lon="-117.263499">
        <ele>1040.199219</ele>
        <time>2018-01-27T21:37:33Z</time>
      </trkpt>
      <trkpt lat="34.626817" lon="-117.26361">
        <ele>1042.097656</ele>
        <time>2018-01-27T21:37:35Z</time>
      </trkpt>
      <trkpt lat="34.626786" lon="-117.26366">
        <ele>1042.898438</ele>
        <time>2018-01-27T21:37:36Z</time>
      </trkpt>
      <trkpt lat="34.626659" lon="-117.263841">
        <ele>1045.000000</ele>
        <time>2018-01-27T21:37:40Z</time>
      </trkpt>
      <trkpt lat="34.626636" lon="-117.263895">
        <ele>1045.597656</ele>
        <time>2018-01-27T21:37:41Z</time>
      </trkpt>
      <trkpt lat="34.626619" lon="-117.263955">
        <ele>1046.097656</ele>
        <time>2018-01-27T21:37:42Z</time>
      </trkpt>
      <trkpt lat="34.626611" lon="-117.264015">
        <ele>1046.699219</ele>
        <time>2018-01-27T21:37:43Z</time>
      </trkpt>
      <trkpt lat="34.626604" lon="-117.264072">
        <ele>1046.898438</ele>
        <time>2018-01-27T21:37:45Z</time>
      </trkpt>
      <trkpt lat="34.626565" lon="-117.264155">
        <ele>1046.796875</ele>
        <time>2018-01-27T21:37:46Z</time>
      </trkpt>
      <trkpt lat="34.626533" lon="-117.264182">
        <ele>1046.199219</ele>
        <time>2018-01-27T21:37:48Z</time>
      </trkpt>
      <trkpt lat="34.626466" lon="-117.26422">
        <ele>1046.097656</ele>
        <time>2018-01-27T21:37:49Z</time>
      </trkpt>
      <trkpt lat="34.626433" lon="-117.264226">
        <ele>1045.500000</ele>
        <time>2018-01-27T21:37:51Z</time>
      </trkpt>
      <trkpt lat="34.626347" lon="-117.264237">
        <ele>1044.898438</ele>
        <time>2018-01-27T21:37:52Z</time>
      </trkpt>
      <trkpt lat="34.626295" lon="-117.264255">
        <ele>1044.296875</ele>
        <time>2018-01-27T21:37:53Z</time>
      </trkpt>
      <trkpt lat="34.626247" lon="-117.264287">
        <ele>1044.199219</ele>
        <time>2018-01-27T21:37:54Z</time>
      </trkpt>
      <trkpt lat="34.626203" lon="-117.264323">
        <ele>1044.097656</ele>
        <time>2018-01-27T21:37:55Z</time>
      </trkpt>
      <trkpt lat="34.626165" lon="-117.264359">
        <ele>1044.000000</ele>
        <time>2018-01-27T21:37:56Z</time>
      </trkpt>
      <trkpt lat="34.626131" lon="-117.264399">
        <ele>1044.000000</ele>
        <time>2018-01-27T21:37:57Z</time>
      </trkpt>
      <trkpt lat="34.626101" lon="-117.264447">
        <ele>1043.898438</ele>
        <time>2018-01-27T21:37:58Z</time>
      </trkpt>
      <trkpt lat="34.626075" lon="-117.264496">
        <ele>1044.097656</ele>
        <time>2018-01-27T21:37:59Z</time>
      </trkpt>
      <trkpt lat="34.626052" lon="-117.264545">
        <ele>1044.000000</ele>
        <time>2018-01-27T21:38:01Z</time>
      </trkpt>
      <trkpt lat="34.626018" lon="-117.264637">
        <ele>1044.097656</ele>
        <time>2018-01-27T21:38:02Z</time>
      </trkpt>
      <trkpt lat="34.626006" lon="-117.264684">
        <ele>1044.296875</ele>
        <time>2018-01-27T21:38:04Z</time>
      </trkpt>
      <trkpt lat="34.62599" lon="-117.264786">
        <ele>1044.296875</ele>
        <time>2018-01-27T21:38:05Z</time>
      </trkpt>
      <trkpt lat="34.625979" lon="-117.264899">
        <ele>1044.398438</ele>
        <time>2018-01-27T21:38:07Z</time>
      </trkpt>
      <trkpt lat="34.625963" lon="-117.264956">
        <ele>1044.296875</ele>
        <time>2018-01-27T21:38:08Z</time>
      </trkpt>
      <trkpt lat="34.625939" lon="-117.265009">
        <ele>1044.097656</ele>
        <time>2018-01-27T21:38:09Z</time>
      </trkpt>
      <trkpt lat="34.625908" lon="-117.265061">
        <ele>1044.199219</ele>
        <time>2018-01-27T21:38:10Z</time>
      </trkpt>
      <trkpt lat="34.625873" lon="-117.26511">
        <ele>1044.097656</ele>
        <time>2018-01-27T21:38:11Z</time>
      </trkpt>
      <trkpt lat="34.625804" lon="-117.265197">
        <ele>1043.898438</ele>
        <time>2018-01-27T21:38:13Z</time>
      </trkpt>
      <trkpt lat="34.625714" lon="-117.265311">
        <ele>1044.097656</ele>
        <time>2018-01-27T21:38:17Z</time>
      </trkpt>
      <trkpt lat="34.625705" lon="-117.265339">
        <ele>1044.199219</ele>
        <time>2018-01-27T21:38:20Z</time>
      </trkpt>
      <trkpt lat="34.625738" lon="-117.265429">
        <ele>1044.097656</ele>
        <time>2018-01-27T21:38:21Z</time>
      </trkpt>
      <trkpt lat="34.625772" lon="-117.26545">
        <ele>1044.500000</ele>
        <time>2018-01-27T21:38:23Z</time>
      </trkpt>
      <trkpt lat="34.62586" lon="-117.265485">
        <ele>1044.699219</ele>
        <time>2018-01-27T21:38:24Z</time>
      </trkpt>
      <trkpt lat="34.626139" lon="-117.265626">
        <ele>1046.199219</ele>
        <time>2018-01-27T21:38:30Z</time>
      </trkpt>
      <trkpt lat="34.627058" lon="-117.266144">
        <ele>1053.597656</ele>
        <time>2018-01-27T21:38:49Z</time>
      </trkpt>
      <trkpt lat="34.627208" lon="-117.266258">
        <ele>1055.097656</ele>
        <time>2018-01-27T21:38:52Z</time>
      </trkpt>
      <trkpt lat="34.627305" lon="-117.266344">
        <ele>1054.898438</ele>
        <time>2018-01-27T21:38:54Z</time>
      </trkpt>
      <trkpt lat="34.627444" lon="-117.266492">
        <ele>1055.199219</ele>
        <time>2018-01-27T21:38:57Z</time>
      </trkpt>
      <trkpt lat="34.62757" lon="-117.266655">
        <ele>1056.097656</ele>
        <time>2018-01-27T21:39:00Z</time>
      </trkpt>
      <trkpt lat="34.627684" lon="-117.266833">
        <ele>1056.898438</ele>
        <time>2018-01-27T21:39:03Z</time>
      </trkpt>
      <trkpt lat="34.627718" lon="-117.266898">
        <ele>1057.199219</ele>
        <time>2018-01-27T21:39:04Z</time>
      </trkpt>
      <trkpt lat="34.627749" lon="-117.266966">
        <ele>1057.500000</ele>
        <time>2018-01-27T21:39:05Z</time>
      </trkpt>
      <trkpt lat="34.627774" lon="-117.267038">
        <ele>1057.796875</ele>
        <time>2018-01-27T21:39:06Z</time>
      </trkpt>
      <trkpt lat="34.627791" lon="-117.267113">
        <ele>1058.199219</ele>
        <time>2018-01-27T21:39:07Z</time>
      </trkpt>
      <trkpt lat="34.627803" lon="-117.267192">
        <ele>1058.500000</ele>
        <time>2018-01-27T21:39:08Z</time>
      </trkpt>
      <trkpt lat="34.627828" lon="-117.267531">
        <ele>1060.097656</ele>
        <time>2018-01-27T21:39:12Z</time>
      </trkpt>
      <trkpt lat="34.627837" lon="-117.267902">
        <ele>1061.699219</ele>
        <time>2018-01-27T21:39:16Z</time>
      </trkpt>
      <trkpt lat="34.627829" lon="-117.268403">
        <ele>1064.398438</ele>
        <time>2018-01-27T21:39:21Z</time>
      </trkpt>
      <trkpt lat="34.627819" lon="-117.268502">
        <ele>1065.000000</ele>
        <time>2018-01-27T21:39:22Z</time>
      </trkpt>
      <trkpt lat="34.627789" lon="-117.268688">
        <ele>1066.199219</ele>
        <time>2018-01-27T21:39:24Z</time>
      </trkpt>
      <trkpt lat="34.627785" lon="-117.268776">
        <ele>1066.699219</ele>
        <time>2018-01-27T21:39:25Z</time>
      </trkpt>
      <trkpt lat="34.627789" lon="-117.268865">
        <ele>1067.097656</ele>
        <time>2018-01-27T21:39:26Z</time>
      </trkpt>
      <trkpt lat="34.627803" lon="-117.268954">
        <ele>1067.796875</ele>
        <time>2018-01-27T21:39:27Z</time>
      </trkpt>
      <trkpt lat="34.627828" lon="-117.269044">
        <ele>1068.097656</ele>
        <time>2018-01-27T21:39:28Z</time>
      </trkpt>
      <trkpt lat="34.627863" lon="-117.269132">
        <ele>1068.500000</ele>
        <time>2018-01-27T21:39:29Z</time>
      </trkpt>
      <trkpt lat="34.627906" lon="-117.26922">
        <ele>1069.199219</ele>
        <time>2018-01-27T21:39:30Z</time>
      </trkpt>
      <trkpt lat="34.628265" lon="-117.269983">
        <ele>1073.097656</ele>
        <time>2018-01-27T21:39:38Z</time>
      </trkpt>
      <trkpt lat="34.628817" lon="-117.271538">
        <ele>1082.296875</ele>
        <time>2018-01-27T21:39:53Z</time>
      </trkpt>
      <trkpt lat="34.628894" lon="-117.271696">
        <ele>1083.296875</ele>
        <time>2018-01-27T21:39:55Z</time>
      </trkpt>
      <trkpt lat="34.629075" lon="-117.272018">
        <ele>1084.097656</ele>
        <time>2018-01-27T21:40:05Z</time>
      </trkpt>
      <trkpt lat="34.629072" lon="-117.272013">
        <ele>1081.500000</ele>
        <time>2018-01-27T21:41:54Z</time>
      </trkpt>
      <trkpt lat="34.629143" lon="-117.272095">
        <ele>1081.699219</ele>
        <time>2018-01-27T21:41:55Z</time>
      </trkpt>
      <trkpt lat="34.629157" lon="-117.272122">
        <ele>1082.296875</ele>
        <time>2018-01-27T21:41:58Z</time>
      </trkpt>
      <trkpt lat="34.629242" lon="-117.272265">
        <ele>1083.097656</ele>
        <time>2018-01-27T21:42:01Z</time>
      </trkpt>
      <trkpt lat="34.629295" lon="-117.272365">
        <ele>1083.699219</ele>
        <time>2018-01-27T21:42:04Z</time>
      </trkpt>
      <trkpt lat="34.629928" lon="-117.2735">
        <ele>1092.898438</ele>
        <time>2018-01-27T21:42:28Z</time>
      </trkpt>
      <trkpt lat="34.62996" lon="-117.273543">
        <ele>1093.398438</ele>
        <time>2018-01-27T21:42:29Z</time>
      </trkpt>
      <trkpt lat="34.630032" lon="-117.273625">
        <ele>1094.000000</ele>
        <time>2018-01-27T21:42:31Z</time>
      </trkpt>
      <trkpt lat="34.630836" lon="-117.274551">
        <ele>1100.796875</ele>
        <time>2018-01-27T21:42:49Z</time>
      </trkpt>
      <trkpt lat="34.630872" lon="-117.274601">
        <ele>1101.000000</ele>
        <time>2018-01-27T21:42:50Z</time>
      </trkpt>
      <trkpt lat="34.630896" lon="-117.274652">
        <ele>1101.097656</ele>
        <time>2018-01-27T21:42:51Z</time>
      </trkpt>
      <trkpt lat="34.630912" lon="-117.274707">
        <ele>1100.898438</ele>
        <time>2018-01-27T21:42:52Z</time>
      </trkpt>
      <trkpt lat="34.630922" lon="-117.274763">
        <ele>1101.097656</ele>
        <time>2018-01-27T21:42:53Z</time>
      </trkpt>
      <trkpt lat="34.630927" lon="-117.27482">
        <ele>1101.000000</ele>
        <time>2018-01-27T21:42:54Z</time>
      </trkpt>
      <trkpt lat="34.630928" lon="-117.27488">
        <ele>1101.199219</ele>
        <time>2018-01-27T21:42:55Z</time>
      </trkpt>
      <trkpt lat="34.630922" lon="-117.275013">
        <ele>1101.097656</ele>
        <time>2018-01-27T21:42:57Z</time>
      </trkpt>
      <trkpt lat="34.630915" lon="-117.275081">
        <ele>1101.500000</ele>
        <time>2018-01-27T21:42:58Z</time>
      </trkpt>
      <trkpt lat="34.630902" lon="-117.275152">
        <ele>1101.796875</ele>
        <time>2018-01-27T21:42:59Z</time>
      </trkpt>
      <trkpt lat="34.630885" lon="-117.275222">
        <ele>1102.000000</ele>
        <time>2018-01-27T21:43:00Z</time>
      </trkpt>
      <trkpt lat="34.630823" lon="-117.275438">
        <ele>1101.699219</ele>
        <time>2018-01-27T21:43:03Z</time>
      </trkpt>
      <trkpt lat="34.630796" lon="-117.275513">
        <ele>1101.097656</ele>
        <time>2018-01-27T21:43:04Z</time>
      </trkpt>
      <trkpt lat="34.630763" lon="-117.275593">
        <ele>1100.500000</ele>
        <time>2018-01-27T21:43:05Z</time>
      </trkpt>
      <trkpt lat="34.630727" lon="-117.275672">
        <ele>1100.296875</ele>
        <time>2018-01-27T21:43:06Z</time>
      </trkpt>
      <trkpt lat="34.630646" lon="-117.275823">
        <ele>1100.398438</ele>
        <time>2018-01-27T21:43:08Z</time>
      </trkpt>
      <trkpt lat="34.630604" lon="-117.275891">
        <ele>1100.296875</ele>
        <time>2018-01-27T21:43:09Z</time>
      </trkpt>
      <trkpt lat="34.630515" lon="-117.276012">
        <ele>1099.500000</ele>
        <time>2018-01-27T21:43:11Z</time>
      </trkpt>
      <trkpt lat="34.630383" lon="-117.276192">
        <ele>1097.296875</ele>
        <time>2018-01-27T21:43:14Z</time>
      </trkpt>
      <trkpt lat="34.63026" lon="-117.276394">
        <ele>1095.796875</ele>
        <time>2018-01-27T21:43:17Z</time>
      </trkpt>
      <trkpt lat="34.630016" lon="-117.276832">
        <ele>1093.097656</ele>
        <time>2018-01-27T21:43:24Z</time>
      </trkpt>
      <trkpt lat="34.629965" lon="-117.276888">
        <ele>1092.500000</ele>
        <time>2018-01-27T21:43:25Z</time>
      </trkpt>
      <trkpt lat="34.629907" lon="-117.276943">
        <ele>1092.199219</ele>
        <time>2018-01-27T21:43:26Z</time>
      </trkpt>
      <trkpt lat="34.629846" lon="-117.276992">
        <ele>1091.796875</ele>
        <time>2018-01-27T21:43:27Z</time>
      </trkpt>
      <trkpt lat="34.629782" lon="-117.277036">
        <ele>1091.500000</ele>
        <time>2018-01-27T21:43:28Z</time>
      </trkpt>
      <trkpt lat="34.629717" lon="-117.277076">
        <ele>1091.597656</ele>
        <time>2018-01-27T21:43:29Z</time>
      </trkpt>
      <trkpt lat="34.629256" lon="-117.27737">
        <ele>1089.097656</ele>
        <time>2018-01-27T21:43:36Z</time>
      </trkpt>
      <trkpt lat="34.628756" lon="-117.277791">
        <ele>1086.898438</ele>
        <time>2018-01-27T21:43:43Z</time>
      </trkpt>
      <trkpt lat="34.628507" lon="-117.278038">
        <ele>1085.597656</ele>
        <time>2018-01-27T21:43:47Z</time>
      </trkpt>
      <trkpt lat="34.628186" lon="-117.278419">
        <ele>1083.597656</ele>
        <time>2018-01-27T21:43:52Z</time>
      </trkpt>
      <trkpt lat="34.627745" lon="-117.279001">
        <ele>1080.398438</ele>
        <time>2018-01-27T21:43:59Z</time>
      </trkpt>
      <trkpt lat="34.627649" lon="-117.279172">
        <ele>1079.500000</ele>
        <time>2018-01-27T21:44:01Z</time>
      </trkpt>
      <trkpt lat="34.627514" lon="-117.279438">
        <ele>1078.500000</ele>
        <time>2018-01-27T21:44:04Z</time>
      </trkpt>
      <trkpt lat="34.627461" lon="-117.279513">
        <ele>1077.699219</ele>
        <time>2018-01-27T21:44:05Z</time>
      </trkpt>
      <trkpt lat="34.627398" lon="-117.279582">
        <ele>1077.296875</ele>
        <time>2018-01-27T21:44:06Z</time>
      </trkpt>
      <trkpt lat="34.626961" lon="-117.28002">
        <ele>1075.199219</ele>
        <time>2018-01-27T21:44:12Z</time>
      </trkpt>
      <trkpt lat="34.626577" lon="-117.280369">
        <ele>1072.597656</ele>
        <time>2018-01-27T21:44:18Z</time>
      </trkpt>
      <trkpt lat="34.626524" lon="-117.280436">
        <ele>1072.699219</ele>
        <time>2018-01-27T21:44:19Z</time>
      </trkpt>
      <trkpt lat="34.626478" lon="-117.280505">
        <ele>1072.500000</ele>
        <time>2018-01-27T21:44:20Z</time>
      </trkpt>
      <trkpt lat="34.626388" lon="-117.280658">
        <ele>1071.597656</ele>
        <time>2018-01-27T21:44:22Z</time>
      </trkpt>
      <trkpt lat="34.626345" lon="-117.280747">
        <ele>1071.097656</ele>
        <time>2018-01-27T21:44:23Z</time>
      </trkpt>
      <trkpt lat="34.625619" lon="-117.282244">
        <ele>1064.500000</ele>
        <time>2018-01-27T21:44:38Z</time>
      </trkpt>
      <trkpt lat="34.625521" lon="-117.282401">
        <ele>1063.699219</ele>
        <time>2018-01-27T21:44:40Z</time>
      </trkpt>
      <trkpt lat="34.624645" lon="-117.283605">
        <ele>1057.699219</ele>
        <time>2018-01-27T21:44:55Z</time>
      </trkpt>
      <trkpt lat="34.624426" lon="-117.283864">
        <ele>1056.500000</ele>
        <time>2018-01-27T21:44:59Z</time>
      </trkpt>
      <trkpt lat="34.624396" lon="-117.283918">
        <ele>1056.097656</ele>
        <time>2018-01-27T21:45:00Z</time>
      </trkpt>
      <trkpt lat="34.624383" lon="-117.283973">
        <ele>1055.898438</ele>
        <time>2018-01-27T21:45:01Z</time>
      </trkpt>
      <trkpt lat="34.624381" lon="-117.284026">
        <ele>1055.097656</ele>
        <time>2018-01-27T21:45:03Z</time>
      </trkpt>
      <trkpt lat="34.624401" lon="-117.284124">
        <ele>1054.898438</ele>
        <time>2018-01-27T21:45:04Z</time>
      </trkpt>
      <trkpt lat="34.624418" lon="-117.284172">
        <ele>1054.296875</ele>
        <time>2018-01-27T21:45:06Z</time>
      </trkpt>
      <trkpt lat="34.624488" lon="-117.284358">
        <ele>1054.000000</ele>
        <time>2018-01-27T21:45:12Z</time>
      </trkpt>
      <trkpt lat="34.624488" lon="-117.284358">
        <ele>1054.796875</ele>
        <time>2018-01-27T21:45:34Z</time>
      </trkpt>
      <trkpt lat="34.62441" lon="-117.284301">
        <ele>1055.000000</ele>
        <time>2018-01-27T21:45:35Z</time>
      </trkpt>
      <trkpt lat="34.624398" lon="-117.284254">
        <ele>1055.398438</ele>
        <time>2018-01-27T21:45:37Z</time>
      </trkpt>
      <trkpt lat="34.62439" lon="-117.284154">
        <ele>1055.597656</ele>
        <time>2018-01-27T21:45:38Z</time>
      </trkpt>
      <trkpt lat="34.624374" lon="-117.284107">
        <ele>1056.000000</ele>
        <time>2018-01-27T21:45:40Z</time>
      </trkpt>
      <trkpt lat="34.62431" lon="-117.284063">
        <ele>1056.199219</ele>
        <time>2018-01-27T21:45:41Z</time>
      </trkpt>
      <trkpt lat="34.624271" lon="-117.284073">
        <ele>1056.199219</ele>
        <time>2018-01-27T21:45:43Z</time>
      </trkpt>
      <trkpt lat="34.624182" lon="-117.284155">
        <ele>1056.296875</ele>
        <time>2018-01-27T21:45:44Z</time>
      </trkpt>
      <trkpt lat="34.623332" lon="-117.284971">
        <ele>1053.199219</ele>
        <time>2018-01-27T21:46:00Z</time>
      </trkpt>
      <trkpt lat="34.621873" lon="-117.286018">
        <ele>1058.296875</ele>
        <time>2018-01-27T21:46:18Z</time>
      </trkpt>
      <trkpt lat="34.621802" lon="-117.28609">
        <ele>1058.398438</ele>
        <time>2018-01-27T21:46:19Z</time>
      </trkpt>
      <trkpt lat="34.62154" lon="-117.286396">
        <ele>1060.000000</ele>
        <time>2018-01-27T21:46:23Z</time>
      </trkpt>
      <trkpt lat="34.621301" lon="-117.28672">
        <ele>1060.699219</ele>
        <time>2018-01-27T21:46:27Z</time>
      </trkpt>
      <trkpt lat="34.621248" lon="-117.286811">
        <ele>1061.097656</ele>
        <time>2018-01-27T21:46:28Z</time>
      </trkpt>
      <trkpt lat="34.6212" lon="-117.286908">
        <ele>1061.500000</ele>
        <time>2018-01-27T21:46:29Z</time>
      </trkpt>
      <trkpt lat="34.621116" lon="-117.287112">
        <ele>1062.398438</ele>
        <time>2018-01-27T21:46:31Z</time>
      </trkpt>
      <trkpt lat="34.621048" lon="-117.287319">
        <ele>1063.500000</ele>
        <time>2018-01-27T21:46:33Z</time>
      </trkpt>
      <trkpt lat="34.620786" lon="-117.28815">
        <ele>1066.898438</ele>
        <time>2018-01-27T21:46:42Z</time>
      </trkpt>
      <trkpt lat="34.620763" lon="-117.288246">
        <ele>1066.898438</ele>
        <time>2018-01-27T21:46:43Z</time>
      </trkpt>
      <trkpt lat="34.620744" lon="-117.288345">
        <ele>1067.199219</ele>
        <time>2018-01-27T21:46:44Z</time>
      </trkpt>
      <trkpt lat="34.620731" lon="-117.288448">
        <ele>1067.500000</ele>
        <time>2018-01-27T21:46:45Z</time>
      </trkpt>
      <trkpt lat="34.620723" lon="-117.288552">
        <ele>1067.500000</ele>
        <time>2018-01-27T21:46:46Z</time>
      </trkpt>
      <trkpt lat="34.620702" lon="-117.289265">
        <ele>1065.796875</ele>
        <time>2018-01-27T21:46:54Z</time>
      </trkpt>
      <trkpt lat="34.620683" lon="-117.290046">
        <ele>1061.699219</ele>
        <time>2018-01-27T21:47:04Z</time>
      </trkpt>
      <trkpt lat="34.620673" lon="-117.290109">
        <ele>1061.199219</ele>
        <time>2018-01-27T21:47:05Z</time>
      </trkpt>
      <trkpt lat="34.620627" lon="-117.290363">
        <ele>1058.699219</ele>
        <time>2018-01-27T21:47:09Z</time>
      </trkpt>
      <trkpt lat="34.620575" lon="-117.290599">
        <ele>1057.597656</ele>
        <time>2018-01-27T21:47:13Z</time>
      </trkpt>
      <trkpt lat="34.62049" lon="-117.291487">
        <ele>1054.699219</ele>
        <time>2018-01-27T21:47:27Z</time>
      </trkpt>
      <trkpt lat="34.620488" lon="-117.291521">
        <ele>1054.597656</ele>
        <time>2018-01-27T21:47:31Z</time>
      </trkpt>
      <trkpt lat="34.620453" lon="-117.291601">
        <ele>1055.796875</ele>
        <time>2018-01-27T21:48:05Z</time>
      </trkpt>
      <trkpt lat="34.620483" lon="-117.291386">
        <ele>1055.699219</ele>
        <time>2018-01-27T21:48:06Z</time>
      </trkpt>
      <trkpt lat="34.620574" lon="-117.290496">
        <ele>1057.597656</ele>
        <time>2018-01-27T21:48:14Z</time>
      </trkpt>
      <trkpt lat="34.620594" lon="-117.290401">
        <ele>1058.500000</ele>
        <time>2018-01-27T21:48:15Z</time>
      </trkpt>
      <trkpt lat="34.620645" lon="-117.290153">
        <ele>1060.796875</ele>
        <time>2018-01-27T21:48:18Z</time>
      </trkpt>
      <trkpt lat="34.620668" lon="-117.289965">
        <ele>1062.000000</ele>
        <time>2018-01-27T21:48:20Z</time>
      </trkpt>
      <trkpt lat="34.620695" lon="-117.289467">
        <ele>1064.296875</ele>
        <time>2018-01-27T21:48:26Z</time>
      </trkpt>
      <trkpt lat="34.620711" lon="-117.289017">
        <ele>1065.199219</ele>
        <time>2018-01-27T21:48:32Z</time>
      </trkpt>
      <trkpt lat="34.620707" lon="-117.288579">
        <ele>1065.296875</ele>
        <time>2018-01-27T21:48:40Z</time>
      </trkpt>
      <trkpt lat="34.620714" lon="-117.288511">
        <ele>1065.097656</ele>
        <time>2018-01-27T21:48:41Z</time>
      </trkpt>
      <trkpt lat="34.620725" lon="-117.288435">
        <ele>1064.898438</ele>
        <time>2018-01-27T21:48:42Z</time>
      </trkpt>
      <trkpt lat="34.620727" lon="-117.288356">
        <ele>1065.398438</ele>
        <time>2018-01-27T21:48:43Z</time>
      </trkpt>
      <trkpt lat="34.620747" lon="-117.288268">
        <ele>1064.898438</ele>
        <time>2018-01-27T21:48:44Z</time>
      </trkpt>
      <trkpt lat="34.620792" lon="-117.288088">
        <ele>1064.597656</ele>
        <time>2018-01-27T21:48:46Z</time>
      </trkpt>
      <trkpt lat="34.62082" lon="-117.287991">
        <ele>1064.699219</ele>
        <time>2018-01-27T21:48:47Z</time>
      </trkpt>
      <trkpt lat="34.620856" lon="-117.287896">
        <ele>1064.500000</ele>
        <time>2018-01-27T21:48:48Z</time>
      </trkpt>
      <trkpt lat="34.621206" lon="-117.286879">
        <ele>1060.296875</ele>
        <time>2018-01-27T21:48:59Z</time>
      </trkpt>
      <trkpt lat="34.621252" lon="-117.286788">
        <ele>1060.097656</ele>
        <time>2018-01-27T21:49:00Z</time>
      </trkpt>
      <trkpt lat="34.621301" lon="-117.286703">
        <ele>1059.898438</ele>
        <time>2018-01-27T21:49:01Z</time>
      </trkpt>
      <trkpt lat="34.621356" lon="-117.286626">
        <ele>1059.796875</ele>
        <time>2018-01-27T21:49:02Z</time>
      </trkpt>
      <trkpt lat="34.621648" lon="-117.286245">
        <ele>1058.199219</ele>
        <time>2018-01-27T21:49:07Z</time>
      </trkpt>
      <trkpt lat="34.621781" lon="-117.286095">
        <ele>1058.097656</ele>
        <time>2018-01-27T21:49:09Z</time>
      </trkpt>
      <trkpt lat="34.621972" lon="-117.285908">
        <ele>1057.398438</ele>
        <time>2018-01-27T21:49:12Z</time>
      </trkpt>
      <trkpt lat="34.622044" lon="-117.285852">
        <ele>1057.000000</ele>
        <time>2018-01-27T21:49:13Z</time>
      </trkpt>
      <trkpt lat="34.62355" lon="-117.284765">
        <ele>1054.000000</ele>
        <time>2018-01-27T21:49:31Z</time>
      </trkpt>
      <trkpt lat="34.624228" lon="-117.284086">
        <ele>1055.199219</ele>
        <time>2018-01-27T21:49:43Z</time>
      </trkpt>
      <trkpt lat="34.62426" lon="-117.28406">
        <ele>1055.199219</ele>
        <time>2018-01-27T21:49:45Z</time>
      </trkpt>
      <trkpt lat="34.624321" lon="-117.284045">
        <ele>1055.296875</ele>
        <time>2018-01-27T21:49:46Z</time>
      </trkpt>
      <trkpt lat="34.624351" lon="-117.284057">
        <ele>1054.796875</ele>
        <time>2018-01-27T21:49:48Z</time>
      </trkpt>
      <trkpt lat="34.624406" lon="-117.284135">
        <ele>1054.398438</ele>
        <time>2018-01-27T21:49:49Z</time>
      </trkpt>
      <trkpt lat="34.624432" lon="-117.284194">
        <ele>1054.000000</ele>
        <time>2018-01-27T21:49:50Z</time>
      </trkpt>
      <trkpt lat="34.624607" lon="-117.284624">
        <ele>1052.199219</ele>
        <time>2018-01-27T21:49:57Z</time>
      </trkpt>
      <trkpt lat="34.624628" lon="-117.284694">
        <ele>1051.898438</ele>
        <time>2018-01-27T21:49:58Z</time>
      </trkpt>
      <trkpt lat="34.624744" lon="-117.285069">
        <ele>1050.500000</ele>
        <time>2018-01-27T21:50:03Z</time>
      </trkpt>
      <trkpt lat="34.624931" lon="-117.285529">
        <ele>1049.097656</ele>
        <time>2018-01-27T21:50:09Z</time>
      </trkpt>
      <trkpt lat="34.625009" lon="-117.285672">
        <ele>1048.699219</ele>
        <time>2018-01-27T21:50:11Z</time>
      </trkpt>
      <trkpt lat="34.62505" lon="-117.285737">
        <ele>1048.500000</ele>
        <time>2018-01-27T21:50:12Z</time>
      </trkpt>
      <trkpt lat="34.625096" lon="-117.285799">
        <ele>1048.199219</ele>
        <time>2018-01-27T21:50:13Z</time>
      </trkpt>
      <trkpt lat="34.625148" lon="-117.285854">
        <ele>1048.097656</ele>
        <time>2018-01-27T21:50:14Z</time>
      </trkpt>
      <trkpt lat="34.625207" lon="-117.285902">
        <ele>1048.000000</ele>
        <time>2018-01-27T21:50:15Z</time>
      </trkpt>
      <trkpt lat="34.625329" lon="-117.28599">
        <ele>1047.796875</ele>
        <time>2018-01-27T21:50:17Z</time>
      </trkpt>
      <trkpt lat="34.625384" lon="-117.286039">
        <ele>1047.597656</ele>
        <time>2018-01-27T21:50:18Z</time>
      </trkpt>
      <trkpt lat="34.625438" lon="-117.286097">
        <ele>1047.398438</ele>
        <time>2018-01-27T21:50:19Z</time>
      </trkpt>
      <trkpt lat="34.62549" lon="-117.286164">
        <ele>1047.199219</ele>
        <time>2018-01-27T21:50:20Z</time>
      </trkpt>
      <trkpt lat="34.62565" lon="-117.286399">
        <ele>1046.296875</ele>
        <time>2018-01-27T21:50:23Z</time>
      </trkpt>
      <trkpt lat="34.626275" lon="-117.287275">
        <ele>1043.296875</ele>
        <time>2018-01-27T21:50:35Z</time>
      </trkpt>
      <trkpt lat="34.626312" lon="-117.287347">
        <ele>1042.898438</ele>
        <time>2018-01-27T21:50:36Z</time>
      </trkpt>
      <trkpt lat="34.626424" lon="-117.28758">
        <ele>1042.296875</ele>
        <time>2018-01-27T21:50:39Z</time>
      </trkpt>
      <trkpt lat="34.626456" lon="-117.287661">
        <ele>1041.796875</ele>
        <time>2018-01-27T21:50:40Z</time>
      </trkpt>
      <trkpt lat="34.626479" lon="-117.287741">
        <ele>1041.398438</ele>
        <time>2018-01-27T21:50:41Z</time>
      </trkpt>
      <trkpt lat="34.626497" lon="-117.287821">
        <ele>1041.097656</ele>
        <time>2018-01-27T21:50:42Z</time>
      </trkpt>
      <trkpt lat="34.626509" lon="-117.287905">
        <ele>1040.898438</ele>
        <time>2018-01-27T21:50:43Z</time>
      </trkpt>
      <trkpt lat="34.626515" lon="-117.287995">
        <ele>1040.699219</ele>
        <time>2018-01-27T21:50:44Z</time>
      </trkpt>
      <trkpt lat="34.62653" lon="-117.288177">
        <ele>1040.500000</ele>
        <time>2018-01-27T21:50:46Z</time>
      </trkpt>
      <trkpt lat="34.626546" lon="-117.288264">
        <ele>1040.597656</ele>
        <time>2018-01-27T21:50:47Z</time>
      </trkpt>
      <trkpt lat="34.626568" lon="-117.288341">
        <ele>1040.699219</ele>
        <time>2018-01-27T21:50:48Z</time>
      </trkpt>
      <trkpt lat="34.626599" lon="-117.288415">
        <ele>1040.699219</ele>
        <time>2018-01-27T21:50:49Z</time>
      </trkpt>
      <trkpt lat="34.626634" lon="-117.288486">
        <ele>1040.898438</ele>
        <time>2018-01-27T21:50:50Z</time>
      </trkpt>
      <trkpt lat="34.626666" lon="-117.288546">
        <ele>1040.199219</ele>
        <time>2018-01-27T21:50:51Z</time>
      </trkpt>
      <trkpt lat="34.626703" lon="-117.288603">
        <ele>1040.000000</ele>
        <time>2018-01-27T21:50:52Z</time>
      </trkpt>
      <trkpt lat="34.626752" lon="-117.288637">
        <ele>1039.796875</ele>
        <time>2018-01-27T21:50:53Z</time>
      </trkpt>
      <trkpt lat="34.626799" lon="-117.288675">
        <ele>1039.699219</ele>
        <time>2018-01-27T21:50:54Z</time>
      </trkpt>
      <trkpt lat="34.626861" lon="-117.288683">
        <ele>1039.898438</ele>
        <time>2018-01-27T21:50:55Z</time>
      </trkpt>
      <trkpt lat="34.627072" lon="-117.28872">
        <ele>1039.398438</ele>
        <time>2018-01-27T21:50:58Z</time>
      </trkpt>
      <trkpt lat="34.62714" lon="-117.288743">
        <ele>1039.000000</ele>
        <time>2018-01-27T21:50:59Z</time>
      </trkpt>
      <trkpt lat="34.627208" lon="-117.288786">
        <ele>1039.699219</ele>
        <time>2018-01-27T21:51:00Z</time>
      </trkpt>
      <trkpt lat="34.627269" lon="-117.288846">
        <ele>1040.000000</ele>
        <time>2018-01-27T21:51:01Z</time>
      </trkpt>
      <trkpt lat="34.627309" lon="-117.288913">
        <ele>1039.398438</ele>
        <time>2018-01-27T21:51:02Z</time>
      </trkpt>
      <trkpt lat="34.627339" lon="-117.288986">
        <ele>1038.898438</ele>
        <time>2018-01-27T21:51:03Z</time>
      </trkpt>
      <trkpt lat="34.627364" lon="-117.289069">
        <ele>1038.296875</ele>
        <time>2018-01-27T21:51:04Z</time>
      </trkpt>
      <trkpt lat="34.627381" lon="-117.289159">
        <ele>1037.000000</ele>
        <time>2018-01-27T21:51:05Z</time>
      </trkpt>
      <trkpt lat="34.627392" lon="-117.289254">
        <ele>1036.500000</ele>
        <time>2018-01-27T21:51:06Z</time>
      </trkpt>
      <trkpt lat="34.62739" lon="-117.289348">
        <ele>1036.097656</ele>
        <time>2018-01-27T21:51:07Z</time>
      </trkpt>
      <trkpt lat="34.627376" lon="-117.289443">
        <ele>1035.699219</ele>
        <time>2018-01-27T21:51:08Z</time>
      </trkpt>
      <trkpt lat="34.627366" lon="-117.289537">
        <ele>1035.097656</ele>
        <time>2018-01-27T21:51:09Z</time>
      </trkpt>
      <trkpt lat="34.62736" lon="-117.289627">
        <ele>1034.699219</ele>
        <time>2018-01-27T21:51:10Z</time>
      </trkpt>
      <trkpt lat="34.627358" lon="-117.289797">
        <ele>1034.000000</ele>
        <time>2018-01-27T21:51:12Z</time>
      </trkpt>
      <trkpt lat="34.627343" lon="-117.289872">
        <ele>1033.796875</ele>
        <time>2018-01-27T21:51:13Z</time>
      </trkpt>
      <trkpt lat="34.627319" lon="-117.289941">
        <ele>1033.796875</ele>
        <time>2018-01-27T21:51:14Z</time>
      </trkpt>
      <trkpt lat="34.627266" lon="-117.290066">
        <ele>1033.796875</ele>
        <time>2018-01-27T21:51:16Z</time>
      </trkpt>
      <trkpt lat="34.627249" lon="-117.290124">
        <ele>1033.597656</ele>
        <time>2018-01-27T21:51:17Z</time>
      </trkpt>
      <trkpt lat="34.627245" lon="-117.290182">
        <ele>1033.398438</ele>
        <time>2018-01-27T21:51:18Z</time>
      </trkpt>
      <trkpt lat="34.627256" lon="-117.29024">
        <ele>1033.296875</ele>
        <time>2018-01-27T21:51:19Z</time>
      </trkpt>
      <trkpt lat="34.627279" lon="-117.2903">
        <ele>1032.796875</ele>
        <time>2018-01-27T21:51:20Z</time>
      </trkpt>
      <trkpt lat="34.62731" lon="-117.290362">
        <ele>1032.500000</ele>
        <time>2018-01-27T21:51:21Z</time>
      </trkpt>
      <trkpt lat="34.627349" lon="-117.290422">
        <ele>1032.199219</ele>
        <time>2018-01-27T21:51:22Z</time>
      </trkpt>
      <trkpt lat="34.627394" lon="-117.290478">
        <ele>1031.699219</ele>
        <time>2018-01-27T21:51:23Z</time>
      </trkpt>
      <trkpt lat="34.62744" lon="-117.290531">
        <ele>1031.398438</ele>
        <time>2018-01-27T21:51:24Z</time>
      </trkpt>
      <trkpt lat="34.627471" lon="-117.290588">
        <ele>1030.796875</ele>
        <time>2018-01-27T21:51:25Z</time>
      </trkpt>
      <trkpt lat="34.627489" lon="-117.290654">
        <ele>1030.000000</ele>
        <time>2018-01-27T21:51:26Z</time>
      </trkpt>
      <trkpt lat="34.627495" lon="-117.290732">
        <ele>1029.796875</ele>
        <time>2018-01-27T21:51:27Z</time>
      </trkpt>
      <trkpt lat="34.627486" lon="-117.290817">
        <ele>1029.500000</ele>
        <time>2018-01-27T21:51:28Z</time>
      </trkpt>
      <trkpt lat="34.627465" lon="-117.290906">
        <ele>1029.296875</ele>
        <time>2018-01-27T21:51:29Z</time>
      </trkpt>
      <trkpt lat="34.627438" lon="-117.290996">
        <ele>1029.199219</ele>
        <time>2018-01-27T21:51:30Z</time>
      </trkpt>
      <trkpt lat="34.627368" lon="-117.291228">
        <ele>1028.699219</ele>
        <time>2018-01-27T21:51:33Z</time>
      </trkpt>
      <trkpt lat="34.627362" lon="-117.291282">
        <ele>1028.000000</ele>
        <time>2018-01-27T21:51:35Z</time>
      </trkpt>
      <trkpt lat="34.627378" lon="-117.29137">
        <ele>1027.597656</ele>
        <time>2018-01-27T21:51:36Z</time>
      </trkpt>
      <trkpt lat="34.627398" lon="-117.291406">
        <ele>1026.898438</ele>
        <time>2018-01-27T21:51:38Z</time>
      </trkpt>
      <trkpt lat="34.627468" lon="-117.291481">
        <ele>1026.796875</ele>
        <time>2018-01-27T21:51:39Z</time>
      </trkpt>
      <trkpt lat="34.62755" lon="-117.291583">
        <ele>1026.296875</ele>
        <time>2018-01-27T21:51:41Z</time>
      </trkpt>
      <trkpt lat="34.627587" lon="-117.291645">
        <ele>1026.000000</ele>
        <time>2018-01-27T21:51:42Z</time>
      </trkpt>
      <trkpt lat="34.62762" lon="-117.291713">
        <ele>1025.597656</ele>
        <time>2018-01-27T21:51:43Z</time>
      </trkpt>
      <trkpt lat="34.627642" lon="-117.291784">
        <ele>1025.398438</ele>
        <time>2018-01-27T21:51:44Z</time>
      </trkpt>
      <trkpt lat="34.627657" lon="-117.291854">
        <ele>1025.097656</ele>
        <time>2018-01-27T21:51:45Z</time>
      </trkpt>
      <trkpt lat="34.627662" lon="-117.29192">
        <ele>1024.898438</ele>
        <time>2018-01-27T21:51:46Z</time>
      </trkpt>
      <trkpt lat="34.627659" lon="-117.291986">
        <ele>1024.898438</ele>
        <time>2018-01-27T21:51:47Z</time>
      </trkpt>
      <trkpt lat="34.627649" lon="-117.292284">
        <ele>1023.898438</ele>
        <time>2018-01-27T21:51:51Z</time>
      </trkpt>
      <trkpt lat="34.627655" lon="-117.292361">
        <ele>1023.500000</ele>
        <time>2018-01-27T21:51:52Z</time>
      </trkpt>
      <trkpt lat="34.627714" lon="-117.293041">
        <ele>1021.000000</ele>
        <time>2018-01-27T21:51:59Z</time>
      </trkpt>
      <trkpt lat="34.627699" lon="-117.293498">
        <ele>1019.699219</ele>
        <time>2018-01-27T21:52:03Z</time>
      </trkpt>
      <trkpt lat="34.627689" lon="-117.293825">
        <ele>1019.000000</ele>
        <time>2018-01-27T21:52:06Z</time>
      </trkpt>
      <trkpt lat="34.627703" lon="-117.294039">
        <ele>1018.597656</ele>
        <time>2018-01-27T21:52:08Z</time>
      </trkpt>
      <trkpt lat="34.62773" lon="-117.294245">
        <ele>1018.398438</ele>
        <time>2018-01-27T21:52:10Z</time>
      </trkpt>
      <trkpt lat="34.62775" lon="-117.294347">
        <ele>1018.199219</ele>
        <time>2018-01-27T21:52:11Z</time>
      </trkpt>
      <trkpt lat="34.627774" lon="-117.294445">
        <ele>1018.000000</ele>
        <time>2018-01-27T21:52:12Z</time>
      </trkpt>
      <trkpt lat="34.627801" lon="-117.294537">
        <ele>1017.796875</ele>
        <time>2018-01-27T21:52:13Z</time>
      </trkpt>
      <trkpt lat="34.62783" lon="-117.294623">
        <ele>1017.597656</ele>
        <time>2018-01-27T21:52:14Z</time>
      </trkpt>
      <trkpt lat="34.627863" lon="-117.294703">
        <ele>1017.398438</ele>
        <time>2018-01-27T21:52:15Z</time>
      </trkpt>
      <trkpt lat="34.628078" lon="-117.295201">
        <ele>1015.296875</ele>
        <time>2018-01-27T21:52:22Z</time>
      </trkpt>
      <trkpt lat="34.628103" lon="-117.295289">
        <ele>1015.000000</ele>
        <time>2018-01-27T21:52:23Z</time>
      </trkpt>
      <trkpt lat="34.62812" lon="-117.295384">
        <ele>1014.796875</ele>
        <time>2018-01-27T21:52:24Z</time>
      </trkpt>
      <trkpt lat="34.628133" lon="-117.295483">
        <ele>1014.699219</ele>
        <time>2018-01-27T21:52:25Z</time>
      </trkpt>
      <trkpt lat="34.628181" lon="-117.295952">
        <ele>1013.296875</ele>
        <time>2018-01-27T21:52:30Z</time>
      </trkpt>
      <trkpt lat="34.628198" lon="-117.296027">
        <ele>1013.000000</ele>
        <time>2018-01-27T21:52:31Z</time>
      </trkpt>
      <trkpt lat="34.62822" lon="-117.296095">
        <ele>1012.699219</ele>
        <time>2018-01-27T21:52:32Z</time>
      </trkpt>
      <trkpt lat="34.628248" lon="-117.296153">
        <ele>1012.500000</ele>
        <time>2018-01-27T21:52:33Z</time>
      </trkpt>
      <trkpt lat="34.628282" lon="-117.296205">
        <ele>1012.097656</ele>
        <time>2018-01-27T21:52:34Z</time>
      </trkpt>
      <trkpt lat="34.628493" lon="-117.29652">
        <ele>1011.296875</ele>
        <time>2018-01-27T21:52:39Z</time>
      </trkpt>
      <trkpt lat="34.628531" lon="-117.296594">
        <ele>1011.199219</ele>
        <time>2018-01-27T21:52:40Z</time>
      </trkpt>
      <trkpt lat="34.628561" lon="-117.296671">
        <ele>1011.000000</ele>
        <time>2018-01-27T21:52:41Z</time>
      </trkpt>
      <trkpt lat="34.628578" lon="-117.29675">
        <ele>1010.597656</ele>
        <time>2018-01-27T21:52:42Z</time>
      </trkpt>
      <trkpt lat="34.628587" lon="-117.296828">
        <ele>1010.097656</ele>
        <time>2018-01-27T21:52:43Z</time>
      </trkpt>
      <trkpt lat="34.628584" lon="-117.296901">
        <ele>1009.898438</ele>
        <time>2018-01-27T21:52:44Z</time>
      </trkpt>
      <trkpt lat="34.628568" lon="-117.296968">
        <ele>1009.597656</ele>
        <time>2018-01-27T21:52:45Z</time>
      </trkpt>
      <trkpt lat="34.62854" lon="-117.297029">
        <ele>1009.296875</ele>
        <time>2018-01-27T21:52:46Z</time>
      </trkpt>
      <trkpt lat="34.628503" lon="-117.297087">
        <ele>1009.199219</ele>
        <time>2018-01-27T21:52:47Z</time>
      </trkpt>
      <trkpt lat="34.628465" lon="-117.297144">
        <ele>1009.097656</ele>
        <time>2018-01-27T21:52:48Z</time>
      </trkpt>
      <trkpt lat="34.628436" lon="-117.2972">
        <ele>1008.898438</ele>
        <time>2018-01-27T21:52:49Z</time>
      </trkpt>
      <trkpt lat="34.628418" lon="-117.297256">
        <ele>1008.699219</ele>
        <time>2018-01-27T21:52:50Z</time>
      </trkpt>
      <trkpt lat="34.628411" lon="-117.29731">
        <ele>1008.597656</ele>
        <time>2018-01-27T21:52:52Z</time>
      </trkpt>
      <trkpt lat="34.628434" lon="-117.297397">
        <ele>1008.597656</ele>
        <time>2018-01-27T21:52:53Z</time>
      </trkpt>
      <trkpt lat="34.628455" lon="-117.297424">
        <ele>1007.597656</ele>
        <time>2018-01-27T21:52:56Z</time>
      </trkpt>
      <trkpt lat="34.628552" lon="-117.297515">
        <ele>1007.199219</ele>
        <time>2018-01-27T21:52:58Z</time>
      </trkpt>
      <trkpt lat="34.62858" lon="-117.29756">
        <ele>1007.097656</ele>
        <time>2018-01-27T21:52:59Z</time>
      </trkpt>
      <trkpt lat="34.6286" lon="-117.297616">
        <ele>1006.898438</ele>
        <time>2018-01-27T21:53:00Z</time>
      </trkpt>
      <trkpt lat="34.628621" lon="-117.297681">
        <ele>1006.597656</ele>
        <time>2018-01-27T21:53:01Z</time>
      </trkpt>
      <trkpt lat="34.628639" lon="-117.297753">
        <ele>1006.500000</ele>
        <time>2018-01-27T21:53:02Z</time>
      </trkpt>
      <trkpt lat="34.628653" lon="-117.297832">
        <ele>1006.500000</ele>
        <time>2018-01-27T21:53:03Z</time>
      </trkpt>
      <trkpt lat="34.628661" lon="-117.297915">
        <ele>1006.398438</ele>
        <time>2018-01-27T21:53:04Z</time>
      </trkpt>
      <trkpt lat="34.628665" lon="-117.298003">
        <ele>1006.000000</ele>
        <time>2018-01-27T21:53:05Z</time>
      </trkpt>
      <trkpt lat="34.628663" lon="-117.298091">
        <ele>1005.597656</ele>
        <time>2018-01-27T21:53:06Z</time>
      </trkpt>
      <trkpt lat="34.628652" lon="-117.298179">
        <ele>1005.398438</ele>
        <time>2018-01-27T21:53:07Z</time>
      </trkpt>
      <trkpt lat="34.62863" lon="-117.298265">
        <ele>1005.199219</ele>
        <time>2018-01-27T21:53:08Z</time>
      </trkpt>
      <trkpt lat="34.628599" lon="-117.298346">
        <ele>1005.000000</ele>
        <time>2018-01-27T21:53:09Z</time>
      </trkpt>
      <trkpt lat="34.628558" lon="-117.298422">
        <ele>1004.597656</ele>
        <time>2018-01-27T21:53:10Z</time>
      </trkpt>
      <trkpt lat="34.628228" lon="-117.298975">
        <ele>1002.500000</ele>
        <time>2018-01-27T21:53:18Z</time>
      </trkpt>
      <trkpt lat="34.628097" lon="-117.299176">
        <ele>1002.097656</ele>
        <time>2018-01-27T21:53:21Z</time>
      </trkpt>
      <trkpt lat="34.628068" lon="-117.299245">
        <ele>1001.898438</ele>
        <time>2018-01-27T21:53:22Z</time>
      </trkpt>
      <trkpt lat="34.628052" lon="-117.299315">
        <ele>1001.500000</ele>
        <time>2018-01-27T21:53:23Z</time>
      </trkpt>
      <trkpt lat="34.628044" lon="-117.299384">
        <ele>1001.500000</ele>
        <time>2018-01-27T21:53:24Z</time>
      </trkpt>
      <trkpt lat="34.627999" lon="-117.300004">
        <ele>999.296875</ele>
        <time>2018-01-27T21:53:34Z</time>
      </trkpt>
      <trkpt lat="34.627989" lon="-117.300068">
        <ele>999.199219</ele>
        <time>2018-01-27T21:53:35Z</time>
      </trkpt>
      <trkpt lat="34.62797" lon="-117.300127">
        <ele>999.097656</ele>
        <time>2018-01-27T21:53:36Z</time>
      </trkpt>
      <trkpt lat="34.627946" lon="-117.300181">
        <ele>998.898438</ele>
        <time>2018-01-27T21:53:37Z</time>
      </trkpt>
      <trkpt lat="34.627613" lon="-117.30089">
        <ele>996.000000</ele>
        <time>2018-01-27T21:53:52Z</time>
      </trkpt>
      <trkpt lat="34.627502" lon="-117.301071">
        <ele>994.898438</ele>
        <time>2018-01-27T21:53:55Z</time>
      </trkpt>
      <trkpt lat="34.627461" lon="-117.301133">
        <ele>994.500000</ele>
        <time>2018-01-27T21:53:56Z</time>
      </trkpt>
      <trkpt lat="34.627417" lon="-117.301188">
        <ele>993.796875</ele>
        <time>2018-01-27T21:53:57Z</time>
      </trkpt>
      <trkpt lat="34.627368" lon="-117.301235">
        <ele>993.500000</ele>
        <time>2018-01-27T21:53:58Z</time>
      </trkpt>
      <trkpt lat="34.627314" lon="-117.301269">
        <ele>993.398438</ele>
        <time>2018-01-27T21:53:59Z</time>
      </trkpt>
      <trkpt lat="34.627257" lon="-117.301291">
        <ele>993.199219</ele>
        <time>2018-01-27T21:54:00Z</time>
      </trkpt>
      <trkpt lat="34.627203" lon="-117.301308">
        <ele>992.898438</ele>
        <time>2018-01-27T21:54:01Z</time>
      </trkpt>
      <trkpt lat="34.627156" lon="-117.301332">
        <ele>992.597656</ele>
        <time>2018-01-27T21:54:02Z</time>
      </trkpt>
      <trkpt lat="34.627118" lon="-117.301367">
        <ele>992.097656</ele>
        <time>2018-01-27T21:54:03Z</time>
      </trkpt>
      <trkpt lat="34.627087" lon="-117.301406">
        <ele>991.500000</ele>
        <time>2018-01-27T21:54:05Z</time>
      </trkpt>
      <trkpt lat="34.627028" lon="-117.301476">
        <ele>990.898438</ele>
        <time>2018-01-27T21:54:06Z</time>
      </trkpt>
      <trkpt lat="34.626991" lon="-117.301508">
        <ele>990.500000</ele>
        <time>2018-01-27T21:54:07Z</time>
      </trkpt>
      <trkpt lat="34.626948" lon="-117.30154">
        <ele>990.097656</ele>
        <time>2018-01-27T21:54:08Z</time>
      </trkpt>
      <trkpt lat="34.626677" lon="-117.301723">
        <ele>988.199219</ele>
        <time>2018-01-27T21:54:14Z</time>
      </trkpt>
      <trkpt lat="34.626643" lon="-117.301752">
        <ele>987.796875</ele>
        <time>2018-01-27T21:54:16Z</time>
      </trkpt>
      <trkpt lat="34.62658" lon="-117.30183">
        <ele>987.500000</ele>
        <time>2018-01-27T21:54:17Z</time>
      </trkpt>
      <trkpt lat="34.626549" lon="-117.301879">
        <ele>987.199219</ele>
        <time>2018-01-27T21:54:18Z</time>
      </trkpt>
      <trkpt lat="34.626485" lon="-117.301992">
        <ele>986.898438</ele>
        <time>2018-01-27T21:54:20Z</time>
      </trkpt>
      <trkpt lat="34.626397" lon="-117.30218">
        <ele>986.597656</ele>
        <time>2018-01-27T21:54:23Z</time>
      </trkpt>
      <trkpt lat="34.626372" lon="-117.302248">
        <ele>986.699219</ele>
        <time>2018-01-27T21:54:24Z</time>
      </trkpt>
      <trkpt lat="34.626354" lon="-117.302319">
        <ele>986.398438</ele>
        <time>2018-01-27T21:54:25Z</time>
      </trkpt>
      <trkpt lat="34.626344" lon="-117.302387">
        <ele>986.296875</ele>
        <time>2018-01-27T21:54:26Z</time>
      </trkpt>
      <trkpt lat="34.626342" lon="-117.302449">
        <ele>986.199219</ele>
        <time>2018-01-27T21:54:27Z</time>
      </trkpt>
      <trkpt lat="34.626344" lon="-117.302507">
        <ele>985.898438</ele>
        <time>2018-01-27T21:54:28Z</time>
      </trkpt>
      <trkpt lat="34.626353" lon="-117.302564">
        <ele>985.597656</ele>
        <time>2018-01-27T21:54:29Z</time>
      </trkpt>
      <trkpt lat="34.626372" lon="-117.302617">
        <ele>985.398438</ele>
        <time>2018-01-27T21:54:30Z</time>
      </trkpt>
      <trkpt lat="34.626402" lon="-117.302668">
        <ele>985.199219</ele>
        <time>2018-01-27T21:54:31Z</time>
      </trkpt>
      <trkpt lat="34.62644" lon="-117.30272">
        <ele>984.898438</ele>
        <time>2018-01-27T21:54:32Z</time>
      </trkpt>
      <trkpt lat="34.62656" lon="-117.302884">
        <ele>984.398438</ele>
        <time>2018-01-27T21:54:35Z</time>
      </trkpt>
      <trkpt lat="34.626593" lon="-117.302944">
        <ele>984.097656</ele>
        <time>2018-01-27T21:54:36Z</time>
      </trkpt>
      <trkpt lat="34.626831" lon="-117.303401">
        <ele>982.296875</ele>
        <time>2018-01-27T21:54:45Z</time>
      </trkpt>
      <trkpt lat="34.626846" lon="-117.30344">
        <ele>982.000000</ele>
        <time>2018-01-27T21:54:47Z</time>
      </trkpt>
      <trkpt lat="34.626862" lon="-117.303521">
        <ele>981.898438</ele>
        <time>2018-01-27T21:54:48Z</time>
      </trkpt>
      <trkpt lat="34.626865" lon="-117.303564">
        <ele>981.500000</ele>
        <time>2018-01-27T21:54:50Z</time>
      </trkpt>
      <trkpt lat="34.626855" lon="-117.303651">
        <ele>981.296875</ele>
        <time>2018-01-27T21:54:51Z</time>
      </trkpt>
      <trkpt lat="34.626846" lon="-117.303695">
        <ele>980.898438</ele>
        <time>2018-01-27T21:54:53Z</time>
      </trkpt>
      <trkpt lat="34.626832" lon="-117.303793">
        <ele>981.699219</ele>
        <time>2018-01-27T21:54:54Z</time>
      </trkpt>
      <trkpt lat="34.626813" lon="-117.303837">
        <ele>982.000000</ele>
        <time>2018-01-27T21:54:56Z</time>
      </trkpt>
      <trkpt lat="34.626784" lon="-117.303943">
        <ele>982.097656</ele>
        <time>2018-01-27T21:54:57Z</time>
      </trkpt>
      <trkpt lat="34.62676" lon="-117.303996">
        <ele>982.398438</ele>
        <time>2018-01-27T21:54:58Z</time>
      </trkpt>
      <trkpt lat="34.626741" lon="-117.304056">
        <ele>982.398438</ele>
        <time>2018-01-27T21:54:59Z</time>
      </trkpt>
      <trkpt lat="34.626619" lon="-117.304397">
        <ele>979.699219</ele>
        <time>2018-01-27T21:55:05Z</time>
      </trkpt>
      <trkpt lat="34.626617" lon="-117.304441">
        <ele>979.898438</ele>
        <time>2018-01-27T21:55:07Z</time>
      </trkpt>
      <trkpt lat="34.626588" lon="-117.304525">
        <ele>979.898438</ele>
        <time>2018-01-27T21:55:08Z</time>
      </trkpt>
      <trkpt lat="34.626586" lon="-117.304565">
        <ele>979.597656</ele>
        <time>2018-01-27T21:55:11Z</time>
      </trkpt>
      <trkpt lat="34.626591" lon="-117.304659">
        <ele>979.500000</ele>
        <time>2018-01-27T21:55:12Z</time>
      </trkpt>
      <trkpt lat="34.626596" lon="-117.304683">
        <ele>979.000000</ele>
        <time>2018-01-27T21:55:17Z</time>
      </trkpt>
      <trkpt lat="34.626618" lon="-117.304812">
        <ele>979.000000</ele>
        <time>2018-01-27T21:55:19Z</time>
      </trkpt>
      <trkpt lat="34.626618" lon="-117.304832">
        <ele>978.597656</ele>
        <time>2018-01-27T21:55:29Z</time>
      </trkpt>
      <trkpt lat="34.626617" lon="-117.30495">
        <ele>978.000000</ele>
        <time>2018-01-27T21:55:32Z</time>
      </trkpt>
      <trkpt lat="34.626638" lon="-117.304964">
        <ele>979.097656</ele>
        <time>2018-01-27T21:57:48Z</time>
      </trkpt>
      <trkpt lat="34.626638" lon="-117.304964">
        <ele>979.097656</ele>
        <time>2018-01-27T21:57:48Z</time>
      </trkpt>
    </trkseg>
    <trkseg>
      <trkpt lat="34.626604" lon="-117.304926">
        <ele>979.699219</ele>
        <time>2018-01-27T22:02:03Z</time>
      </trkpt>
      <trkpt lat="34.626608" lon="-117.304794">
        <ele>980.199219</ele>
        <time>2018-01-27T22:02:08Z</time>
      </trkpt>
      <trkpt lat="34.626606" lon="-117.304768">
        <ele>980.699219</ele>
        <time>2018-01-27T22:02:12Z</time>
      </trkpt>
      <trkpt lat="34.626585" lon="-117.304675">
        <ele>981.000000</ele>
        <time>2018-01-27T22:02:13Z</time>
      </trkpt>
      <trkpt lat="34.626583" lon="-117.304656">
        <ele>980.500000</ele>
        <time>2018-01-27T22:02:18Z</time>
      </trkpt>
      <trkpt lat="34.626581" lon="-117.304557">
        <ele>980.597656</ele>
        <time>2018-01-27T22:02:19Z</time>
      </trkpt>
      <trkpt lat="34.626584" lon="-117.304531">
        <ele>980.898438</ele>
        <time>2018-01-27T22:02:23Z</time>
      </trkpt>
      <trkpt lat="34.626599" lon="-117.304399">
        <ele>981.097656</ele>
        <time>2018-01-27T22:02:26Z</time>
      </trkpt>
      <trkpt lat="34.626604" lon="-117.304383">
        <ele>980.097656</ele>
        <time>2018-01-27T22:02:32Z</time>
      </trkpt>
      <trkpt lat="34.626757" lon="-117.303943">
        <ele>980.000000</ele>
        <time>2018-01-27T22:02:46Z</time>
      </trkpt>
      <trkpt lat="34.626768" lon="-117.303918">
        <ele>980.597656</ele>
        <time>2018-01-27T22:02:54Z</time>
      </trkpt>
      <trkpt lat="34.626805" lon="-117.303812">
        <ele>980.898438</ele>
        <time>2018-01-27T22:02:55Z</time>
      </trkpt>
      <trkpt lat="34.626818" lon="-117.303765">
        <ele>980.898438</ele>
        <time>2018-01-27T22:02:57Z</time>
      </trkpt>
      <trkpt lat="34.626837" lon="-117.303664">
        <ele>981.097656</ele>
        <time>2018-01-27T22:02:58Z</time>
      </trkpt>
      <trkpt lat="34.626842" lon="-117.303625">
        <ele>981.699219</ele>
        <time>2018-01-27T22:03:01Z</time>
      </trkpt>
      <trkpt lat="34.626846" lon="-117.303543">
        <ele>982.000000</ele>
        <time>2018-01-27T22:05:02Z</time>
      </trkpt>
      <trkpt lat="34.626846" lon="-117.303543">
        <ele>982.000000</ele>
        <time>2018-01-27T22:05:02Z</time>
      </trkpt>
    </trkseg>
    <trkseg>
      <trkpt lat="34.62679" lon="-117.303332">
        <ele>983.097656</ele>
        <time>2018-01-27T22:09:41Z</time>
      </trkpt>
      <trkpt lat="34.626528" lon="-117.302848">
        <ele>984.796875</ele>
        <time>2018-01-27T22:09:50Z</time>
      </trkpt>
      <trkpt lat="34.626489" lon="-117.302794">
        <ele>985.296875</ele>
        <time>2018-01-27T22:09:51Z</time>
      </trkpt>
      <trkpt lat="34.626408" lon="-117.302696">
        <ele>986.000000</ele>
        <time>2018-01-27T22:09:53Z</time>
      </trkpt>
      <trkpt lat="34.626374" lon="-117.30264">
        <ele>986.296875</ele>
        <time>2018-01-27T22:09:54Z</time>
      </trkpt>
      <trkpt lat="34.626349" lon="-117.302577">
        <ele>986.597656</ele>
        <time>2018-01-27T22:09:55Z</time>
      </trkpt>
      <trkpt lat="34.626335" lon="-117.302507">
        <ele>986.898438</ele>
        <time>2018-01-27T22:09:56Z</time>
      </trkpt>
      <trkpt lat="34.626332" lon="-117.302434">
        <ele>987.199219</ele>
        <time>2018-01-27T22:09:57Z</time>
      </trkpt>
      <trkpt lat="34.626338" lon="-117.30236">
        <ele>987.398438</ele>
        <time>2018-01-27T22:09:58Z</time>
      </trkpt>
      <trkpt lat="34.626353" lon="-117.302289">
        <ele>987.500000</ele>
        <time>2018-01-27T22:09:59Z</time>
      </trkpt>
      <trkpt lat="34.626374" lon="-117.302222">
        <ele>987.699219</ele>
        <time>2018-01-27T22:10:00Z</time>
      </trkpt>
      <trkpt lat="34.6264" lon="-117.302157">
        <ele>988.000000</ele>
        <time>2018-01-27T22:10:01Z</time>
      </trkpt>
      <trkpt lat="34.626463" lon="-117.302029">
        <ele>988.898438</ele>
        <time>2018-01-27T22:10:03Z</time>
      </trkpt>
      <trkpt lat="34.626566" lon="-117.301841">
        <ele>990.398438</ele>
        <time>2018-01-27T22:10:06Z</time>
      </trkpt>
      <trkpt lat="34.626607" lon="-117.301786">
        <ele>991.000000</ele>
        <time>2018-01-27T22:10:07Z</time>
      </trkpt>
      <trkpt lat="34.626655" lon="-117.301737">
        <ele>991.398438</ele>
        <time>2018-01-27T22:10:08Z</time>
      </trkpt>
      <trkpt lat="34.626706" lon="-117.301694">
        <ele>991.699219</ele>
        <time>2018-01-27T22:10:09Z</time>
      </trkpt>
      <trkpt lat="34.626759" lon="-117.301657">
        <ele>992.097656</ele>
        <time>2018-01-27T22:10:10Z</time>
      </trkpt>
      <trkpt lat="34.627031" lon="-117.301467">
        <ele>994.097656</ele>
        <time>2018-01-27T22:10:15Z</time>
      </trkpt>
      <trkpt lat="34.627072" lon="-117.301418">
        <ele>994.500000</ele>
        <time>2018-01-27T22:10:16Z</time>
      </trkpt>
      <trkpt lat="34.627109" lon="-117.301368">
        <ele>994.699219</ele>
        <time>2018-01-27T22:10:17Z</time>
      </trkpt>
      <trkpt lat="34.627154" lon="-117.30133">
        <ele>995.097656</ele>
        <time>2018-01-27T22:10:18Z</time>
      </trkpt>
      <trkpt lat="34.627209" lon="-117.301304">
        <ele>995.398438</ele>
        <time>2018-01-27T22:10:19Z</time>
      </trkpt>
      <trkpt lat="34.627272" lon="-117.301285">
        <ele>995.898438</ele>
        <time>2018-01-27T22:10:20Z</time>
      </trkpt>
      <trkpt lat="34.627336" lon="-117.301256">
        <ele>996.097656</ele>
        <time>2018-01-27T22:10:21Z</time>
      </trkpt>
      <trkpt lat="34.627394" lon="-117.30121">
        <ele>996.398438</ele>
        <time>2018-01-27T22:10:22Z</time>
      </trkpt>
      <trkpt lat="34.627445" lon="-117.301149">
        <ele>996.699219</ele>
        <time>2018-01-27T22:10:23Z</time>
      </trkpt>
      <trkpt lat="34.627493" lon="-117.30108">
        <ele>997.097656</ele>
        <time>2018-01-27T22:10:24Z</time>
      </trkpt>
      <trkpt lat="34.627588" lon="-117.300929">
        <ele>998.000000</ele>
        <time>2018-01-27T22:10:26Z</time>
      </trkpt>
      <trkpt lat="34.627667" lon="-117.300782">
        <ele>998.898438</ele>
        <time>2018-01-27T22:10:28Z</time>
      </trkpt>
      <trkpt lat="34.627696" lon="-117.300716">
        <ele>999.398438</ele>
        <time>2018-01-27T22:10:29Z</time>
      </trkpt>
      <trkpt lat="34.627965" lon="-117.300099">
        <ele>1001.699219</ele>
        <time>2018-01-27T22:10:40Z</time>
      </trkpt>
      <trkpt lat="34.62798" lon="-117.300042">
        <ele>1001.699219</ele>
        <time>2018-01-27T22:10:41Z</time>
      </trkpt>
      <trkpt lat="34.627988" lon="-117.299979">
        <ele>1002.000000</ele>
        <time>2018-01-27T22:10:42Z</time>
      </trkpt>
      <trkpt lat="34.628043" lon="-117.299332">
        <ele>1003.699219</ele>
        <time>2018-01-27T22:10:50Z</time>
      </trkpt>
      <trkpt lat="34.628064" lon="-117.299254">
        <ele>1004.000000</ele>
        <time>2018-01-27T22:10:51Z</time>
      </trkpt>
      <trkpt lat="34.628098" lon="-117.299175">
        <ele>1004.398438</ele>
        <time>2018-01-27T22:10:52Z</time>
      </trkpt>
      <trkpt lat="34.62814" lon="-117.299096">
        <ele>1004.796875</ele>
        <time>2018-01-27T22:10:53Z</time>
      </trkpt>
      <trkpt lat="34.628191" lon="-117.299018">
        <ele>1005.500000</ele>
        <time>2018-01-27T22:10:54Z</time>
      </trkpt>
      <trkpt lat="34.628444" lon="-117.298604">
        <ele>1008.296875</ele>
        <time>2018-01-27T22:10:59Z</time>
      </trkpt>
      <trkpt lat="34.628596" lon="-117.298299">
        <ele>1009.398438</ele>
        <time>2018-01-27T22:11:03Z</time>
      </trkpt>
      <trkpt lat="34.628626" lon="-117.298215">
        <ele>1009.699219</ele>
        <time>2018-01-27T22:11:04Z</time>
      </trkpt>
      <trkpt lat="34.628644" lon="-117.298125">
        <ele>1010.000000</ele>
        <time>2018-01-27T22:11:05Z</time>
      </trkpt>
      <trkpt lat="34.628651" lon="-117.29803">
        <ele>1010.296875</ele>
        <time>2018-01-27T22:11:06Z</time>
      </trkpt>
      <trkpt lat="34.628649" lon="-117.29793">
        <ele>1010.500000</ele>
        <time>2018-01-27T22:11:07Z</time>
      </trkpt>
      <trkpt lat="34.628641" lon="-117.29783">
        <ele>1011.000000</ele>
        <time>2018-01-27T22:11:08Z</time>
      </trkpt>
      <trkpt lat="34.628625" lon="-117.297733">
        <ele>1011.398438</ele>
        <time>2018-01-27T22:11:09Z</time>
      </trkpt>
      <trkpt lat="34.628604" lon="-117.297648">
        <ele>1011.398438</ele>
        <time>2018-01-27T22:11:10Z</time>
      </trkpt>
      <trkpt lat="34.628579" lon="-117.297577">
        <ele>1011.796875</ele>
        <time>2018-01-27T22:11:11Z</time>
      </trkpt>
      <trkpt lat="34.628552" lon="-117.297521">
        <ele>1012.097656</ele>
        <time>2018-01-27T22:11:12Z</time>
      </trkpt>
      <trkpt lat="34.628523" lon="-117.297485">
        <ele>1012.296875</ele>
        <time>2018-01-27T22:11:14Z</time>
      </trkpt>
      <trkpt lat="34.628459" lon="-117.297428">
        <ele>1012.500000</ele>
        <time>2018-01-27T22:11:15Z</time>
      </trkpt>
      <trkpt lat="34.628426" lon="-117.297395">
        <ele>1012.699219</ele>
        <time>2018-01-27T22:11:17Z</time>
      </trkpt>
      <trkpt lat="34.628395" lon="-117.297301">
        <ele>1012.699219</ele>
        <time>2018-01-27T22:11:18Z</time>
      </trkpt>
      <trkpt lat="34.628402" lon="-117.29724">
        <ele>1012.699219</ele>
        <time>2018-01-27T22:11:19Z</time>
      </trkpt>
      <trkpt lat="34.628427" lon="-117.297171">
        <ele>1012.796875</ele>
        <time>2018-01-27T22:11:20Z</time>
      </trkpt>
      <trkpt lat="34.628467" lon="-117.297099">
        <ele>1013.296875</ele>
        <time>2018-01-27T22:11:21Z</time>
      </trkpt>
      <trkpt lat="34.628512" lon="-117.297029">
        <ele>1013.597656</ele>
        <time>2018-01-27T22:11:22Z</time>
      </trkpt>
      <trkpt lat="34.628549" lon="-117.296957">
        <ele>1013.796875</ele>
        <time>2018-01-27T22:11:23Z</time>
      </trkpt>
      <trkpt lat="34.628568" lon="-117.296884">
        <ele>1014.097656</ele>
        <time>2018-01-27T22:11:24Z</time>
      </trkpt>
      <trkpt lat="34.628572" lon="-117.29681">
        <ele>1014.398438</ele>
        <time>2018-01-27T22:11:25Z</time>
      </trkpt>
      <trkpt lat="34.628563" lon="-117.296734">
        <ele>1014.597656</ele>
        <time>2018-01-27T22:11:26Z</time>
      </trkpt>
      <trkpt lat="34.628542" lon="-117.296656">
        <ele>1014.898438</ele>
        <time>2018-01-27T22:11:27Z</time>
      </trkpt>
      <trkpt lat="34.628509" lon="-117.296576">
        <ele>1014.597656</ele>
        <time>2018-01-27T22:11:28Z</time>
      </trkpt>
      <trkpt lat="34.628465" lon="-117.296498">
        <ele>1014.500000</ele>
        <time>2018-01-27T22:11:29Z</time>
      </trkpt>
      <trkpt lat="34.628359" lon="-117.296334">
        <ele>1014.699219</ele>
        <time>2018-01-27T22:11:31Z</time>
      </trkpt>
      <trkpt lat="34.628248" lon="-117.296177">
        <ele>1015.296875</ele>
        <time>2018-01-27T22:11:33Z</time>
      </trkpt>
      <trkpt lat="34.628208" lon="-117.296104">
        <ele>1015.699219</ele>
        <time>2018-01-27T22:11:34Z</time>
      </trkpt>
      <trkpt lat="34.628181" lon="-117.29603">
        <ele>1016.097656</ele>
        <time>2018-01-27T22:11:35Z</time>
      </trkpt>
      <trkpt lat="34.628162" lon="-117.295949">
        <ele>1016.296875</ele>
        <time>2018-01-27T22:11:36Z</time>
      </trkpt>
      <trkpt lat="34.628152" lon="-117.29586">
        <ele>1016.597656</ele>
        <time>2018-01-27T22:11:37Z</time>
      </trkpt>
      <trkpt lat="34.628104" lon="-117.295376">
        <ele>1018.398438</ele>
        <time>2018-01-27T22:11:42Z</time>
      </trkpt>
      <trkpt lat="34.628086" lon="-117.295278">
        <ele>1018.796875</ele>
        <time>2018-01-27T22:11:43Z</time>
      </trkpt>
      <trkpt lat="34.62806" lon="-117.295184">
        <ele>1019.097656</ele>
        <time>2018-01-27T22:11:44Z</time>
      </trkpt>
      <trkpt lat="34.628028" lon="-117.295092">
        <ele>1019.000000</ele>
        <time>2018-01-27T22:11:45Z</time>
      </trkpt>
      <trkpt lat="34.627992" lon="-117.295002">
        <ele>1019.296875</ele>
        <time>2018-01-27T22:11:46Z</time>
      </trkpt>
      <trkpt lat="34.627911" lon="-117.294829">
        <ele>1019.796875</ele>
        <time>2018-01-27T22:11:48Z</time>
      </trkpt>
      <trkpt lat="34.62783" lon="-117.294656">
        <ele>1020.398438</ele>
        <time>2018-01-27T22:11:50Z</time>
      </trkpt>
      <trkpt lat="34.627797" lon="-117.294565">
        <ele>1020.597656</ele>
        <time>2018-01-27T22:11:51Z</time>
      </trkpt>
      <trkpt lat="34.627768" lon="-117.294471">
        <ele>1020.898438</ele>
        <time>2018-01-27T22:11:52Z</time>
      </trkpt>
      <trkpt lat="34.627743" lon="-117.294375">
        <ele>1021.097656</ele>
        <time>2018-01-27T22:11:53Z</time>
      </trkpt>
      <trkpt lat="34.627705" lon="-117.29418">
        <ele>1021.398438</ele>
        <time>2018-01-27T22:11:55Z</time>
      </trkpt>
      <trkpt lat="34.62768" lon="-117.293983">
        <ele>1021.796875</ele>
        <time>2018-01-27T22:11:57Z</time>
      </trkpt>
      <trkpt lat="34.62767" lon="-117.293795">
        <ele>1022.097656</ele>
        <time>2018-01-27T22:11:59Z</time>
      </trkpt>
      <trkpt lat="34.627671" lon="-117.293705">
        <ele>1022.199219</ele>
        <time>2018-01-27T22:12:00Z</time>
      </trkpt>
      <trkpt lat="34.627683" lon="-117.292687">
        <ele>1025.296875</ele>
        <time>2018-01-27T22:12:12Z</time>
      </trkpt>
      <trkpt lat="34.627636" lon="-117.292116">
        <ele>1027.000000</ele>
        <time>2018-01-27T22:12:19Z</time>
      </trkpt>
      <trkpt lat="34.62764" lon="-117.292041">
        <ele>1027.000000</ele>
        <time>2018-01-27T22:12:20Z</time>
      </trkpt>
      <trkpt lat="34.627651" lon="-117.291902">
        <ele>1028.296875</ele>
        <time>2018-01-27T22:12:22Z</time>
      </trkpt>
      <trkpt lat="34.627645" lon="-117.291833">
        <ele>1028.597656</ele>
        <time>2018-01-27T22:12:23Z</time>
      </trkpt>
      <trkpt lat="34.62763" lon="-117.291765">
        <ele>1028.796875</ele>
        <time>2018-01-27T22:12:24Z</time>
      </trkpt>
      <trkpt lat="34.627608" lon="-117.2917">
        <ele>1029.199219</ele>
        <time>2018-01-27T22:12:25Z</time>
      </trkpt>
      <trkpt lat="34.627579" lon="-117.291639">
        <ele>1029.398438</ele>
        <time>2018-01-27T22:12:26Z</time>
      </trkpt>
      <trkpt lat="34.627546" lon="-117.291582">
        <ele>1029.199219</ele>
        <time>2018-01-27T22:12:27Z</time>
      </trkpt>
      <trkpt lat="34.627508" lon="-117.29153">
        <ele>1029.500000</ele>
        <time>2018-01-27T22:12:28Z</time>
      </trkpt>
      <trkpt lat="34.627468" lon="-117.291483">
        <ele>1029.699219</ele>
        <time>2018-01-27T22:12:29Z</time>
      </trkpt>
      <trkpt lat="34.627389" lon="-117.291398">
        <ele>1030.296875</ele>
        <time>2018-01-27T22:12:31Z</time>
      </trkpt>
      <trkpt lat="34.627364" lon="-117.291349">
        <ele>1030.597656</ele>
        <time>2018-01-27T22:12:32Z</time>
      </trkpt>
      <trkpt lat="34.62735" lon="-117.291296">
        <ele>1030.796875</ele>
        <time>2018-01-27T22:12:33Z</time>
      </trkpt>
      <trkpt lat="34.627355" lon="-117.291236">
        <ele>1030.898438</ele>
        <time>2018-01-27T22:12:34Z</time>
      </trkpt>
      <trkpt lat="34.627371" lon="-117.29117">
        <ele>1030.796875</ele>
        <time>2018-01-27T22:12:35Z</time>
      </trkpt>
      <trkpt lat="34.627476" lon="-117.290786">
        <ele>1031.398438</ele>
        <time>2018-01-27T22:12:40Z</time>
      </trkpt>
      <trkpt lat="34.627481" lon="-117.290711">
        <ele>1031.699219</ele>
        <time>2018-01-27T22:12:41Z</time>
      </trkpt>
      <trkpt lat="34.627476" lon="-117.290638">
        <ele>1031.796875</ele>
        <time>2018-01-27T22:12:42Z</time>
      </trkpt>
      <trkpt lat="34.627456" lon="-117.290574">
        <ele>1031.796875</ele>
        <time>2018-01-27T22:12:43Z</time>
      </trkpt>
      <trkpt lat="34.627423" lon="-117.29052">
        <ele>1031.796875</ele>
        <time>2018-01-27T22:12:44Z</time>
      </trkpt>
      <trkpt lat="34.627384" lon="-117.29047">
        <ele>1030.898438</ele>
        <time>2018-01-27T22:12:45Z</time>
      </trkpt>
      <trkpt lat="34.627306" lon="-117.290366">
        <ele>1031.898438</ele>
        <time>2018-01-27T22:12:47Z</time>
      </trkpt>
      <trkpt lat="34.627275" lon="-117.290308">
        <ele>1032.398438</ele>
        <time>2018-01-27T22:12:48Z</time>
      </trkpt>
      <trkpt lat="34.627248" lon="-117.290246">
        <ele>1032.699219</ele>
        <time>2018-01-27T22:12:49Z</time>
      </trkpt>
      <trkpt lat="34.627236" lon="-117.290178">
        <ele>1033.097656</ele>
        <time>2018-01-27T22:12:50Z</time>
      </trkpt>
      <trkpt lat="34.627243" lon="-117.290107">
        <ele>1033.398438</ele>
        <time>2018-01-27T22:12:51Z</time>
      </trkpt>
      <trkpt lat="34.627266" lon="-117.290037">
        <ele>1033.597656</ele>
        <time>2018-01-27T22:12:52Z</time>
      </trkpt>
      <trkpt lat="34.627321" lon="-117.289888">
        <ele>1034.398438</ele>
        <time>2018-01-27T22:12:54Z</time>
      </trkpt>
      <trkpt lat="34.62734" lon="-117.289813">
        <ele>1035.000000</ele>
        <time>2018-01-27T22:12:55Z</time>
      </trkpt>
      <trkpt lat="34.627345" lon="-117.289734">
        <ele>1035.398438</ele>
        <time>2018-01-27T22:12:56Z</time>
      </trkpt>
      <trkpt lat="34.627367" lon="-117.289425">
        <ele>1036.296875</ele>
        <time>2018-01-27T22:13:00Z</time>
      </trkpt>
      <trkpt lat="34.62738" lon="-117.289348">
        <ele>1036.699219</ele>
        <time>2018-01-27T22:13:01Z</time>
      </trkpt>
      <trkpt lat="34.627385" lon="-117.289266">
        <ele>1037.097656</ele>
        <time>2018-01-27T22:13:02Z</time>
      </trkpt>
      <trkpt lat="34.62738" lon="-117.289182">
        <ele>1037.500000</ele>
        <time>2018-01-27T22:13:03Z</time>
      </trkpt>
      <trkpt lat="34.627367" lon="-117.289097">
        <ele>1037.699219</ele>
        <time>2018-01-27T22:13:04Z</time>
      </trkpt>
      <trkpt lat="34.627345" lon="-117.289016">
        <ele>1038.097656</ele>
        <time>2018-01-27T22:13:05Z</time>
      </trkpt>
      <trkpt lat="34.627315" lon="-117.288939">
        <ele>1038.199219</ele>
        <time>2018-01-27T22:13:06Z</time>
      </trkpt>
      <trkpt lat="34.627272" lon="-117.288867">
        <ele>1038.699219</ele>
        <time>2018-01-27T22:13:07Z</time>
      </trkpt>
      <trkpt lat="34.627219" lon="-117.288803">
        <ele>1038.898438</ele>
        <time>2018-01-27T22:13:08Z</time>
      </trkpt>
      <trkpt lat="34.627155" lon="-117.288758">
        <ele>1039.097656</ele>
        <time>2018-01-27T22:13:09Z</time>
      </trkpt>
      <trkpt lat="34.627086" lon="-117.288727">
        <ele>1039.199219</ele>
        <time>2018-01-27T22:13:10Z</time>
      </trkpt>
      <trkpt lat="34.627013" lon="-117.288708">
        <ele>1039.500000</ele>
        <time>2018-01-27T22:13:11Z</time>
      </trkpt>
      <trkpt lat="34.62686" lon="-117.288683">
        <ele>1040.000000</ele>
        <time>2018-01-27T22:13:13Z</time>
      </trkpt>
      <trkpt lat="34.626788" lon="-117.288659">
        <ele>1040.500000</ele>
        <time>2018-01-27T22:13:14Z</time>
      </trkpt>
      <trkpt lat="34.626724" lon="-117.288618">
        <ele>1040.398438</ele>
        <time>2018-01-27T22:13:15Z</time>
      </trkpt>
      <trkpt lat="34.62667" lon="-117.288558">
        <ele>1040.796875</ele>
        <time>2018-01-27T22:13:16Z</time>
      </trkpt>
      <trkpt lat="34.626623" lon="-117.28848">
        <ele>1041.199219</ele>
        <time>2018-01-27T22:13:17Z</time>
      </trkpt>
      <trkpt lat="34.626581" lon="-117.28839">
        <ele>1041.398438</ele>
        <time>2018-01-27T22:13:18Z</time>
      </trkpt>
      <trkpt lat="34.626546" lon="-117.288295">
        <ele>1041.699219</ele>
        <time>2018-01-27T22:13:19Z</time>
      </trkpt>
      <trkpt lat="34.62652" lon="-117.288195">
        <ele>1042.000000</ele>
        <time>2018-01-27T22:13:20Z</time>
      </trkpt>
      <trkpt lat="34.626507" lon="-117.288092">
        <ele>1042.398438</ele>
        <time>2018-01-27T22:13:21Z</time>
      </trkpt>
      <trkpt lat="34.626502" lon="-117.28799">
        <ele>1042.796875</ele>
        <time>2018-01-27T22:13:22Z</time>
      </trkpt>
      <trkpt lat="34.626498" lon="-117.287885">
        <ele>1043.199219</ele>
        <time>2018-01-27T22:13:23Z</time>
      </trkpt>
      <trkpt lat="34.626482" lon="-117.287784">
        <ele>1043.796875</ele>
        <time>2018-01-27T22:13:24Z</time>
      </trkpt>
      <trkpt lat="34.626455" lon="-117.287687">
        <ele>1044.000000</ele>
        <time>2018-01-27T22:13:25Z</time>
      </trkpt>
      <trkpt lat="34.626421" lon="-117.287591">
        <ele>1044.398438</ele>
        <time>2018-01-27T22:13:26Z</time>
      </trkpt>
      <trkpt lat="34.62638" lon="-117.287499">
        <ele>1044.796875</ele>
        <time>2018-01-27T22:13:27Z</time>
      </trkpt>
      <trkpt lat="34.626289" lon="-117.287317">
        <ele>1045.500000</ele>
        <time>2018-01-27T22:13:29Z</time>
      </trkpt>
      <trkpt lat="34.626238" lon="-117.28723">
        <ele>1045.597656</ele>
        <time>2018-01-27T22:13:30Z</time>
      </trkpt>
      <trkpt lat="34.626181" lon="-117.287145">
        <ele>1045.597656</ele>
        <time>2018-01-27T22:13:31Z</time>
      </trkpt>
      <trkpt lat="34.625479" lon="-117.286179">
        <ele>1047.398438</ele>
        <time>2018-01-27T22:13:42Z</time>
      </trkpt>
      <trkpt lat="34.625414" lon="-117.286103">
        <ele>1047.898438</ele>
        <time>2018-01-27T22:13:43Z</time>
      </trkpt>
      <trkpt lat="34.625349" lon="-117.286034">
        <ele>1048.097656</ele>
        <time>2018-01-27T22:13:44Z</time>
      </trkpt>
      <trkpt lat="34.625286" lon="-117.28598">
        <ele>1048.398438</ele>
        <time>2018-01-27T22:13:45Z</time>
      </trkpt>
      <trkpt lat="34.625158" lon="-117.285882">
        <ele>1049.597656</ele>
        <time>2018-01-27T22:13:47Z</time>
      </trkpt>
      <trkpt lat="34.625096" lon="-117.285821">
        <ele>1049.699219</ele>
        <time>2018-01-27T22:13:48Z</time>
      </trkpt>
      <trkpt lat="34.625039" lon="-117.285748">
        <ele>1049.796875</ele>
        <time>2018-01-27T22:13:49Z</time>
      </trkpt>
      <trkpt lat="34.624986" lon="-117.285665">
        <ele>1050.097656</ele>
        <time>2018-01-27T22:13:50Z</time>
      </trkpt>
      <trkpt lat="34.624932" lon="-117.285571">
        <ele>1050.398438</ele>
        <time>2018-01-27T22:13:51Z</time>
      </trkpt>
      <trkpt lat="34.62488" lon="-117.285466">
        <ele>1050.898438</ele>
        <time>2018-01-27T22:13:52Z</time>
      </trkpt>
      <trkpt lat="34.624836" lon="-117.285353">
        <ele>1051.296875</ele>
        <time>2018-01-27T22:13:53Z</time>
      </trkpt>
      <trkpt lat="34.624678" lon="-117.284939">
        <ele>1052.796875</ele>
        <time>2018-01-27T22:13:57Z</time>
      </trkpt>
      <trkpt lat="34.62465" lon="-117.284838">
        <ele>1053.199219</ele>
        <time>2018-01-27T22:13:58Z</time>
      </trkpt>
      <trkpt lat="34.624593" lon="-117.284638">
        <ele>1054.000000</ele>
        <time>2018-01-27T22:14:00Z</time>
      </trkpt>
      <trkpt lat="34.624554" lon="-117.284547">
        <ele>1054.199219</ele>
        <time>2018-01-27T22:14:01Z</time>
      </trkpt>
      <trkpt lat="34.624441" lon="-117.284277">
        <ele>1055.597656</ele>
        <time>2018-01-27T22:14:04Z</time>
      </trkpt>
      <trkpt lat="34.624387" lon="-117.284099">
        <ele>1056.199219</ele>
        <time>2018-01-27T22:14:06Z</time>
      </trkpt>
      <trkpt lat="34.62437" lon="-117.284011">
        <ele>1056.597656</ele>
        <time>2018-01-27T22:14:07Z</time>
      </trkpt>
      <trkpt lat="34.624367" lon="-117.283932">
        <ele>1056.597656</ele>
        <time>2018-01-27T22:14:08Z</time>
      </trkpt>
      <trkpt lat="34.624368" lon="-117.283873">
        <ele>1056.796875</ele>
        <time>2018-01-27T22:14:10Z</time>
      </trkpt>
      <trkpt lat="34.624382" lon="-117.28379">
        <ele>1057.000000</ele>
        <time>2018-01-27T22:14:11Z</time>
      </trkpt>
      <trkpt lat="34.624394" lon="-117.283754">
        <ele>1058.000000</ele>
        <time>2018-01-27T22:14:13Z</time>
      </trkpt>
      <trkpt lat="34.624442" lon="-117.283686">
        <ele>1058.296875</ele>
        <time>2018-01-27T22:14:14Z</time>
      </trkpt>
      <trkpt lat="34.624479" lon="-117.283656">
        <ele>1058.699219</ele>
        <time>2018-01-27T22:14:15Z</time>
      </trkpt>
      <trkpt lat="34.624524" lon="-117.283638">
        <ele>1058.699219</ele>
        <time>2018-01-27T22:14:16Z</time>
      </trkpt>
      <trkpt lat="34.624576" lon="-117.283629">
        <ele>1058.699219</ele>
        <time>2018-01-27T22:14:17Z</time>
      </trkpt>
      <trkpt lat="34.624632" lon="-117.283607">
        <ele>1058.898438</ele>
        <time>2018-01-27T22:14:18Z</time>
      </trkpt>
      <trkpt lat="34.624684" lon="-117.283557">
        <ele>1059.296875</ele>
        <time>2018-01-27T22:14:19Z</time>
      </trkpt>
      <trkpt lat="34.624736" lon="-117.283488">
        <ele>1059.699219</ele>
        <time>2018-01-27T22:14:20Z</time>
      </trkpt>
      <trkpt lat="34.625572" lon="-117.282305">
        <ele>1065.796875</ele>
        <time>2018-01-27T22:14:33Z</time>
      </trkpt>
      <trkpt lat="34.625622" lon="-117.28222">
        <ele>1066.296875</ele>
        <time>2018-01-27T22:14:34Z</time>
      </trkpt>
      <trkpt lat="34.625717" lon="-117.282037">
        <ele>1067.000000</ele>
        <time>2018-01-27T22:14:36Z</time>
      </trkpt>
      <trkpt lat="34.62648" lon="-117.280463">
        <ele>1074.796875</ele>
        <time>2018-01-27T22:14:51Z</time>
      </trkpt>
      <trkpt lat="34.626539" lon="-117.280378">
        <ele>1075.296875</ele>
        <time>2018-01-27T22:14:52Z</time>
      </trkpt>
      <trkpt lat="34.626605" lon="-117.280301">
        <ele>1075.699219</ele>
        <time>2018-01-27T22:14:53Z</time>
      </trkpt>
      <trkpt lat="34.62668" lon="-117.280234">
        <ele>1076.097656</ele>
        <time>2018-01-27T22:14:54Z</time>
      </trkpt>
      <trkpt lat="34.627421" lon="-117.279525">
        <ele>1080.296875</ele>
        <time>2018-01-27T22:15:03Z</time>
      </trkpt>
      <trkpt lat="34.62749" lon="-117.279436">
        <ele>1080.898438</ele>
        <time>2018-01-27T22:15:04Z</time>
      </trkpt>
      <trkpt lat="34.627547" lon="-117.279338">
        <ele>1081.199219</ele>
        <time>2018-01-27T22:15:05Z</time>
      </trkpt>
      <trkpt lat="34.627826" lon="-117.278839">
        <ele>1083.699219</ele>
        <time>2018-01-27T22:15:10Z</time>
      </trkpt>
      <trkpt lat="34.62838" lon="-117.278146">
        <ele>1087.296875</ele>
        <time>2018-01-27T22:15:17Z</time>
      </trkpt>
      <trkpt lat="34.628561" lon="-117.277949">
        <ele>1088.296875</ele>
        <time>2018-01-27T22:15:19Z</time>
      </trkpt>
      <trkpt lat="34.628754" lon="-117.27777">
        <ele>1089.199219</ele>
        <time>2018-01-27T22:15:21Z</time>
      </trkpt>
      <trkpt lat="34.629336" lon="-117.277289">
        <ele>1092.796875</ele>
        <time>2018-01-27T22:15:27Z</time>
      </trkpt>
      <trkpt lat="34.629428" lon="-117.277228">
        <ele>1093.398438</ele>
        <time>2018-01-27T22:15:28Z</time>
      </trkpt>
      <trkpt lat="34.629894" lon="-117.276933">
        <ele>1096.199219</ele>
        <time>2018-01-27T22:15:34Z</time>
      </trkpt>
      <trkpt lat="34.629957" lon="-117.276873">
        <ele>1097.199219</ele>
        <time>2018-01-27T22:15:35Z</time>
      </trkpt>
      <trkpt lat="34.630014" lon="-117.276807">
        <ele>1098.000000</ele>
        <time>2018-01-27T22:15:36Z</time>
      </trkpt>
      <trkpt lat="34.630063" lon="-117.276738">
        <ele>1098.597656</ele>
        <time>2018-01-27T22:15:37Z</time>
      </trkpt>
      <trkpt lat="34.630103" lon="-117.276665">
        <ele>1098.796875</ele>
        <time>2018-01-27T22:15:38Z</time>
      </trkpt>
      <trkpt lat="34.63037" lon="-117.276172">
        <ele>1102.000000</ele>
        <time>2018-01-27T22:15:44Z</time>
      </trkpt>
      <trkpt lat="34.630421" lon="-117.276095">
        <ele>1102.796875</ele>
        <time>2018-01-27T22:15:45Z</time>
      </trkpt>
      <trkpt lat="34.630655" lon="-117.275767">
        <ele>1103.796875</ele>
        <time>2018-01-27T22:15:50Z</time>
      </trkpt>
      <trkpt lat="34.630694" lon="-117.275693">
        <ele>1104.500000</ele>
        <time>2018-01-27T22:15:51Z</time>
      </trkpt>
      <trkpt lat="34.630732" lon="-117.275613">
        <ele>1105.199219</ele>
        <time>2018-01-27T22:15:52Z</time>
      </trkpt>
      <trkpt lat="34.630787" lon="-117.275471">
        <ele>1105.898438</ele>
        <time>2018-01-27T22:15:54Z</time>
      </trkpt>
      <trkpt lat="34.630833" lon="-117.275326">
        <ele>1105.699219</ele>
        <time>2018-01-27T22:15:56Z</time>
      </trkpt>
      <trkpt lat="34.630854" lon="-117.275246">
        <ele>1105.199219</ele>
        <time>2018-01-27T22:15:57Z</time>
      </trkpt>
      <trkpt lat="34.630917" lon="-117.274949">
        <ele>1104.898438</ele>
        <time>2018-01-27T22:16:01Z</time>
      </trkpt>
      <trkpt lat="34.630944" lon="-117.274894">
        <ele>1105.296875</ele>
        <time>2018-01-27T22:16:02Z</time>
      </trkpt>
      <trkpt lat="34.630979" lon="-117.27485">
        <ele>1105.500000</ele>
        <time>2018-01-27T22:16:03Z</time>
      </trkpt>
      <trkpt lat="34.631022" lon="-117.274819">
        <ele>1105.796875</ele>
        <time>2018-01-27T22:16:04Z</time>
      </trkpt>
      <trkpt lat="34.631069" lon="-117.274799">
        <ele>1106.000000</ele>
        <time>2018-01-27T22:16:05Z</time>
      </trkpt>
      <trkpt lat="34.631118" lon="-117.274794">
        <ele>1106.000000</ele>
        <time>2018-01-27T22:16:06Z</time>
      </trkpt>
      <trkpt lat="34.631168" lon="-117.274808">
        <ele>1106.296875</ele>
        <time>2018-01-27T22:16:07Z</time>
      </trkpt>
      <trkpt lat="34.631214" lon="-117.274837">
        <ele>1106.500000</ele>
        <time>2018-01-27T22:16:08Z</time>
      </trkpt>
      <trkpt lat="34.631305" lon="-117.274908">
        <ele>1106.898438</ele>
        <time>2018-01-27T22:16:10Z</time>
      </trkpt>
      <trkpt lat="34.631551" lon="-117.275089">
        <ele>1108.296875</ele>
        <time>2018-01-27T22:16:15Z</time>
      </trkpt>
      <trkpt lat="34.631603" lon="-117.275117">
        <ele>1108.398438</ele>
        <time>2018-01-27T22:16:16Z</time>
      </trkpt>
      <trkpt lat="34.631656" lon="-117.275137">
        <ele>1108.796875</ele>
        <time>2018-01-27T22:16:17Z</time>
      </trkpt>
      <trkpt lat="34.631712" lon="-117.275146">
        <ele>1108.898438</ele>
        <time>2018-01-27T22:16:18Z</time>
      </trkpt>
      <trkpt lat="34.631772" lon="-117.275144">
        <ele>1109.000000</ele>
        <time>2018-01-27T22:16:19Z</time>
      </trkpt>
      <trkpt lat="34.631836" lon="-117.275131">
        <ele>1109.000000</ele>
        <time>2018-01-27T22:16:20Z</time>
      </trkpt>
      <trkpt lat="34.631904" lon="-117.275106">
        <ele>1109.097656</ele>
        <time>2018-01-27T22:16:21Z</time>
      </trkpt>
      <trkpt lat="34.632254" lon="-117.274972">
        <ele>1110.199219</ele>
        <time>2018-01-27T22:16:27Z</time>
      </trkpt>
      <trkpt lat="34.632312" lon="-117.274966">
        <ele>1110.398438</ele>
        <time>2018-01-27T22:16:28Z</time>
      </trkpt>
      <trkpt lat="34.632367" lon="-117.274973">
        <ele>1110.199219</ele>
        <time>2018-01-27T22:16:29Z</time>
      </trkpt>
      <trkpt lat="34.632421" lon="-117.274991">
        <ele>1110.796875</ele>
        <time>2018-01-27T22:16:30Z</time>
      </trkpt>
      <trkpt lat="34.632473" lon="-117.275022">
        <ele>1110.597656</ele>
        <time>2018-01-27T22:16:31Z</time>
      </trkpt>
      <trkpt lat="34.632524" lon="-117.275062">
        <ele>1111.097656</ele>
        <time>2018-01-27T22:16:32Z</time>
      </trkpt>
      <trkpt lat="34.632898" lon="-117.275366">
        <ele>1113.500000</ele>
        <time>2018-01-27T22:16:39Z</time>
      </trkpt>
      <trkpt lat="34.63296" lon="-117.275403">
        <ele>1113.898438</ele>
        <time>2018-01-27T22:16:40Z</time>
      </trkpt>
      <trkpt lat="34.633027" lon="-117.275438">
        <ele>1114.398438</ele>
        <time>2018-01-27T22:16:41Z</time>
      </trkpt>
      <trkpt lat="34.63317" lon="-117.2755">
        <ele>1115.199219</ele>
        <time>2018-01-27T22:16:43Z</time>
      </trkpt>
      <trkpt lat="34.633643" lon="-117.275675">
        <ele>1118.199219</ele>
        <time>2018-01-27T22:16:49Z</time>
      </trkpt>
      <trkpt lat="34.633723" lon="-117.275693">
        <ele>1118.796875</ele>
        <time>2018-01-27T22:16:50Z</time>
      </trkpt>
      <trkpt lat="34.634038" lon="-117.275759">
        <ele>1121.000000</ele>
        <time>2018-01-27T22:16:54Z</time>
      </trkpt>
      <trkpt lat="34.634114" lon="-117.275786">
        <ele>1121.500000</ele>
        <time>2018-01-27T22:16:55Z</time>
      </trkpt>
      <trkpt lat="34.634721" lon="-117.27597">
        <ele>1125.097656</ele>
        <time>2018-01-27T22:17:03Z</time>
      </trkpt>
      <trkpt lat="34.635532" lon="-117.276113">
        <ele>1129.796875</ele>
        <time>2018-01-27T22:17:14Z</time>
      </trkpt>
      <trkpt lat="34.635588" lon="-117.276135">
        <ele>1130.097656</ele>
        <time>2018-01-27T22:17:15Z</time>
      </trkpt>
      <trkpt lat="34.635633" lon="-117.27617">
        <ele>1130.000000</ele>
        <time>2018-01-27T22:17:16Z</time>
      </trkpt>
      <trkpt lat="34.635664" lon="-117.27622">
        <ele>1130.500000</ele>
        <time>2018-01-27T22:17:17Z</time>
      </trkpt>
      <trkpt lat="34.635685" lon="-117.27627">
        <ele>1130.898438</ele>
        <time>2018-01-27T22:17:19Z</time>
      </trkpt>
      <trkpt lat="34.63572" lon="-117.276361">
        <ele>1131.199219</ele>
        <time>2018-01-27T22:17:20Z</time>
      </trkpt>
      <trkpt lat="34.635734" lon="-117.276414">
        <ele>1131.796875</ele>
        <time>2018-01-27T22:17:21Z</time>
      </trkpt>
      <trkpt lat="34.635745" lon="-117.276474">
        <ele>1132.296875</ele>
        <time>2018-01-27T22:17:22Z</time>
      </trkpt>
      <trkpt lat="34.635761" lon="-117.276613">
        <ele>1133.296875</ele>
        <time>2018-01-27T22:17:24Z</time>
      </trkpt>
      <trkpt lat="34.635785" lon="-117.276917">
        <ele>1135.199219</ele>
        <time>2018-01-27T22:17:28Z</time>
      </trkpt>
      <trkpt lat="34.63578" lon="-117.276997">
        <ele>1135.699219</ele>
        <time>2018-01-27T22:17:29Z</time>
      </trkpt>
      <trkpt lat="34.635771" lon="-117.277082">
        <ele>1136.296875</ele>
        <time>2018-01-27T22:17:30Z</time>
      </trkpt>
      <trkpt lat="34.635757" lon="-117.277169">
        <ele>1136.699219</ele>
        <time>2018-01-27T22:17:31Z</time>
      </trkpt>
      <trkpt lat="34.635699" lon="-117.277427">
        <ele>1138.500000</ele>
        <time>2018-01-27T22:17:34Z</time>
      </trkpt>
      <trkpt lat="34.635653" lon="-117.277619">
        <ele>1139.500000</ele>
        <time>2018-01-27T22:17:39Z</time>
      </trkpt>
      <trkpt lat="34.635653" lon="-117.277618">
        <ele>1142.199219</ele>
        <time>2018-01-27T22:18:56Z</time>
      </trkpt>
      <trkpt lat="34.635632" lon="-117.27773">
        <ele>1142.398438</ele>
        <time>2018-01-27T22:18:57Z</time>
      </trkpt>
      <trkpt lat="34.635626" lon="-117.277755">
        <ele>1143.398438</ele>
        <time>2018-01-27T22:19:00Z</time>
      </trkpt>
      <trkpt lat="34.635612" lon="-117.277852">
        <ele>1143.597656</ele>
        <time>2018-01-27T22:19:01Z</time>
      </trkpt>
      <trkpt lat="34.635609" lon="-117.277889">
        <ele>1143.398438</ele>
        <time>2018-01-27T22:19:03Z</time>
      </trkpt>
      <trkpt lat="34.635609" lon="-117.277964">
        <ele>1143.699219</ele>
        <time>2018-01-27T22:19:04Z</time>
      </trkpt>
      <trkpt lat="34.635615" lon="-117.278001">
        <ele>1143.898438</ele>
        <time>2018-01-27T22:19:06Z</time>
      </trkpt>
      <trkpt lat="34.635641" lon="-117.27807">
        <ele>1143.699219</ele>
        <time>2018-01-27T22:19:07Z</time>
      </trkpt>
      <trkpt lat="34.635659" lon="-117.278101">
        <ele>1143.199219</ele>
        <time>2018-01-27T22:19:09Z</time>
      </trkpt>
      <trkpt lat="34.6357" lon="-117.278157">
        <ele>1143.000000</ele>
        <time>2018-01-27T22:19:10Z</time>
      </trkpt>
      <trkpt lat="34.635775" lon="-117.278262">
        <ele>1142.500000</ele>
        <time>2018-01-27T22:19:15Z</time>
      </trkpt>
      <trkpt lat="34.635846" lon="-117.278385">
        <ele>1141.398438</ele>
        <time>2018-01-27T22:19:20Z</time>
      </trkpt>
      <trkpt lat="34.635858" lon="-117.278413">
        <ele>1141.097656</ele>
        <time>2018-01-27T22:19:23Z</time>
      </trkpt>
      <trkpt lat="34.635882" lon="-117.278505">
        <ele>1141.000000</ele>
        <time>2018-01-27T22:19:24Z</time>
      </trkpt>
      <trkpt lat="34.635884" lon="-117.278538">
        <ele>1141.000000</ele>
        <time>2018-01-27T22:19:27Z</time>
      </trkpt>
      <trkpt lat="34.635891" lon="-117.278623">
        <ele>1141.000000</ele>
        <time>2018-01-27T22:19:29Z</time>
      </trkpt>
      <trkpt lat="34.635902" lon="-117.278908">
        <ele>1139.296875</ele>
        <time>2018-01-27T22:19:42Z</time>
      </trkpt>
      <trkpt lat="34.635907" lon="-117.27893">
        <ele>1139.097656</ele>
        <time>2018-01-27T22:19:46Z</time>
      </trkpt>
      <trkpt lat="34.635934" lon="-117.279036">
        <ele>1138.796875</ele>
        <time>2018-01-27T22:19:47Z</time>
      </trkpt>
      <trkpt lat="34.635947" lon="-117.279067">
        <ele>1137.796875</ele>
        <time>2018-01-27T22:19:50Z</time>
      </trkpt>
      <trkpt lat="34.636034" lon="-117.279266">
        <ele>1136.500000</ele>
        <time>2018-01-27T22:19:54Z</time>
      </trkpt>
      <trkpt lat="34.636052" lon="-117.279298">
        <ele>1135.699219</ele>
        <time>2018-01-27T22:19:56Z</time>
      </trkpt>
      <trkpt lat="34.636125" lon="-117.279406">
        <ele>1135.796875</ele>
        <time>2018-01-27T22:19:59Z</time>
      </trkpt>
      <trkpt lat="34.636136" lon="-117.279429">
        <ele>1136.097656</ele>
        <time>2018-01-27T22:20:04Z</time>
      </trkpt>
      <trkpt lat="34.636153" lon="-117.279523">
        <ele>1136.398438</ele>
        <time>2018-01-27T22:20:05Z</time>
      </trkpt>
      <trkpt lat="34.636148" lon="-117.279547">
        <ele>1135.500000</ele>
        <time>2018-01-27T22:20:08Z</time>
      </trkpt>
      <trkpt lat="34.636133" lon="-117.279649">
        <ele>1135.398438</ele>
        <time>2018-01-27T22:20:09Z</time>
      </trkpt>
      <trkpt lat="34.636128" lon="-117.279687">
        <ele>1135.296875</ele>
        <time>2018-01-27T22:20:11Z</time>
      </trkpt>
      <trkpt lat="34.636118" lon="-117.279808">
        <ele>1135.500000</ele>
        <time>2018-01-27T22:20:13Z</time>
      </trkpt>
      <trkpt lat="34.636119" lon="-117.279847">
        <ele>1135.097656</ele>
        <time>2018-01-27T22:20:15Z</time>
      </trkpt>
      <trkpt lat="34.636135" lon="-117.279918">
        <ele>1134.898438</ele>
        <time>2018-01-27T22:20:16Z</time>
      </trkpt>
      <trkpt lat="34.636148" lon="-117.279951">
        <ele>1134.398438</ele>
        <time>2018-01-27T22:20:19Z</time>
      </trkpt>
      <trkpt lat="34.636191" lon="-117.280029">
        <ele>1134.097656</ele>
        <time>2018-01-27T22:20:20Z</time>
      </trkpt>
      <trkpt lat="34.636206" lon="-117.280049">
        <ele>1132.398438</ele>
        <time>2018-01-27T22:20:24Z</time>
      </trkpt>
      <trkpt lat="34.636266" lon="-117.280115">
        <ele>1132.199219</ele>
        <time>2018-01-27T22:20:25Z</time>
      </trkpt>
      <trkpt lat="34.63628" lon="-117.280124">
        <ele>1132.199219</ele>
        <time>2018-01-27T22:20:30Z</time>
      </trkpt>
      <trkpt lat="34.636356" lon="-117.28019">
        <ele>1131.898438</ele>
        <time>2018-01-27T22:20:32Z</time>
      </trkpt>
      <trkpt lat="34.636369" lon="-117.280205">
        <ele>1130.296875</ele>
        <time>2018-01-27T22:20:36Z</time>
      </trkpt>
      <trkpt lat="34.636453" lon="-117.2803">
        <ele>1129.597656</ele>
        <time>2018-01-27T22:20:38Z</time>
      </trkpt>
      <trkpt lat="34.636643" lon="-117.280479">
        <ele>1128.199219</ele>
        <time>2018-01-27T22:20:47Z</time>
      </trkpt>
      <trkpt lat="34.636661" lon="-117.280502">
        <ele>1127.898438</ele>
        <time>2018-01-27T22:20:50Z</time>
      </trkpt>
      <trkpt lat="34.636699" lon="-117.280573">
        <ele>1127.597656</ele>
        <time>2018-01-27T22:20:52Z</time>
      </trkpt>
      <trkpt lat="34.636716" lon="-117.280611">
        <ele>1127.000000</ele>
        <time>2018-01-27T22:20:56Z</time>
      </trkpt>
      <trkpt lat="34.636734" lon="-117.280684">
        <ele>1127.796875</ele>
        <time>2018-01-27T22:20:58Z</time>
      </trkpt>
      <trkpt lat="34.636739" lon="-117.280726">
        <ele>1128.597656</ele>
        <time>2018-01-27T22:21:01Z</time>
      </trkpt>
      <trkpt lat="34.636736" lon="-117.280806">
        <ele>1128.097656</ele>
        <time>2018-01-27T22:21:02Z</time>
      </trkpt>
      <trkpt lat="34.636733" lon="-117.280837">
        <ele>1127.398438</ele>
        <time>2018-01-27T22:21:05Z</time>
      </trkpt>
      <trkpt lat="34.636715" lon="-117.280943">
        <ele>1127.199219</ele>
        <time>2018-01-27T22:21:06Z</time>
      </trkpt>
      <trkpt lat="34.636714" lon="-117.280987">
        <ele>1126.898438</ele>
        <time>2018-01-27T22:21:08Z</time>
      </trkpt>
      <trkpt lat="34.636719" lon="-117.28108">
        <ele>1126.796875</ele>
        <time>2018-01-27T22:21:09Z</time>
      </trkpt>
      <trkpt lat="34.636731" lon="-117.281389">
        <ele>1126.296875</ele>
        <time>2018-01-27T22:21:15Z</time>
      </trkpt>
      <trkpt lat="34.636737" lon="-117.281438">
        <ele>1125.898438</ele>
        <time>2018-01-27T22:21:17Z</time>
      </trkpt>
      <trkpt lat="34.636768" lon="-117.281534">
        <ele>1125.597656</ele>
        <time>2018-01-27T22:21:18Z</time>
      </trkpt>
      <trkpt lat="34.636791" lon="-117.281581">
        <ele>1125.097656</ele>
        <time>2018-01-27T22:21:19Z</time>
      </trkpt>
      <trkpt lat="34.636821" lon="-117.281625">
        <ele>1124.796875</ele>
        <time>2018-01-27T22:21:20Z</time>
      </trkpt>
      <trkpt lat="34.636854" lon="-117.281666">
        <ele>1124.500000</ele>
        <time>2018-01-27T22:21:21Z</time>
      </trkpt>
      <trkpt lat="34.636892" lon="-117.281704">
        <ele>1124.500000</ele>
        <time>2018-01-27T22:21:22Z</time>
      </trkpt>
      <trkpt lat="34.636973" lon="-117.281773">
        <ele>1124.199219</ele>
        <time>2018-01-27T22:21:24Z</time>
      </trkpt>
      <trkpt lat="34.637016" lon="-117.281803">
        <ele>1124.097656</ele>
        <time>2018-01-27T22:21:25Z</time>
      </trkpt>
      <trkpt lat="34.637102" lon="-117.281853">
        <ele>1124.296875</ele>
        <time>2018-01-27T22:21:27Z</time>
      </trkpt>
      <trkpt lat="34.637147" lon="-117.281869">
        <ele>1124.796875</ele>
        <time>2018-01-27T22:21:29Z</time>
      </trkpt>
      <trkpt lat="34.63723" lon="-117.281878">
        <ele>1124.398438</ele>
        <time>2018-01-27T22:21:30Z</time>
      </trkpt>
      <trkpt lat="34.637272" lon="-117.281869">
        <ele>1124.398438</ele>
        <time>2018-01-27T22:21:32Z</time>
      </trkpt>
      <trkpt lat="34.637429" lon="-117.281823">
        <ele>1125.000000</ele>
        <time>2018-01-27T22:21:35Z</time>
      </trkpt>
      <trkpt lat="34.637461" lon="-117.281823">
        <ele>1125.500000</ele>
        <time>2018-01-27T22:21:38Z</time>
      </trkpt>
      <trkpt lat="34.637541" lon="-117.28187">
        <ele>1125.296875</ele>
        <time>2018-01-27T22:21:39Z</time>
      </trkpt>
      <trkpt lat="34.63757" lon="-117.281897">
        <ele>1125.296875</ele>
        <time>2018-01-27T22:21:41Z</time>
      </trkpt>
      <trkpt lat="34.637626" lon="-117.281965">
        <ele>1125.296875</ele>
        <time>2018-01-27T22:21:42Z</time>
      </trkpt>
      <trkpt lat="34.638134" lon="-117.28263">
        <ele>1124.796875</ele>
        <time>2018-01-27T22:21:59Z</time>
      </trkpt>
      <trkpt lat="34.638167" lon="-117.282661">
        <ele>1125.000000</ele>
        <time>2018-01-27T22:22:01Z</time>
      </trkpt>
      <trkpt lat="34.638242" lon="-117.282709">
        <ele>1125.199219</ele>
        <time>2018-01-27T22:22:02Z</time>
      </trkpt>
      <trkpt lat="34.638281" lon="-117.282719">
        <ele>1125.796875</ele>
        <time>2018-01-27T22:22:04Z</time>
      </trkpt>
      <trkpt lat="34.638354" lon="-117.282712">
        <ele>1126.000000</ele>
        <time>2018-01-27T22:22:05Z</time>
      </trkpt>
      <trkpt lat="34.638388" lon="-117.282704">
        <ele>1126.898438</ele>
        <time>2018-01-27T22:22:07Z</time>
      </trkpt>
      <trkpt lat="34.638487" lon="-117.282674">
        <ele>1127.398438</ele>
        <time>2018-01-27T22:22:09Z</time>
      </trkpt>
      <trkpt lat="34.638521" lon="-117.282663">
        <ele>1127.898438</ele>
        <time>2018-01-27T22:22:11Z</time>
      </trkpt>
      <trkpt lat="34.638591" lon="-117.282649">
        <ele>1128.296875</ele>
        <time>2018-01-27T22:22:12Z</time>
      </trkpt>
      <trkpt lat="34.638625" lon="-117.282654">
        <ele>1128.898438</ele>
        <time>2018-01-27T22:22:14Z</time>
      </trkpt>
      <trkpt lat="34.638695" lon="-117.282674">
        <ele>1129.000000</ele>
        <time>2018-01-27T22:22:15Z</time>
      </trkpt>
      <trkpt lat="34.638729" lon="-117.282693">
        <ele>1129.597656</ele>
        <time>2018-01-27T22:22:17Z</time>
      </trkpt>
      <trkpt lat="34.638791" lon="-117.282756">
        <ele>1129.796875</ele>
        <time>2018-01-27T22:22:18Z</time>
      </trkpt>
      <trkpt lat="34.638928" lon="-117.282913">
        <ele>1132.296875</ele>
        <time>2018-01-27T22:22:23Z</time>
      </trkpt>
      <trkpt lat="34.638949" lon="-117.282951">
        <ele>1132.898438</ele>
        <time>2018-01-27T22:22:25Z</time>
      </trkpt>
      <trkpt lat="34.63899" lon="-117.283029">
        <ele>1133.097656</ele>
        <time>2018-01-27T22:22:26Z</time>
      </trkpt>
      <trkpt lat="34.639004" lon="-117.283073">
        <ele>1132.898438</ele>
        <time>2018-01-27T22:22:28Z</time>
      </trkpt>
      <trkpt lat="34.639022" lon="-117.283172">
        <ele>1132.796875</ele>
        <time>2018-01-27T22:22:29Z</time>
      </trkpt>
      <trkpt lat="34.639048" lon="-117.28332">
        <ele>1132.097656</ele>
        <time>2018-01-27T22:22:32Z</time>
      </trkpt>
      <trkpt lat="34.639062" lon="-117.283369">
        <ele>1131.699219</ele>
        <time>2018-01-27T22:22:34Z</time>
      </trkpt>
      <trkpt lat="34.639104" lon="-117.283458">
        <ele>1131.597656</ele>
        <time>2018-01-27T22:22:35Z</time>
      </trkpt>
      <trkpt lat="34.639131" lon="-117.283499">
        <ele>1131.796875</ele>
        <time>2018-01-27T22:22:37Z</time>
      </trkpt>
      <trkpt lat="34.639192" lon="-117.283569">
        <ele>1131.597656</ele>
        <time>2018-01-27T22:22:38Z</time>
      </trkpt>
      <trkpt lat="34.63922" lon="-117.283599">
        <ele>1130.898438</ele>
        <time>2018-01-27T22:22:40Z</time>
      </trkpt>
      <trkpt lat="34.639274" lon="-117.283646">
        <ele>1130.597656</ele>
        <time>2018-01-27T22:22:41Z</time>
      </trkpt>
      <trkpt lat="34.639376" lon="-117.283726">
        <ele>1130.097656</ele>
        <time>2018-01-27T22:22:46Z</time>
      </trkpt>
      <trkpt lat="34.639493" lon="-117.283812">
        <ele>1129.500000</ele>
        <time>2018-01-27T22:22:53Z</time>
      </trkpt>
      <trkpt lat="34.639514" lon="-117.283867">
        <ele>1128.097656</ele>
        <time>2018-01-27T22:24:52Z</time>
      </trkpt>
      <trkpt lat="34.639514" lon="-117.283867">
        <ele>1128.097656</ele>
        <time>2018-01-27T22:24:52Z</time>
      </trkpt>
    </trkseg>
    <trkseg>
      <trkpt lat="34.639733" lon="-117.283954">
        <ele>1127.296875</ele>
        <time>2018-01-27T22:57:24Z</time>
      </trkpt>
      <trkpt lat="34.639879" lon="-117.283976">
        <ele>1127.097656</ele>
        <time>2018-01-27T22:57:30Z</time>
      </trkpt>
      <trkpt lat="34.639902" lon="-117.283976">
        <ele>1128.097656</ele>
        <time>2018-01-27T22:57:38Z</time>
      </trkpt>
      <trkpt lat="34.639986" lon="-117.283954">
        <ele>1128.597656</ele>
        <time>2018-01-27T22:57:39Z</time>
      </trkpt>
      <trkpt lat="34.640007" lon="-117.283944">
        <ele>1131.000000</ele>
        <time>2018-01-27T22:57:44Z</time>
      </trkpt>
      <trkpt lat="34.640074" lon="-117.283915">
        <ele>1131.500000</ele>
        <time>2018-01-27T22:57:46Z</time>
      </trkpt>
      <trkpt lat="34.640095" lon="-117.283916">
        <ele>1130.597656</ele>
        <time>2018-01-27T22:57:51Z</time>
      </trkpt>
      <trkpt lat="34.640177" lon="-117.283907">
        <ele>1130.296875</ele>
        <time>2018-01-27T22:57:52Z</time>
      </trkpt>
      <trkpt lat="34.640191" lon="-117.283904">
        <ele>1128.699219</ele>
        <time>2018-01-27T22:57:56Z</time>
      </trkpt>
      <trkpt lat="34.640336" lon="-117.283882">
        <ele>1127.199219</ele>
        <time>2018-01-27T22:58:00Z</time>
      </trkpt>
      <trkpt lat="34.640358" lon="-117.28388">
        <ele>1129.097656</ele>
        <time>2018-01-27T22:58:04Z</time>
      </trkpt>
      <trkpt lat="34.640438" lon="-117.283888">
        <ele>1129.699219</ele>
        <time>2018-01-27T22:58:05Z</time>
      </trkpt>
      <trkpt lat="34.640458" lon="-117.283891">
        <ele>1131.398438</ele>
        <time>2018-01-27T22:58:09Z</time>
      </trkpt>
      <trkpt lat="34.640535" lon="-117.283928">
        <ele>1131.500000</ele>
        <time>2018-01-27T22:58:10Z</time>
      </trkpt>
      <trkpt lat="34.640552" lon="-117.283944">
        <ele>1131.699219</ele>
        <time>2018-01-27T22:58:15Z</time>
      </trkpt>
      <trkpt lat="34.640571" lon="-117.28403">
        <ele>1131.000000</ele>
        <time>2018-01-27T22:58:17Z</time>
      </trkpt>
      <trkpt lat="34.640563" lon="-117.284053">
        <ele>1128.199219</ele>
        <time>2018-01-27T22:58:23Z</time>
      </trkpt>
      <trkpt lat="34.6405" lon="-117.284099">
        <ele>1127.500000</ele>
        <time>2018-01-27T22:58:24Z</time>
      </trkpt>
      <trkpt lat="34.64015" lon="-117.284333">
        <ele>1115.898438</ele>
        <time>2018-01-27T22:58:46Z</time>
      </trkpt>
      <trkpt lat="34.640133" lon="-117.28434">
        <ele>1115.000000</ele>
        <time>2018-01-27T22:58:51Z</time>
      </trkpt>
      <trkpt lat="34.640066" lon="-117.284386">
        <ele>1114.699219</ele>
        <time>2018-01-27T22:58:53Z</time>
      </trkpt>
      <trkpt lat="34.640053" lon="-117.284399">
        <ele>1111.699219</ele>
        <time>2018-01-27T22:58:59Z</time>
      </trkpt>
      <trkpt lat="34.640009" lon="-117.284483">
        <ele>1111.097656</ele>
        <time>2018-01-27T22:59:00Z</time>
      </trkpt>
      <trkpt lat="34.63986" lon="-117.284811">
        <ele>1107.097656</ele>
        <time>2018-01-27T22:59:17Z</time>
      </trkpt>
      <trkpt lat="34.639722" lon="-117.28514">
        <ele>1102.500000</ele>
        <time>2018-01-27T22:59:28Z</time>
      </trkpt>
      <trkpt lat="34.639711" lon="-117.285172">
        <ele>1100.000000</ele>
        <time>2018-01-27T22:59:31Z</time>
      </trkpt>
      <trkpt lat="34.639686" lon="-117.285273">
        <ele>1099.296875</ele>
        <time>2018-01-27T22:59:32Z</time>
      </trkpt>
      <trkpt lat="34.639489" lon="-117.286032">
        <ele>1090.199219</ele>
        <time>2018-01-27T22:59:52Z</time>
      </trkpt>
      <trkpt lat="34.639485" lon="-117.286074">
        <ele>1089.898438</ele>
        <time>2018-01-27T22:59:55Z</time>
      </trkpt>
      <trkpt lat="34.639446" lon="-117.286636">
        <ele>1089.000000</ele>
        <time>2018-01-27T23:00:08Z</time>
      </trkpt>
      <trkpt lat="34.639434" lon="-117.286688">
        <ele>1088.000000</ele>
        <time>2018-01-27T23:00:10Z</time>
      </trkpt>
      <trkpt lat="34.6394" lon="-117.286788">
        <ele>1087.097656</ele>
        <time>2018-01-27T23:00:11Z</time>
      </trkpt>
      <trkpt lat="34.639233" lon="-117.287271">
        <ele>1082.699219</ele>
        <time>2018-01-27T23:00:20Z</time>
      </trkpt>
      <trkpt lat="34.639204" lon="-117.287441">
        <ele>1081.000000</ele>
        <time>2018-01-27T23:00:23Z</time>
      </trkpt>
      <trkpt lat="34.639199" lon="-117.287559">
        <ele>1079.597656</ele>
        <time>2018-01-27T23:00:25Z</time>
      </trkpt>
      <trkpt lat="34.639204" lon="-117.287674">
        <ele>1078.398438</ele>
        <time>2018-01-27T23:00:27Z</time>
      </trkpt>
      <trkpt lat="34.639211" lon="-117.28773">
        <ele>1078.000000</ele>
        <time>2018-01-27T23:00:28Z</time>
      </trkpt>
      <trkpt lat="34.639239" lon="-117.287884">
        <ele>1076.398438</ele>
        <time>2018-01-27T23:00:31Z</time>
      </trkpt>
      <trkpt lat="34.639405" lon="-117.288611">
        <ele>1068.199219</ele>
        <time>2018-01-27T23:00:46Z</time>
      </trkpt>
      <trkpt lat="34.639416" lon="-117.288645">
        <ele>1067.000000</ele>
        <time>2018-01-27T23:00:49Z</time>
      </trkpt>
      <trkpt lat="34.639455" lon="-117.288724">
        <ele>1066.898438</ele>
        <time>2018-01-27T23:00:50Z</time>
      </trkpt>
      <trkpt lat="34.639468" lon="-117.288746">
        <ele>1065.097656</ele>
        <time>2018-01-27T23:00:53Z</time>
      </trkpt>
      <trkpt lat="34.639516" lon="-117.288814">
        <ele>1064.597656</ele>
        <time>2018-01-27T23:00:54Z</time>
      </trkpt>
      <trkpt lat="34.639541" lon="-117.288844">
        <ele>1063.597656</ele>
        <time>2018-01-27T23:00:56Z</time>
      </trkpt>
      <trkpt lat="34.639599" lon="-117.2889">
        <ele>1063.199219</ele>
        <time>2018-01-27T23:00:57Z</time>
      </trkpt>
      <trkpt lat="34.63963" lon="-117.288929">
        <ele>1062.199219</ele>
        <time>2018-01-27T23:00:59Z</time>
      </trkpt>
      <trkpt lat="34.639684" lon="-117.289008">
        <ele>1061.699219</ele>
        <time>2018-01-27T23:01:00Z</time>
      </trkpt>
      <trkpt lat="34.639702" lon="-117.289051">
        <ele>1060.898438</ele>
        <time>2018-01-27T23:01:02Z</time>
      </trkpt>
      <trkpt lat="34.640247" lon="-117.290439">
        <ele>1049.898438</ele>
        <time>2018-01-27T23:01:26Z</time>
      </trkpt>
      <trkpt lat="34.64027" lon="-117.2905">
        <ele>1049.199219</ele>
        <time>2018-01-27T23:01:27Z</time>
      </trkpt>
      <trkpt lat="34.640637" lon="-117.29142">
        <ele>1040.000000</ele>
        <time>2018-01-27T23:01:42Z</time>
      </trkpt>
      <trkpt lat="34.640876" lon="-117.29188">
        <ele>1034.398438</ele>
        <time>2018-01-27T23:01:50Z</time>
      </trkpt>
      <trkpt lat="34.640971" lon="-117.292055">
        <ele>1031.898438</ele>
        <time>2018-01-27T23:01:53Z</time>
      </trkpt>
      <trkpt lat="34.642476" lon="-117.295297">
        <ele>1006.898438</ele>
        <time>2018-01-27T23:02:39Z</time>
      </trkpt>
      <trkpt lat="34.642748" lon="-117.296068">
        <ele>1003.699219</ele>
        <time>2018-01-27T23:02:47Z</time>
      </trkpt>
      <trkpt lat="34.643146" lon="-117.2971">
        <ele>996.699219</ele>
        <time>2018-01-27T23:02:59Z</time>
      </trkpt>
      <trkpt lat="34.64325" lon="-117.297322">
        <ele>995.398438</ele>
        <time>2018-01-27T23:03:02Z</time>
      </trkpt>
      <trkpt lat="34.643272" lon="-117.297386">
        <ele>995.199219</ele>
        <time>2018-01-27T23:03:03Z</time>
      </trkpt>
      <trkpt lat="34.643338" lon="-117.297559">
        <ele>993.699219</ele>
        <time>2018-01-27T23:03:06Z</time>
      </trkpt>
      <trkpt lat="34.643498" lon="-117.297867">
        <ele>990.796875</ele>
        <time>2018-01-27T23:03:10Z</time>
      </trkpt>
      <trkpt lat="34.644534" lon="-117.299796">
        <ele>979.097656</ele>
        <time>2018-01-27T23:03:34Z</time>
      </trkpt>
      <trkpt lat="34.64465" lon="-117.300094">
        <ele>977.898438</ele>
        <time>2018-01-27T23:03:37Z</time>
      </trkpt>
      <trkpt lat="34.644886" lon="-117.300783">
        <ele>975.000000</ele>
        <time>2018-01-27T23:03:45Z</time>
      </trkpt>
      <trkpt lat="34.644923" lon="-117.300946">
        <ele>974.000000</ele>
        <time>2018-01-27T23:03:47Z</time>
      </trkpt>
      <trkpt lat="34.644996" lon="-117.301473">
        <ele>969.699219</ele>
        <time>2018-01-27T23:03:54Z</time>
      </trkpt>
      <trkpt lat="34.645174" lon="-117.302924">
        <ele>956.500000</ele>
        <time>2018-01-27T23:04:13Z</time>
      </trkpt>
      <trkpt lat="34.645238" lon="-117.304261">
        <ele>951.699219</ele>
        <time>2018-01-27T23:04:26Z</time>
      </trkpt>
      <trkpt lat="34.645232" lon="-117.304361">
        <ele>951.398438</ele>
        <time>2018-01-27T23:04:27Z</time>
      </trkpt>
      <trkpt lat="34.645221" lon="-117.304456">
        <ele>951.199219</ele>
        <time>2018-01-27T23:04:28Z</time>
      </trkpt>
      <trkpt lat="34.645207" lon="-117.304545">
        <ele>950.796875</ele>
        <time>2018-01-27T23:04:29Z</time>
      </trkpt>
      <trkpt lat="34.645172" lon="-117.304707">
        <ele>950.199219</ele>
        <time>2018-01-27T23:04:31Z</time>
      </trkpt>
      <trkpt lat="34.645129" lon="-117.304845">
        <ele>949.699219</ele>
        <time>2018-01-27T23:04:33Z</time>
      </trkpt>
      <trkpt lat="34.645078" lon="-117.304961">
        <ele>948.597656</ele>
        <time>2018-01-27T23:04:35Z</time>
      </trkpt>
      <trkpt lat="34.645049" lon="-117.305012">
        <ele>947.898438</ele>
        <time>2018-01-27T23:04:36Z</time>
      </trkpt>
      <trkpt lat="34.644671" lon="-117.305674">
        <ele>942.898438</ele>
        <time>2018-01-27T23:04:48Z</time>
      </trkpt>
      <trkpt lat="34.644447" lon="-117.306178">
        <ele>941.699219</ele>
        <time>2018-01-27T23:04:59Z</time>
      </trkpt>
      <trkpt lat="34.644439" lon="-117.3062">
        <ele>941.796875</ele>
        <time>2018-01-27T23:05:02Z</time>
      </trkpt>
      <trkpt lat="34.644381" lon="-117.306322">
        <ele>941.699219</ele>
        <time>2018-01-27T23:05:03Z</time>
      </trkpt>
      <trkpt lat="34.644216" lon="-117.306699">
        <ele>941.000000</ele>
        <time>2018-01-27T23:05:08Z</time>
      </trkpt>
      <trkpt lat="34.644193" lon="-117.306776">
        <ele>941.199219</ele>
        <time>2018-01-27T23:05:09Z</time>
      </trkpt>
      <trkpt lat="34.644177" lon="-117.306857">
        <ele>941.398438</ele>
        <time>2018-01-27T23:05:10Z</time>
      </trkpt>
      <trkpt lat="34.644154" lon="-117.307019">
        <ele>941.500000</ele>
        <time>2018-01-27T23:05:12Z</time>
      </trkpt>
      <trkpt lat="34.644133" lon="-117.307096">
        <ele>941.296875</ele>
        <time>2018-01-27T23:05:13Z</time>
      </trkpt>
      <trkpt lat="34.64411" lon="-117.307165">
        <ele>941.199219</ele>
        <time>2018-01-27T23:05:14Z</time>
      </trkpt>
      <trkpt lat="34.644082" lon="-117.307225">
        <ele>940.898438</ele>
        <time>2018-01-27T23:05:15Z</time>
      </trkpt>
      <trkpt lat="34.644051" lon="-117.307275">
        <ele>941.097656</ele>
        <time>2018-01-27T23:05:16Z</time>
      </trkpt>
      <trkpt lat="34.644031" lon="-117.307324">
        <ele>941.597656</ele>
        <time>2018-01-27T23:05:18Z</time>
      </trkpt>
      <trkpt lat="34.643919" lon="-117.307618">
        <ele>942.597656</ele>
        <time>2018-01-27T23:05:22Z</time>
      </trkpt>
      <trkpt lat="34.643884" lon="-117.307682">
        <ele>942.500000</ele>
        <time>2018-01-27T23:05:23Z</time>
      </trkpt>
      <trkpt lat="34.643844" lon="-117.307745">
        <ele>942.296875</ele>
        <time>2018-01-27T23:05:24Z</time>
      </trkpt>
      <trkpt lat="34.643795" lon="-117.30781">
        <ele>942.296875</ele>
        <time>2018-01-27T23:05:25Z</time>
      </trkpt>
      <trkpt lat="34.643681" lon="-117.307941">
        <ele>941.898438</ele>
        <time>2018-01-27T23:05:27Z</time>
      </trkpt>
      <trkpt lat="34.643475" lon="-117.308187">
        <ele>940.699219</ele>
        <time>2018-01-27T23:05:32Z</time>
      </trkpt>
      <trkpt lat="34.643456" lon="-117.308219">
        <ele>939.699219</ele>
        <time>2018-01-27T23:05:34Z</time>
      </trkpt>
      <trkpt lat="34.64342" lon="-117.308291">
        <ele>939.097656</ele>
        <time>2018-01-27T23:05:35Z</time>
      </trkpt>
      <trkpt lat="34.643401" lon="-117.308337">
        <ele>938.398438</ele>
        <time>2018-01-27T23:05:36Z</time>
      </trkpt>
      <trkpt lat="34.643381" lon="-117.308394">
        <ele>937.597656</ele>
        <time>2018-01-27T23:05:37Z</time>
      </trkpt>
      <trkpt lat="34.643363" lon="-117.308463">
        <ele>936.898438</ele>
        <time>2018-01-27T23:05:38Z</time>
      </trkpt>
      <trkpt lat="34.64335" lon="-117.308542">
        <ele>936.296875</ele>
        <time>2018-01-27T23:05:39Z</time>
      </trkpt>
      <trkpt lat="34.643337" lon="-117.308703">
        <ele>935.699219</ele>
        <time>2018-01-27T23:05:41Z</time>
      </trkpt>
      <trkpt lat="34.643287" lon="-117.309476">
        <ele>930.898438</ele>
        <time>2018-01-27T23:05:49Z</time>
      </trkpt>
      <trkpt lat="34.643298" lon="-117.30959">
        <ele>930.398438</ele>
        <time>2018-01-27T23:05:50Z</time>
      </trkpt>
      <trkpt lat="34.643316" lon="-117.309707">
        <ele>930.000000</ele>
        <time>2018-01-27T23:05:51Z</time>
      </trkpt>
      <trkpt lat="34.643341" lon="-117.309824">
        <ele>929.398438</ele>
        <time>2018-01-27T23:05:52Z</time>
      </trkpt>
      <trkpt lat="34.643404" lon="-117.310059">
        <ele>928.296875</ele>
        <time>2018-01-27T23:05:54Z</time>
      </trkpt>
      <trkpt lat="34.643523" lon="-117.310399">
        <ele>926.898438</ele>
        <time>2018-01-27T23:05:57Z</time>
      </trkpt>
      <trkpt lat="34.643687" lon="-117.310843">
        <ele>926.398438</ele>
        <time>2018-01-27T23:06:02Z</time>
      </trkpt>
      <trkpt lat="34.643705" lon="-117.310923">
        <ele>926.000000</ele>
        <time>2018-01-27T23:06:03Z</time>
      </trkpt>
      <trkpt lat="34.643715" lon="-117.311012">
        <ele>925.699219</ele>
        <time>2018-01-27T23:06:04Z</time>
      </trkpt>
      <trkpt lat="34.643719" lon="-117.311106">
        <ele>925.000000</ele>
        <time>2018-01-27T23:06:05Z</time>
      </trkpt>
      <trkpt lat="34.643714" lon="-117.311203">
        <ele>924.398438</ele>
        <time>2018-01-27T23:06:06Z</time>
      </trkpt>
      <trkpt lat="34.643666" lon="-117.311915">
        <ele>921.699219</ele>
        <time>2018-01-27T23:06:13Z</time>
      </trkpt>
      <trkpt lat="34.643676" lon="-117.312008">
        <ele>921.199219</ele>
        <time>2018-01-27T23:06:14Z</time>
      </trkpt>
      <trkpt lat="34.64383" lon="-117.313658">
        <ele>914.097656</ele>
        <time>2018-01-27T23:06:30Z</time>
      </trkpt>
      <trkpt lat="34.64383" lon="-117.314643">
        <ele>910.199219</ele>
        <time>2018-01-27T23:06:39Z</time>
      </trkpt>
      <trkpt lat="34.643844" lon="-117.314744">
        <ele>909.500000</ele>
        <time>2018-01-27T23:06:40Z</time>
      </trkpt>
      <trkpt lat="34.643864" lon="-117.314846">
        <ele>909.000000</ele>
        <time>2018-01-27T23:06:41Z</time>
      </trkpt>
      <trkpt lat="34.643893" lon="-117.314954">
        <ele>908.398438</ele>
        <time>2018-01-27T23:06:42Z</time>
      </trkpt>
      <trkpt lat="34.644222" lon="-117.316146">
        <ele>903.296875</ele>
        <time>2018-01-27T23:06:53Z</time>
      </trkpt>
      <trkpt lat="34.644241" lon="-117.316245">
        <ele>903.000000</ele>
        <time>2018-01-27T23:06:54Z</time>
      </trkpt>
      <trkpt lat="34.644257" lon="-117.316348">
        <ele>902.597656</ele>
        <time>2018-01-27T23:06:55Z</time>
      </trkpt>
      <trkpt lat="34.644278" lon="-117.316563">
        <ele>901.398438</ele>
        <time>2018-01-27T23:06:57Z</time>
      </trkpt>
      <trkpt lat="34.644317" lon="-117.31735">
        <ele>897.296875</ele>
        <time>2018-01-27T23:07:04Z</time>
      </trkpt>
      <trkpt lat="34.644315" lon="-117.31767">
        <ele>895.097656</ele>
        <time>2018-01-27T23:07:07Z</time>
      </trkpt>
      <trkpt lat="34.644326" lon="-117.317776">
        <ele>894.296875</ele>
        <time>2018-01-27T23:07:08Z</time>
      </trkpt>
      <trkpt lat="34.644391" lon="-117.318236">
        <ele>892.398438</ele>
        <time>2018-01-27T23:07:12Z</time>
      </trkpt>
      <trkpt lat="34.644662" lon="-117.319707">
        <ele>885.597656</ele>
        <time>2018-01-27T23:07:25Z</time>
      </trkpt>
      <trkpt lat="34.64478" lon="-117.320146">
        <ele>883.898438</ele>
        <time>2018-01-27T23:07:29Z</time>
      </trkpt>
      <trkpt lat="34.644799" lon="-117.32025">
        <ele>883.398438</ele>
        <time>2018-01-27T23:07:30Z</time>
      </trkpt>
      <trkpt lat="34.644808" lon="-117.320356">
        <ele>882.898438</ele>
        <time>2018-01-27T23:07:31Z</time>
      </trkpt>
      <trkpt lat="34.644886" lon="-117.321338">
        <ele>878.796875</ele>
        <time>2018-01-27T23:07:39Z</time>
      </trkpt>
      <trkpt lat="34.645105" lon="-117.322925">
        <ele>872.597656</ele>
        <time>2018-01-27T23:07:51Z</time>
      </trkpt>
      <trkpt lat="34.645164" lon="-117.323152">
        <ele>871.597656</ele>
        <time>2018-01-27T23:07:53Z</time>
      </trkpt>
      <trkpt lat="34.645203" lon="-117.323259">
        <ele>871.097656</ele>
        <time>2018-01-27T23:07:54Z</time>
      </trkpt>
      <trkpt lat="34.6454" lon="-117.323819">
        <ele>868.898438</ele>
        <time>2018-01-27T23:07:59Z</time>
      </trkpt>
      <trkpt lat="34.64543" lon="-117.32394">
        <ele>868.500000</ele>
        <time>2018-01-27T23:08:00Z</time>
      </trkpt>
      <trkpt lat="34.645935" lon="-117.326087">
        <ele>860.296875</ele>
        <time>2018-01-27T23:08:17Z</time>
      </trkpt>
      <trkpt lat="34.646123" lon="-117.326712">
        <ele>857.699219</ele>
        <time>2018-01-27T23:08:22Z</time>
      </trkpt>
      <trkpt lat="34.646145" lon="-117.326832">
        <ele>857.199219</ele>
        <time>2018-01-27T23:08:23Z</time>
      </trkpt>
      <trkpt lat="34.646241" lon="-117.327438">
        <ele>854.898438</ele>
        <time>2018-01-27T23:08:28Z</time>
      </trkpt>
      <trkpt lat="34.646275" lon="-117.327562">
        <ele>854.500000</ele>
        <time>2018-01-27T23:08:29Z</time>
      </trkpt>
      <trkpt lat="34.646358" lon="-117.32781">
        <ele>853.500000</ele>
        <time>2018-01-27T23:08:31Z</time>
      </trkpt>
      <trkpt lat="34.646557" lon="-117.328291">
        <ele>851.597656</ele>
        <time>2018-01-27T23:08:35Z</time>
      </trkpt>
      <trkpt lat="34.647181" lon="-117.329865">
        <ele>844.597656</ele>
        <time>2018-01-27T23:08:48Z</time>
      </trkpt>
      <trkpt lat="34.647216" lon="-117.329973">
        <ele>844.199219</ele>
        <time>2018-01-27T23:08:49Z</time>
      </trkpt>
      <trkpt lat="34.647531" lon="-117.331021">
        <ele>839.699219</ele>
        <time>2018-01-27T23:08:59Z</time>
      </trkpt>
      <trkpt lat="34.648513" lon="-117.333574">
        <ele>828.398438</ele>
        <time>2018-01-27T23:09:22Z</time>
      </trkpt>
      <trkpt lat="34.648541" lon="-117.333685">
        <ele>828.000000</ele>
        <time>2018-01-27T23:09:23Z</time>
      </trkpt>
      <trkpt lat="34.648562" lon="-117.333794">
        <ele>827.699219</ele>
        <time>2018-01-27T23:09:24Z</time>
      </trkpt>
      <trkpt lat="34.648576" lon="-117.3339">
        <ele>827.199219</ele>
        <time>2018-01-27T23:09:25Z</time>
      </trkpt>
      <trkpt lat="34.64859" lon="-117.334113">
        <ele>826.296875</ele>
        <time>2018-01-27T23:09:27Z</time>
      </trkpt>
      <trkpt lat="34.648592" lon="-117.334343">
        <ele>825.097656</ele>
        <time>2018-01-27T23:09:29Z</time>
      </trkpt>
      <trkpt lat="34.648574" lon="-117.334913">
        <ele>822.796875</ele>
        <time>2018-01-27T23:09:34Z</time>
      </trkpt>
      <trkpt lat="34.648597" lon="-117.33514">
        <ele>821.898438</ele>
        <time>2018-01-27T23:09:36Z</time>
      </trkpt>
      <trkpt lat="34.64864" lon="-117.33558">
        <ele>820.000000</ele>
        <time>2018-01-27T23:09:40Z</time>
      </trkpt>
      <trkpt lat="34.648639" lon="-117.336261">
        <ele>817.097656</ele>
        <time>2018-01-27T23:09:49Z</time>
      </trkpt>
      <trkpt lat="34.648645" lon="-117.336304">
        <ele>816.199219</ele>
        <time>2018-01-27T23:09:51Z</time>
      </trkpt>
      <trkpt lat="34.648689" lon="-117.336367">
        <ele>816.796875</ele>
        <time>2018-01-27T23:09:52Z</time>
      </trkpt>
      <trkpt lat="34.648713" lon="-117.336377">
        <ele>817.199219</ele>
        <time>2018-01-27T23:09:54Z</time>
      </trkpt>
      <trkpt lat="34.648788" lon="-117.336368">
        <ele>817.500000</ele>
        <time>2018-01-27T23:09:55Z</time>
      </trkpt>
      <trkpt lat="34.648836" lon="-117.336344">
        <ele>818.097656</ele>
        <time>2018-01-27T23:09:56Z</time>
      </trkpt>
      <trkpt lat="34.649727" lon="-117.335911">
        <ele>821.898438</ele>
        <time>2018-01-27T23:10:15Z</time>
      </trkpt>
      <trkpt lat="34.649749" lon="-117.335902">
        <ele>822.097656</ele>
        <time>2018-01-27T23:10:46Z</time>
      </trkpt>
      <trkpt lat="34.649617" lon="-117.335974">
        <ele>822.500000</ele>
        <time>2018-01-27T23:10:47Z</time>
      </trkpt>
      <trkpt lat="34.648816" lon="-117.336344">
        <ele>817.296875</ele>
        <time>2018-01-27T23:11:05Z</time>
      </trkpt>
      <trkpt lat="34.648779" lon="-117.336372">
        <ele>816.898438</ele>
        <time>2018-01-27T23:11:07Z</time>
      </trkpt>
      <trkpt lat="34.648726" lon="-117.336445">
        <ele>816.500000</ele>
        <time>2018-01-27T23:11:08Z</time>
      </trkpt>
      <trkpt lat="34.648709" lon="-117.336492">
        <ele>816.097656</ele>
        <time>2018-01-27T23:11:10Z</time>
      </trkpt>
      <trkpt lat="34.648697" lon="-117.336598">
        <ele>815.796875</ele>
        <time>2018-01-27T23:11:11Z</time>
      </trkpt>
      <trkpt lat="34.648698" lon="-117.336654">
        <ele>815.597656</ele>
        <time>2018-01-27T23:11:12Z</time>
      </trkpt>
      <trkpt lat="34.64871" lon="-117.336773">
        <ele>815.199219</ele>
        <time>2018-01-27T23:11:14Z</time>
      </trkpt>
      <trkpt lat="34.648802" lon="-117.337481">
        <ele>812.699219</ele>
        <time>2018-01-27T23:11:25Z</time>
      </trkpt>
      <trkpt lat="34.648841" lon="-117.338222">
        <ele>810.296875</ele>
        <time>2018-01-27T23:11:40Z</time>
      </trkpt>
      <trkpt lat="34.648843" lon="-117.338223">
        <ele>810.199219</ele>
        <time>2018-01-27T23:11:42Z</time>
      </trkpt>
      <trkpt lat="34.648843" lon="-117.338223">
        <ele>810.199219</ele>
        <time>2018-01-27T23:11:42Z</time>
      </trkpt>
    </trkseg>
</trk>

  <wpt lat="34.717794" lon="-117.259938">
    <time>2018-01-27T18:50:25Z</time>
    <name>dead bunny hill</name>
    <ele>948</ele>
    <sym>STEEP_DROP</sym>
    <cmt></cmt>
    <desc></desc>
    <type>Waypoint</type>
    <extensions>
      <mgn:extensions xmlns:mgn="http://www.magellangps.com/mgnext/0/2">
        <mgn:trkptid>34.717819,-117.259943,2</mgn:trkptid>
        <mgn:uuid>fcf32773-1708-435f-b35c-d30a70a8d19c</mgn:uuid>
        <mgn:trkuuid>d7a0edc0-43c2-472e-a7ba-f9d120e3df8c</mgn:trkuuid>
        <mgn:proplist>
          <mgn:prop key="DIRT"></mgn:prop>
          <mgn:prop key="T_MUD"></mgn:prop>
          <mgn:prop key="T_SAND"></mgn:prop>
          <mgn:prop key="T_SNOW"></mgn:prop>
          <mgn:prop key="T_ROCK"></mgn:prop>
          <mgn:prop key="T_WATER"></mgn:prop>
        </mgn:proplist>
      </mgn:extensions>
    </extensions>
  </wpt>
</gpx>